<?xml version='1.0' encoding='UTF-8'?><gpx version="1.1" creator="JPX - https://github.com/jenetics/jpx" xmlns="http://www.topografix.com/GPX/1/1"><trk><trkseg><trkpt lat="45.0119512" lon="9.2518151"><ele>135.99999999999997</ele><time>2026-05-02T06:41:34.44Z</time></trkpt><trkpt lat="45.0118816" lon="9.2517998"><ele>136.0</ele><time>2026-05-02T06:41:43.438Z</time></trkpt><trkpt lat="45.0118164" lon="9.2518145"><ele>136.0</ele><time>2026-05-02T06:41:47.441Z</time></trkpt><trkpt lat="45.0117564" lon="9.2518583"><ele>136.0</ele><time>2026-05-02T06:41:50.444Z</time></trkpt><trkpt lat="45.011695" lon="9.2519355"><ele>136.0</ele><time>2026-05-02T06:41:53.472Z</time></trkpt><trkpt lat="45.0116811" lon="9.252028"><ele>135.99999999999997</ele><time>2026-05-02T06:41:56.434Z</time></trkpt><trkpt lat="45.0116504" lon="9.252116"><ele>136.0</ele><time>2026-05-02T06:41:59.441Z</time></trkpt><trkpt lat="45.0115839" lon="9.2521591"><ele>136.16666666666669</ele><time>2026-05-02T06:42:02.449Z</time></trkpt><trkpt lat="45.0115147" lon="9.252215"><ele>136.33333333333334</ele><time>2026-05-02T06:42:05.515Z</time></trkpt><trkpt lat="45.0114465" lon="9.2522636"><ele>136.5</ele><time>2026-05-02T06:42:08.439Z</time></trkpt><trkpt lat="45.0113779" lon="9.2523197"><ele>136.66666666666666</ele><time>2026-05-02T06:42:11.446Z</time></trkpt><trkpt lat="45.0112995" lon="9.2523073"><ele>136.83333333333331</ele><time>2026-05-02T06:42:14.435Z</time></trkpt><trkpt lat="45.0112525" lon="9.2522181"><ele>137.0</ele><time>2026-05-02T06:42:17.446Z</time></trkpt><trkpt lat="45.0112139" lon="9.2521103"><ele>137.0</ele><time>2026-05-02T06:42:20.439Z</time></trkpt><trkpt lat="45.0111967" lon="9.2519922"><ele>137.0</ele><time>2026-05-02T06:42:23.447Z</time></trkpt><trkpt lat="45.0112071" lon="9.2518997"><ele>137.0</ele><time>2026-05-02T06:42:25.448Z</time></trkpt><trkpt lat="45.011223" lon="9.2518091"><ele>137.0</ele><time>2026-05-02T06:42:27.445Z</time></trkpt><trkpt lat="45.011262" lon="9.2516973"><ele>137.0</ele><time>2026-05-02T06:42:30.445Z</time></trkpt><trkpt lat="45.0112996" lon="9.251612"><ele>137.0</ele><time>2026-05-02T06:42:32.446Z</time></trkpt><trkpt lat="45.0113443" lon="9.2514988"><ele>137.33333333333331</ele><time>2026-05-02T06:42:35.441Z</time></trkpt><trkpt lat="45.0113777" lon="9.2514128"><ele>137.66666666666666</ele><time>2026-05-02T06:42:37.438Z</time></trkpt><trkpt lat="45.0114187" lon="9.2512937"><ele>138.0</ele><time>2026-05-02T06:42:40.445Z</time></trkpt><trkpt lat="45.0114498" lon="9.2512128"><ele>138.33333333333334</ele><time>2026-05-02T06:42:42.44Z</time></trkpt><trkpt lat="45.0114904" lon="9.2511396"><ele>138.66666666666669</ele><time>2026-05-02T06:42:44.443Z</time></trkpt><trkpt lat="45.0115241" lon="9.2510546"><ele>139.0</ele><time>2026-05-02T06:42:46.438Z</time></trkpt><trkpt lat="45.0115786" lon="9.250949"><ele>139.0</ele><time>2026-05-02T06:42:49.443Z</time></trkpt><trkpt lat="45.0116206" lon="9.2508381"><ele>139.0</ele><time>2026-05-02T06:42:52.442Z</time></trkpt><trkpt lat="45.0116293" lon="9.2507468"><ele>139.0</ele><time>2026-05-02T06:42:54.449Z</time></trkpt><trkpt lat="45.0116179" lon="9.250629"><ele>139.0</ele><time>2026-05-02T06:42:57.442Z</time></trkpt><trkpt lat="45.0115884" lon="9.2505249"><ele>139.0</ele><time>2026-05-02T06:43:00.442Z</time></trkpt><trkpt lat="45.0115644" lon="9.2504387"><ele>139.0</ele><time>2026-05-02T06:43:02.454Z</time></trkpt><trkpt lat="45.0115383" lon="9.2503532"><ele>139.0</ele><time>2026-05-02T06:43:04.442Z</time></trkpt><trkpt lat="45.0115032" lon="9.2502367"><ele>140.16666666666669</ele><time>2026-05-02T06:43:07.444Z</time></trkpt><trkpt lat="45.0114666" lon="9.2501103"><ele>141.33333333333334</ele><time>2026-05-02T06:43:10.442Z</time></trkpt><trkpt lat="45.0114442" lon="9.2500264"><ele>142.5</ele><time>2026-05-02T06:43:12.438Z</time></trkpt><trkpt lat="45.0114177" lon="9.2499413"><ele>143.66666666666666</ele><time>2026-05-02T06:43:14.44Z</time></trkpt><trkpt lat="45.0113889" lon="9.2498213"><ele>144.83333333333331</ele><time>2026-05-02T06:43:17.444Z</time></trkpt><trkpt lat="45.0113577" lon="9.2496974"><ele>146.0</ele><time>2026-05-02T06:43:20.453Z</time></trkpt><trkpt lat="45.011331" lon="9.2496107"><ele>147.16666666666666</ele><time>2026-05-02T06:43:22.442Z</time></trkpt><trkpt lat="45.0113062" lon="9.2495262"><ele>148.33333333333331</ele><time>2026-05-02T06:43:24.443Z</time></trkpt><trkpt lat="45.0112731" lon="9.2494386"><ele>149.5</ele><time>2026-05-02T06:43:26.443Z</time></trkpt><trkpt lat="45.0112462" lon="9.2493545"><ele>150.66666666666666</ele><time>2026-05-02T06:43:28.45Z</time></trkpt><trkpt lat="45.0112098" lon="9.2492359"><ele>151.83333333333334</ele><time>2026-05-02T06:43:31.508Z</time></trkpt><trkpt lat="45.0111677" lon="9.249116"><ele>153.0</ele><time>2026-05-02T06:43:34.446Z</time></trkpt><trkpt lat="45.0111291" lon="9.2489892"><ele>154.0</ele><time>2026-05-02T06:43:37.441Z</time></trkpt><trkpt lat="45.0111046" lon="9.2489065"><ele>155.0</ele><time>2026-05-02T06:43:39.441Z</time></trkpt><trkpt lat="45.0110814" lon="9.2488214"><ele>156.0</ele><time>2026-05-02T06:43:41.43Z</time></trkpt><trkpt lat="45.0110359" lon="9.2487155"><ele>157.0</ele><time>2026-05-02T06:43:44.447Z</time></trkpt><trkpt lat="45.0110027" lon="9.248594"><ele>158.0</ele><time>2026-05-02T06:43:47.432Z</time></trkpt><trkpt lat="45.0109767" lon="9.2485067"><ele>159.0</ele><time>2026-05-02T06:43:49.446Z</time></trkpt><trkpt lat="45.010956" lon="9.2484226"><ele>160.0</ele><time>2026-05-02T06:43:51.445Z</time></trkpt><trkpt lat="45.0109358" lon="9.2483363"><ele>160.0</ele><time>2026-05-02T06:43:53.441Z</time></trkpt><trkpt lat="45.0109075" lon="9.2482558"><ele>160.0</ele><time>2026-05-02T06:43:55.435Z</time></trkpt><trkpt lat="45.010884" lon="9.2481705"><ele>160.0</ele><time>2026-05-02T06:43:57.443Z</time></trkpt><trkpt lat="45.0108473" lon="9.2480512"><ele>160.0</ele><time>2026-05-02T06:44:00.446Z</time></trkpt><trkpt lat="45.0108167" lon="9.247972"><ele>160.0</ele><time>2026-05-02T06:44:02.445Z</time></trkpt><trkpt lat="45.0107785" lon="9.2478481"><ele>160.0</ele><time>2026-05-02T06:44:05.444Z</time></trkpt><trkpt lat="45.0107426" lon="9.247721"><ele>159.71428571428572</ele><time>2026-05-02T06:44:08.447Z</time></trkpt><trkpt lat="45.0107151" lon="9.2476347"><ele>159.42857142857144</ele><time>2026-05-02T06:44:10.449Z</time></trkpt><trkpt lat="45.0106847" lon="9.2475508"><ele>159.14285714285717</ele><time>2026-05-02T06:44:12.444Z</time></trkpt><trkpt lat="45.0106593" lon="9.2474585"><ele>158.85714285714286</ele><time>2026-05-02T06:44:14.441Z</time></trkpt><trkpt lat="45.0106328" lon="9.2473684"><ele>158.57142857142858</ele><time>2026-05-02T06:44:16.449Z</time></trkpt><trkpt lat="45.0106035" lon="9.2472779"><ele>158.2857142857143</ele><time>2026-05-02T06:44:18.439Z</time></trkpt><trkpt lat="45.010579" lon="9.247188"><ele>158.0</ele><time>2026-05-02T06:44:20.442Z</time></trkpt><trkpt lat="45.0105548" lon="9.2470999"><ele>159.00000000000003</ele><time>2026-05-02T06:44:22.441Z</time></trkpt><trkpt lat="45.0105171" lon="9.2469745"><ele>160.0</ele><time>2026-05-02T06:44:25.449Z</time></trkpt><trkpt lat="45.0104891" lon="9.2468847"><ele>161.0</ele><time>2026-05-02T06:44:27.451Z</time></trkpt><trkpt lat="45.010464" lon="9.2467999"><ele>162.0</ele><time>2026-05-02T06:44:29.439Z</time></trkpt><trkpt lat="45.0104367" lon="9.2467179"><ele>163.0</ele><time>2026-05-02T06:44:31.437Z</time></trkpt><trkpt lat="45.0104027" lon="9.2466231"><ele>164.00000000000003</ele><time>2026-05-02T06:44:33.446Z</time></trkpt><trkpt lat="45.0103809" lon="9.2465348"><ele>165.0</ele><time>2026-05-02T06:44:35.438Z</time></trkpt><trkpt lat="45.0103543" lon="9.246441"><ele>165.71428571428572</ele><time>2026-05-02T06:44:37.442Z</time></trkpt><trkpt lat="45.0103318" lon="9.2463499"><ele>166.42857142857144</ele><time>2026-05-02T06:44:39.445Z</time></trkpt><trkpt lat="45.0103081" lon="9.246253"><ele>167.14285714285717</ele><time>2026-05-02T06:44:41.439Z</time></trkpt><trkpt lat="45.0102895" lon="9.2461574"><ele>167.85714285714286</ele><time>2026-05-02T06:44:43.441Z</time></trkpt><trkpt lat="45.0102766" lon="9.2460579"><ele>168.57142857142856</ele><time>2026-05-02T06:44:45.436Z</time></trkpt><trkpt lat="45.0102649" lon="9.2459596"><ele>169.2857142857143</ele><time>2026-05-02T06:44:47.443Z</time></trkpt><trkpt lat="45.0102538" lon="9.2458602"><ele>170.0</ele><time>2026-05-02T06:44:49.444Z</time></trkpt><trkpt lat="45.0102472" lon="9.2457595"><ele>170.0</ele><time>2026-05-02T06:44:51.448Z</time></trkpt><trkpt lat="45.0102397" lon="9.2456596"><ele>170.0</ele><time>2026-05-02T06:44:53.442Z</time></trkpt><trkpt lat="45.0102312" lon="9.2455523"><ele>170.0</ele><time>2026-05-02T06:44:55.449Z</time></trkpt><trkpt lat="45.0102247" lon="9.2454446"><ele>170.0</ele><time>2026-05-02T06:44:57.449Z</time></trkpt><trkpt lat="45.0102115" lon="9.2453418"><ele>170.0</ele><time>2026-05-02T06:44:59.442Z</time></trkpt><trkpt lat="45.0101961" lon="9.2452503"><ele>170.0</ele><time>2026-05-02T06:45:01.443Z</time></trkpt><trkpt lat="45.0101916" lon="9.2451545"><ele>170.0</ele><time>2026-05-02T06:45:03.524Z</time></trkpt><trkpt lat="45.0101881" lon="9.2450519"><ele>170.71428571428572</ele><time>2026-05-02T06:45:05.445Z</time></trkpt><trkpt lat="45.0101787" lon="9.2449585"><ele>171.42857142857142</ele><time>2026-05-02T06:45:07.446Z</time></trkpt><trkpt lat="45.0101662" lon="9.2448506"><ele>172.14285714285714</ele><time>2026-05-02T06:45:09.44Z</time></trkpt><trkpt lat="45.0101554" lon="9.2447517"><ele>172.85714285714286</ele><time>2026-05-02T06:45:11.441Z</time></trkpt><trkpt lat="45.0101538" lon="9.2446505"><ele>173.57142857142856</ele><time>2026-05-02T06:45:13.44Z</time></trkpt><trkpt lat="45.010149" lon="9.2445545"><ele>174.28571428571428</ele><time>2026-05-02T06:45:15.432Z</time></trkpt><trkpt lat="45.0101472" lon="9.2444564"><ele>175.0</ele><time>2026-05-02T06:45:17.528Z</time></trkpt><trkpt lat="45.0101435" lon="9.244365"><ele>175.85714285714286</ele><time>2026-05-02T06:45:19.442Z</time></trkpt><trkpt lat="45.0101289" lon="9.2442632"><ele>176.71428571428572</ele><time>2026-05-02T06:45:21.444Z</time></trkpt><trkpt lat="45.0101212" lon="9.2441566"><ele>177.57142857142856</ele><time>2026-05-02T06:45:23.446Z</time></trkpt><trkpt lat="45.0101062" lon="9.2440606"><ele>178.42857142857144</ele><time>2026-05-02T06:45:25.435Z</time></trkpt><trkpt lat="45.0100955" lon="9.2439577"><ele>179.28571428571428</ele><time>2026-05-02T06:45:27.446Z</time></trkpt><trkpt lat="45.0100856" lon="9.2438672"><ele>180.14285714285714</ele><time>2026-05-02T06:45:29.506Z</time></trkpt><trkpt lat="45.0100741" lon="9.2437709"><ele>181.0</ele><time>2026-05-02T06:45:31.443Z</time></trkpt><trkpt lat="45.0100672" lon="9.24367"><ele>181.57142857142856</ele><time>2026-05-02T06:45:33.448Z</time></trkpt><trkpt lat="45.01006" lon="9.2435675"><ele>182.14285714285714</ele><time>2026-05-02T06:45:35.438Z</time></trkpt><trkpt lat="45.0100506" lon="9.2434657"><ele>182.71428571428572</ele><time>2026-05-02T06:45:37.441Z</time></trkpt><trkpt lat="45.0100414" lon="9.2433641"><ele>183.28571428571428</ele><time>2026-05-02T06:45:39.441Z</time></trkpt><trkpt lat="45.0100265" lon="9.2432747"><ele>183.85714285714286</ele><time>2026-05-02T06:45:41.439Z</time></trkpt><trkpt lat="45.0100149" lon="9.2431751"><ele>184.42857142857142</ele><time>2026-05-02T06:45:43.443Z</time></trkpt><trkpt lat="45.0100048" lon="9.2430779"><ele>185.0</ele><time>2026-05-02T06:45:45.444Z</time></trkpt><trkpt lat="45.0099916" lon="9.2429733"><ele>184.99999999999997</ele><time>2026-05-02T06:45:47.444Z</time></trkpt><trkpt lat="45.0099785" lon="9.2428659"><ele>185.0</ele><time>2026-05-02T06:45:49.437Z</time></trkpt><trkpt lat="45.0099756" lon="9.2427706"><ele>185.0</ele><time>2026-05-02T06:45:51.445Z</time></trkpt><trkpt lat="45.0099747" lon="9.2426676"><ele>185.0</ele><time>2026-05-02T06:45:53.443Z</time></trkpt><trkpt lat="45.0099765" lon="9.2425619"><ele>185.0</ele><time>2026-05-02T06:45:55.439Z</time></trkpt><trkpt lat="45.009978" lon="9.2424646"><ele>184.99999999999997</ele><time>2026-05-02T06:45:57.435Z</time></trkpt><trkpt lat="45.009973" lon="9.242365"><ele>185.0</ele><time>2026-05-02T06:45:59.431Z</time></trkpt><trkpt lat="45.0099691" lon="9.2422657"><ele>186.16666666666666</ele><time>2026-05-02T06:46:01.441Z</time></trkpt><trkpt lat="45.0099626" lon="9.24217"><ele>187.33333333333331</ele><time>2026-05-02T06:46:03.439Z</time></trkpt><trkpt lat="45.0099461" lon="9.2420739"><ele>188.5</ele><time>2026-05-02T06:46:05.441Z</time></trkpt><trkpt lat="45.0099016" lon="9.2419706"><ele>189.66666666666666</ele><time>2026-05-02T06:46:07.437Z</time></trkpt><trkpt lat="45.0098554" lon="9.2418855"><ele>190.83333333333334</ele><time>2026-05-02T06:46:09.433Z</time></trkpt><trkpt lat="45.0098006" lon="9.2417869"><ele>192.0</ele><time>2026-05-02T06:46:12.439Z</time></trkpt><trkpt lat="45.0097567" lon="9.2417221"><ele>191.99999999999997</ele><time>2026-05-02T06:46:14.44Z</time></trkpt><trkpt lat="45.0097031" lon="9.2416468"><ele>192.0</ele><time>2026-05-02T06:46:16.435Z</time></trkpt><trkpt lat="45.0096492" lon="9.2415633"><ele>192.0</ele><time>2026-05-02T06:46:18.44Z</time></trkpt><trkpt lat="45.009598" lon="9.24149"><ele>192.0</ele><time>2026-05-02T06:46:20.455Z</time></trkpt><trkpt lat="45.0095596" lon="9.2414134"><ele>192.0</ele><time>2026-05-02T06:46:22.442Z</time></trkpt><trkpt lat="45.0095184" lon="9.2413397"><ele>191.99999999999997</ele><time>2026-05-02T06:46:24.434Z</time></trkpt><trkpt lat="45.0094746" lon="9.2412417"><ele>192.0</ele><time>2026-05-02T06:46:26.445Z</time></trkpt><trkpt lat="45.0094282" lon="9.2411468"><ele>193.16666666666666</ele><time>2026-05-02T06:46:28.447Z</time></trkpt><trkpt lat="45.0093856" lon="9.2410599"><ele>194.33333333333331</ele><time>2026-05-02T06:46:30.522Z</time></trkpt><trkpt lat="45.0093453" lon="9.2409722"><ele>195.5</ele><time>2026-05-02T06:46:32.45Z</time></trkpt><trkpt lat="45.0093025" lon="9.240876"><ele>196.66666666666666</ele><time>2026-05-02T06:46:34.439Z</time></trkpt><trkpt lat="45.0092545" lon="9.2407878"><ele>197.83333333333331</ele><time>2026-05-02T06:46:36.445Z</time></trkpt><trkpt lat="45.009207" lon="9.2406959"><ele>199.0</ele><time>2026-05-02T06:46:38.44Z</time></trkpt><trkpt lat="45.0091567" lon="9.2406196"><ele>199.85714285714283</ele><time>2026-05-02T06:46:40.444Z</time></trkpt><trkpt lat="45.0091002" lon="9.2405419"><ele>200.71428571428572</ele><time>2026-05-02T06:46:42.444Z</time></trkpt><trkpt lat="45.0090504" lon="9.2404659"><ele>201.57142857142856</ele><time>2026-05-02T06:46:44.448Z</time></trkpt><trkpt lat="45.0089986" lon="9.2403964"><ele>202.42857142857142</ele><time>2026-05-02T06:46:46.45Z</time></trkpt><trkpt lat="45.008946" lon="9.240324"><ele>203.28571428571428</ele><time>2026-05-02T06:46:48.44Z</time></trkpt><trkpt lat="45.0088834" lon="9.2402577"><ele>204.14285714285714</ele><time>2026-05-02T06:46:50.444Z</time></trkpt><trkpt lat="45.0088332" lon="9.2401891"><ele>205.0</ele><time>2026-05-02T06:46:52.434Z</time></trkpt><trkpt lat="45.008775" lon="9.2401217"><ele>205.0</ele><time>2026-05-02T06:46:54.452Z</time></trkpt><trkpt lat="45.0087198" lon="9.2400588"><ele>205.0</ele><time>2026-05-02T06:46:56.44Z</time></trkpt><trkpt lat="45.0086653" lon="9.2399991"><ele>205.0</ele><time>2026-05-02T06:46:58.441Z</time></trkpt><trkpt lat="45.008607" lon="9.239939"><ele>205.0</ele><time>2026-05-02T06:47:00.451Z</time></trkpt><trkpt lat="45.0085468" lon="9.2398752"><ele>205.0</ele><time>2026-05-02T06:47:02.442Z</time></trkpt><trkpt lat="45.0084993" lon="9.2397951"><ele>205.0</ele><time>2026-05-02T06:47:04.443Z</time></trkpt><trkpt lat="45.0084801" lon="9.2396817"><ele>205.0</ele><time>2026-05-02T06:47:06.444Z</time></trkpt><trkpt lat="45.0084829" lon="9.2395772"><ele>206.42857142857144</ele><time>2026-05-02T06:47:08.444Z</time></trkpt><trkpt lat="45.008493" lon="9.2394828"><ele>207.85714285714283</ele><time>2026-05-02T06:47:10.437Z</time></trkpt><trkpt lat="45.0085" lon="9.2393871"><ele>209.28571428571428</ele><time>2026-05-02T06:47:12.439Z</time></trkpt><trkpt lat="45.0085124" lon="9.2392901"><ele>210.71428571428572</ele><time>2026-05-02T06:47:14.437Z</time></trkpt><trkpt lat="45.0085247" lon="9.2391937"><ele>212.14285714285717</ele><time>2026-05-02T06:47:16.441Z</time></trkpt><trkpt lat="45.0085421" lon="9.2390961"><ele>213.57142857142856</ele><time>2026-05-02T06:47:18.444Z</time></trkpt><trkpt lat="45.0085566" lon="9.2389972"><ele>215.0</ele><time>2026-05-02T06:47:20.451Z</time></trkpt><trkpt lat="45.0085676" lon="9.2388946"><ele>216.28571428571428</ele><time>2026-05-02T06:47:22.438Z</time></trkpt><trkpt lat="45.0085829" lon="9.2387986"><ele>217.57142857142858</ele><time>2026-05-02T06:47:24.439Z</time></trkpt><trkpt lat="45.0085897" lon="9.2387049"><ele>218.85714285714286</ele><time>2026-05-02T06:47:26.441Z</time></trkpt><trkpt lat="45.0085931" lon="9.2385992"><ele>220.14285714285714</ele><time>2026-05-02T06:47:28.445Z</time></trkpt><trkpt lat="45.0085905" lon="9.2384979"><ele>221.42857142857144</ele><time>2026-05-02T06:47:30.45Z</time></trkpt><trkpt lat="45.0085737" lon="9.2383934"><ele>222.71428571428572</ele><time>2026-05-02T06:47:32.436Z</time></trkpt><trkpt lat="45.0085531" lon="9.2382864"><ele>224.0</ele><time>2026-05-02T06:47:34.439Z</time></trkpt><trkpt lat="45.00852" lon="9.2382054"><ele>225.00000000000003</ele><time>2026-05-02T06:47:36.447Z</time></trkpt><trkpt lat="45.0084833" lon="9.2381147"><ele>226.0</ele><time>2026-05-02T06:47:38.446Z</time></trkpt><trkpt lat="45.008435" lon="9.2380344"><ele>227.0</ele><time>2026-05-02T06:47:40.444Z</time></trkpt><trkpt lat="45.0083717" lon="9.2379656"><ele>228.0</ele><time>2026-05-02T06:47:42.441Z</time></trkpt><trkpt lat="45.0083108" lon="9.2379016"><ele>229.00000000000003</ele><time>2026-05-02T06:47:44.442Z</time></trkpt><trkpt lat="45.0082409" lon="9.2378567"><ele>230.0</ele><time>2026-05-02T06:47:46.435Z</time></trkpt><trkpt lat="45.0081613" lon="9.2378185"><ele>230.00000000000003</ele><time>2026-05-02T06:47:48.439Z</time></trkpt><trkpt lat="45.0080889" lon="9.2377857"><ele>230.0</ele><time>2026-05-02T06:47:50.445Z</time></trkpt><trkpt lat="45.0080151" lon="9.2377441"><ele>230.0</ele><time>2026-05-02T06:47:52.449Z</time></trkpt><trkpt lat="45.007941" lon="9.2376998"><ele>230.0</ele><time>2026-05-02T06:47:54.446Z</time></trkpt><trkpt lat="45.0078567" lon="9.237661"><ele>230.00000000000003</ele><time>2026-05-02T06:47:56.445Z</time></trkpt><trkpt lat="45.0077774" lon="9.2376352"><ele>230.0</ele><time>2026-05-02T06:47:58.44Z</time></trkpt><trkpt lat="45.0077072" lon="9.2376011"><ele>230.00000000000003</ele><time>2026-05-02T06:48:00.529Z</time></trkpt><trkpt lat="45.0076331" lon="9.2375568"><ele>230.0</ele><time>2026-05-02T06:48:02.439Z</time></trkpt><trkpt lat="45.0075594" lon="9.2375113"><ele>230.0</ele><time>2026-05-02T06:48:04.437Z</time></trkpt><trkpt lat="45.0074922" lon="9.2374705"><ele>230.0</ele><time>2026-05-02T06:48:06.441Z</time></trkpt><trkpt lat="45.007437" lon="9.2374118"><ele>230.00000000000003</ele><time>2026-05-02T06:48:08.442Z</time></trkpt><trkpt lat="45.0074037" lon="9.2373357"><ele>230.0</ele><time>2026-05-02T06:48:10.442Z</time></trkpt><trkpt lat="45.0074224" lon="9.2372036"><ele>231.00000000000003</ele><time>2026-05-02T06:48:13.434Z</time></trkpt><trkpt lat="45.0074763" lon="9.2371191"><ele>232.0</ele><time>2026-05-02T06:48:15.439Z</time></trkpt><trkpt lat="45.0075514" lon="9.2370512"><ele>233.0</ele><time>2026-05-02T06:48:17.444Z</time></trkpt><trkpt lat="45.0076138" lon="9.2369864"><ele>234.0</ele><time>2026-05-02T06:48:19.44Z</time></trkpt><trkpt lat="45.0076893" lon="9.236942"><ele>235.00000000000003</ele><time>2026-05-02T06:48:21.443Z</time></trkpt><trkpt lat="45.007761" lon="9.2368887"><ele>236.0</ele><time>2026-05-02T06:48:23.442Z</time></trkpt><trkpt lat="45.0078197" lon="9.2368232"><ele>236.00000000000003</ele><time>2026-05-02T06:48:25.433Z</time></trkpt><trkpt lat="45.0078715" lon="9.2367379"><ele>236.0</ele><time>2026-05-02T06:48:27.442Z</time></trkpt><trkpt lat="45.0078994" lon="9.2366277"><ele>236.0</ele><time>2026-05-02T06:48:29.447Z</time></trkpt><trkpt lat="45.0079186" lon="9.2365181"><ele>236.0</ele><time>2026-05-02T06:48:31.44Z</time></trkpt><trkpt lat="45.0079326" lon="9.2364025"><ele>236.00000000000003</ele><time>2026-05-02T06:48:33.44Z</time></trkpt><trkpt lat="45.0079403" lon="9.2362949"><ele>236.0</ele><time>2026-05-02T06:48:35.438Z</time></trkpt><trkpt lat="45.0079499" lon="9.2361789"><ele>237.16666666666669</ele><time>2026-05-02T06:48:37.443Z</time></trkpt><trkpt lat="45.0079479" lon="9.2360688"><ele>238.33333333333334</ele><time>2026-05-02T06:48:39.441Z</time></trkpt><trkpt lat="45.0079494" lon="9.2359628"><ele>239.5</ele><time>2026-05-02T06:48:41.433Z</time></trkpt><trkpt lat="45.0079411" lon="9.2358664"><ele>240.66666666666669</ele><time>2026-05-02T06:48:43.442Z</time></trkpt><trkpt lat="45.0079295" lon="9.2357445"><ele>241.83333333333334</ele><time>2026-05-02T06:48:45.442Z</time></trkpt><trkpt lat="45.0079106" lon="9.2356341"><ele>243.0</ele><time>2026-05-02T06:48:47.439Z</time></trkpt><trkpt lat="45.0078991" lon="9.2355339"><ele>244.71428571428572</ele><time>2026-05-02T06:48:49.441Z</time></trkpt><trkpt lat="45.0078931" lon="9.2354411"><ele>246.42857142857144</ele><time>2026-05-02T06:48:51.512Z</time></trkpt><trkpt lat="45.0078837" lon="9.2353361"><ele>248.14285714285717</ele><time>2026-05-02T06:48:53.446Z</time></trkpt><trkpt lat="45.0078748" lon="9.2352323"><ele>249.85714285714286</ele><time>2026-05-02T06:48:55.445Z</time></trkpt><trkpt lat="45.0078644" lon="9.2351307"><ele>251.5714285714286</ele><time>2026-05-02T06:48:57.441Z</time></trkpt><trkpt lat="45.0078504" lon="9.2350276"><ele>253.2857142857143</ele><time>2026-05-02T06:48:59.442Z</time></trkpt><trkpt lat="45.0078308" lon="9.2349295"><ele>255.0</ele><time>2026-05-02T06:49:01.45Z</time></trkpt><trkpt lat="45.0077893" lon="9.2348564"><ele>256.42857142857144</ele><time>2026-05-02T06:49:03.515Z</time></trkpt><trkpt lat="45.0077346" lon="9.2347938"><ele>257.8571428571429</ele><time>2026-05-02T06:49:05.439Z</time></trkpt><trkpt lat="45.0076576" lon="9.2347645"><ele>259.2857142857143</ele><time>2026-05-02T06:49:07.442Z</time></trkpt><trkpt lat="45.0075903" lon="9.2347468"><ele>260.7142857142857</ele><time>2026-05-02T06:49:09.446Z</time></trkpt><trkpt lat="45.0075104" lon="9.2347243"><ele>262.1428571428571</ele><time>2026-05-02T06:49:11.441Z</time></trkpt><trkpt lat="45.0074433" lon="9.2346923"><ele>263.57142857142856</ele><time>2026-05-02T06:49:13.436Z</time></trkpt><trkpt lat="45.0073826" lon="9.2346419"><ele>265.0</ele><time>2026-05-02T06:49:15.439Z</time></trkpt><trkpt lat="45.0073364" lon="9.2345661"><ele>265.3333333333333</ele><time>2026-05-02T06:49:17.442Z</time></trkpt><trkpt lat="45.0073135" lon="9.234458"><ele>265.66666666666663</ele><time>2026-05-02T06:49:19.437Z</time></trkpt><trkpt lat="45.0073057" lon="9.2343576"><ele>266.0</ele><time>2026-05-02T06:49:21.44Z</time></trkpt><trkpt lat="45.0072967" lon="9.234253"><ele>266.3333333333333</ele><time>2026-05-02T06:49:23.445Z</time></trkpt><trkpt lat="45.0072923" lon="9.2341499"><ele>266.6666666666667</ele><time>2026-05-02T06:49:25.438Z</time></trkpt><trkpt lat="45.0072867" lon="9.2340411"><ele>267.0</ele><time>2026-05-02T06:49:27.439Z</time></trkpt><trkpt lat="45.0072765" lon="9.2339337"><ele>268.0</ele><time>2026-05-02T06:49:29.437Z</time></trkpt><trkpt lat="45.007266" lon="9.2338267"><ele>269.0</ele><time>2026-05-02T06:49:31.441Z</time></trkpt><trkpt lat="45.0072592" lon="9.2337189"><ele>270.0</ele><time>2026-05-02T06:49:33.442Z</time></trkpt><trkpt lat="45.0072466" lon="9.2335824"><ele>271.0</ele><time>2026-05-02T06:49:36.438Z</time></trkpt><trkpt lat="45.0072373" lon="9.2334865"><ele>272.0</ele><time>2026-05-02T06:49:38.44Z</time></trkpt><trkpt lat="45.0072199" lon="9.2333917"><ele>273.0</ele><time>2026-05-02T06:49:40.443Z</time></trkpt><trkpt lat="45.0072278" lon="9.2333004"><ele>273.0</ele><time>2026-05-02T06:49:42.437Z</time></trkpt><trkpt lat="45.007251" lon="9.2332049"><ele>273.0</ele><time>2026-05-02T06:49:44.447Z</time></trkpt><trkpt lat="45.0072838" lon="9.2330993"><ele>273.0</ele><time>2026-05-02T06:49:46.449Z</time></trkpt><trkpt lat="45.0073292" lon="9.2330246"><ele>273.0</ele><time>2026-05-02T06:49:48.44Z</time></trkpt><trkpt lat="45.0073785" lon="9.2329473"><ele>273.0</ele><time>2026-05-02T06:49:50.452Z</time></trkpt><trkpt lat="45.0074362" lon="9.2328769"><ele>273.0</ele><time>2026-05-02T06:49:52.441Z</time></trkpt><trkpt lat="45.0074981" lon="9.2328081"><ele>275.0</ele><time>2026-05-02T06:49:54.441Z</time></trkpt><trkpt lat="45.0075598" lon="9.2327421"><ele>277.0</ele><time>2026-05-02T06:49:56.437Z</time></trkpt><trkpt lat="45.0076203" lon="9.2326847"><ele>279.0</ele><time>2026-05-02T06:49:58.445Z</time></trkpt><trkpt lat="45.0076865" lon="9.2326267"><ele>281.0</ele><time>2026-05-02T06:50:00.449Z</time></trkpt><trkpt lat="45.0077433" lon="9.2325622"><ele>283.0</ele><time>2026-05-02T06:50:02.447Z</time></trkpt><trkpt lat="45.0078044" lon="9.2324985"><ele>285.0</ele><time>2026-05-02T06:50:04.44Z</time></trkpt><trkpt lat="45.007871" lon="9.2324354"><ele>285.0</ele><time>2026-05-02T06:50:06.44Z</time></trkpt><trkpt lat="45.0079371" lon="9.2323813"><ele>285.0</ele><time>2026-05-02T06:50:08.443Z</time></trkpt><trkpt lat="45.0079993" lon="9.2323326"><ele>285.0</ele><time>2026-05-02T06:50:10.44Z</time></trkpt><trkpt lat="45.0080643" lon="9.2322874"><ele>285.0</ele><time>2026-05-02T06:50:12.433Z</time></trkpt><trkpt lat="45.0081317" lon="9.2322519"><ele>285.0</ele><time>2026-05-02T06:50:14.449Z</time></trkpt><trkpt lat="45.0081975" lon="9.2322092"><ele>285.0</ele><time>2026-05-02T06:50:16.439Z</time></trkpt><trkpt lat="45.0082713" lon="9.2321697"><ele>285.0</ele><time>2026-05-02T06:50:18.435Z</time></trkpt><trkpt lat="45.0083447" lon="9.2321242"><ele>287.1666666666667</ele><time>2026-05-02T06:50:20.439Z</time></trkpt><trkpt lat="45.008414" lon="9.2320798"><ele>289.3333333333333</ele><time>2026-05-02T06:50:22.443Z</time></trkpt><trkpt lat="45.00849" lon="9.2320338"><ele>291.5</ele><time>2026-05-02T06:50:24.447Z</time></trkpt><trkpt lat="45.0085622" lon="9.2319851"><ele>293.66666666666663</ele><time>2026-05-02T06:50:26.442Z</time></trkpt><trkpt lat="45.008637" lon="9.2319339"><ele>295.8333333333333</ele><time>2026-05-02T06:50:28.447Z</time></trkpt><trkpt lat="45.008709" lon="9.2318862"><ele>298.0</ele><time>2026-05-02T06:50:30.442Z</time></trkpt><trkpt lat="45.0087806" lon="9.2318655"><ele>298.0</ele><time>2026-05-02T06:50:32.437Z</time></trkpt><trkpt lat="45.0088649" lon="9.2318466"><ele>298.0</ele><time>2026-05-02T06:50:34.438Z</time></trkpt><trkpt lat="45.008945" lon="9.2318378"><ele>298.0</ele><time>2026-05-02T06:50:36.439Z</time></trkpt><trkpt lat="45.009025" lon="9.2318344"><ele>298.0</ele><time>2026-05-02T06:50:38.443Z</time></trkpt><trkpt lat="45.0091031" lon="9.2318375"><ele>298.0</ele><time>2026-05-02T06:50:40.441Z</time></trkpt><trkpt lat="45.0091905" lon="9.231833"><ele>298.0</ele><time>2026-05-02T06:50:42.442Z</time></trkpt><trkpt lat="45.0092771" lon="9.2318422"><ele>298.5</ele><time>2026-05-02T06:50:44.437Z</time></trkpt><trkpt lat="45.0093567" lon="9.2318323"><ele>299.0</ele><time>2026-05-02T06:50:46.439Z</time></trkpt><trkpt lat="45.0094387" lon="9.2318207"><ele>299.5</ele><time>2026-05-02T06:50:48.523Z</time></trkpt><trkpt lat="45.0095215" lon="9.2318173"><ele>300.0</ele><time>2026-05-02T06:50:50.443Z</time></trkpt><trkpt lat="45.0096028" lon="9.2317937"><ele>300.5</ele><time>2026-05-02T06:50:52.447Z</time></trkpt><trkpt lat="45.0096846" lon="9.231781"><ele>301.0</ele><time>2026-05-02T06:50:54.445Z</time></trkpt><trkpt lat="45.009765" lon="9.2317621"><ele>301.0</ele><time>2026-05-02T06:50:56.441Z</time></trkpt><trkpt lat="45.0098462" lon="9.2317278"><ele>301.0</ele><time>2026-05-02T06:50:58.436Z</time></trkpt><trkpt lat="45.0099207" lon="9.2316955"><ele>301.0</ele><time>2026-05-02T06:51:00.434Z</time></trkpt><trkpt lat="45.009994" lon="9.2316655"><ele>301.0</ele><time>2026-05-02T06:51:02.447Z</time></trkpt><trkpt lat="45.0100561" lon="9.2316184"><ele>301.0</ele><time>2026-05-02T06:51:04.437Z</time></trkpt><trkpt lat="45.0101256" lon="9.2315718"><ele>301.0</ele><time>2026-05-02T06:51:06.442Z</time></trkpt><trkpt lat="45.0101916" lon="9.2315308"><ele>302.0</ele><time>2026-05-02T06:51:08.444Z</time></trkpt><trkpt lat="45.0102526" lon="9.2314804"><ele>303.0</ele><time>2026-05-02T06:51:11.522Z</time></trkpt><trkpt lat="45.0102658" lon="9.2313813"><ele>304.0</ele><time>2026-05-02T06:51:15.442Z</time></trkpt><trkpt lat="45.0102049" lon="9.2313344"><ele>305.0</ele><time>2026-05-02T06:51:18.438Z</time></trkpt><trkpt lat="45.0101202" lon="9.2312998"><ele>306.0</ele><time>2026-05-02T06:51:21.435Z</time></trkpt><trkpt lat="45.0100297" lon="9.2312402"><ele>307.0</ele><time>2026-05-02T06:51:24.438Z</time></trkpt><trkpt lat="45.0099528" lon="9.2312078"><ele>307.0</ele><time>2026-05-02T06:51:26.519Z</time></trkpt><trkpt lat="45.0098818" lon="9.2311679"><ele>307.0</ele><time>2026-05-02T06:51:28.444Z</time></trkpt><trkpt lat="45.0098048" lon="9.2311338"><ele>307.0</ele><time>2026-05-02T06:51:30.447Z</time></trkpt><trkpt lat="45.0097275" lon="9.231083"><ele>307.0</ele><time>2026-05-02T06:51:32.445Z</time></trkpt><trkpt lat="45.0096566" lon="9.2310343"><ele>307.0</ele><time>2026-05-02T06:51:34.457Z</time></trkpt><trkpt lat="45.0095812" lon="9.2309906"><ele>307.0</ele><time>2026-05-02T06:51:36.522Z</time></trkpt><trkpt lat="45.009496" lon="9.2309495"><ele>307.0</ele><time>2026-05-02T06:51:38.525Z</time></trkpt><trkpt lat="45.0094134" lon="9.230898"><ele>307.0</ele><time>2026-05-02T06:51:40.441Z</time></trkpt><trkpt lat="45.0093386" lon="9.2308441"><ele>307.0</ele><time>2026-05-02T06:51:42.437Z</time></trkpt><trkpt lat="45.0092545" lon="9.2308006"><ele>307.0</ele><time>2026-05-02T06:51:44.439Z</time></trkpt><trkpt lat="45.0091762" lon="9.2307507"><ele>307.0</ele><time>2026-05-02T06:51:46.433Z</time></trkpt><trkpt lat="45.009097" lon="9.2307077"><ele>307.0</ele><time>2026-05-02T06:51:48.444Z</time></trkpt><trkpt lat="45.0090107" lon="9.2306566"><ele>307.66666666666663</ele><time>2026-05-02T06:51:50.52Z</time></trkpt><trkpt lat="45.008926" lon="9.2306085"><ele>308.3333333333333</ele><time>2026-05-02T06:51:52.445Z</time></trkpt><trkpt lat="45.0088492" lon="9.2305544"><ele>309.0</ele><time>2026-05-02T06:51:54.44Z</time></trkpt><trkpt lat="45.0087696" lon="9.2305038"><ele>309.6666666666667</ele><time>2026-05-02T06:51:56.442Z</time></trkpt><trkpt lat="45.0086886" lon="9.2304601"><ele>310.33333333333337</ele><time>2026-05-02T06:51:58.443Z</time></trkpt><trkpt lat="45.0086046" lon="9.2304021"><ele>311.0</ele><time>2026-05-02T06:52:00.435Z</time></trkpt><trkpt lat="45.0085123" lon="9.2303436"><ele>311.0</ele><time>2026-05-02T06:52:02.436Z</time></trkpt><trkpt lat="45.0084243" lon="9.2302793"><ele>311.0</ele><time>2026-05-02T06:52:04.444Z</time></trkpt><trkpt lat="45.0083485" lon="9.2302341"><ele>311.0</ele><time>2026-05-02T06:52:06.446Z</time></trkpt><trkpt lat="45.0082791" lon="9.2301982"><ele>311.0</ele><time>2026-05-02T06:52:08.436Z</time></trkpt><trkpt lat="45.0082166" lon="9.2301603"><ele>311.0</ele><time>2026-05-02T06:52:10.44Z</time></trkpt><trkpt lat="45.0081498" lon="9.2301177"><ele>311.0</ele><time>2026-05-02T06:52:12.451Z</time></trkpt><trkpt lat="45.0080894" lon="9.2300656"><ele>310.83333333333337</ele><time>2026-05-02T06:52:14.441Z</time></trkpt><trkpt lat="45.008019" lon="9.2300092"><ele>310.6666666666667</ele><time>2026-05-02T06:52:16.436Z</time></trkpt><trkpt lat="45.0079614" lon="9.2299512"><ele>310.5</ele><time>2026-05-02T06:52:18.442Z</time></trkpt><trkpt lat="45.0079004" lon="9.2298773"><ele>310.3333333333333</ele><time>2026-05-02T06:52:20.442Z</time></trkpt><trkpt lat="45.0078376" lon="9.2298117"><ele>310.16666666666663</ele><time>2026-05-02T06:52:22.442Z</time></trkpt><trkpt lat="45.0077811" lon="9.2297234"><ele>310.0</ele><time>2026-05-02T06:52:24.436Z</time></trkpt><trkpt lat="45.007726" lon="9.2296418"><ele>310.8333333333333</ele><time>2026-05-02T06:52:26.526Z</time></trkpt><trkpt lat="45.0076673" lon="9.2295607"><ele>311.66666666666663</ele><time>2026-05-02T06:52:28.44Z</time></trkpt><trkpt lat="45.0076142" lon="9.2294805"><ele>312.5</ele><time>2026-05-02T06:52:30.439Z</time></trkpt><trkpt lat="45.0075542" lon="9.2294049"><ele>313.3333333333333</ele><time>2026-05-02T06:52:32.447Z</time></trkpt><trkpt lat="45.0074889" lon="9.2293231"><ele>314.1666666666667</ele><time>2026-05-02T06:52:34.44Z</time></trkpt><trkpt lat="45.0074305" lon="9.2292476"><ele>315.0</ele><time>2026-05-02T06:52:36.436Z</time></trkpt><trkpt lat="45.0073743" lon="9.2291772"><ele>315.6666666666667</ele><time>2026-05-02T06:52:38.447Z</time></trkpt><trkpt lat="45.0073092" lon="9.2291192"><ele>316.3333333333333</ele><time>2026-05-02T06:52:40.44Z</time></trkpt><trkpt lat="45.0072512" lon="9.2290617"><ele>317.0</ele><time>2026-05-02T06:52:42.439Z</time></trkpt><trkpt lat="45.0071879" lon="9.2290214"><ele>317.66666666666663</ele><time>2026-05-02T06:52:44.445Z</time></trkpt><trkpt lat="45.0071137" lon="9.2289731"><ele>318.3333333333333</ele><time>2026-05-02T06:52:46.438Z</time></trkpt><trkpt lat="45.007037" lon="9.2289283"><ele>319.0</ele><time>2026-05-02T06:52:48.44Z</time></trkpt><trkpt lat="45.0069627" lon="9.2288859"><ele>319.42857142857144</ele><time>2026-05-02T06:52:50.449Z</time></trkpt><trkpt lat="45.0068891" lon="9.2288523"><ele>319.85714285714283</ele><time>2026-05-02T06:52:52.509Z</time></trkpt><trkpt lat="45.0068226" lon="9.2288267"><ele>320.2857142857143</ele><time>2026-05-02T06:52:54.44Z</time></trkpt><trkpt lat="45.0067555" lon="9.2288022"><ele>320.7142857142857</ele><time>2026-05-02T06:52:56.434Z</time></trkpt><trkpt lat="45.0066846" lon="9.2287707"><ele>321.1428571428571</ele><time>2026-05-02T06:52:58.442Z</time></trkpt><trkpt lat="45.0066108" lon="9.2287413"><ele>321.57142857142856</ele><time>2026-05-02T06:53:00.447Z</time></trkpt><trkpt lat="45.0065308" lon="9.2287148"><ele>322.0</ele><time>2026-05-02T06:53:02.452Z</time></trkpt><trkpt lat="45.006462" lon="9.2286959"><ele>322.0</ele><time>2026-05-02T06:53:04.444Z</time></trkpt><trkpt lat="45.0063933" lon="9.2286818"><ele>322.0</ele><time>2026-05-02T06:53:06.441Z</time></trkpt><trkpt lat="45.0063119" lon="9.2286823"><ele>322.0</ele><time>2026-05-02T06:53:08.434Z</time></trkpt><trkpt lat="45.0062337" lon="9.2286849"><ele>322.0</ele><time>2026-05-02T06:53:10.437Z</time></trkpt><trkpt lat="45.0061527" lon="9.2286962"><ele>322.0</ele><time>2026-05-02T06:53:12.442Z</time></trkpt><trkpt lat="45.006073" lon="9.2287074"><ele>322.0</ele><time>2026-05-02T06:53:14.439Z</time></trkpt><trkpt lat="45.0059945" lon="9.2287323"><ele>322.0</ele><time>2026-05-02T06:53:16.435Z</time></trkpt><trkpt lat="45.005917" lon="9.2287471"><ele>322.0</ele><time>2026-05-02T06:53:18.439Z</time></trkpt><trkpt lat="45.0058304" lon="9.2287657"><ele>322.0</ele><time>2026-05-02T06:53:20.439Z</time></trkpt><trkpt lat="45.0057602" lon="9.2287944"><ele>322.0</ele><time>2026-05-02T06:53:22.444Z</time></trkpt><trkpt lat="45.0056787" lon="9.2288122"><ele>322.0</ele><time>2026-05-02T06:53:24.45Z</time></trkpt><trkpt lat="45.0055948" lon="9.2288214"><ele>322.0</ele><time>2026-05-02T06:53:26.44Z</time></trkpt><trkpt lat="45.0055148" lon="9.2288299"><ele>321.8333333333333</ele><time>2026-05-02T06:53:28.444Z</time></trkpt><trkpt lat="45.0054333" lon="9.2288378"><ele>321.66666666666663</ele><time>2026-05-02T06:53:30.439Z</time></trkpt><trkpt lat="45.005347" lon="9.2288456"><ele>321.5</ele><time>2026-05-02T06:53:32.513Z</time></trkpt><trkpt lat="45.0052562" lon="9.2288536"><ele>321.3333333333333</ele><time>2026-05-02T06:53:34.444Z</time></trkpt><trkpt lat="45.0051674" lon="9.2288594"><ele>321.1666666666667</ele><time>2026-05-02T06:53:36.438Z</time></trkpt><trkpt lat="45.0050856" lon="9.2288725"><ele>321.0</ele><time>2026-05-02T06:53:38.441Z</time></trkpt><trkpt lat="45.0050055" lon="9.2288797"><ele>322.0</ele><time>2026-05-02T06:53:40.441Z</time></trkpt><trkpt lat="45.0049163" lon="9.2288816"><ele>323.0</ele><time>2026-05-02T06:53:42.442Z</time></trkpt><trkpt lat="45.0048333" lon="9.2288892"><ele>324.0</ele><time>2026-05-02T06:53:44.441Z</time></trkpt><trkpt lat="45.0047513" lon="9.2289012"><ele>325.0</ele><time>2026-05-02T06:53:46.442Z</time></trkpt><trkpt lat="45.0046737" lon="9.2289174"><ele>326.0</ele><time>2026-05-02T06:53:48.456Z</time></trkpt><trkpt lat="45.0046017" lon="9.2289294"><ele>327.0</ele><time>2026-05-02T06:53:50.444Z</time></trkpt><trkpt lat="45.004516" lon="9.2289424"><ele>327.0</ele><time>2026-05-02T06:53:52.436Z</time></trkpt><trkpt lat="45.0044246" lon="9.2289534"><ele>327.0</ele><time>2026-05-02T06:53:54.43Z</time></trkpt><trkpt lat="45.0043394" lon="9.2289578"><ele>327.0</ele><time>2026-05-02T06:53:56.446Z</time></trkpt><trkpt lat="45.0042507" lon="9.2289599"><ele>327.0</ele><time>2026-05-02T06:53:58.441Z</time></trkpt><trkpt lat="45.0041666" lon="9.2289576"><ele>327.0</ele><time>2026-05-02T06:54:00.437Z</time></trkpt><trkpt lat="45.0040723" lon="9.228962"><ele>327.0</ele><time>2026-05-02T06:54:02.435Z</time></trkpt><trkpt lat="45.0039932" lon="9.228962"><ele>328.3333333333333</ele><time>2026-05-02T06:54:04.437Z</time></trkpt><trkpt lat="45.0039117" lon="9.2289783"><ele>329.6666666666667</ele><time>2026-05-02T06:54:06.456Z</time></trkpt><trkpt lat="45.0038334" lon="9.2289909"><ele>331.0</ele><time>2026-05-02T06:54:08.441Z</time></trkpt><trkpt lat="45.0037548" lon="9.229017"><ele>332.33333333333337</ele><time>2026-05-02T06:54:10.439Z</time></trkpt><trkpt lat="45.0036737" lon="9.2290395"><ele>333.6666666666667</ele><time>2026-05-02T06:54:12.439Z</time></trkpt><trkpt lat="45.003587" lon="9.2290422"><ele>335.0</ele><time>2026-05-02T06:54:14.444Z</time></trkpt><trkpt lat="45.0035041" lon="9.2290396"><ele>335.0</ele><time>2026-05-02T06:54:16.44Z</time></trkpt><trkpt lat="45.003406" lon="9.2290448"><ele>335.0</ele><time>2026-05-02T06:54:18.437Z</time></trkpt><trkpt lat="45.0033175" lon="9.2290556"><ele>335.0</ele><time>2026-05-02T06:54:20.441Z</time></trkpt><trkpt lat="45.0032303" lon="9.2290617"><ele>335.0</ele><time>2026-05-02T06:54:22.442Z</time></trkpt><trkpt lat="45.0031387" lon="9.2290764"><ele>335.0</ele><time>2026-05-02T06:54:24.438Z</time></trkpt><trkpt lat="45.0030491" lon="9.2290924"><ele>336.33333333333337</ele><time>2026-05-02T06:54:26.439Z</time></trkpt><trkpt lat="45.0029581" lon="9.2291071"><ele>337.6666666666667</ele><time>2026-05-02T06:54:28.439Z</time></trkpt><trkpt lat="45.0028711" lon="9.2291243"><ele>339.0</ele><time>2026-05-02T06:54:30.441Z</time></trkpt><trkpt lat="45.0027791" lon="9.2291401"><ele>340.3333333333333</ele><time>2026-05-02T06:54:32.438Z</time></trkpt><trkpt lat="45.0026905" lon="9.2291513"><ele>341.66666666666663</ele><time>2026-05-02T06:54:34.439Z</time></trkpt><trkpt lat="45.0026047" lon="9.2291571"><ele>343.0</ele><time>2026-05-02T06:54:36.446Z</time></trkpt><trkpt lat="45.0025191" lon="9.2291639"><ele>343.5</ele><time>2026-05-02T06:54:38.443Z</time></trkpt><trkpt lat="45.0024366" lon="9.2291884"><ele>344.0</ele><time>2026-05-02T06:54:40.444Z</time></trkpt><trkpt lat="45.0023507" lon="9.2292036"><ele>344.5</ele><time>2026-05-02T06:54:42.44Z</time></trkpt><trkpt lat="45.0022694" lon="9.2292204"><ele>345.0</ele><time>2026-05-02T06:54:44.441Z</time></trkpt><trkpt lat="45.0021866" lon="9.2292324"><ele>345.5</ele><time>2026-05-02T06:54:46.437Z</time></trkpt><trkpt lat="45.0021" lon="9.2292431"><ele>346.0</ele><time>2026-05-02T06:54:48.44Z</time></trkpt><trkpt lat="45.0020101" lon="9.2292583"><ele>346.0</ele><time>2026-05-02T06:54:50.436Z</time></trkpt><trkpt lat="45.0019269" lon="9.2292691"><ele>346.0</ele><time>2026-05-02T06:54:52.44Z</time></trkpt><trkpt lat="45.0018485" lon="9.2292622"><ele>346.0</ele><time>2026-05-02T06:54:54.44Z</time></trkpt><trkpt lat="45.0017687" lon="9.2292578"><ele>346.0</ele><time>2026-05-02T06:54:56.443Z</time></trkpt><trkpt lat="45.0016796" lon="9.2292459"><ele>346.0</ele><time>2026-05-02T06:54:58.434Z</time></trkpt><trkpt lat="45.0015909" lon="9.2292231"><ele>346.0</ele><time>2026-05-02T06:55:00.438Z</time></trkpt><trkpt lat="45.0015056" lon="9.2292142"><ele>345.16666666666663</ele><time>2026-05-02T06:55:02.519Z</time></trkpt><trkpt lat="45.0014229" lon="9.2292438"><ele>344.3333333333333</ele><time>2026-05-02T06:55:04.442Z</time></trkpt><trkpt lat="45.0013435" lon="9.2293016"><ele>343.5</ele><time>2026-05-02T06:55:06.442Z</time></trkpt><trkpt lat="45.0012759" lon="9.2293482"><ele>342.6666666666667</ele><time>2026-05-02T06:55:08.441Z</time></trkpt><trkpt lat="45.0012191" lon="9.2294086"><ele>341.83333333333337</ele><time>2026-05-02T06:55:10.44Z</time></trkpt><trkpt lat="45.0011583" lon="9.2294951"><ele>341.0</ele><time>2026-05-02T06:55:12.437Z</time></trkpt><trkpt lat="45.0010868" lon="9.2296158"><ele>341.0</ele><time>2026-05-02T06:55:14.514Z</time></trkpt><trkpt lat="45.0010117" lon="9.2297525"><ele>341.0</ele><time>2026-05-02T06:55:16.451Z</time></trkpt><trkpt lat="45.0009668" lon="9.2298222"><ele>341.0</ele><time>2026-05-02T06:55:17.438Z</time></trkpt><trkpt lat="45.0009199" lon="9.2298893"><ele>341.0</ele><time>2026-05-02T06:55:18.439Z</time></trkpt><trkpt lat="45.0008713" lon="9.2299514"><ele>341.0</ele><time>2026-05-02T06:55:19.434Z</time></trkpt><trkpt lat="45.0008228" lon="9.2300147"><ele>341.0</ele><time>2026-05-02T06:55:20.442Z</time></trkpt><trkpt lat="45.000772" lon="9.2300727"><ele>340.83333333333337</ele><time>2026-05-02T06:55:21.44Z</time></trkpt><trkpt lat="45.0007133" lon="9.2301187"><ele>340.6666666666667</ele><time>2026-05-02T06:55:22.446Z</time></trkpt><trkpt lat="45.0006562" lon="9.2301578"><ele>340.5</ele><time>2026-05-02T06:55:23.437Z</time></trkpt><trkpt lat="45.0005533" lon="9.2302249"><ele>340.3333333333333</ele><time>2026-05-02T06:55:25.443Z</time></trkpt><trkpt lat="45.0004776" lon="9.2302902"><ele>340.16666666666663</ele><time>2026-05-02T06:55:27.437Z</time></trkpt><trkpt lat="45.0004045" lon="9.2303473"><ele>340.0</ele><time>2026-05-02T06:55:29.443Z</time></trkpt><trkpt lat="45.0003261" lon="9.2303971"><ele>340.0</ele><time>2026-05-02T06:55:31.446Z</time></trkpt><trkpt lat="45.0002543" lon="9.2304522"><ele>340.0</ele><time>2026-05-02T06:55:33.442Z</time></trkpt><trkpt lat="45.0001841" lon="9.2305072"><ele>340.0</ele><time>2026-05-02T06:55:35.44Z</time></trkpt><trkpt lat="45.0001166" lon="9.2305652"><ele>340.0</ele><time>2026-05-02T06:55:37.442Z</time></trkpt><trkpt lat="45.000052" lon="9.230626"><ele>340.0</ele><time>2026-05-02T06:55:39.433Z</time></trkpt><trkpt lat="44.9999812" lon="9.2306769"><ele>340.0</ele><time>2026-05-02T06:55:41.443Z</time></trkpt><trkpt lat="44.9999094" lon="9.2307316"><ele>340.3333333333333</ele><time>2026-05-02T06:55:43.448Z</time></trkpt><trkpt lat="44.9998431" lon="9.2307893"><ele>340.66666666666663</ele><time>2026-05-02T06:55:45.526Z</time></trkpt><trkpt lat="44.9997684" lon="9.2308377"><ele>341.0</ele><time>2026-05-02T06:55:47.436Z</time></trkpt><trkpt lat="44.99969" lon="9.2308932"><ele>341.3333333333333</ele><time>2026-05-02T06:55:49.44Z</time></trkpt><trkpt lat="44.9996085" lon="9.2309624"><ele>341.6666666666667</ele><time>2026-05-02T06:55:51.439Z</time></trkpt><trkpt lat="44.9995302" lon="9.2310277"><ele>342.0</ele><time>2026-05-02T06:55:53.447Z</time></trkpt><trkpt lat="44.9994648" lon="9.2310882"><ele>342.0</ele><time>2026-05-02T06:55:55.439Z</time></trkpt><trkpt lat="44.999387" lon="9.2311572"><ele>342.0</ele><time>2026-05-02T06:55:57.434Z</time></trkpt><trkpt lat="44.9993076" lon="9.2312009"><ele>342.0</ele><time>2026-05-02T06:55:59.439Z</time></trkpt><trkpt lat="44.9992193" lon="9.2312418"><ele>342.0</ele><time>2026-05-02T06:56:01.435Z</time></trkpt><trkpt lat="44.9991274" lon="9.2312808"><ele>342.0</ele><time>2026-05-02T06:56:03.434Z</time></trkpt><trkpt lat="44.9990394" lon="9.2313175"><ele>342.20000000000005</ele><time>2026-05-02T06:56:05.439Z</time></trkpt><trkpt lat="44.9989541" lon="9.2313673"><ele>342.4</ele><time>2026-05-02T06:56:07.444Z</time></trkpt><trkpt lat="44.9988621" lon="9.2314334"><ele>342.6</ele><time>2026-05-02T06:56:09.436Z</time></trkpt><trkpt lat="44.9987685" lon="9.2314945"><ele>342.79999999999995</ele><time>2026-05-02T06:56:11.444Z</time></trkpt><trkpt lat="44.9986674" lon="9.2315695"><ele>343.0</ele><time>2026-05-02T06:56:13.44Z</time></trkpt><trkpt lat="44.9985674" lon="9.2316443"><ele>343.25</ele><time>2026-05-02T06:56:15.437Z</time></trkpt><trkpt lat="44.9984694" lon="9.2317185"><ele>343.5</ele><time>2026-05-02T06:56:17.443Z</time></trkpt><trkpt lat="44.9983622" lon="9.2318069"><ele>343.75</ele><time>2026-05-02T06:56:19.519Z</time></trkpt><trkpt lat="44.9982578" lon="9.2318903"><ele>344.0</ele><time>2026-05-02T06:56:21.441Z</time></trkpt><trkpt lat="44.9981603" lon="9.231957"><ele>344.1666666666667</ele><time>2026-05-02T06:56:23.438Z</time></trkpt><trkpt lat="44.9980683" lon="9.2320323"><ele>344.33333333333337</ele><time>2026-05-02T06:56:25.438Z</time></trkpt><trkpt lat="44.9979795" lon="9.2320971"><ele>344.5</ele><time>2026-05-02T06:56:27.44Z</time></trkpt><trkpt lat="44.9979022" lon="9.2321446"><ele>344.6666666666667</ele><time>2026-05-02T06:56:29.442Z</time></trkpt><trkpt lat="44.9978398" lon="9.2321909"><ele>344.8333333333333</ele><time>2026-05-02T06:56:31.433Z</time></trkpt><trkpt lat="44.997771" lon="9.2322258"><ele>345.0</ele><time>2026-05-02T06:56:33.432Z</time></trkpt><trkpt lat="44.9976904" lon="9.2322692"><ele>345.0</ele><time>2026-05-02T06:56:35.436Z</time></trkpt><trkpt lat="44.9976101" lon="9.2322963"><ele>345.0</ele><time>2026-05-02T06:56:37.435Z</time></trkpt><trkpt lat="44.9975276" lon="9.2322923"><ele>345.0</ele><time>2026-05-02T06:56:39.439Z</time></trkpt><trkpt lat="44.9974408" lon="9.2322902"><ele>345.0</ele><time>2026-05-02T06:56:41.44Z</time></trkpt><trkpt lat="44.9973595" lon="9.2322837"><ele>345.0</ele><time>2026-05-02T06:56:43.433Z</time></trkpt><trkpt lat="44.9972834" lon="9.2322891"><ele>345.0</ele><time>2026-05-02T06:56:45.439Z</time></trkpt><trkpt lat="44.9972125" lon="9.2322923"><ele>345.14285714285717</ele><time>2026-05-02T06:56:47.432Z</time></trkpt><trkpt lat="44.9971394" lon="9.2323044"><ele>345.2857142857143</ele><time>2026-05-02T06:56:49.435Z</time></trkpt><trkpt lat="44.9970679" lon="9.2323244"><ele>345.42857142857144</ele><time>2026-05-02T06:56:51.44Z</time></trkpt><trkpt lat="44.9970038" lon="9.2323606"><ele>345.57142857142856</ele><time>2026-05-02T06:56:53.441Z</time></trkpt><trkpt lat="44.9969364" lon="9.2324121"><ele>345.7142857142857</ele><time>2026-05-02T06:56:55.434Z</time></trkpt><trkpt lat="44.9968707" lon="9.2324527"><ele>345.85714285714283</ele><time>2026-05-02T06:56:57.435Z</time></trkpt><trkpt lat="44.9968112" lon="9.2324868"><ele>346.0</ele><time>2026-05-02T06:56:59.437Z</time></trkpt><trkpt lat="44.9967453" lon="9.2325379"><ele>346.4285714285714</ele><time>2026-05-02T06:57:01.441Z</time></trkpt><trkpt lat="44.9966872" lon="9.2325841"><ele>346.8571428571429</ele><time>2026-05-02T06:57:03.44Z</time></trkpt><trkpt lat="44.9966267" lon="9.2326308"><ele>347.2857142857143</ele><time>2026-05-02T06:57:05.436Z</time></trkpt><trkpt lat="44.9965631" lon="9.2326774"><ele>347.71428571428567</ele><time>2026-05-02T06:57:07.434Z</time></trkpt><trkpt lat="44.9965051" lon="9.2327214"><ele>348.1428571428571</ele><time>2026-05-02T06:57:09.444Z</time></trkpt><trkpt lat="44.9964498" lon="9.232775"><ele>348.57142857142856</ele><time>2026-05-02T06:57:11.442Z</time></trkpt><trkpt lat="44.9963906" lon="9.2328328"><ele>349.0</ele><time>2026-05-02T06:57:13.437Z</time></trkpt><trkpt lat="44.9963306" lon="9.2328984"><ele>350.1428571428571</ele><time>2026-05-02T06:57:15.435Z</time></trkpt><trkpt lat="44.9962823" lon="9.2329657"><ele>351.2857142857143</ele><time>2026-05-02T06:57:17.435Z</time></trkpt><trkpt lat="44.9962353" lon="9.2330387"><ele>352.42857142857144</ele><time>2026-05-02T06:57:19.441Z</time></trkpt><trkpt lat="44.9961777" lon="9.2331108"><ele>353.57142857142856</ele><time>2026-05-02T06:57:21.44Z</time></trkpt><trkpt lat="44.9961231" lon="9.2331768"><ele>354.7142857142857</ele><time>2026-05-02T06:57:23.442Z</time></trkpt><trkpt lat="44.9960714" lon="9.2332397"><ele>355.85714285714283</ele><time>2026-05-02T06:57:25.436Z</time></trkpt><trkpt lat="44.9960211" lon="9.2333142"><ele>357.0</ele><time>2026-05-02T06:57:27.444Z</time></trkpt><trkpt lat="44.9959713" lon="9.2333781"><ele>357.0</ele><time>2026-05-02T06:57:29.447Z</time></trkpt><trkpt lat="44.9959229" lon="9.2334454"><ele>357.0</ele><time>2026-05-02T06:57:31.442Z</time></trkpt><trkpt lat="44.9958758" lon="9.2335122"><ele>357.0</ele><time>2026-05-02T06:57:33.44Z</time></trkpt><trkpt lat="44.9958275" lon="9.233582"><ele>357.0</ele><time>2026-05-02T06:57:35.437Z</time></trkpt><trkpt lat="44.9957714" lon="9.2336537"><ele>357.0</ele><time>2026-05-02T06:57:37.436Z</time></trkpt><trkpt lat="44.995726" lon="9.2337344"><ele>357.0</ele><time>2026-05-02T06:57:39.437Z</time></trkpt><trkpt lat="44.9956906" lon="9.2338221"><ele>357.0</ele><time>2026-05-02T06:57:41.441Z</time></trkpt><trkpt lat="44.9956396" lon="9.2339013"><ele>359.2857142857143</ele><time>2026-05-02T06:57:43.436Z</time></trkpt><trkpt lat="44.9955906" lon="9.2339929"><ele>361.57142857142856</ele><time>2026-05-02T06:57:45.436Z</time></trkpt><trkpt lat="44.9955507" lon="9.2340754"><ele>363.8571428571429</ele><time>2026-05-02T06:57:47.443Z</time></trkpt><trkpt lat="44.9955176" lon="9.2341575"><ele>366.1428571428571</ele><time>2026-05-02T06:57:49.437Z</time></trkpt><trkpt lat="44.9954867" lon="9.2342354"><ele>368.42857142857144</ele><time>2026-05-02T06:57:51.443Z</time></trkpt><trkpt lat="44.9954489" lon="9.2343179"><ele>370.7142857142857</ele><time>2026-05-02T06:57:53.444Z</time></trkpt><trkpt lat="44.995408" lon="9.234399"><ele>373.0</ele><time>2026-05-02T06:57:55.437Z</time></trkpt><trkpt lat="44.9953695" lon="9.2344847"><ele>373.0</ele><time>2026-05-02T06:57:57.446Z</time></trkpt><trkpt lat="44.9953199" lon="9.234597"><ele>373.0</ele><time>2026-05-02T06:58:00.441Z</time></trkpt><trkpt lat="44.9952768" lon="9.2347077"><ele>373.0</ele><time>2026-05-02T06:58:03.434Z</time></trkpt><trkpt lat="44.9952428" lon="9.2347877"><ele>373.0</ele><time>2026-05-02T06:58:05.434Z</time></trkpt><trkpt lat="44.995211" lon="9.2348715"><ele>373.0</ele><time>2026-05-02T06:58:07.442Z</time></trkpt><trkpt lat="44.9951566" lon="9.2349663"><ele>373.0</ele><time>2026-05-02T06:58:10.439Z</time></trkpt><trkpt lat="44.9951086" lon="9.2350655"><ele>372.3333333333333</ele><time>2026-05-02T06:58:13.441Z</time></trkpt><trkpt lat="44.9950696" lon="9.2351455"><ele>371.66666666666663</ele><time>2026-05-02T06:58:15.434Z</time></trkpt><trkpt lat="44.9950351" lon="9.2352285"><ele>371.0</ele><time>2026-05-02T06:58:17.437Z</time></trkpt><trkpt lat="44.9949909" lon="9.2353328"><ele>370.3333333333333</ele><time>2026-05-02T06:58:20.437Z</time></trkpt><trkpt lat="44.9949578" lon="9.2354535"><ele>369.6666666666667</ele><time>2026-05-02T06:58:23.435Z</time></trkpt><trkpt lat="44.9949334" lon="9.2355425"><ele>369.0</ele><time>2026-05-02T06:58:25.442Z</time></trkpt><trkpt lat="44.9949047" lon="9.2356383"><ele>372.79999999999995</ele><time>2026-05-02T06:58:27.447Z</time></trkpt><trkpt lat="44.9948762" lon="9.2357564"><ele>376.59999999999997</ele><time>2026-05-02T06:58:29.442Z</time></trkpt><trkpt lat="44.9948708" lon="9.2358742"><ele>380.4</ele><time>2026-05-02T06:58:31.444Z</time></trkpt><trkpt lat="44.9948772" lon="9.2360105"><ele>384.2</ele><time>2026-05-02T06:58:33.439Z</time></trkpt><trkpt lat="44.9948941" lon="9.2361572"><ele>388.0</ele><time>2026-05-02T06:58:35.442Z</time></trkpt><trkpt lat="44.9949103" lon="9.2363005"><ele>388.0</ele><time>2026-05-02T06:58:37.44Z</time></trkpt><trkpt lat="44.9949297" lon="9.2364649"><ele>388.0</ele><time>2026-05-02T06:58:39.44Z</time></trkpt><trkpt lat="44.9949301" lon="9.2366054"><ele>388.0</ele><time>2026-05-02T06:58:41.533Z</time></trkpt><trkpt lat="44.9949188" lon="9.2367364"><ele>388.0</ele><time>2026-05-02T06:58:43.444Z</time></trkpt><trkpt lat="44.9949156" lon="9.2368653"><ele>388.0</ele><time>2026-05-02T06:58:45.448Z</time></trkpt><trkpt lat="44.9949185" lon="9.2370171"><ele>388.00000000000006</ele><time>2026-05-02T06:58:47.436Z</time></trkpt><trkpt lat="44.9949517" lon="9.2371457"><ele>388.0</ele><time>2026-05-02T06:58:49.44Z</time></trkpt><trkpt lat="44.9949849" lon="9.2372847"><ele>388.0</ele><time>2026-05-02T06:58:51.435Z</time></trkpt><trkpt lat="44.9950071" lon="9.2373891"><ele>388.0</ele><time>2026-05-02T06:58:53.435Z</time></trkpt><trkpt lat="44.9950337" lon="9.2375143"><ele>388.00000000000006</ele><time>2026-05-02T06:58:56.439Z</time></trkpt><trkpt lat="44.9950536" lon="9.237617"><ele>388.0</ele><time>2026-05-02T06:58:58.45Z</time></trkpt><trkpt lat="44.9950648" lon="9.2377136"><ele>387.4</ele><time>2026-05-02T06:59:00.441Z</time></trkpt><trkpt lat="44.9950667" lon="9.2378139"><ele>386.79999999999995</ele><time>2026-05-02T06:59:02.441Z</time></trkpt><trkpt lat="44.9950584" lon="9.2379324"><ele>386.2</ele><time>2026-05-02T06:59:04.444Z</time></trkpt><trkpt lat="44.9950465" lon="9.2380665"><ele>385.6</ele><time>2026-05-02T06:59:06.444Z</time></trkpt><trkpt lat="44.9950237" lon="9.2381924"><ele>385.0</ele><time>2026-05-02T06:59:08.519Z</time></trkpt><trkpt lat="44.994987" lon="9.2383394"><ele>385.0</ele><time>2026-05-02T06:59:10.445Z</time></trkpt><trkpt lat="44.9949608" lon="9.2384248"><ele>385.0</ele><time>2026-05-02T06:59:11.441Z</time></trkpt><trkpt lat="44.9949324" lon="9.238517"><ele>385.0</ele><time>2026-05-02T06:59:12.44Z</time></trkpt><trkpt lat="44.9948944" lon="9.2386081"><ele>385.0</ele><time>2026-05-02T06:59:13.436Z</time></trkpt><trkpt lat="44.9948539" lon="9.238692"><ele>385.0</ele><time>2026-05-02T06:59:14.442Z</time></trkpt><trkpt lat="44.9948158" lon="9.2387809"><ele>385.0</ele><time>2026-05-02T06:59:15.436Z</time></trkpt><trkpt lat="44.994773" lon="9.2388719"><ele>385.0</ele><time>2026-05-02T06:59:16.441Z</time></trkpt><trkpt lat="44.9947305" lon="9.2389615"><ele>383.0</ele><time>2026-05-02T06:59:17.443Z</time></trkpt><trkpt lat="44.9946924" lon="9.2390518"><ele>381.0</ele><time>2026-05-02T06:59:18.519Z</time></trkpt><trkpt lat="44.9946603" lon="9.2391404"><ele>379.0</ele><time>2026-05-02T06:59:19.434Z</time></trkpt><trkpt lat="44.9946292" lon="9.2392212"><ele>377.0</ele><time>2026-05-02T06:59:20.451Z</time></trkpt><trkpt lat="44.994581" lon="9.2393697"><ele>375.0</ele><time>2026-05-02T06:59:22.441Z</time></trkpt><trkpt lat="44.994536" lon="9.2395334"><ele>375.0</ele><time>2026-05-02T06:59:24.444Z</time></trkpt><trkpt lat="44.9945093" lon="9.2396646"><ele>375.0</ele><time>2026-05-02T06:59:26.442Z</time></trkpt><trkpt lat="44.9944942" lon="9.2398356"><ele>375.0</ele><time>2026-05-02T06:59:28.45Z</time></trkpt><trkpt lat="44.9945017" lon="9.2399642"><ele>375.0</ele><time>2026-05-02T06:59:30.443Z</time></trkpt><trkpt lat="44.9945092" lon="9.2400832"><ele>375.0</ele><time>2026-05-02T06:59:32.452Z</time></trkpt><trkpt lat="44.9945158" lon="9.2401772"><ele>373.6666666666667</ele><time>2026-05-02T06:59:34.44Z</time></trkpt><trkpt lat="44.9945326" lon="9.2403027"><ele>372.3333333333333</ele><time>2026-05-02T06:59:37.451Z</time></trkpt><trkpt lat="44.9945449" lon="9.2404301"><ele>371.0</ele><time>2026-05-02T06:59:40.434Z</time></trkpt><trkpt lat="44.9945429" lon="9.2405251"><ele>369.66666666666663</ele><time>2026-05-02T06:59:42.436Z</time></trkpt><trkpt lat="44.9945547" lon="9.2406242"><ele>368.3333333333333</ele><time>2026-05-02T06:59:44.442Z</time></trkpt><trkpt lat="44.9945855" lon="9.2407456"><ele>367.0</ele><time>2026-05-02T06:59:46.441Z</time></trkpt><trkpt lat="44.994625" lon="9.2408741"><ele>366.6</ele><time>2026-05-02T06:59:48.435Z</time></trkpt><trkpt lat="44.9946942" lon="9.2410078"><ele>366.20000000000005</ele><time>2026-05-02T06:59:50.444Z</time></trkpt><trkpt lat="44.9947336" lon="9.2410804"><ele>365.8</ele><time>2026-05-02T06:59:51.441Z</time></trkpt><trkpt lat="44.9947999" lon="9.2412269"><ele>365.4</ele><time>2026-05-02T06:59:53.443Z</time></trkpt><trkpt lat="44.9948701" lon="9.2413709"><ele>365.0</ele><time>2026-05-02T06:59:55.439Z</time></trkpt><trkpt lat="44.9948971" lon="9.2414555"><ele>364.8571428571429</ele><time>2026-05-02T06:59:56.449Z</time></trkpt><trkpt lat="44.9949181" lon="9.2415525"><ele>364.7142857142857</ele><time>2026-05-02T06:59:57.437Z</time></trkpt><trkpt lat="44.9949276" lon="9.2416439"><ele>364.57142857142856</ele><time>2026-05-02T06:59:58.445Z</time></trkpt><trkpt lat="44.9949359" lon="9.2417458"><ele>364.42857142857144</ele><time>2026-05-02T06:59:59.52Z</time></trkpt><trkpt lat="44.9949462" lon="9.2418526"><ele>364.2857142857143</ele><time>2026-05-02T07:00:00.439Z</time></trkpt><trkpt lat="44.9949634" lon="9.2419538"><ele>364.14285714285717</ele><time>2026-05-02T07:00:01.446Z</time></trkpt><trkpt lat="44.9949794" lon="9.2420553"><ele>364.0</ele><time>2026-05-02T07:00:02.444Z</time></trkpt><trkpt lat="44.9950122" lon="9.2421432"><ele>360.5</ele><time>2026-05-02T07:00:03.446Z</time></trkpt><trkpt lat="44.9950501" lon="9.2422258"><ele>357.0</ele><time>2026-05-02T07:00:04.45Z</time></trkpt><trkpt lat="44.9950874" lon="9.2423208"><ele>353.5</ele><time>2026-05-02T07:00:05.438Z</time></trkpt><trkpt lat="44.9951251" lon="9.2424147"><ele>350.0</ele><time>2026-05-02T07:00:06.44Z</time></trkpt><trkpt lat="44.9951622" lon="9.2425112"><ele>346.5</ele><time>2026-05-02T07:00:07.437Z</time></trkpt><trkpt lat="44.9952012" lon="9.2426062"><ele>343.0</ele><time>2026-05-02T07:00:08.435Z</time></trkpt><trkpt lat="44.9952374" lon="9.2427064"><ele>343.0</ele><time>2026-05-02T07:00:09.439Z</time></trkpt><trkpt lat="44.99528" lon="9.2428053"><ele>343.0</ele><time>2026-05-02T07:00:10.445Z</time></trkpt><trkpt lat="44.9953263" lon="9.2429049"><ele>343.0</ele><time>2026-05-02T07:00:11.433Z</time></trkpt><trkpt lat="44.9953692" lon="9.2429934"><ele>343.0</ele><time>2026-05-02T07:00:12.449Z</time></trkpt><trkpt lat="44.995411" lon="9.2430816"><ele>343.0</ele><time>2026-05-02T07:00:13.441Z</time></trkpt><trkpt lat="44.9954596" lon="9.2431582"><ele>343.0</ele><time>2026-05-02T07:00:14.448Z</time></trkpt><trkpt lat="44.9955133" lon="9.2432225"><ele>344.3333333333333</ele><time>2026-05-02T07:00:15.435Z</time></trkpt><trkpt lat="44.9956036" lon="9.2433132"><ele>345.66666666666663</ele><time>2026-05-02T07:00:17.445Z</time></trkpt><trkpt lat="44.9956822" lon="9.243332"><ele>347.0</ele><time>2026-05-02T07:00:19.434Z</time></trkpt><trkpt lat="44.9957751" lon="9.2433857"><ele>348.3333333333333</ele><time>2026-05-02T07:00:21.442Z</time></trkpt><trkpt lat="44.9958632" lon="9.2434164"><ele>349.6666666666667</ele><time>2026-05-02T07:00:23.444Z</time></trkpt><trkpt lat="44.9959204" lon="9.243463"><ele>351.0</ele><time>2026-05-02T07:00:25.447Z</time></trkpt><trkpt lat="44.9960063" lon="9.2435987"><ele>348.0</ele><time>2026-05-02T07:00:27.437Z</time></trkpt><trkpt lat="44.99606" lon="9.2436875"><ele>345.0</ele><time>2026-05-02T07:00:28.514Z</time></trkpt><trkpt lat="44.9961175" lon="9.2437825"><ele>342.0</ele><time>2026-05-02T07:00:29.436Z</time></trkpt><trkpt lat="44.9961732" lon="9.243878"><ele>339.0</ele><time>2026-05-02T07:00:30.439Z</time></trkpt><trkpt lat="44.9962302" lon="9.2439825"><ele>336.0</ele><time>2026-05-02T07:00:31.437Z</time></trkpt><trkpt lat="44.9962795" lon="9.2440876"><ele>333.0</ele><time>2026-05-02T07:00:32.447Z</time></trkpt><trkpt lat="44.996327" lon="9.2441822"><ele>333.0</ele><time>2026-05-02T07:00:33.444Z</time></trkpt><trkpt lat="44.9963771" lon="9.2442821"><ele>333.0</ele><time>2026-05-02T07:00:34.433Z</time></trkpt><trkpt lat="44.9964259" lon="9.2443795"><ele>333.0</ele><time>2026-05-02T07:00:35.45Z</time></trkpt><trkpt lat="44.9964679" lon="9.2444734"><ele>333.0</ele><time>2026-05-02T07:00:36.446Z</time></trkpt><trkpt lat="44.9965202" lon="9.244572"><ele>333.0</ele><time>2026-05-02T07:00:37.433Z</time></trkpt><trkpt lat="44.9965641" lon="9.2446612"><ele>333.0</ele><time>2026-05-02T07:00:38.448Z</time></trkpt><trkpt lat="44.9966019" lon="9.2447472"><ele>334.1666666666667</ele><time>2026-05-02T07:00:39.514Z</time></trkpt><trkpt lat="44.9966377" lon="9.2448302"><ele>335.3333333333333</ele><time>2026-05-02T07:00:40.444Z</time></trkpt><trkpt lat="44.9966678" lon="9.2449137"><ele>336.5</ele><time>2026-05-02T07:00:41.44Z</time></trkpt><trkpt lat="44.9967049" lon="9.2449894"><ele>337.66666666666663</ele><time>2026-05-02T07:00:42.437Z</time></trkpt><trkpt lat="44.996789" lon="9.2450976"><ele>338.8333333333333</ele><time>2026-05-02T07:00:44.451Z</time></trkpt><trkpt lat="44.9968354" lon="9.2451827"><ele>340.0</ele><time>2026-05-02T07:00:46.436Z</time></trkpt><trkpt lat="44.9968662" lon="9.2452688"><ele>337.8</ele><time>2026-05-02T07:00:48.444Z</time></trkpt><trkpt lat="44.9968933" lon="9.245363"><ele>335.6</ele><time>2026-05-02T07:00:50.441Z</time></trkpt><trkpt lat="44.996902" lon="9.2455001"><ele>333.4</ele><time>2026-05-02T07:00:52.437Z</time></trkpt><trkpt lat="44.9969253" lon="9.2456591"><ele>331.2</ele><time>2026-05-02T07:00:54.517Z</time></trkpt><trkpt lat="44.9969507" lon="9.2458271"><ele>329.0</ele><time>2026-05-02T07:00:56.45Z</time></trkpt><trkpt lat="44.9969621" lon="9.2459285"><ele>329.0</ele><time>2026-05-02T07:00:57.441Z</time></trkpt><trkpt lat="44.9969718" lon="9.246027"><ele>329.0</ele><time>2026-05-02T07:00:58.439Z</time></trkpt><trkpt lat="44.9969888" lon="9.2461346"><ele>329.0</ele><time>2026-05-02T07:00:59.437Z</time></trkpt><trkpt lat="44.9970038" lon="9.2462412"><ele>329.0</ele><time>2026-05-02T07:01:00.434Z</time></trkpt><trkpt lat="44.997019" lon="9.2463352"><ele>329.0</ele><time>2026-05-02T07:01:01.435Z</time></trkpt><trkpt lat="44.9970448" lon="9.2464738"><ele>329.0</ele><time>2026-05-02T07:01:03.434Z</time></trkpt><trkpt lat="44.9970628" lon="9.2465608"><ele>328.4</ele><time>2026-05-02T07:01:05.439Z</time></trkpt><trkpt lat="44.9970474" lon="9.2466583"><ele>327.79999999999995</ele><time>2026-05-02T07:01:07.439Z</time></trkpt><trkpt lat="44.9970195" lon="9.2467715"><ele>327.20000000000005</ele><time>2026-05-02T07:01:09.518Z</time></trkpt><trkpt lat="44.9970009" lon="9.2469246"><ele>326.6</ele><time>2026-05-02T07:01:11.444Z</time></trkpt><trkpt lat="44.9969769" lon="9.2470984"><ele>326.0</ele><time>2026-05-02T07:01:13.44Z</time></trkpt><trkpt lat="44.9969624" lon="9.2471947"><ele>326.0</ele><time>2026-05-02T07:01:14.435Z</time></trkpt><trkpt lat="44.9969511" lon="9.24729"><ele>326.0</ele><time>2026-05-02T07:01:15.443Z</time></trkpt><trkpt lat="44.9969342" lon="9.2473882"><ele>326.0</ele><time>2026-05-02T07:01:16.437Z</time></trkpt><trkpt lat="44.9969191" lon="9.2474932"><ele>326.0</ele><time>2026-05-02T07:01:17.437Z</time></trkpt><trkpt lat="44.9969026" lon="9.2476078"><ele>326.0</ele><time>2026-05-02T07:01:18.436Z</time></trkpt><trkpt lat="44.996886" lon="9.2477192"><ele>326.0</ele><time>2026-05-02T07:01:19.443Z</time></trkpt><trkpt lat="44.9968637" lon="9.2478268"><ele>325.0</ele><time>2026-05-02T07:01:20.437Z</time></trkpt><trkpt lat="44.9968353" lon="9.2479342"><ele>324.0</ele><time>2026-05-02T07:01:21.432Z</time></trkpt><trkpt lat="44.9968034" lon="9.2480339"><ele>323.0</ele><time>2026-05-02T07:01:22.444Z</time></trkpt><trkpt lat="44.9967679" lon="9.2481435"><ele>322.0</ele><time>2026-05-02T07:01:23.445Z</time></trkpt><trkpt lat="44.9967281" lon="9.2482522"><ele>321.0</ele><time>2026-05-02T07:01:24.44Z</time></trkpt><trkpt lat="44.9966801" lon="9.2483567"><ele>320.0</ele><time>2026-05-02T07:01:25.435Z</time></trkpt><trkpt lat="44.9966298" lon="9.24846"><ele>320.0</ele><time>2026-05-02T07:01:26.446Z</time></trkpt><trkpt lat="44.9965806" lon="9.248565"><ele>320.0</ele><time>2026-05-02T07:01:27.44Z</time></trkpt><trkpt lat="44.9965336" lon="9.2486723"><ele>320.0</ele><time>2026-05-02T07:01:28.436Z</time></trkpt><trkpt lat="44.9964887" lon="9.2487761"><ele>320.0</ele><time>2026-05-02T07:01:29.433Z</time></trkpt><trkpt lat="44.9964423" lon="9.2488781"><ele>320.0</ele><time>2026-05-02T07:01:30.43Z</time></trkpt><trkpt lat="44.9963987" lon="9.2489857"><ele>320.0</ele><time>2026-05-02T07:01:31.441Z</time></trkpt><trkpt lat="44.9963548" lon="9.2490852"><ele>318.7142857142857</ele><time>2026-05-02T07:01:32.443Z</time></trkpt><trkpt lat="44.9963067" lon="9.2491808"><ele>317.42857142857144</ele><time>2026-05-02T07:01:33.439Z</time></trkpt><trkpt lat="44.9962606" lon="9.2492662"><ele>316.1428571428571</ele><time>2026-05-02T07:01:34.436Z</time></trkpt><trkpt lat="44.9962185" lon="9.2493442"><ele>314.8571428571429</ele><time>2026-05-02T07:01:35.523Z</time></trkpt><trkpt lat="44.9961773" lon="9.2494182"><ele>313.5714285714286</ele><time>2026-05-02T07:01:36.441Z</time></trkpt><trkpt lat="44.9961289" lon="9.2494912"><ele>312.2857142857143</ele><time>2026-05-02T07:01:37.436Z</time></trkpt><trkpt lat="44.9960794" lon="9.249565"><ele>311.0</ele><time>2026-05-02T07:01:38.441Z</time></trkpt><trkpt lat="44.9960293" lon="9.2496311"><ele>311.0</ele><time>2026-05-02T07:01:39.433Z</time></trkpt><trkpt lat="44.9959688" lon="9.2497048"><ele>311.0</ele><time>2026-05-02T07:01:40.443Z</time></trkpt><trkpt lat="44.9959071" lon="9.2497829"><ele>311.0</ele><time>2026-05-02T07:01:41.428Z</time></trkpt><trkpt lat="44.9958436" lon="9.249857"><ele>311.0</ele><time>2026-05-02T07:01:42.443Z</time></trkpt><trkpt lat="44.9957883" lon="9.2499264"><ele>311.0</ele><time>2026-05-02T07:01:43.443Z</time></trkpt><trkpt lat="44.9957288" lon="9.2499927"><ele>311.0</ele><time>2026-05-02T07:01:44.443Z</time></trkpt><trkpt lat="44.9956647" lon="9.2500694"><ele>309.83333333333337</ele><time>2026-05-02T07:01:45.434Z</time></trkpt><trkpt lat="44.9956034" lon="9.2501523"><ele>308.6666666666667</ele><time>2026-05-02T07:01:46.438Z</time></trkpt><trkpt lat="44.9955492" lon="9.2502367"><ele>307.5</ele><time>2026-05-02T07:01:47.432Z</time></trkpt><trkpt lat="44.9954972" lon="9.2503264"><ele>306.3333333333333</ele><time>2026-05-02T07:01:48.44Z</time></trkpt><trkpt lat="44.9954495" lon="9.2504138"><ele>305.16666666666663</ele><time>2026-05-02T07:01:49.44Z</time></trkpt><trkpt lat="44.9954092" lon="9.2505162"><ele>304.0</ele><time>2026-05-02T07:01:50.438Z</time></trkpt><trkpt lat="44.9953746" lon="9.250616"><ele>301.59999999999997</ele><time>2026-05-02T07:01:51.437Z</time></trkpt><trkpt lat="44.9953395" lon="9.2507313"><ele>299.2</ele><time>2026-05-02T07:01:52.449Z</time></trkpt><trkpt lat="44.9953086" lon="9.2508484"><ele>296.79999999999995</ele><time>2026-05-02T07:01:53.441Z</time></trkpt><trkpt lat="44.9952692" lon="9.2509704"><ele>294.4</ele><time>2026-05-02T07:01:54.449Z</time></trkpt><trkpt lat="44.9952292" lon="9.2510927"><ele>292.0</ele><time>2026-05-02T07:01:55.509Z</time></trkpt><trkpt lat="44.9951936" lon="9.2511982"><ele>292.0</ele><time>2026-05-02T07:01:56.445Z</time></trkpt><trkpt lat="44.9951512" lon="9.2512888"><ele>292.0</ele><time>2026-05-02T07:01:57.446Z</time></trkpt><trkpt lat="44.9951001" lon="9.2513692"><ele>292.0</ele><time>2026-05-02T07:01:58.443Z</time></trkpt><trkpt lat="44.9950331" lon="9.251447"><ele>292.0</ele><time>2026-05-02T07:01:59.434Z</time></trkpt><trkpt lat="44.9949678" lon="9.2515315"><ele>292.0</ele><time>2026-05-02T07:02:00.443Z</time></trkpt><trkpt lat="44.9949038" lon="9.2516198"><ele>292.0</ele><time>2026-05-02T07:02:01.527Z</time></trkpt><trkpt lat="44.9948449" lon="9.2517087"><ele>290.3333333333333</ele><time>2026-05-02T07:02:02.439Z</time></trkpt><trkpt lat="44.9947933" lon="9.2518037"><ele>288.66666666666663</ele><time>2026-05-02T07:02:03.448Z</time></trkpt><trkpt lat="44.9947501" lon="9.2519056"><ele>287.0</ele><time>2026-05-02T07:02:04.446Z</time></trkpt><trkpt lat="44.9947139" lon="9.2520181"><ele>285.3333333333333</ele><time>2026-05-02T07:02:05.437Z</time></trkpt><trkpt lat="44.9946887" lon="9.2521364"><ele>283.6666666666667</ele><time>2026-05-02T07:02:06.443Z</time></trkpt><trkpt lat="44.9946727" lon="9.2522496"><ele>282.0</ele><time>2026-05-02T07:02:07.435Z</time></trkpt><trkpt lat="44.9946609" lon="9.2523662"><ele>280.3333333333333</ele><time>2026-05-02T07:02:08.458Z</time></trkpt><trkpt lat="44.994653" lon="9.2524875"><ele>278.6666666666667</ele><time>2026-05-02T07:02:09.438Z</time></trkpt><trkpt lat="44.9946435" lon="9.2526186"><ele>277.0</ele><time>2026-05-02T07:02:10.442Z</time></trkpt><trkpt lat="44.9946318" lon="9.2527493"><ele>275.33333333333337</ele><time>2026-05-02T07:02:11.439Z</time></trkpt><trkpt lat="44.9946221" lon="9.252876"><ele>273.6666666666667</ele><time>2026-05-02T07:02:12.437Z</time></trkpt><trkpt lat="44.9946098" lon="9.2529947"><ele>272.0</ele><time>2026-05-02T07:02:13.437Z</time></trkpt><trkpt lat="44.9945913" lon="9.2531153"><ele>270.6666666666667</ele><time>2026-05-02T07:02:14.437Z</time></trkpt><trkpt lat="44.9945725" lon="9.2532393"><ele>269.33333333333337</ele><time>2026-05-02T07:02:15.44Z</time></trkpt><trkpt lat="44.9945533" lon="9.2533618"><ele>268.0</ele><time>2026-05-02T07:02:16.442Z</time></trkpt><trkpt lat="44.994543" lon="9.2534891"><ele>266.6666666666667</ele><time>2026-05-02T07:02:17.441Z</time></trkpt><trkpt lat="44.9945329" lon="9.2536089"><ele>265.3333333333333</ele><time>2026-05-02T07:02:18.433Z</time></trkpt><trkpt lat="44.9945287" lon="9.2537164"><ele>264.0</ele><time>2026-05-02T07:02:19.439Z</time></trkpt><trkpt lat="44.9945255" lon="9.2538282"><ele>264.0</ele><time>2026-05-02T07:02:20.445Z</time></trkpt><trkpt lat="44.99452" lon="9.2539281"><ele>264.0</ele><time>2026-05-02T07:02:21.444Z</time></trkpt><trkpt lat="44.9944929" lon="9.2540715"><ele>264.0</ele><time>2026-05-02T07:02:23.44Z</time></trkpt><trkpt lat="44.9944301" lon="9.2542129"><ele>264.0</ele><time>2026-05-02T07:02:25.436Z</time></trkpt><trkpt lat="44.9943922" lon="9.2542845"><ele>264.0</ele><time>2026-05-02T07:02:26.437Z</time></trkpt><trkpt lat="44.9943521" lon="9.2543538"><ele>264.0</ele><time>2026-05-02T07:02:27.443Z</time></trkpt><trkpt lat="44.9942745" lon="9.2544813"><ele>263.0</ele><time>2026-05-02T07:02:29.433Z</time></trkpt><trkpt lat="44.9941892" lon="9.2545926"><ele>262.0</ele><time>2026-05-02T07:02:31.435Z</time></trkpt><trkpt lat="44.9941124" lon="9.2547144"><ele>261.0</ele><time>2026-05-02T07:02:33.447Z</time></trkpt><trkpt lat="44.9940507" lon="9.2548252"><ele>260.0</ele><time>2026-05-02T07:02:35.451Z</time></trkpt><trkpt lat="44.993995" lon="9.2549102"><ele>259.0</ele><time>2026-05-02T07:02:37.443Z</time></trkpt><trkpt lat="44.9939432" lon="9.2549608"><ele>258.66666666666663</ele><time>2026-05-02T07:02:40.514Z</time></trkpt><trkpt lat="44.9938695" lon="9.2549547"><ele>258.3333333333333</ele><time>2026-05-02T07:02:52.443Z</time></trkpt><trkpt lat="44.993787" lon="9.2549361"><ele>258.0</ele><time>2026-05-02T07:02:54.448Z</time></trkpt><trkpt lat="44.9936941" lon="9.2549357"><ele>257.6666666666667</ele><time>2026-05-02T07:02:56.444Z</time></trkpt><trkpt lat="44.9935816" lon="9.2549573"><ele>257.33333333333337</ele><time>2026-05-02T07:02:58.437Z</time></trkpt><trkpt lat="44.9935169" lon="9.2549801"><ele>257.0</ele><time>2026-05-02T07:02:59.439Z</time></trkpt><trkpt lat="44.9934538" lon="9.2550097"><ele>257.0</ele><time>2026-05-02T07:03:00.445Z</time></trkpt><trkpt lat="44.9933842" lon="9.2550386"><ele>257.0</ele><time>2026-05-02T07:03:01.444Z</time></trkpt><trkpt lat="44.9933234" lon="9.2550676"><ele>257.0</ele><time>2026-05-02T07:03:02.441Z</time></trkpt><trkpt lat="44.9932213" lon="9.2551044"><ele>257.0</ele><time>2026-05-02T07:03:04.441Z</time></trkpt><trkpt lat="44.9931109" lon="9.2551224"><ele>257.0</ele><time>2026-05-02T07:03:06.442Z</time></trkpt><trkpt lat="44.9930158" lon="9.2551542"><ele>255.39999999999998</ele><time>2026-05-02T07:03:08.443Z</time></trkpt><trkpt lat="44.9929159" lon="9.255194"><ele>253.79999999999998</ele><time>2026-05-02T07:03:10.446Z</time></trkpt><trkpt lat="44.9928271" lon="9.2552154"><ele>252.2</ele><time>2026-05-02T07:03:12.443Z</time></trkpt><trkpt lat="44.9927272" lon="9.2552424"><ele>250.6</ele><time>2026-05-02T07:03:14.439Z</time></trkpt><trkpt lat="44.9926318" lon="9.2552841"><ele>249.0</ele><time>2026-05-02T07:03:16.438Z</time></trkpt><trkpt lat="44.9925767" lon="9.2554138"><ele>249.0</ele><time>2026-05-02T07:03:18.439Z</time></trkpt><trkpt lat="44.9925677" lon="9.2555472"><ele>249.0</ele><time>2026-05-02T07:03:20.439Z</time></trkpt><trkpt lat="44.9925518" lon="9.2556451"><ele>249.0</ele><time>2026-05-02T07:03:22.44Z</time></trkpt><trkpt lat="44.9924705" lon="9.2556971"><ele>249.0</ele><time>2026-05-02T07:03:25.431Z</time></trkpt><trkpt lat="44.9923715" lon="9.25572"><ele>249.0</ele><time>2026-05-02T07:03:27.439Z</time></trkpt><trkpt lat="44.9923063" lon="9.255742"><ele>249.0</ele><time>2026-05-02T07:03:28.437Z</time></trkpt><trkpt lat="44.9922298" lon="9.2557744"><ele>246.6</ele><time>2026-05-02T07:03:29.447Z</time></trkpt><trkpt lat="44.99215" lon="9.2558038"><ele>244.2</ele><time>2026-05-02T07:03:30.436Z</time></trkpt><trkpt lat="44.9920674" lon="9.2558333"><ele>241.79999999999998</ele><time>2026-05-02T07:03:31.433Z</time></trkpt><trkpt lat="44.9919697" lon="9.255869"><ele>239.39999999999998</ele><time>2026-05-02T07:03:32.448Z</time></trkpt><trkpt lat="44.9918705" lon="9.255911"><ele>237.0</ele><time>2026-05-02T07:03:33.44Z</time></trkpt><trkpt lat="44.9917761" lon="9.2559572"><ele>236.99999999999997</ele><time>2026-05-02T07:03:34.512Z</time></trkpt><trkpt lat="44.9917202" lon="9.2560147"><ele>237.0</ele><time>2026-05-02T07:03:35.436Z</time></trkpt><trkpt lat="44.9916691" lon="9.2560731"><ele>236.99999999999997</ele><time>2026-05-02T07:03:36.433Z</time></trkpt><trkpt lat="44.9916248" lon="9.2561408"><ele>236.99999999999997</ele><time>2026-05-02T07:03:37.434Z</time></trkpt><trkpt lat="44.991569" lon="9.2562128"><ele>237.0</ele><time>2026-05-02T07:03:38.44Z</time></trkpt><trkpt lat="44.9915178" lon="9.2562819"><ele>236.99999999999997</ele><time>2026-05-02T07:03:39.432Z</time></trkpt><trkpt lat="44.9914618" lon="9.2563583"><ele>236.99999999999997</ele><time>2026-05-02T07:03:40.443Z</time></trkpt><trkpt lat="44.9913993" lon="9.2564362"><ele>233.66666666666666</ele><time>2026-05-02T07:03:41.439Z</time></trkpt><trkpt lat="44.9913337" lon="9.2565203"><ele>230.33333333333331</ele><time>2026-05-02T07:03:42.432Z</time></trkpt><trkpt lat="44.9912742" lon="9.2566029"><ele>227.0</ele><time>2026-05-02T07:03:43.434Z</time></trkpt><trkpt lat="44.9912261" lon="9.256677"><ele>223.66666666666666</ele><time>2026-05-02T07:03:44.438Z</time></trkpt><trkpt lat="44.9911778" lon="9.2567382"><ele>220.33333333333331</ele><time>2026-05-02T07:03:45.436Z</time></trkpt><trkpt lat="44.9911356" lon="9.2568075"><ele>217.0</ele><time>2026-05-02T07:03:46.503Z</time></trkpt><trkpt lat="44.9910735" lon="9.2569477"><ele>217.0</ele><time>2026-05-02T07:03:48.439Z</time></trkpt><trkpt lat="44.9910503" lon="9.2570316"><ele>217.0</ele><time>2026-05-02T07:03:49.502Z</time></trkpt><trkpt lat="44.9910219" lon="9.2571929"><ele>217.0</ele><time>2026-05-02T07:03:51.448Z</time></trkpt><trkpt lat="44.9910003" lon="9.2573471"><ele>217.0</ele><time>2026-05-02T07:03:53.446Z</time></trkpt><trkpt lat="44.9909435" lon="9.2574854"><ele>217.0</ele><time>2026-05-02T07:03:55.445Z</time></trkpt><trkpt lat="44.9908996" lon="9.2575567"><ele>216.83333333333331</ele><time>2026-05-02T07:03:56.441Z</time></trkpt><trkpt lat="44.9908488" lon="9.2576313"><ele>216.66666666666666</ele><time>2026-05-02T07:03:57.445Z</time></trkpt><trkpt lat="44.9907903" lon="9.2577023"><ele>216.5</ele><time>2026-05-02T07:03:58.446Z</time></trkpt><trkpt lat="44.990732" lon="9.2577606"><ele>216.33333333333331</ele><time>2026-05-02T07:03:59.443Z</time></trkpt><trkpt lat="44.9906587" lon="9.2578209"><ele>216.16666666666666</ele><time>2026-05-02T07:04:00.438Z</time></trkpt><trkpt lat="44.9905781" lon="9.257863"><ele>216.0</ele><time>2026-05-02T07:04:01.507Z</time></trkpt><trkpt lat="44.9904955" lon="9.2578854"><ele>212.83333333333334</ele><time>2026-05-02T07:04:02.525Z</time></trkpt><trkpt lat="44.990419" lon="9.2579183"><ele>209.66666666666669</ele><time>2026-05-02T07:04:03.445Z</time></trkpt><trkpt lat="44.9903542" lon="9.2579479"><ele>206.5</ele><time>2026-05-02T07:04:04.443Z</time></trkpt><trkpt lat="44.9902916" lon="9.2579833"><ele>203.33333333333334</ele><time>2026-05-02T07:04:05.442Z</time></trkpt><trkpt lat="44.9902073" lon="9.2580842"><ele>200.16666666666669</ele><time>2026-05-02T07:04:07.439Z</time></trkpt><trkpt lat="44.9901505" lon="9.2582122"><ele>197.0</ele><time>2026-05-02T07:04:09.438Z</time></trkpt><trkpt lat="44.9901127" lon="9.2583185"><ele>195.14285714285714</ele><time>2026-05-02T07:04:11.439Z</time></trkpt><trkpt lat="44.9900543" lon="9.2583898"><ele>193.28571428571428</ele><time>2026-05-02T07:04:14.435Z</time></trkpt><trkpt lat="44.9899959" lon="9.2583326"><ele>191.42857142857144</ele><time>2026-05-02T07:04:17.495Z</time></trkpt><trkpt lat="44.989927" lon="9.2582824"><ele>189.57142857142856</ele><time>2026-05-02T07:04:20.435Z</time></trkpt><trkpt lat="44.9898703" lon="9.2582405"><ele>187.7142857142857</ele><time>2026-05-02T07:04:22.432Z</time></trkpt><trkpt lat="44.9898122" lon="9.2581936"><ele>185.85714285714286</ele><time>2026-05-02T07:04:24.434Z</time></trkpt><trkpt lat="44.9897486" lon="9.2581603"><ele>184.0</ele><time>2026-05-02T07:04:26.435Z</time></trkpt><trkpt lat="44.9896562" lon="9.2581253"><ele>184.0</ele><time>2026-05-02T07:04:29.439Z</time></trkpt><trkpt lat="44.9895901" lon="9.2580952"><ele>184.0</ele><time>2026-05-02T07:04:31.439Z</time></trkpt><trkpt lat="44.98952" lon="9.2580743"><ele>184.0</ele><time>2026-05-02T07:04:33.437Z</time></trkpt><trkpt lat="44.9894491" lon="9.2580526"><ele>184.0</ele><time>2026-05-02T07:04:35.436Z</time></trkpt><trkpt lat="44.989376" lon="9.2580293"><ele>184.0</ele><time>2026-05-02T07:04:37.441Z</time></trkpt><trkpt lat="44.9893023" lon="9.2580057"><ele>184.0</ele><time>2026-05-02T07:04:39.428Z</time></trkpt><trkpt lat="44.9892337" lon="9.2579744"><ele>184.0</ele><time>2026-05-02T07:04:41.436Z</time></trkpt><trkpt lat="44.9891635" lon="9.2579414"><ele>183.5</ele><time>2026-05-02T07:04:43.434Z</time></trkpt><trkpt lat="44.9890998" lon="9.2579067"><ele>183.0</ele><time>2026-05-02T07:04:45.434Z</time></trkpt><trkpt lat="44.9890236" lon="9.2578622"><ele>182.5</ele><time>2026-05-02T07:04:47.431Z</time></trkpt><trkpt lat="44.9889468" lon="9.2578054"><ele>182.0</ele><time>2026-05-02T07:04:49.44Z</time></trkpt><trkpt lat="44.9888687" lon="9.2577609"><ele>181.5</ele><time>2026-05-02T07:04:51.44Z</time></trkpt><trkpt lat="44.9888068" lon="9.2577023"><ele>181.0</ele><time>2026-05-02T07:04:53.434Z</time></trkpt><trkpt lat="44.9887553" lon="9.2576277"><ele>181.0</ele><time>2026-05-02T07:04:55.441Z</time></trkpt><trkpt lat="44.9886911" lon="9.2575592"><ele>181.0</ele><time>2026-05-02T07:04:57.44Z</time></trkpt><trkpt lat="44.9886332" lon="9.257484"><ele>181.0</ele><time>2026-05-02T07:04:59.438Z</time></trkpt><trkpt lat="44.9885761" lon="9.2574036"><ele>181.0</ele><time>2026-05-02T07:05:01.442Z</time></trkpt><trkpt lat="44.988517" lon="9.2573178"><ele>181.0</ele><time>2026-05-02T07:05:03.438Z</time></trkpt><trkpt lat="44.9884637" lon="9.2572428"><ele>181.0</ele><time>2026-05-02T07:05:05.437Z</time></trkpt><trkpt lat="44.9884094" lon="9.257155"><ele>181.16666666666669</ele><time>2026-05-02T07:05:07.437Z</time></trkpt><trkpt lat="44.9883553" lon="9.257081"><ele>181.33333333333334</ele><time>2026-05-02T07:05:09.44Z</time></trkpt><trkpt lat="44.9882987" lon="9.256996"><ele>181.5</ele><time>2026-05-02T07:05:11.431Z</time></trkpt><trkpt lat="44.9882415" lon="9.2569081"><ele>181.66666666666666</ele><time>2026-05-02T07:05:13.435Z</time></trkpt><trkpt lat="44.9881839" lon="9.2568376"><ele>181.83333333333331</ele><time>2026-05-02T07:05:15.427Z</time></trkpt><trkpt lat="44.9881213" lon="9.2567578"><ele>182.0</ele><time>2026-05-02T07:05:17.437Z</time></trkpt><trkpt lat="44.9880562" lon="9.2566685"><ele>182.0</ele><time>2026-05-02T07:05:19.436Z</time></trkpt><trkpt lat="44.9879892" lon="9.25658"><ele>182.0</ele><time>2026-05-02T07:05:21.501Z</time></trkpt><trkpt lat="44.9879282" lon="9.2564874"><ele>182.0</ele><time>2026-05-02T07:05:23.442Z</time></trkpt><trkpt lat="44.9878724" lon="9.2564008"><ele>182.0</ele><time>2026-05-02T07:05:25.436Z</time></trkpt><trkpt lat="44.9878077" lon="9.2563088"><ele>182.0</ele><time>2026-05-02T07:05:27.433Z</time></trkpt><trkpt lat="44.9877537" lon="9.2562113"><ele>182.0</ele><time>2026-05-02T07:05:29.432Z</time></trkpt><trkpt lat="44.9877038" lon="9.2561112"><ele>183.0</ele><time>2026-05-02T07:05:31.437Z</time></trkpt><trkpt lat="44.9876633" lon="9.2560086"><ele>184.0</ele><time>2026-05-02T07:05:33.43Z</time></trkpt><trkpt lat="44.987633" lon="9.2558917"><ele>185.0</ele><time>2026-05-02T07:05:35.431Z</time></trkpt><trkpt lat="44.9875937" lon="9.2557922"><ele>186.0</ele><time>2026-05-02T07:05:37.446Z</time></trkpt><trkpt lat="44.9875565" lon="9.2556825"><ele>187.0</ele><time>2026-05-02T07:05:39.436Z</time></trkpt><trkpt lat="44.987525" lon="9.2555679"><ele>188.0</ele><time>2026-05-02T07:05:41.437Z</time></trkpt><trkpt lat="44.9874741" lon="9.2554693"><ele>188.0</ele><time>2026-05-02T07:05:43.442Z</time></trkpt><trkpt lat="44.9874141" lon="9.2553634"><ele>188.0</ele><time>2026-05-02T07:05:45.433Z</time></trkpt><trkpt lat="44.9873499" lon="9.2552655"><ele>188.0</ele><time>2026-05-02T07:05:47.428Z</time></trkpt><trkpt lat="44.9872805" lon="9.2551911"><ele>188.0</ele><time>2026-05-02T07:05:49.436Z</time></trkpt><trkpt lat="44.9872037" lon="9.2551206"><ele>188.0</ele><time>2026-05-02T07:05:51.429Z</time></trkpt><trkpt lat="44.9871201" lon="9.2550531"><ele>188.0</ele><time>2026-05-02T07:05:53.439Z</time></trkpt><trkpt lat="44.9870407" lon="9.2549816"><ele>188.0</ele><time>2026-05-02T07:05:55.439Z</time></trkpt><trkpt lat="44.9869681" lon="9.2549119"><ele>188.0</ele><time>2026-05-02T07:05:57.442Z</time></trkpt><trkpt lat="44.9868906" lon="9.2548412"><ele>188.0</ele><time>2026-05-02T07:05:59.435Z</time></trkpt><trkpt lat="44.9868235" lon="9.2547864"><ele>188.0</ele><time>2026-05-02T07:06:01.43Z</time></trkpt><trkpt lat="44.9867622" lon="9.254733"><ele>188.0</ele><time>2026-05-02T07:06:03.436Z</time></trkpt><trkpt lat="44.9866989" lon="9.2546885"><ele>188.0</ele><time>2026-05-02T07:06:05.442Z</time></trkpt><trkpt lat="44.9866346" lon="9.254625"><ele>188.0</ele><time>2026-05-02T07:06:07.435Z</time></trkpt><trkpt lat="44.9865639" lon="9.2545506"><ele>188.0</ele><time>2026-05-02T07:06:09.437Z</time></trkpt><trkpt lat="44.9864864" lon="9.2544887"><ele>188.0</ele><time>2026-05-02T07:06:11.439Z</time></trkpt><trkpt lat="44.9864145" lon="9.2544177"><ele>188.0</ele><time>2026-05-02T07:06:13.435Z</time></trkpt><trkpt lat="44.9863511" lon="9.2543352"><ele>188.0</ele><time>2026-05-02T07:06:15.43Z</time></trkpt><trkpt lat="44.9862813" lon="9.2542423"><ele>188.0</ele><time>2026-05-02T07:06:17.427Z</time></trkpt><trkpt lat="44.9862214" lon="9.2541479"><ele>188.0</ele><time>2026-05-02T07:06:19.428Z</time></trkpt><trkpt lat="44.9861717" lon="9.2540514"><ele>188.0</ele><time>2026-05-02T07:06:21.44Z</time></trkpt><trkpt lat="44.986122" lon="9.253946"><ele>188.0</ele><time>2026-05-02T07:06:23.439Z</time></trkpt><trkpt lat="44.9860727" lon="9.2538315"><ele>188.0</ele><time>2026-05-02T07:06:25.436Z</time></trkpt><trkpt lat="44.9860342" lon="9.2537137"><ele>188.66666666666666</ele><time>2026-05-02T07:06:27.439Z</time></trkpt><trkpt lat="44.9860094" lon="9.2535905"><ele>189.33333333333331</ele><time>2026-05-02T07:06:29.433Z</time></trkpt><trkpt lat="44.9859945" lon="9.2534683"><ele>190.0</ele><time>2026-05-02T07:06:31.503Z</time></trkpt><trkpt lat="44.9859858" lon="9.2533467"><ele>190.66666666666666</ele><time>2026-05-02T07:06:33.438Z</time></trkpt><trkpt lat="44.9859741" lon="9.2532147"><ele>191.33333333333334</ele><time>2026-05-02T07:06:35.429Z</time></trkpt><trkpt lat="44.9859649" lon="9.2530888"><ele>192.0</ele><time>2026-05-02T07:06:37.44Z</time></trkpt><trkpt lat="44.9859566" lon="9.2529637"><ele>192.83333333333334</ele><time>2026-05-02T07:06:39.437Z</time></trkpt><trkpt lat="44.9859473" lon="9.2528512"><ele>193.66666666666669</ele><time>2026-05-02T07:06:41.432Z</time></trkpt><trkpt lat="44.9859399" lon="9.2527498"><ele>194.5</ele><time>2026-05-02T07:06:43.514Z</time></trkpt><trkpt lat="44.9859309" lon="9.2526584"><ele>195.33333333333334</ele><time>2026-05-02T07:06:45.441Z</time></trkpt><trkpt lat="44.9859121" lon="9.2525449"><ele>196.16666666666669</ele><time>2026-05-02T07:06:47.433Z</time></trkpt><trkpt lat="44.9858902" lon="9.2524407"><ele>197.0</ele><time>2026-05-02T07:06:49.436Z</time></trkpt><trkpt lat="44.9858528" lon="9.2523368"><ele>196.33333333333334</ele><time>2026-05-02T07:06:51.436Z</time></trkpt><trkpt lat="44.985811" lon="9.2522336"><ele>195.66666666666669</ele><time>2026-05-02T07:06:53.428Z</time></trkpt><trkpt lat="44.9857646" lon="9.252136"><ele>195.0</ele><time>2026-05-02T07:06:55.43Z</time></trkpt><trkpt lat="44.9857143" lon="9.2520488"><ele>194.33333333333331</ele><time>2026-05-02T07:06:57.436Z</time></trkpt><trkpt lat="44.98566" lon="9.2519428"><ele>193.66666666666666</ele><time>2026-05-02T07:06:59.429Z</time></trkpt><trkpt lat="44.9856093" lon="9.2518511"><ele>193.0</ele><time>2026-05-02T07:07:01.432Z</time></trkpt><trkpt lat="44.9855664" lon="9.2517568"><ele>192.99999999999997</ele><time>2026-05-02T07:07:03.433Z</time></trkpt><trkpt lat="44.9855168" lon="9.2516582"><ele>193.0</ele><time>2026-05-02T07:07:05.43Z</time></trkpt><trkpt lat="44.9854641" lon="9.2515606"><ele>193.0</ele><time>2026-05-02T07:07:07.434Z</time></trkpt><trkpt lat="44.9854142" lon="9.251468"><ele>193.0</ele><time>2026-05-02T07:07:09.433Z</time></trkpt><trkpt lat="44.9853604" lon="9.2513705"><ele>192.99999999999997</ele><time>2026-05-02T07:07:11.433Z</time></trkpt><trkpt lat="44.9853139" lon="9.2512574"><ele>193.0</ele><time>2026-05-02T07:07:13.425Z</time></trkpt><trkpt lat="44.9852572" lon="9.2511501"><ele>192.60000000000002</ele><time>2026-05-02T07:07:15.437Z</time></trkpt><trkpt lat="44.9852004" lon="9.2510412"><ele>192.20000000000002</ele><time>2026-05-02T07:07:17.433Z</time></trkpt><trkpt lat="44.985142" lon="9.2509358"><ele>191.8</ele><time>2026-05-02T07:07:19.426Z</time></trkpt><trkpt lat="44.9850837" lon="9.2508474"><ele>191.4</ele><time>2026-05-02T07:07:21.429Z</time></trkpt><trkpt lat="44.9850256" lon="9.2507462"><ele>191.0</ele><time>2026-05-02T07:07:23.43Z</time></trkpt><trkpt lat="44.9849747" lon="9.2506462"><ele>191.83333333333331</ele><time>2026-05-02T07:07:25.429Z</time></trkpt><trkpt lat="44.984922" lon="9.2505475"><ele>192.66666666666666</ele><time>2026-05-02T07:07:27.437Z</time></trkpt><trkpt lat="44.9848695" lon="9.2504494"><ele>193.5</ele><time>2026-05-02T07:07:29.427Z</time></trkpt><trkpt lat="44.9848165" lon="9.2503487"><ele>194.33333333333331</ele><time>2026-05-02T07:07:31.439Z</time></trkpt><trkpt lat="44.9847667" lon="9.2502477"><ele>195.16666666666666</ele><time>2026-05-02T07:07:33.431Z</time></trkpt><trkpt lat="44.9847155" lon="9.2501529"><ele>196.0</ele><time>2026-05-02T07:07:35.428Z</time></trkpt><trkpt lat="44.9846631" lon="9.2500594"><ele>196.0</ele><time>2026-05-02T07:07:37.428Z</time></trkpt><trkpt lat="44.9846091" lon="9.2499559"><ele>196.0</ele><time>2026-05-02T07:07:39.434Z</time></trkpt><trkpt lat="44.9845599" lon="9.2498494"><ele>196.0</ele><time>2026-05-02T07:07:41.434Z</time></trkpt><trkpt lat="44.9845035" lon="9.2497501"><ele>196.0</ele><time>2026-05-02T07:07:43.436Z</time></trkpt><trkpt lat="44.9844497" lon="9.2496349"><ele>196.0</ele><time>2026-05-02T07:07:45.437Z</time></trkpt><trkpt lat="44.9843976" lon="9.2495317"><ele>195.83333333333331</ele><time>2026-05-02T07:07:47.43Z</time></trkpt><trkpt lat="44.9843579" lon="9.2494326"><ele>195.66666666666666</ele><time>2026-05-02T07:07:49.426Z</time></trkpt><trkpt lat="44.9843211" lon="9.2493169"><ele>195.5</ele><time>2026-05-02T07:07:51.432Z</time></trkpt><trkpt lat="44.984282" lon="9.2492087"><ele>195.33333333333331</ele><time>2026-05-02T07:07:53.431Z</time></trkpt><trkpt lat="44.9842362" lon="9.2490918"><ele>195.16666666666666</ele><time>2026-05-02T07:07:55.445Z</time></trkpt><trkpt lat="44.9841946" lon="9.2489747"><ele>195.0</ele><time>2026-05-02T07:07:57.426Z</time></trkpt><trkpt lat="44.9841531" lon="9.2488578"><ele>195.0</ele><time>2026-05-02T07:07:59.424Z</time></trkpt><trkpt lat="44.9841023" lon="9.2487398"><ele>195.0</ele><time>2026-05-02T07:08:01.432Z</time></trkpt><trkpt lat="44.984044" lon="9.2486202"><ele>195.0</ele><time>2026-05-02T07:08:03.446Z</time></trkpt><trkpt lat="44.9839777" lon="9.2485179"><ele>195.0</ele><time>2026-05-02T07:08:05.43Z</time></trkpt><trkpt lat="44.9839098" lon="9.248431"><ele>195.0</ele><time>2026-05-02T07:08:07.424Z</time></trkpt><trkpt lat="44.9838373" lon="9.2483661"><ele>195.0</ele><time>2026-05-02T07:08:09.427Z</time></trkpt><trkpt lat="44.9837665" lon="9.2483394"><ele>195.0</ele><time>2026-05-02T07:08:11.436Z</time></trkpt><trkpt lat="44.9836896" lon="9.2482897"><ele>195.0</ele><time>2026-05-02T07:08:13.431Z</time></trkpt><trkpt lat="44.9836148" lon="9.2482361"><ele>195.0</ele><time>2026-05-02T07:08:15.431Z</time></trkpt><trkpt lat="44.9835386" lon="9.248177"><ele>195.0</ele><time>2026-05-02T07:08:17.435Z</time></trkpt><trkpt lat="44.983465" lon="9.248115"><ele>195.0</ele><time>2026-05-02T07:08:19.501Z</time></trkpt><trkpt lat="44.9833863" lon="9.2480524"><ele>194.83333333333334</ele><time>2026-05-02T07:08:21.437Z</time></trkpt><trkpt lat="44.9833025" lon="9.2479895"><ele>194.66666666666669</ele><time>2026-05-02T07:08:23.437Z</time></trkpt><trkpt lat="44.9832218" lon="9.2479264"><ele>194.5</ele><time>2026-05-02T07:08:25.43Z</time></trkpt><trkpt lat="44.983147" lon="9.2478627"><ele>194.33333333333334</ele><time>2026-05-02T07:08:27.439Z</time></trkpt><trkpt lat="44.9830688" lon="9.2478098"><ele>194.16666666666669</ele><time>2026-05-02T07:08:29.435Z</time></trkpt><trkpt lat="44.9829957" lon="9.2477477"><ele>194.0</ele><time>2026-05-02T07:08:31.437Z</time></trkpt><trkpt lat="44.9829116" lon="9.2476798"><ele>194.0</ele><time>2026-05-02T07:08:33.439Z</time></trkpt><trkpt lat="44.9828254" lon="9.2476126"><ele>194.0</ele><time>2026-05-02T07:08:35.435Z</time></trkpt><trkpt lat="44.9827456" lon="9.2475516"><ele>194.0</ele><time>2026-05-02T07:08:37.432Z</time></trkpt><trkpt lat="44.9826631" lon="9.2475073"><ele>194.0</ele><time>2026-05-02T07:08:39.445Z</time></trkpt><trkpt lat="44.9825894" lon="9.2474489"><ele>194.0</ele><time>2026-05-02T07:08:41.432Z</time></trkpt><trkpt lat="44.9825049" lon="9.2473812"><ele>193.6</ele><time>2026-05-02T07:08:43.43Z</time></trkpt><trkpt lat="44.9824226" lon="9.2473282"><ele>193.2</ele><time>2026-05-02T07:08:45.434Z</time></trkpt><trkpt lat="44.9823363" lon="9.2472722"><ele>192.79999999999998</ele><time>2026-05-02T07:08:47.436Z</time></trkpt><trkpt lat="44.9822496" lon="9.2472291"><ele>192.39999999999998</ele><time>2026-05-02T07:08:49.432Z</time></trkpt><trkpt lat="44.9821721" lon="9.247167"><ele>192.0</ele><time>2026-05-02T07:08:51.429Z</time></trkpt><trkpt lat="44.9820876" lon="9.2471141"><ele>194.6</ele><time>2026-05-02T07:08:53.434Z</time></trkpt><trkpt lat="44.9819968" lon="9.2470614"><ele>197.2</ele><time>2026-05-02T07:08:55.432Z</time></trkpt><trkpt lat="44.9819103" lon="9.2470309"><ele>199.8</ele><time>2026-05-02T07:08:57.495Z</time></trkpt><trkpt lat="44.981812" lon="9.2470117"><ele>202.4</ele><time>2026-05-02T07:08:59.424Z</time></trkpt><trkpt lat="44.9817144" lon="9.247003"><ele>205.0</ele><time>2026-05-02T07:09:01.431Z</time></trkpt><trkpt lat="44.9816203" lon="9.2470071"><ele>205.2</ele><time>2026-05-02T07:09:03.433Z</time></trkpt><trkpt lat="44.9815272" lon="9.24701"><ele>205.4</ele><time>2026-05-02T07:09:05.431Z</time></trkpt><trkpt lat="44.9814333" lon="9.2469981"><ele>205.60000000000002</ele><time>2026-05-02T07:09:07.426Z</time></trkpt><trkpt lat="44.9813411" lon="9.2469879"><ele>205.8</ele><time>2026-05-02T07:09:09.429Z</time></trkpt><trkpt lat="44.9812522" lon="9.2469934"><ele>206.0</ele><time>2026-05-02T07:09:11.435Z</time></trkpt><trkpt lat="44.9811597" lon="9.2470416"><ele>206.0</ele><time>2026-05-02T07:09:13.492Z</time></trkpt><trkpt lat="44.981081" lon="9.2471077"><ele>206.0</ele><time>2026-05-02T07:09:15.424Z</time></trkpt><trkpt lat="44.9810024" lon="9.2471846"><ele>206.0</ele><time>2026-05-02T07:09:17.431Z</time></trkpt><trkpt lat="44.9809312" lon="9.2472664"><ele>206.0</ele><time>2026-05-02T07:09:19.424Z</time></trkpt><trkpt lat="44.9808645" lon="9.2473527"><ele>206.0</ele><time>2026-05-02T07:09:21.432Z</time></trkpt><trkpt lat="44.9807893" lon="9.2474329"><ele>204.20000000000002</ele><time>2026-05-02T07:09:23.429Z</time></trkpt><trkpt lat="44.9807043" lon="9.2474955"><ele>202.4</ele><time>2026-05-02T07:09:25.497Z</time></trkpt><trkpt lat="44.9806174" lon="9.2475288"><ele>200.6</ele><time>2026-05-02T07:09:27.496Z</time></trkpt><trkpt lat="44.9805143" lon="9.2475501"><ele>198.8</ele><time>2026-05-02T07:09:29.431Z</time></trkpt><trkpt lat="44.9804159" lon="9.2475531"><ele>197.0</ele><time>2026-05-02T07:09:31.435Z</time></trkpt><trkpt lat="44.9803234" lon="9.2475503"><ele>197.00000000000003</ele><time>2026-05-02T07:09:33.435Z</time></trkpt><trkpt lat="44.9802365" lon="9.2475436"><ele>197.0</ele><time>2026-05-02T07:09:35.433Z</time></trkpt><trkpt lat="44.9801486" lon="9.247543"><ele>197.0</ele><time>2026-05-02T07:09:37.438Z</time></trkpt><trkpt lat="44.9800593" lon="9.2475513"><ele>197.0</ele><time>2026-05-02T07:09:39.433Z</time></trkpt><trkpt lat="44.97997" lon="9.2475485"><ele>197.00000000000003</ele><time>2026-05-02T07:09:41.425Z</time></trkpt><trkpt lat="44.9798763" lon="9.2475478"><ele>197.0</ele><time>2026-05-02T07:09:43.433Z</time></trkpt><trkpt lat="44.9797849" lon="9.247537"><ele>197.0</ele><time>2026-05-02T07:09:45.43Z</time></trkpt><trkpt lat="44.9796865" lon="9.2475348"><ele>197.0</ele><time>2026-05-02T07:09:47.438Z</time></trkpt><trkpt lat="44.9795921" lon="9.2475366"><ele>197.0</ele><time>2026-05-02T07:09:49.432Z</time></trkpt><trkpt lat="44.9795028" lon="9.2475414"><ele>197.0</ele><time>2026-05-02T07:09:51.428Z</time></trkpt><trkpt lat="44.9794068" lon="9.2475332"><ele>197.0</ele><time>2026-05-02T07:09:53.433Z</time></trkpt><trkpt lat="44.9793207" lon="9.247529"><ele>197.00000000000003</ele><time>2026-05-02T07:09:55.435Z</time></trkpt><trkpt lat="44.9792366" lon="9.2475363"><ele>197.0</ele><time>2026-05-02T07:09:57.433Z</time></trkpt><trkpt lat="44.9791491" lon="9.2475558"><ele>197.0</ele><time>2026-05-02T07:09:59.44Z</time></trkpt><trkpt lat="44.9790551" lon="9.2475684"><ele>197.0</ele><time>2026-05-02T07:10:01.433Z</time></trkpt><trkpt lat="44.9789623" lon="9.2475908"><ele>197.00000000000003</ele><time>2026-05-02T07:10:03.435Z</time></trkpt><trkpt lat="44.9788792" lon="9.2476217"><ele>197.0</ele><time>2026-05-02T07:10:05.43Z</time></trkpt><trkpt lat="44.9787979" lon="9.2476585"><ele>197.33333333333334</ele><time>2026-05-02T07:10:07.431Z</time></trkpt><trkpt lat="44.9787038" lon="9.2476883"><ele>197.66666666666669</ele><time>2026-05-02T07:10:09.438Z</time></trkpt><trkpt lat="44.97861" lon="9.2477186"><ele>198.0</ele><time>2026-05-02T07:10:11.431Z</time></trkpt><trkpt lat="44.97853" lon="9.2477409"><ele>198.33333333333331</ele><time>2026-05-02T07:10:13.432Z</time></trkpt><trkpt lat="44.9784547" lon="9.247766"><ele>198.66666666666666</ele><time>2026-05-02T07:10:15.432Z</time></trkpt><trkpt lat="44.9783823" lon="9.2477911"><ele>199.0</ele><time>2026-05-02T07:10:17.43Z</time></trkpt><trkpt lat="44.9782971" lon="9.2478072"><ele>199.49999999999997</ele><time>2026-05-02T07:10:19.427Z</time></trkpt><trkpt lat="44.9782128" lon="9.2478118"><ele>200.0</ele><time>2026-05-02T07:10:21.437Z</time></trkpt><trkpt lat="44.9781332" lon="9.2478328"><ele>200.5</ele><time>2026-05-02T07:10:23.431Z</time></trkpt><trkpt lat="44.9780514" lon="9.247856"><ele>201.0</ele><time>2026-05-02T07:10:25.431Z</time></trkpt><trkpt lat="44.9779736" lon="9.2478744"><ele>201.49999999999997</ele><time>2026-05-02T07:10:27.431Z</time></trkpt><trkpt lat="44.9778887" lon="9.2478998"><ele>202.0</ele><time>2026-05-02T07:10:29.441Z</time></trkpt><trkpt lat="44.97781" lon="9.2479244"><ele>201.99999999999997</ele><time>2026-05-02T07:10:31.435Z</time></trkpt><trkpt lat="44.9777314" lon="9.2479452"><ele>202.0</ele><time>2026-05-02T07:10:33.429Z</time></trkpt><trkpt lat="44.9776505" lon="9.2479677"><ele>202.0</ele><time>2026-05-02T07:10:35.433Z</time></trkpt><trkpt lat="44.9775661" lon="9.2479917"><ele>202.0</ele><time>2026-05-02T07:10:37.438Z</time></trkpt><trkpt lat="44.9774818" lon="9.2480046"><ele>201.99999999999997</ele><time>2026-05-02T07:10:39.445Z</time></trkpt><trkpt lat="44.9773946" lon="9.2479999"><ele>202.0</ele><time>2026-05-02T07:10:41.429Z</time></trkpt><trkpt lat="44.9773128" lon="9.247996"><ele>201.6</ele><time>2026-05-02T07:10:43.441Z</time></trkpt><trkpt lat="44.9772291" lon="9.2479958"><ele>201.2</ele><time>2026-05-02T07:10:45.442Z</time></trkpt><trkpt lat="44.9771363" lon="9.2479969"><ele>200.8</ele><time>2026-05-02T07:10:47.435Z</time></trkpt><trkpt lat="44.9770479" lon="9.2480178"><ele>200.4</ele><time>2026-05-02T07:10:49.437Z</time></trkpt><trkpt lat="44.9769625" lon="9.2480641"><ele>200.0</ele><time>2026-05-02T07:10:51.433Z</time></trkpt><trkpt lat="44.9768741" lon="9.2481123"><ele>201.83333333333334</ele><time>2026-05-02T07:10:53.434Z</time></trkpt><trkpt lat="44.9767938" lon="9.2481516"><ele>203.66666666666669</ele><time>2026-05-02T07:10:55.445Z</time></trkpt><trkpt lat="44.9767166" lon="9.2481931"><ele>205.5</ele><time>2026-05-02T07:10:57.433Z</time></trkpt><trkpt lat="44.9766264" lon="9.2482362"><ele>207.33333333333331</ele><time>2026-05-02T07:10:59.439Z</time></trkpt><trkpt lat="44.9765389" lon="9.2482719"><ele>209.16666666666666</ele><time>2026-05-02T07:11:01.438Z</time></trkpt><trkpt lat="44.9764505" lon="9.2483095"><ele>211.0</ele><time>2026-05-02T07:11:03.439Z</time></trkpt><trkpt lat="44.9763672" lon="9.2483362"><ele>211.20000000000002</ele><time>2026-05-02T07:11:05.434Z</time></trkpt><trkpt lat="44.9762752" lon="9.24837"><ele>211.4</ele><time>2026-05-02T07:11:07.438Z</time></trkpt><trkpt lat="44.9761888" lon="9.2483967"><ele>211.6</ele><time>2026-05-02T07:11:09.433Z</time></trkpt><trkpt lat="44.976096" lon="9.2484288"><ele>211.8</ele><time>2026-05-02T07:11:11.436Z</time></trkpt><trkpt lat="44.9759986" lon="9.2484577"><ele>212.0</ele><time>2026-05-02T07:11:13.434Z</time></trkpt><trkpt lat="44.9759074" lon="9.2484864"><ele>210.8</ele><time>2026-05-02T07:11:15.439Z</time></trkpt><trkpt lat="44.9758163" lon="9.248509"><ele>209.6</ele><time>2026-05-02T07:11:17.433Z</time></trkpt><trkpt lat="44.9757382" lon="9.2485496"><ele>208.4</ele><time>2026-05-02T07:11:19.44Z</time></trkpt><trkpt lat="44.9756429" lon="9.2485858"><ele>207.20000000000002</ele><time>2026-05-02T07:11:21.432Z</time></trkpt><trkpt lat="44.9755556" lon="9.2486055"><ele>206.0</ele><time>2026-05-02T07:11:23.438Z</time></trkpt><trkpt lat="44.9754715" lon="9.2486391"><ele>206.00000000000003</ele><time>2026-05-02T07:11:25.429Z</time></trkpt><trkpt lat="44.9753943" lon="9.248679"><ele>206.0</ele><time>2026-05-02T07:11:27.434Z</time></trkpt><trkpt lat="44.9753171" lon="9.2487008"><ele>206.0</ele><time>2026-05-02T07:11:29.448Z</time></trkpt><trkpt lat="44.9752371" lon="9.2487292"><ele>206.0</ele><time>2026-05-02T07:11:31.428Z</time></trkpt><trkpt lat="44.9751612" lon="9.2487553"><ele>206.00000000000003</ele><time>2026-05-02T07:11:33.429Z</time></trkpt><trkpt lat="44.9750765" lon="9.2487835"><ele>206.0</ele><time>2026-05-02T07:11:35.438Z</time></trkpt><trkpt lat="44.9749889" lon="9.2488249"><ele>206.20000000000002</ele><time>2026-05-02T07:11:37.442Z</time></trkpt><trkpt lat="44.9748952" lon="9.2488677"><ele>206.4</ele><time>2026-05-02T07:11:39.433Z</time></trkpt><trkpt lat="44.9748128" lon="9.2488583"><ele>206.6</ele><time>2026-05-02T07:11:41.435Z</time></trkpt><trkpt lat="44.9747613" lon="9.2488018"><ele>206.8</ele><time>2026-05-02T07:11:43.429Z</time></trkpt><trkpt lat="44.974737" lon="9.2486628"><ele>207.0</ele><time>2026-05-02T07:11:45.431Z</time></trkpt><trkpt lat="44.9746523" lon="9.2485252"><ele>207.0</ele><time>2026-05-02T07:11:47.435Z</time></trkpt><trkpt lat="44.9746103" lon="9.2484237"><ele>207.0</ele><time>2026-05-02T07:11:48.443Z</time></trkpt><trkpt lat="44.9745605" lon="9.2483599"><ele>207.0</ele><time>2026-05-02T07:11:49.436Z</time></trkpt><trkpt lat="44.9745032" lon="9.2483094"><ele>207.0</ele><time>2026-05-02T07:11:50.434Z</time></trkpt><trkpt lat="44.9744031" lon="9.2482546"><ele>207.0</ele><time>2026-05-02T07:11:52.428Z</time></trkpt><trkpt lat="44.9743142" lon="9.2482094"><ele>207.0</ele><time>2026-05-02T07:11:54.432Z</time></trkpt><trkpt lat="44.9742205" lon="9.2482005"><ele>206.83333333333334</ele><time>2026-05-02T07:11:56.492Z</time></trkpt><trkpt lat="44.9741192" lon="9.2481994"><ele>206.66666666666669</ele><time>2026-05-02T07:11:58.436Z</time></trkpt><trkpt lat="44.9740353" lon="9.2481862"><ele>206.5</ele><time>2026-05-02T07:12:00.437Z</time></trkpt><trkpt lat="44.973968" lon="9.2481279"><ele>206.33333333333334</ele><time>2026-05-02T07:12:02.445Z</time></trkpt><trkpt lat="44.9739095" lon="9.2480345"><ele>206.16666666666669</ele><time>2026-05-02T07:12:04.436Z</time></trkpt><trkpt lat="44.9738586" lon="9.2479318"><ele>206.0</ele><time>2026-05-02T07:12:06.43Z</time></trkpt><trkpt lat="44.9738229" lon="9.2478228"><ele>206.00000000000003</ele><time>2026-05-02T07:12:08.437Z</time></trkpt><trkpt lat="44.9737874" lon="9.2477142"><ele>206.0</ele><time>2026-05-02T07:12:10.433Z</time></trkpt><trkpt lat="44.9737513" lon="9.2475867"><ele>206.0</ele><time>2026-05-02T07:12:12.44Z</time></trkpt><trkpt lat="44.9737087" lon="9.2474729"><ele>206.0</ele><time>2026-05-02T07:12:14.43Z</time></trkpt><trkpt lat="44.9736629" lon="9.2473721"><ele>206.00000000000003</ele><time>2026-05-02T07:12:16.445Z</time></trkpt><trkpt lat="44.9736133" lon="9.2472802"><ele>206.0</ele><time>2026-05-02T07:12:18.434Z</time></trkpt><trkpt lat="44.9735413" lon="9.2472076"><ele>207.66666666666669</ele><time>2026-05-02T07:12:20.437Z</time></trkpt><trkpt lat="44.9734851" lon="9.2471295"><ele>209.33333333333334</ele><time>2026-05-02T07:12:22.501Z</time></trkpt><trkpt lat="44.973438" lon="9.2470397"><ele>211.0</ele><time>2026-05-02T07:12:24.431Z</time></trkpt><trkpt lat="44.9734038" lon="9.2469333"><ele>212.66666666666669</ele><time>2026-05-02T07:12:26.434Z</time></trkpt><trkpt lat="44.9733735" lon="9.246837"><ele>214.33333333333334</ele><time>2026-05-02T07:12:28.434Z</time></trkpt><trkpt lat="44.9733557" lon="9.2467351"><ele>216.0</ele><time>2026-05-02T07:12:30.434Z</time></trkpt><trkpt lat="44.9733398" lon="9.2466439"><ele>216.0</ele><time>2026-05-02T07:12:32.436Z</time></trkpt><trkpt lat="44.9733124" lon="9.2465198"><ele>216.0</ele><time>2026-05-02T07:12:35.439Z</time></trkpt><trkpt lat="44.9732957" lon="9.2464329"><ele>216.0</ele><time>2026-05-02T07:12:37.428Z</time></trkpt><trkpt lat="44.9732832" lon="9.2463204"><ele>216.0</ele><time>2026-05-02T07:12:39.433Z</time></trkpt><trkpt lat="44.9732591" lon="9.2462167"><ele>216.0</ele><time>2026-05-02T07:12:41.437Z</time></trkpt><trkpt lat="44.9732447" lon="9.24611"><ele>216.0</ele><time>2026-05-02T07:12:43.434Z</time></trkpt><trkpt lat="44.9732327" lon="9.2459926"><ele>217.0</ele><time>2026-05-02T07:12:45.43Z</time></trkpt><trkpt lat="44.9732062" lon="9.2459066"><ele>218.0</ele><time>2026-05-02T07:12:47.435Z</time></trkpt><trkpt lat="44.9731847" lon="9.2458062"><ele>219.0</ele><time>2026-05-02T07:12:49.484Z</time></trkpt><trkpt lat="44.9731762" lon="9.2457027"><ele>220.0</ele><time>2026-05-02T07:12:51.434Z</time></trkpt><trkpt lat="44.9731782" lon="9.2456038"><ele>221.0</ele><time>2026-05-02T07:12:53.429Z</time></trkpt><trkpt lat="44.9731963" lon="9.2454979"><ele>222.0</ele><time>2026-05-02T07:12:55.428Z</time></trkpt><trkpt lat="44.9732249" lon="9.245389"><ele>223.0</ele><time>2026-05-02T07:12:57.431Z</time></trkpt><trkpt lat="44.9732694" lon="9.2452903"><ele>223.99999999999997</ele><time>2026-05-02T07:12:59.422Z</time></trkpt><trkpt lat="44.9733172" lon="9.2451984"><ele>225.0</ele><time>2026-05-02T07:13:01.428Z</time></trkpt><trkpt lat="44.9733549" lon="9.2450984"><ele>226.0</ele><time>2026-05-02T07:13:03.424Z</time></trkpt><trkpt lat="44.973385" lon="9.2449966"><ele>227.0</ele><time>2026-05-02T07:13:05.434Z</time></trkpt><trkpt lat="44.9733961" lon="9.2449025"><ele>227.99999999999997</ele><time>2026-05-02T07:13:07.43Z</time></trkpt><trkpt lat="44.9733976" lon="9.2447687"><ele>229.0</ele><time>2026-05-02T07:13:10.432Z</time></trkpt><trkpt lat="44.9733905" lon="9.2446387"><ele>231.49999999999997</ele><time>2026-05-02T07:13:12.435Z</time></trkpt><trkpt lat="44.9733842" lon="9.2445444"><ele>234.0</ele><time>2026-05-02T07:13:14.427Z</time></trkpt><trkpt lat="44.97338" lon="9.2444433"><ele>236.5</ele><time>2026-05-02T07:13:16.429Z</time></trkpt><trkpt lat="44.9733802" lon="9.2443363"><ele>239.0</ele><time>2026-05-02T07:13:18.501Z</time></trkpt><trkpt lat="44.9733858" lon="9.2442168"><ele>241.49999999999997</ele><time>2026-05-02T07:13:20.433Z</time></trkpt><trkpt lat="44.9733852" lon="9.2441115"><ele>244.0</ele><time>2026-05-02T07:13:22.421Z</time></trkpt><trkpt lat="44.9734039" lon="9.2440016"><ele>245.33333333333331</ele><time>2026-05-02T07:13:24.433Z</time></trkpt><trkpt lat="44.9734293" lon="9.2438997"><ele>246.66666666666666</ele><time>2026-05-02T07:13:26.428Z</time></trkpt><trkpt lat="44.9734587" lon="9.2438052"><ele>248.0</ele><time>2026-05-02T07:13:28.432Z</time></trkpt><trkpt lat="44.9734999" lon="9.2437273"><ele>249.33333333333331</ele><time>2026-05-02T07:13:30.435Z</time></trkpt><trkpt lat="44.9735564" lon="9.2436254"><ele>250.66666666666666</ele><time>2026-05-02T07:13:33.434Z</time></trkpt><trkpt lat="44.9736211" lon="9.2435285"><ele>252.0</ele><time>2026-05-02T07:13:36.427Z</time></trkpt><trkpt lat="44.9736672" lon="9.243455"><ele>252.0</ele><time>2026-05-02T07:13:38.43Z</time></trkpt><trkpt lat="44.9737071" lon="9.243383"><ele>252.0</ele><time>2026-05-02T07:13:40.436Z</time></trkpt><trkpt lat="44.9737468" lon="9.2433118"><ele>252.0</ele><time>2026-05-02T07:13:42.432Z</time></trkpt><trkpt lat="44.9737833" lon="9.2432383"><ele>252.0</ele><time>2026-05-02T07:13:44.507Z</time></trkpt><trkpt lat="44.9738391" lon="9.2431291"><ele>252.0</ele><time>2026-05-02T07:13:47.427Z</time></trkpt><trkpt lat="44.9738719" lon="9.243049"><ele>252.0</ele><time>2026-05-02T07:13:49.433Z</time></trkpt><trkpt lat="44.9739082" lon="9.2429658"><ele>252.0</ele><time>2026-05-02T07:13:51.432Z</time></trkpt><trkpt lat="44.9739446" lon="9.2428889"><ele>253.0</ele><time>2026-05-02T07:13:53.431Z</time></trkpt><trkpt lat="44.9739955" lon="9.2427816"><ele>254.0</ele><time>2026-05-02T07:13:56.432Z</time></trkpt><trkpt lat="44.9740303" lon="9.2427072"><ele>255.0</ele><time>2026-05-02T07:13:58.433Z</time></trkpt><trkpt lat="44.9740847" lon="9.2426014"><ele>256.0</ele><time>2026-05-02T07:14:01.435Z</time></trkpt><trkpt lat="44.9741347" lon="9.2424976"><ele>257.0</ele><time>2026-05-02T07:14:04.436Z</time></trkpt><trkpt lat="44.9741675" lon="9.2424208"><ele>258.0</ele><time>2026-05-02T07:14:06.431Z</time></trkpt><trkpt lat="44.9742178" lon="9.2423219"><ele>261.0</ele><time>2026-05-02T07:14:09.43Z</time></trkpt><trkpt lat="44.9742658" lon="9.2422152"><ele>264.0</ele><time>2026-05-02T07:14:12.43Z</time></trkpt><trkpt lat="44.9742958" lon="9.2420915"><ele>267.0</ele><time>2026-05-02T07:14:15.434Z</time></trkpt><trkpt lat="44.9743325" lon="9.2419673"><ele>270.0</ele><time>2026-05-02T07:14:18.425Z</time></trkpt><trkpt lat="44.9743523" lon="9.2418802"><ele>273.0</ele><time>2026-05-02T07:14:20.428Z</time></trkpt><trkpt lat="44.9743736" lon="9.2417908"><ele>276.0</ele><time>2026-05-02T07:14:22.427Z</time></trkpt><trkpt lat="44.9744212" lon="9.2416821"><ele>276.0</ele><time>2026-05-02T07:14:25.436Z</time></trkpt><trkpt lat="44.9744844" lon="9.241603"><ele>276.0</ele><time>2026-05-02T07:14:28.424Z</time></trkpt><trkpt lat="44.9745452" lon="9.2415788"><ele>276.0</ele><time>2026-05-02T07:14:30.43Z</time></trkpt><trkpt lat="44.9746102" lon="9.2415921"><ele>276.0</ele><time>2026-05-02T07:14:32.433Z</time></trkpt><trkpt lat="44.974677" lon="9.2416163"><ele>276.0</ele><time>2026-05-02T07:14:34.434Z</time></trkpt><trkpt lat="44.9747437" lon="9.2416451"><ele>276.0</ele><time>2026-05-02T07:14:36.431Z</time></trkpt><trkpt lat="44.9748137" lon="9.24167"><ele>276.0</ele><time>2026-05-02T07:14:38.44Z</time></trkpt><trkpt lat="44.9748817" lon="9.2416899"><ele>276.0</ele><time>2026-05-02T07:14:40.43Z</time></trkpt><trkpt lat="44.9749517" lon="9.2417188"><ele>276.0</ele><time>2026-05-02T07:14:42.431Z</time></trkpt><trkpt lat="44.975016" lon="9.2417439"><ele>276.0</ele><time>2026-05-02T07:14:44.434Z</time></trkpt><trkpt lat="44.975078" lon="9.2417833"><ele>276.0</ele><time>2026-05-02T07:14:46.443Z</time></trkpt><trkpt lat="44.9751314" lon="9.2418361"><ele>276.0</ele><time>2026-05-02T07:14:48.423Z</time></trkpt><trkpt lat="44.975181" lon="9.241905"><ele>276.0</ele><time>2026-05-02T07:14:50.499Z</time></trkpt><trkpt lat="44.9752193" lon="9.2419894"><ele>276.0</ele><time>2026-05-02T07:14:52.436Z</time></trkpt><trkpt lat="44.9752509" lon="9.2420834"><ele>277.42857142857144</ele><time>2026-05-02T07:14:54.432Z</time></trkpt><trkpt lat="44.9752775" lon="9.2421722"><ele>278.8571428571429</ele><time>2026-05-02T07:14:56.433Z</time></trkpt><trkpt lat="44.9752991" lon="9.2422682"><ele>280.2857142857143</ele><time>2026-05-02T07:14:58.432Z</time></trkpt><trkpt lat="44.9753222" lon="9.2423581"><ele>281.7142857142857</ele><time>2026-05-02T07:15:00.429Z</time></trkpt><trkpt lat="44.9753527" lon="9.2424447"><ele>283.1428571428571</ele><time>2026-05-02T07:15:02.499Z</time></trkpt><trkpt lat="44.9753883" lon="9.2425245"><ele>284.57142857142856</ele><time>2026-05-02T07:15:04.437Z</time></trkpt><trkpt lat="44.9754479" lon="9.2426228"><ele>286.0</ele><time>2026-05-02T07:15:07.431Z</time></trkpt><trkpt lat="44.9755154" lon="9.2427049"><ele>285.99999999999994</ele><time>2026-05-02T07:15:10.432Z</time></trkpt><trkpt lat="44.9756119" lon="9.2426946"><ele>286.0</ele><time>2026-05-02T07:15:13.431Z</time></trkpt><trkpt lat="44.9756734" lon="9.2426568"><ele>286.0</ele><time>2026-05-02T07:15:15.426Z</time></trkpt><trkpt lat="44.9757367" lon="9.2426175"><ele>286.0</ele><time>2026-05-02T07:15:17.433Z</time></trkpt><trkpt lat="44.9757886" lon="9.2425666"><ele>286.0</ele><time>2026-05-02T07:15:19.438Z</time></trkpt><trkpt lat="44.9758447" lon="9.2425075"><ele>285.99999999999994</ele><time>2026-05-02T07:15:21.434Z</time></trkpt><trkpt lat="44.9758777" lon="9.2424279"><ele>286.0</ele><time>2026-05-02T07:15:23.436Z</time></trkpt><trkpt lat="44.975904" lon="9.2423325"><ele>284.1428571428571</ele><time>2026-05-02T07:15:25.429Z</time></trkpt><trkpt lat="44.9759107" lon="9.2422316"><ele>282.2857142857143</ele><time>2026-05-02T07:15:27.435Z</time></trkpt><trkpt lat="44.9759207" lon="9.2421331"><ele>280.42857142857144</ele><time>2026-05-02T07:15:29.432Z</time></trkpt><trkpt lat="44.9759299" lon="9.242034"><ele>278.57142857142856</ele><time>2026-05-02T07:15:31.422Z</time></trkpt><trkpt lat="44.9759447" lon="9.2419428"><ele>276.7142857142857</ele><time>2026-05-02T07:15:33.431Z</time></trkpt><trkpt lat="44.9759571" lon="9.2418485"><ele>274.85714285714283</ele><time>2026-05-02T07:15:35.433Z</time></trkpt><trkpt lat="44.97596" lon="9.2417513"><ele>273.0</ele><time>2026-05-02T07:15:37.433Z</time></trkpt><trkpt lat="44.9759695" lon="9.2416533"><ele>273.0</ele><time>2026-05-02T07:15:39.437Z</time></trkpt><trkpt lat="44.9759881" lon="9.2415616"><ele>273.0</ele><time>2026-05-02T07:15:41.429Z</time></trkpt><trkpt lat="44.9760029" lon="9.2414744"><ele>273.0</ele><time>2026-05-02T07:15:43.429Z</time></trkpt><trkpt lat="44.9760132" lon="9.2413544"><ele>273.0</ele><time>2026-05-02T07:15:46.434Z</time></trkpt><trkpt lat="44.9760185" lon="9.2412587"><ele>273.0</ele><time>2026-05-02T07:15:48.436Z</time></trkpt><trkpt lat="44.9760128" lon="9.2411693"><ele>273.0</ele><time>2026-05-02T07:15:50.425Z</time></trkpt><trkpt lat="44.9759967" lon="9.2410383"><ele>273.0</ele><time>2026-05-02T07:15:53.423Z</time></trkpt><trkpt lat="44.9759859" lon="9.2409453"><ele>274.7142857142857</ele><time>2026-05-02T07:15:55.431Z</time></trkpt><trkpt lat="44.9759657" lon="9.2408578"><ele>276.42857142857144</ele><time>2026-05-02T07:15:57.433Z</time></trkpt><trkpt lat="44.9759444" lon="9.2407581"><ele>278.1428571428571</ele><time>2026-05-02T07:15:59.433Z</time></trkpt><trkpt lat="44.9759071" lon="9.2406317"><ele>279.8571428571429</ele><time>2026-05-02T07:16:02.424Z</time></trkpt><trkpt lat="44.9758815" lon="9.2405472"><ele>281.57142857142856</ele><time>2026-05-02T07:16:04.442Z</time></trkpt><trkpt lat="44.9758518" lon="9.2404535"><ele>283.2857142857143</ele><time>2026-05-02T07:16:06.427Z</time></trkpt><trkpt lat="44.975819" lon="9.2403702"><ele>285.0</ele><time>2026-05-02T07:16:08.433Z</time></trkpt><trkpt lat="44.9757795" lon="9.2402906"><ele>287.0</ele><time>2026-05-02T07:16:10.512Z</time></trkpt><trkpt lat="44.9757387" lon="9.2402083"><ele>289.0</ele><time>2026-05-02T07:16:12.433Z</time></trkpt><trkpt lat="44.9756991" lon="9.240136"><ele>291.0</ele><time>2026-05-02T07:16:14.431Z</time></trkpt><trkpt lat="44.9756594" lon="9.2400616"><ele>293.0</ele><time>2026-05-02T07:16:16.432Z</time></trkpt><trkpt lat="44.9756043" lon="9.2399468"><ele>295.0</ele><time>2026-05-02T07:16:19.424Z</time></trkpt><trkpt lat="44.9755703" lon="9.2398623"><ele>297.0</ele><time>2026-05-02T07:16:21.431Z</time></trkpt><trkpt lat="44.9755464" lon="9.2397759"><ele>299.0</ele><time>2026-05-02T07:16:23.44Z</time></trkpt><trkpt lat="44.9755296" lon="9.239684"><ele>299.85714285714283</ele><time>2026-05-02T07:16:25.43Z</time></trkpt><trkpt lat="44.9755195" lon="9.239591"><ele>300.7142857142857</ele><time>2026-05-02T07:16:27.428Z</time></trkpt><trkpt lat="44.9755156" lon="9.239497"><ele>301.57142857142856</ele><time>2026-05-02T07:16:29.434Z</time></trkpt><trkpt lat="44.9755196" lon="9.2393998"><ele>302.42857142857144</ele><time>2026-05-02T07:16:31.43Z</time></trkpt><trkpt lat="44.9755233" lon="9.2393041"><ele>303.2857142857143</ele><time>2026-05-02T07:16:33.43Z</time></trkpt><trkpt lat="44.9755268" lon="9.2392133"><ele>304.14285714285717</ele><time>2026-05-02T07:16:35.431Z</time></trkpt><trkpt lat="44.9755418" lon="9.2391259"><ele>305.0</ele><time>2026-05-02T07:16:37.506Z</time></trkpt><trkpt lat="44.9755597" lon="9.2390306"><ele>305.8571428571429</ele><time>2026-05-02T07:16:39.446Z</time></trkpt><trkpt lat="44.9755791" lon="9.238928"><ele>306.71428571428567</ele><time>2026-05-02T07:16:41.436Z</time></trkpt><trkpt lat="44.9755992" lon="9.2388296"><ele>307.57142857142856</ele><time>2026-05-02T07:16:43.431Z</time></trkpt><trkpt lat="44.9756222" lon="9.238731"><ele>308.42857142857144</ele><time>2026-05-02T07:16:45.431Z</time></trkpt><trkpt lat="44.9756403" lon="9.2386412"><ele>309.28571428571433</ele><time>2026-05-02T07:16:47.431Z</time></trkpt><trkpt lat="44.975664" lon="9.2385576"><ele>310.1428571428571</ele><time>2026-05-02T07:16:49.43Z</time></trkpt><trkpt lat="44.9756978" lon="9.2384743"><ele>311.0</ele><time>2026-05-02T07:16:51.439Z</time></trkpt><trkpt lat="44.9757296" lon="9.2383607"><ele>311.0</ele><time>2026-05-02T07:16:54.438Z</time></trkpt><trkpt lat="44.9757679" lon="9.2382852"><ele>311.0</ele><time>2026-05-02T07:16:56.431Z</time></trkpt><trkpt lat="44.9758094" lon="9.2382074"><ele>311.0</ele><time>2026-05-02T07:16:58.425Z</time></trkpt><trkpt lat="44.9758509" lon="9.2381394"><ele>311.0</ele><time>2026-05-02T07:17:00.432Z</time></trkpt><trkpt lat="44.9758966" lon="9.2380693"><ele>311.0</ele><time>2026-05-02T07:17:02.497Z</time></trkpt><trkpt lat="44.9759418" lon="9.2379976"><ele>311.0</ele><time>2026-05-02T07:17:04.502Z</time></trkpt><trkpt lat="44.9759878" lon="9.2379241"><ele>311.0</ele><time>2026-05-02T07:17:06.425Z</time></trkpt><trkpt lat="44.9760277" lon="9.237853"><ele>313.7142857142857</ele><time>2026-05-02T07:17:08.422Z</time></trkpt><trkpt lat="44.9760703" lon="9.2377815"><ele>316.42857142857144</ele><time>2026-05-02T07:17:10.434Z</time></trkpt><trkpt lat="44.9761094" lon="9.2377079"><ele>319.14285714285717</ele><time>2026-05-02T07:17:12.429Z</time></trkpt><trkpt lat="44.9761546" lon="9.2376361"><ele>321.8571428571429</ele><time>2026-05-02T07:17:14.43Z</time></trkpt><trkpt lat="44.9761965" lon="9.2375687"><ele>324.57142857142856</ele><time>2026-05-02T07:17:16.44Z</time></trkpt><trkpt lat="44.9762377" lon="9.2374999"><ele>327.28571428571433</ele><time>2026-05-02T07:17:18.434Z</time></trkpt><trkpt lat="44.9762855" lon="9.2374405"><ele>330.0</ele><time>2026-05-02T07:17:20.424Z</time></trkpt><trkpt lat="44.9763297" lon="9.2373687"><ele>331.0</ele><time>2026-05-02T07:17:22.423Z</time></trkpt><trkpt lat="44.9763715" lon="9.2372969"><ele>332.0</ele><time>2026-05-02T07:17:24.433Z</time></trkpt><trkpt lat="44.9764071" lon="9.2372166"><ele>333.0</ele><time>2026-05-02T07:17:26.432Z</time></trkpt><trkpt lat="44.9764494" lon="9.2371497"><ele>334.0</ele><time>2026-05-02T07:17:28.426Z</time></trkpt><trkpt lat="44.9765107" lon="9.2370541"><ele>335.0</ele><time>2026-05-02T07:17:31.5Z</time></trkpt><trkpt lat="44.9765671" lon="9.2369558"><ele>336.0</ele><time>2026-05-02T07:17:34.433Z</time></trkpt><trkpt lat="44.9766258" lon="9.2368687"><ele>336.0</ele><time>2026-05-02T07:17:37.423Z</time></trkpt><trkpt lat="44.9766851" lon="9.2367801"><ele>336.0</ele><time>2026-05-02T07:17:40.433Z</time></trkpt><trkpt lat="44.9767334" lon="9.2366871"><ele>336.0</ele><time>2026-05-02T07:17:43.433Z</time></trkpt><trkpt lat="44.9767882" lon="9.2365925"><ele>336.0</ele><time>2026-05-02T07:17:46.428Z</time></trkpt><trkpt lat="44.9768426" lon="9.2364913"><ele>336.0</ele><time>2026-05-02T07:17:49.429Z</time></trkpt><trkpt lat="44.9769035" lon="9.2364008"><ele>336.0</ele><time>2026-05-02T07:17:52.436Z</time></trkpt><trkpt lat="44.9769446" lon="9.2363297"><ele>338.3333333333333</ele><time>2026-05-02T07:17:54.434Z</time></trkpt><trkpt lat="44.976991" lon="9.2362626"><ele>340.6666666666667</ele><time>2026-05-02T07:17:56.434Z</time></trkpt><trkpt lat="44.9770485" lon="9.2361573"><ele>343.0</ele><time>2026-05-02T07:17:59.429Z</time></trkpt><trkpt lat="44.9771132" lon="9.2360616"><ele>345.33333333333337</ele><time>2026-05-02T07:18:02.427Z</time></trkpt><trkpt lat="44.9771771" lon="9.2359609"><ele>347.6666666666667</ele><time>2026-05-02T07:18:05.425Z</time></trkpt><trkpt lat="44.9772155" lon="9.2358867"><ele>350.0</ele><time>2026-05-02T07:18:07.429Z</time></trkpt><trkpt lat="44.9772536" lon="9.2358076"><ele>350.0</ele><time>2026-05-02T07:18:09.429Z</time></trkpt><trkpt lat="44.9772936" lon="9.2357026"><ele>350.0</ele><time>2026-05-02T07:18:12.428Z</time></trkpt><trkpt lat="44.977272" lon="9.2355881"><ele>350.0</ele><time>2026-05-02T07:18:15.431Z</time></trkpt><trkpt lat="44.9772135" lon="9.2354978"><ele>350.0</ele><time>2026-05-02T07:18:18.425Z</time></trkpt><trkpt lat="44.9771476" lon="9.2354159"><ele>350.0</ele><time>2026-05-02T07:18:21.428Z</time></trkpt><trkpt lat="44.9770763" lon="9.2353268"><ele>350.0</ele><time>2026-05-02T07:18:24.429Z</time></trkpt><trkpt lat="44.9770231" lon="9.2352632"><ele>349.2857142857143</ele><time>2026-05-02T07:18:26.434Z</time></trkpt><trkpt lat="44.976977" lon="9.235199"><ele>348.57142857142856</ele><time>2026-05-02T07:18:28.43Z</time></trkpt><trkpt lat="44.9769309" lon="9.23513"><ele>347.8571428571429</ele><time>2026-05-02T07:18:30.431Z</time></trkpt><trkpt lat="44.9768882" lon="9.2350574"><ele>347.1428571428571</ele><time>2026-05-02T07:18:32.426Z</time></trkpt><trkpt lat="44.9768442" lon="9.2349792"><ele>346.42857142857144</ele><time>2026-05-02T07:18:34.433Z</time></trkpt><trkpt lat="44.9768031" lon="9.2349026"><ele>345.7142857142857</ele><time>2026-05-02T07:18:36.425Z</time></trkpt><trkpt lat="44.9767629" lon="9.2348243"><ele>345.0</ele><time>2026-05-02T07:18:38.433Z</time></trkpt><trkpt lat="44.9767191" lon="9.2347523"><ele>345.8571428571429</ele><time>2026-05-02T07:18:40.435Z</time></trkpt><trkpt lat="44.9766769" lon="9.234672"><ele>346.7142857142857</ele><time>2026-05-02T07:18:42.434Z</time></trkpt><trkpt lat="44.9766316" lon="9.2345803"><ele>347.57142857142856</ele><time>2026-05-02T07:18:44.426Z</time></trkpt><trkpt lat="44.9765935" lon="9.2344979"><ele>348.42857142857144</ele><time>2026-05-02T07:18:46.433Z</time></trkpt><trkpt lat="44.9765439" lon="9.2344297"><ele>349.2857142857143</ele><time>2026-05-02T07:18:48.506Z</time></trkpt><trkpt lat="44.9765024" lon="9.234348"><ele>350.14285714285717</ele><time>2026-05-02T07:18:50.493Z</time></trkpt><trkpt lat="44.9764559" lon="9.2342663"><ele>351.0</ele><time>2026-05-02T07:18:52.428Z</time></trkpt><trkpt lat="44.9764176" lon="9.2341837"><ele>351.00000000000006</ele><time>2026-05-02T07:18:54.43Z</time></trkpt><trkpt lat="44.9763783" lon="9.2341064"><ele>351.0</ele><time>2026-05-02T07:18:56.436Z</time></trkpt><trkpt lat="44.9763438" lon="9.234026"><ele>351.0</ele><time>2026-05-02T07:18:58.426Z</time></trkpt><trkpt lat="44.9762992" lon="9.2339512"><ele>351.0</ele><time>2026-05-02T07:19:00.44Z</time></trkpt><trkpt lat="44.9762557" lon="9.2338788"><ele>351.0</ele><time>2026-05-02T07:19:02.43Z</time></trkpt><trkpt lat="44.976204" lon="9.2338054"><ele>351.00000000000006</ele><time>2026-05-02T07:19:04.43Z</time></trkpt><trkpt lat="44.976151" lon="9.2337405"><ele>351.0</ele><time>2026-05-02T07:19:06.426Z</time></trkpt><trkpt lat="44.9760895" lon="9.2336903"><ele>350.14285714285717</ele><time>2026-05-02T07:19:08.433Z</time></trkpt><trkpt lat="44.9760255" lon="9.233651"><ele>349.2857142857143</ele><time>2026-05-02T07:19:10.434Z</time></trkpt><trkpt lat="44.9759612" lon="9.2336165"><ele>348.42857142857144</ele><time>2026-05-02T07:19:12.437Z</time></trkpt><trkpt lat="44.9758965" lon="9.2335901"><ele>347.57142857142856</ele><time>2026-05-02T07:19:14.442Z</time></trkpt><trkpt lat="44.975804" lon="9.2335437"><ele>346.7142857142857</ele><time>2026-05-02T07:19:17.431Z</time></trkpt><trkpt lat="44.9757402" lon="9.2334967"><ele>345.8571428571429</ele><time>2026-05-02T07:19:19.434Z</time></trkpt><trkpt lat="44.975689" lon="9.2334385"><ele>345.0</ele><time>2026-05-02T07:19:21.427Z</time></trkpt><trkpt lat="44.9756447" lon="9.2333597"><ele>346.7142857142857</ele><time>2026-05-02T07:19:23.428Z</time></trkpt><trkpt lat="44.9756072" lon="9.2332803"><ele>348.42857142857144</ele><time>2026-05-02T07:19:25.427Z</time></trkpt><trkpt lat="44.9755629" lon="9.2331895"><ele>350.1428571428571</ele><time>2026-05-02T07:19:28.428Z</time></trkpt><trkpt lat="44.9755163" lon="9.2331213"><ele>351.8571428571429</ele><time>2026-05-02T07:19:31.432Z</time></trkpt><trkpt lat="44.9754795" lon="9.2330105"><ele>353.57142857142856</ele><time>2026-05-02T07:19:35.429Z</time></trkpt><trkpt lat="44.9754598" lon="9.2329191"><ele>355.2857142857143</ele><time>2026-05-02T07:19:37.426Z</time></trkpt><trkpt lat="44.9754348" lon="9.2328314"><ele>357.0</ele><time>2026-05-02T07:19:39.43Z</time></trkpt><trkpt lat="44.9754112" lon="9.2327113"><ele>357.0</ele><time>2026-05-02T07:19:42.432Z</time></trkpt><trkpt lat="44.9753912" lon="9.232594"><ele>357.0</ele><time>2026-05-02T07:19:45.431Z</time></trkpt><trkpt lat="44.9753888" lon="9.232484"><ele>357.0</ele><time>2026-05-02T07:19:48.433Z</time></trkpt><trkpt lat="44.9753761" lon="9.2323654"><ele>357.0</ele><time>2026-05-02T07:19:51.499Z</time></trkpt><trkpt lat="44.9753779" lon="9.2322727"><ele>357.0</ele><time>2026-05-02T07:19:53.43Z</time></trkpt><trkpt lat="44.9753986" lon="9.2321432"><ele>357.0</ele><time>2026-05-02T07:19:56.436Z</time></trkpt><trkpt lat="44.9754154" lon="9.2320543"><ele>357.2857142857143</ele><time>2026-05-02T07:19:58.427Z</time></trkpt><trkpt lat="44.9754407" lon="9.2319552"><ele>357.57142857142856</ele><time>2026-05-02T07:20:00.432Z</time></trkpt><trkpt lat="44.9754613" lon="9.231853"><ele>357.8571428571429</ele><time>2026-05-02T07:20:02.433Z</time></trkpt><trkpt lat="44.9754774" lon="9.2317488"><ele>358.1428571428571</ele><time>2026-05-02T07:20:04.428Z</time></trkpt><trkpt lat="44.975499" lon="9.2316496"><ele>358.42857142857144</ele><time>2026-05-02T07:20:06.427Z</time></trkpt><trkpt lat="44.9755163" lon="9.2315547"><ele>358.7142857142857</ele><time>2026-05-02T07:20:08.496Z</time></trkpt><trkpt lat="44.9755256" lon="9.2314516"><ele>359.0</ele><time>2026-05-02T07:20:10.429Z</time></trkpt><trkpt lat="44.9755298" lon="9.2313562"><ele>359.2</ele><time>2026-05-02T07:20:12.436Z</time></trkpt><trkpt lat="44.9755494" lon="9.2312476"><ele>359.4</ele><time>2026-05-02T07:20:14.428Z</time></trkpt><trkpt lat="44.9755747" lon="9.2311253"><ele>359.6</ele><time>2026-05-02T07:20:16.429Z</time></trkpt><trkpt lat="44.9755975" lon="9.2309877"><ele>359.8</ele><time>2026-05-02T07:20:18.431Z</time></trkpt><trkpt lat="44.9756166" lon="9.2308347"><ele>360.0</ele><time>2026-05-02T07:20:20.431Z</time></trkpt><trkpt lat="44.9756423" lon="9.2306621"><ele>361.0</ele><time>2026-05-02T07:20:22.43Z</time></trkpt><trkpt lat="44.9756616" lon="9.2305093"><ele>362.0</ele><time>2026-05-02T07:20:24.432Z</time></trkpt><trkpt lat="44.9756705" lon="9.2303803"><ele>363.0</ele><time>2026-05-02T07:20:26.428Z</time></trkpt><trkpt lat="44.9756783" lon="9.2302535"><ele>364.0</ele><time>2026-05-02T07:20:28.433Z</time></trkpt><trkpt lat="44.9756841" lon="9.2301403"><ele>365.0</ele><time>2026-05-02T07:20:30.427Z</time></trkpt><trkpt lat="44.9756935" lon="9.2300228"><ele>365.0</ele><time>2026-05-02T07:20:32.432Z</time></trkpt><trkpt lat="44.9756947" lon="9.2299057"><ele>365.0</ele><time>2026-05-02T07:20:34.498Z</time></trkpt><trkpt lat="44.9756972" lon="9.2297988"><ele>365.0</ele><time>2026-05-02T07:20:36.426Z</time></trkpt><trkpt lat="44.9756959" lon="9.2297034"><ele>365.0</ele><time>2026-05-02T07:20:38.427Z</time></trkpt><trkpt lat="44.9756904" lon="9.2295769"><ele>365.0</ele><time>2026-05-02T07:20:41.431Z</time></trkpt><trkpt lat="44.9756753" lon="9.2294554"><ele>365.0</ele><time>2026-05-02T07:20:44.424Z</time></trkpt><trkpt lat="44.9756557" lon="9.2293259"><ele>365.33333333333337</ele><time>2026-05-02T07:20:47.433Z</time></trkpt><trkpt lat="44.975636" lon="9.2291965"><ele>365.6666666666667</ele><time>2026-05-02T07:20:50.426Z</time></trkpt><trkpt lat="44.9756192" lon="9.2291072"><ele>366.0</ele><time>2026-05-02T07:20:52.434Z</time></trkpt><trkpt lat="44.9755986" lon="9.2290169"><ele>366.3333333333333</ele><time>2026-05-02T07:20:54.435Z</time></trkpt><trkpt lat="44.9755816" lon="9.2289137"><ele>366.66666666666663</ele><time>2026-05-02T07:20:56.435Z</time></trkpt><trkpt lat="44.9755613" lon="9.228787"><ele>367.0</ele><time>2026-05-02T07:20:58.433Z</time></trkpt><trkpt lat="44.9755478" lon="9.2286552"><ele>366.0</ele><time>2026-05-02T07:21:00.429Z</time></trkpt><trkpt lat="44.9755365" lon="9.2285351"><ele>365.0</ele><time>2026-05-02T07:21:02.428Z</time></trkpt><trkpt lat="44.9756935" lon="9.2300228"><ele>365.0</ele><time>2026-05-02T07:20:32.432Z</time></trkpt><trkpt lat="44.9756947" lon="9.2299057"><ele>365.0</ele><time>2026-05-02T07:20:34.498Z</time></trkpt><trkpt lat="44.9756972" lon="9.2297988"><ele>365.0</ele><time>2026-05-02T07:20:36.426Z</time></trkpt><trkpt lat="44.9756959" lon="9.2297034"><ele>365.0</ele><time>2026-05-02T07:20:38.427Z</time></trkpt><trkpt lat="44.9756904" lon="9.2295769"><ele>365.0</ele><time>2026-05-02T07:20:41.431Z</time></trkpt><trkpt lat="44.9756753" lon="9.2294554"><ele>365.0</ele><time>2026-05-02T07:20:44.424Z</time></trkpt><trkpt lat="44.9756557" lon="9.2293259"><ele>365.33333333333337</ele><time>2026-05-02T07:20:47.433Z</time></trkpt><trkpt lat="44.975636" lon="9.2291965"><ele>365.6666666666667</ele><time>2026-05-02T07:20:50.426Z</time></trkpt><trkpt lat="44.9756192" lon="9.2291072"><ele>366.0</ele><time>2026-05-02T07:20:52.434Z</time></trkpt><trkpt lat="44.9755986" lon="9.2290169"><ele>366.3333333333333</ele><time>2026-05-02T07:20:54.435Z</time></trkpt><trkpt lat="44.9755816" lon="9.2289137"><ele>366.66666666666663</ele><time>2026-05-02T07:20:56.435Z</time></trkpt><trkpt lat="44.9755613" lon="9.228787"><ele>367.0</ele><time>2026-05-02T07:20:58.433Z</time></trkpt><trkpt lat="44.9755478" lon="9.2286552"><ele>367.4285714285714</ele><time>2026-05-02T07:21:00.429Z</time></trkpt><trkpt lat="44.9755365" lon="9.2285351"><ele>367.8571428571429</ele><time>2026-05-02T07:21:02.428Z</time></trkpt><trkpt lat="44.9755329" lon="9.2284446"><ele>368.2857142857143</ele><time>2026-05-02T07:21:04.425Z</time></trkpt><trkpt lat="44.9755219" lon="9.2283496"><ele>368.71428571428567</ele><time>2026-05-02T07:21:06.43Z</time></trkpt><trkpt lat="44.9755115" lon="9.2282515"><ele>369.1428571428571</ele><time>2026-05-02T07:21:08.441Z</time></trkpt><trkpt lat="44.975509" lon="9.2281513"><ele>369.57142857142856</ele><time>2026-05-02T07:21:10.431Z</time></trkpt><trkpt lat="44.9755108" lon="9.2280453"><ele>370.0</ele><time>2026-05-02T07:21:12.427Z</time></trkpt><trkpt lat="44.9755404" lon="9.2279544"><ele>370.99999999999994</ele><time>2026-05-02T07:21:14.495Z</time></trkpt><trkpt lat="44.9755778" lon="9.2278686"><ele>372.0</ele><time>2026-05-02T07:21:16.431Z</time></trkpt><trkpt lat="44.975624" lon="9.2277909"><ele>373.0</ele><time>2026-05-02T07:21:18.431Z</time></trkpt><trkpt lat="44.9756767" lon="9.2277158"><ele>374.0</ele><time>2026-05-02T07:21:20.425Z</time></trkpt><trkpt lat="44.9757251" lon="9.2276206"><ele>375.0</ele><time>2026-05-02T07:21:23.431Z</time></trkpt><trkpt lat="44.9757528" lon="9.2275398"><ele>375.99999999999994</ele><time>2026-05-02T07:21:25.433Z</time></trkpt><trkpt lat="44.9757805" lon="9.2274341"><ele>377.0</ele><time>2026-05-02T07:21:28.498Z</time></trkpt><trkpt lat="44.9758009" lon="9.2273263"><ele>377.85714285714283</ele><time>2026-05-02T07:21:31.43Z</time></trkpt><trkpt lat="44.9758266" lon="9.2271969"><ele>378.7142857142857</ele><time>2026-05-02T07:21:34.427Z</time></trkpt><trkpt lat="44.9758343" lon="9.2271001"><ele>379.57142857142856</ele><time>2026-05-02T07:21:36.43Z</time></trkpt><trkpt lat="44.9758504" lon="9.2270045"><ele>380.42857142857144</ele><time>2026-05-02T07:21:38.435Z</time></trkpt><trkpt lat="44.9758677" lon="9.2269112"><ele>381.2857142857143</ele><time>2026-05-02T07:21:40.429Z</time></trkpt><trkpt lat="44.9758831" lon="9.2268114"><ele>382.1428571428571</ele><time>2026-05-02T07:21:42.433Z</time></trkpt><trkpt lat="44.9759002" lon="9.2267127"><ele>383.0</ele><time>2026-05-02T07:21:44.42Z</time></trkpt><trkpt lat="44.9759163" lon="9.2266139"><ele>381.85714285714283</ele><time>2026-05-02T07:21:46.432Z</time></trkpt><trkpt lat="44.9759319" lon="9.2265236"><ele>380.71428571428567</ele><time>2026-05-02T07:21:48.429Z</time></trkpt><trkpt lat="44.9759434" lon="9.2264258"><ele>379.57142857142856</ele><time>2026-05-02T07:21:50.426Z</time></trkpt><trkpt lat="44.975957" lon="9.2263233"><ele>378.42857142857144</ele><time>2026-05-02T07:21:52.436Z</time></trkpt><trkpt lat="44.9759571" lon="9.2262133"><ele>377.2857142857143</ele><time>2026-05-02T07:21:54.435Z</time></trkpt><trkpt lat="44.9759456" lon="9.2261129"><ele>376.14285714285717</ele><time>2026-05-02T07:21:56.427Z</time></trkpt><trkpt lat="44.9759444" lon="9.226013"><ele>375.0</ele><time>2026-05-02T07:21:58.432Z</time></trkpt><trkpt lat="44.9759449" lon="9.2259156"><ele>375.0</ele><time>2026-05-02T07:22:00.436Z</time></trkpt><trkpt lat="44.9759458" lon="9.22581"><ele>375.0</ele><time>2026-05-02T07:22:02.438Z</time></trkpt><trkpt lat="44.9759541" lon="9.2257097"><ele>375.0</ele><time>2026-05-02T07:22:04.437Z</time></trkpt><trkpt lat="44.9759505" lon="9.2256003"><ele>375.0</ele><time>2026-05-02T07:22:06.425Z</time></trkpt><trkpt lat="44.9759575" lon="9.2254958"><ele>375.0</ele><time>2026-05-02T07:22:08.428Z</time></trkpt><trkpt lat="44.9759538" lon="9.2253929"><ele>375.0</ele><time>2026-05-02T07:22:10.491Z</time></trkpt><trkpt lat="44.9759583" lon="9.2252928"><ele>375.0</ele><time>2026-05-02T07:22:12.434Z</time></trkpt><trkpt lat="44.9759548" lon="9.2251972"><ele>376.5714285714286</ele><time>2026-05-02T07:22:14.434Z</time></trkpt><trkpt lat="44.9759514" lon="9.2251028"><ele>378.1428571428571</ele><time>2026-05-02T07:22:16.43Z</time></trkpt><trkpt lat="44.9759528" lon="9.2250008"><ele>379.7142857142857</ele><time>2026-05-02T07:22:18.435Z</time></trkpt><trkpt lat="44.9759578" lon="9.2248973"><ele>381.28571428571433</ele><time>2026-05-02T07:22:20.431Z</time></trkpt><trkpt lat="44.9759631" lon="9.2247999"><ele>382.8571428571429</ele><time>2026-05-02T07:22:22.433Z</time></trkpt><trkpt lat="44.9759793" lon="9.2247025"><ele>384.42857142857144</ele><time>2026-05-02T07:22:24.438Z</time></trkpt><trkpt lat="44.9760091" lon="9.2246208"><ele>386.0</ele><time>2026-05-02T07:22:26.426Z</time></trkpt><trkpt lat="44.9760522" lon="9.2245132"><ele>387.3333333333333</ele><time>2026-05-02T07:22:29.429Z</time></trkpt><trkpt lat="44.9760947" lon="9.2244021"><ele>388.66666666666663</ele><time>2026-05-02T07:22:32.434Z</time></trkpt><trkpt lat="44.9761205" lon="9.2243196"><ele>390.0</ele><time>2026-05-02T07:22:34.423Z</time></trkpt><trkpt lat="44.9761482" lon="9.2242362"><ele>391.33333333333337</ele><time>2026-05-02T07:22:36.486Z</time></trkpt><trkpt lat="44.976192" lon="9.2241133"><ele>392.6666666666667</ele><time>2026-05-02T07:22:39.428Z</time></trkpt><trkpt lat="44.9762223" lon="9.2239888"><ele>394.0</ele><time>2026-05-02T07:22:42.427Z</time></trkpt><trkpt lat="44.9762507" lon="9.2238612"><ele>395.33333333333337</ele><time>2026-05-02T07:22:45.424Z</time></trkpt><trkpt lat="44.9762649" lon="9.2237709"><ele>396.6666666666667</ele><time>2026-05-02T07:22:47.433Z</time></trkpt><trkpt lat="44.9762942" lon="9.2236489"><ele>398.0</ele><time>2026-05-02T07:22:50.424Z</time></trkpt><trkpt lat="44.9763209" lon="9.2235214"><ele>399.33333333333337</ele><time>2026-05-02T07:22:53.429Z</time></trkpt><trkpt lat="44.9763652" lon="9.2234115"><ele>400.6666666666667</ele><time>2026-05-02T07:22:56.438Z</time></trkpt><trkpt lat="44.9763868" lon="9.2233235"><ele>402.0</ele><time>2026-05-02T07:22:59.43Z</time></trkpt><trkpt lat="44.9763074" lon="9.223349"><ele>402.0</ele><time>2026-05-02T07:23:06.419Z</time></trkpt><trkpt lat="44.9762583" lon="9.2234221"><ele>402.0</ele><time>2026-05-02T07:23:08.421Z</time></trkpt><trkpt lat="44.976205" lon="9.2234896"><ele>402.0</ele><time>2026-05-02T07:23:10.432Z</time></trkpt><trkpt lat="44.9761516" lon="9.2235564"><ele>402.0</ele><time>2026-05-02T07:23:12.425Z</time></trkpt><trkpt lat="44.9760889" lon="9.2236188"><ele>402.0</ele><time>2026-05-02T07:23:14.428Z</time></trkpt><trkpt lat="44.9760212" lon="9.223669"><ele>402.0</ele><time>2026-05-02T07:23:16.425Z</time></trkpt><trkpt lat="44.9759581" lon="9.2237229"><ele>402.0</ele><time>2026-05-02T07:23:18.427Z</time></trkpt><trkpt lat="44.9758742" lon="9.2237709"><ele>401.6</ele><time>2026-05-02T07:23:20.422Z</time></trkpt><trkpt lat="44.9757711" lon="9.2238247"><ele>401.20000000000005</ele><time>2026-05-02T07:23:22.42Z</time></trkpt><trkpt lat="44.975657" lon="9.2239021"><ele>400.8</ele><time>2026-05-02T07:23:24.427Z</time></trkpt><trkpt lat="44.9755991" lon="9.2239385"><ele>400.4</ele><time>2026-05-02T07:23:25.427Z</time></trkpt><trkpt lat="44.9755037" lon="9.2240092"><ele>400.0</ele><time>2026-05-02T07:23:27.432Z</time></trkpt><trkpt lat="44.9754223" lon="9.2240974"><ele>400.00000000000006</ele><time>2026-05-02T07:23:29.429Z</time></trkpt><trkpt lat="44.975352" lon="9.2241815"><ele>400.0</ele><time>2026-05-02T07:23:31.428Z</time></trkpt><trkpt lat="44.9752872" lon="9.224254"><ele>400.0</ele><time>2026-05-02T07:23:33.43Z</time></trkpt><trkpt lat="44.9752194" lon="9.2243403"><ele>400.0</ele><time>2026-05-02T07:23:36.431Z</time></trkpt><trkpt lat="44.9751697" lon="9.224418"><ele>400.00000000000006</ele><time>2026-05-02T07:23:38.427Z</time></trkpt><trkpt lat="44.9751178" lon="9.2244994"><ele>400.0</ele><time>2026-05-02T07:23:40.428Z</time></trkpt><trkpt lat="44.9750684" lon="9.2245854"><ele>400.1666666666667</ele><time>2026-05-02T07:23:42.421Z</time></trkpt><trkpt lat="44.9750151" lon="9.2246655"><ele>400.33333333333337</ele><time>2026-05-02T07:23:44.427Z</time></trkpt><trkpt lat="44.974967" lon="9.2247518"><ele>400.5</ele><time>2026-05-02T07:23:46.432Z</time></trkpt><trkpt lat="44.9749198" lon="9.22484"><ele>400.66666666666663</ele><time>2026-05-02T07:23:48.431Z</time></trkpt><trkpt lat="44.9748644" lon="9.2249278"><ele>400.8333333333333</ele><time>2026-05-02T07:23:50.434Z</time></trkpt><trkpt lat="44.9748148" lon="9.2250106"><ele>401.0</ele><time>2026-05-02T07:23:52.429Z</time></trkpt><trkpt lat="44.9747621" lon="9.2250894"><ele>400.99999999999994</ele><time>2026-05-02T07:23:54.43Z</time></trkpt><trkpt lat="44.9747113" lon="9.2251788"><ele>401.0</ele><time>2026-05-02T07:23:56.426Z</time></trkpt><trkpt lat="44.9746584" lon="9.225257"><ele>401.0</ele><time>2026-05-02T07:23:58.428Z</time></trkpt><trkpt lat="44.9746091" lon="9.225342"><ele>401.0</ele><time>2026-05-02T07:24:00.429Z</time></trkpt><trkpt lat="44.9745622" lon="9.2254305"><ele>400.99999999999994</ele><time>2026-05-02T07:24:02.425Z</time></trkpt><trkpt lat="44.9745229" lon="9.2255092"><ele>401.0</ele><time>2026-05-02T07:24:04.431Z</time></trkpt><trkpt lat="44.9744756" lon="9.2255887"><ele>400.8571428571429</ele><time>2026-05-02T07:24:06.426Z</time></trkpt><trkpt lat="44.974423" lon="9.22567"><ele>400.7142857142857</ele><time>2026-05-02T07:24:08.425Z</time></trkpt><trkpt lat="44.9743697" lon="9.2257517"><ele>400.57142857142856</ele><time>2026-05-02T07:24:10.439Z</time></trkpt><trkpt lat="44.9743125" lon="9.2258198"><ele>400.42857142857144</ele><time>2026-05-02T07:24:12.432Z</time></trkpt><trkpt lat="44.9742629" lon="9.2258812"><ele>400.2857142857143</ele><time>2026-05-02T07:24:14.432Z</time></trkpt><trkpt lat="44.9742113" lon="9.2259501"><ele>400.14285714285717</ele><time>2026-05-02T07:24:16.431Z</time></trkpt><trkpt lat="44.9741532" lon="9.2260151"><ele>400.0</ele><time>2026-05-02T07:24:18.435Z</time></trkpt><trkpt lat="44.9740823" lon="9.2260916"><ele>400.8</ele><time>2026-05-02T07:24:20.428Z</time></trkpt><trkpt lat="44.9739902" lon="9.2261753"><ele>401.6</ele><time>2026-05-02T07:24:22.498Z</time></trkpt><trkpt lat="44.9738985" lon="9.2262599"><ele>402.4</ele><time>2026-05-02T07:24:24.498Z</time></trkpt><trkpt lat="44.9738122" lon="9.2263436"><ele>403.2</ele><time>2026-05-02T07:24:26.43Z</time></trkpt><trkpt lat="44.9737343" lon="9.2264715"><ele>404.0</ele><time>2026-05-02T07:24:28.43Z</time></trkpt><trkpt lat="44.9736555" lon="9.2266049"><ele>404.0</ele><time>2026-05-02T07:24:30.429Z</time></trkpt><trkpt lat="44.9735851" lon="9.226747"><ele>404.0</ele><time>2026-05-02T07:24:32.429Z</time></trkpt><trkpt lat="44.9735162" lon="9.2268952"><ele>404.0</ele><time>2026-05-02T07:24:34.424Z</time></trkpt><trkpt lat="44.9734477" lon="9.2270189"><ele>404.0</ele><time>2026-05-02T07:24:36.487Z</time></trkpt><trkpt lat="44.9733864" lon="9.2271304"><ele>404.3333333333333</ele><time>2026-05-02T07:24:38.44Z</time></trkpt><trkpt lat="44.9733235" lon="9.2272363"><ele>404.66666666666663</ele><time>2026-05-02T07:24:40.425Z</time></trkpt><trkpt lat="44.9732603" lon="9.2273261"><ele>405.0</ele><time>2026-05-02T07:24:42.437Z</time></trkpt><trkpt lat="44.973202" lon="9.2274033"><ele>405.33333333333337</ele><time>2026-05-02T07:24:44.432Z</time></trkpt><trkpt lat="44.9731433" lon="9.2274751"><ele>405.6666666666667</ele><time>2026-05-02T07:24:46.428Z</time></trkpt><trkpt lat="44.9730791" lon="9.227557"><ele>406.0</ele><time>2026-05-02T07:24:48.431Z</time></trkpt><trkpt lat="44.9730291" lon="9.2276461"><ele>406.00000000000006</ele><time>2026-05-02T07:24:50.498Z</time></trkpt><trkpt lat="44.9729801" lon="9.2277278"><ele>406.0</ele><time>2026-05-02T07:24:52.426Z</time></trkpt><trkpt lat="44.9729292" lon="9.2278147"><ele>406.0</ele><time>2026-05-02T07:24:54.431Z</time></trkpt><trkpt lat="44.9728867" lon="9.2278954"><ele>406.0</ele><time>2026-05-02T07:24:56.43Z</time></trkpt><trkpt lat="44.9728373" lon="9.227988"><ele>406.00000000000006</ele><time>2026-05-02T07:24:58.426Z</time></trkpt><trkpt lat="44.9727877" lon="9.2280648"><ele>406.0</ele><time>2026-05-02T07:25:00.428Z</time></trkpt><trkpt lat="44.9727464" lon="9.2281405"><ele>405.33333333333337</ele><time>2026-05-02T07:25:02.433Z</time></trkpt><trkpt lat="44.9726982" lon="9.228242"><ele>404.6666666666667</ele><time>2026-05-02T07:25:05.422Z</time></trkpt><trkpt lat="44.9726453" lon="9.2283321"><ele>404.0</ele><time>2026-05-02T07:25:08.429Z</time></trkpt><trkpt lat="44.9725793" lon="9.2283679"><ele>403.33333333333337</ele><time>2026-05-02T07:25:11.426Z</time></trkpt><trkpt lat="44.9725025" lon="9.2283565"><ele>402.6666666666667</ele><time>2026-05-02T07:25:14.419Z</time></trkpt><trkpt lat="44.9724263" lon="9.2283078"><ele>402.0</ele><time>2026-05-02T07:25:17.427Z</time></trkpt><trkpt lat="44.9723501" lon="9.2282512"><ele>404.0</ele><time>2026-05-02T07:25:20.487Z</time></trkpt><trkpt lat="44.9723239" lon="9.2281472"><ele>406.0</ele><time>2026-05-02T07:25:24.421Z</time></trkpt><trkpt lat="44.9723473" lon="9.2280345"><ele>408.0</ele><time>2026-05-02T07:25:27.424Z</time></trkpt><trkpt lat="44.9723866" lon="9.2279318"><ele>410.0</ele><time>2026-05-02T07:25:30.434Z</time></trkpt><trkpt lat="44.9724257" lon="9.2278274"><ele>412.0</ele><time>2026-05-02T07:25:33.432Z</time></trkpt><trkpt lat="44.9724373" lon="9.2277346"><ele>414.0</ele><time>2026-05-02T07:25:36.429Z</time></trkpt><trkpt lat="44.9723794" lon="9.2276864"><ele>415.1666666666667</ele><time>2026-05-02T07:25:39.431Z</time></trkpt><trkpt lat="44.9722944" lon="9.2276344"><ele>416.33333333333337</ele><time>2026-05-02T07:25:42.424Z</time></trkpt><trkpt lat="44.9722319" lon="9.22759"><ele>417.5</ele><time>2026-05-02T07:25:45.418Z</time></trkpt><trkpt lat="44.9721663" lon="9.227556"><ele>418.6666666666667</ele><time>2026-05-02T07:25:49.435Z</time></trkpt><trkpt lat="44.9720899" lon="9.2275194"><ele>419.83333333333337</ele><time>2026-05-02T07:25:53.423Z</time></trkpt><trkpt lat="44.9720045" lon="9.2274919"><ele>421.0</ele><time>2026-05-02T07:25:57.43Z</time></trkpt><trkpt lat="44.9719148" lon="9.2274897"><ele>421.00000000000006</ele><time>2026-05-02T07:26:00.426Z</time></trkpt><trkpt lat="44.9718496" lon="9.2275047"><ele>421.0</ele><time>2026-05-02T07:26:02.433Z</time></trkpt><trkpt lat="44.9717803" lon="9.2275219"><ele>421.0</ele><time>2026-05-02T07:26:04.43Z</time></trkpt><trkpt lat="44.9717192" lon="9.2275551"><ele>421.0</ele><time>2026-05-02T07:26:06.43Z</time></trkpt><trkpt lat="44.9716435" lon="9.2276135"><ele>421.00000000000006</ele><time>2026-05-02T07:26:10.424Z</time></trkpt><trkpt lat="44.9715624" lon="9.2276608"><ele>421.0</ele><time>2026-05-02T07:26:13.422Z</time></trkpt><trkpt lat="44.9714894" lon="9.2277156"><ele>421.8571428571429</ele><time>2026-05-02T07:26:16.426Z</time></trkpt><trkpt lat="44.9714243" lon="9.2277758"><ele>422.7142857142857</ele><time>2026-05-02T07:26:19.424Z</time></trkpt><trkpt lat="44.9713772" lon="9.2278357"><ele>423.57142857142856</ele><time>2026-05-02T07:26:22.418Z</time></trkpt><trkpt lat="44.9713264" lon="9.2278949"><ele>424.42857142857144</ele><time>2026-05-02T07:26:25.423Z</time></trkpt><trkpt lat="44.9712794" lon="9.2279677"><ele>425.2857142857143</ele><time>2026-05-02T07:26:28.422Z</time></trkpt><trkpt lat="44.9712294" lon="9.2280442"><ele>426.14285714285717</ele><time>2026-05-02T07:26:34.431Z</time></trkpt><trkpt lat="44.971175" lon="9.2281266"><ele>427.0</ele><time>2026-05-02T07:26:38.42Z</time></trkpt><trkpt lat="44.971121" lon="9.2282132"><ele>427.0</ele><time>2026-05-02T07:26:41.426Z</time></trkpt><trkpt lat="44.9710685" lon="9.2282977"><ele>427.0</ele><time>2026-05-02T07:26:44.437Z</time></trkpt><trkpt lat="44.9714894" lon="9.2277156"><ele>427.0</ele><time>2026-05-02T07:26:16.426Z</time></trkpt><trkpt lat="44.9714243" lon="9.2277758"><ele>427.0</ele><time>2026-05-02T07:26:19.424Z</time></trkpt><trkpt lat="44.9713772" lon="9.2278357"><ele>427.0</ele><time>2026-05-02T07:26:22.418Z</time></trkpt><trkpt lat="44.9713264" lon="9.2278949"><ele>427.0</ele><time>2026-05-02T07:26:25.423Z</time></trkpt><trkpt lat="44.9712794" lon="9.2279677"><ele>427.0</ele><time>2026-05-02T07:26:28.422Z</time></trkpt><trkpt lat="44.9712294" lon="9.2280442"><ele>427.0</ele><time>2026-05-02T07:26:34.431Z</time></trkpt><trkpt lat="44.971175" lon="9.2281266"><ele>427.0</ele><time>2026-05-02T07:26:38.42Z</time></trkpt><trkpt lat="44.971121" lon="9.2282132"><ele>425.57142857142856</ele><time>2026-05-02T07:26:41.426Z</time></trkpt><trkpt lat="44.9710685" lon="9.2282977"><ele>424.1428571428571</ele><time>2026-05-02T07:26:44.437Z</time></trkpt><trkpt lat="44.9709961" lon="9.2283269"><ele>422.7142857142857</ele><time>2026-05-02T07:26:47.428Z</time></trkpt><trkpt lat="44.9709249" lon="9.228313"><ele>421.2857142857143</ele><time>2026-05-02T07:26:50.433Z</time></trkpt><trkpt lat="44.9708612" lon="9.228281"><ele>419.85714285714283</ele><time>2026-05-02T07:26:53.427Z</time></trkpt><trkpt lat="44.9707897" lon="9.2282562"><ele>418.42857142857144</ele><time>2026-05-02T07:26:57.427Z</time></trkpt><trkpt lat="44.9707203" lon="9.228227"><ele>417.0</ele><time>2026-05-02T07:27:00.429Z</time></trkpt><trkpt lat="44.9706525" lon="9.2281991"><ele>417.0</ele><time>2026-05-02T07:27:03.425Z</time></trkpt><trkpt lat="44.9705883" lon="9.2281696"><ele>417.0</ele><time>2026-05-02T07:27:06.432Z</time></trkpt><trkpt lat="44.9705195" lon="9.2281324"><ele>417.0</ele><time>2026-05-02T07:27:10.423Z</time></trkpt><trkpt lat="44.9704507" lon="9.2280837"><ele>417.0</ele><time>2026-05-02T07:27:14.422Z</time></trkpt><trkpt lat="44.970388" lon="9.2280622"><ele>417.0</ele><time>2026-05-02T07:27:17.424Z</time></trkpt><trkpt lat="44.970323" lon="9.2280299"><ele>417.0</ele><time>2026-05-02T07:27:21.429Z</time></trkpt><trkpt lat="44.9702473" lon="9.2280116"><ele>417.0</ele><time>2026-05-02T07:27:26.424Z</time></trkpt><trkpt lat="44.9701844" lon="9.2279938"><ele>418.8571428571429</ele><time>2026-05-02T07:27:29.418Z</time></trkpt><trkpt lat="44.9701153" lon="9.2279713"><ele>420.71428571428567</ele><time>2026-05-02T07:27:32.497Z</time></trkpt><trkpt lat="44.9700517" lon="9.2279563"><ele>422.57142857142856</ele><time>2026-05-02T07:27:35.428Z</time></trkpt><trkpt lat="44.9699707" lon="9.2279311"><ele>424.42857142857144</ele><time>2026-05-02T07:27:38.428Z</time></trkpt><trkpt lat="44.9699008" lon="9.2279124"><ele>426.28571428571433</ele><time>2026-05-02T07:27:41.426Z</time></trkpt><trkpt lat="44.9698387" lon="9.2278925"><ele>428.1428571428571</ele><time>2026-05-02T07:27:44.423Z</time></trkpt><trkpt lat="44.9697737" lon="9.2278495"><ele>430.0</ele><time>2026-05-02T07:27:48.431Z</time></trkpt><trkpt lat="44.9697083" lon="9.2278777"><ele>430.0</ele><time>2026-05-02T07:27:53.428Z</time></trkpt><trkpt lat="44.9696518" lon="9.2279203"><ele>430.0</ele><time>2026-05-02T07:27:56.431Z</time></trkpt><trkpt lat="44.9695838" lon="9.2279726"><ele>430.0</ele><time>2026-05-02T07:27:59.488Z</time></trkpt><trkpt lat="44.969513" lon="9.2280208"><ele>430.0</ele><time>2026-05-02T07:28:02.428Z</time></trkpt><trkpt lat="44.9694528" lon="9.2280562"><ele>430.0</ele><time>2026-05-02T07:28:04.42Z</time></trkpt><trkpt lat="44.9693679" lon="9.2281018"><ele>430.0</ele><time>2026-05-02T07:28:07.427Z</time></trkpt><trkpt lat="44.9693014" lon="9.2281317"><ele>430.0</ele><time>2026-05-02T07:28:09.431Z</time></trkpt><trkpt lat="44.969243" lon="9.2281675"><ele>428.50000000000006</ele><time>2026-05-02T07:28:11.426Z</time></trkpt><trkpt lat="44.9691767" lon="9.2282107"><ele>427.0</ele><time>2026-05-02T07:28:13.426Z</time></trkpt><trkpt lat="44.9691095" lon="9.2282311"><ele>425.5</ele><time>2026-05-02T07:28:15.432Z</time></trkpt><trkpt lat="44.9690427" lon="9.2282575"><ele>424.0</ele><time>2026-05-02T07:28:17.426Z</time></trkpt><trkpt lat="44.9689614" lon="9.2283026"><ele>422.50000000000006</ele><time>2026-05-02T07:28:20.426Z</time></trkpt><trkpt lat="44.9688858" lon="9.2283575"><ele>421.0</ele><time>2026-05-02T07:28:23.425Z</time></trkpt><trkpt lat="44.9688152" lon="9.2283912"><ele>421.00000000000006</ele><time>2026-05-02T07:28:26.497Z</time></trkpt><trkpt lat="44.9687401" lon="9.2284274"><ele>421.0</ele><time>2026-05-02T07:28:30.423Z</time></trkpt><trkpt lat="44.9686723" lon="9.2284565"><ele>421.0</ele><time>2026-05-02T07:28:33.43Z</time></trkpt><trkpt lat="44.9685881" lon="9.22849"><ele>421.0</ele><time>2026-05-02T07:28:36.431Z</time></trkpt><trkpt lat="44.9684997" lon="9.2285284"><ele>421.00000000000006</ele><time>2026-05-02T07:28:39.492Z</time></trkpt><trkpt lat="44.96844" lon="9.2285571"><ele>421.0</ele><time>2026-05-02T07:28:41.425Z</time></trkpt><trkpt lat="44.9683522" lon="9.2286003"><ele>420.83333333333337</ele><time>2026-05-02T07:28:44.43Z</time></trkpt><trkpt lat="44.9682917" lon="9.2286321"><ele>420.6666666666667</ele><time>2026-05-02T07:28:46.43Z</time></trkpt><trkpt lat="44.968202" lon="9.2286643"><ele>420.5</ele><time>2026-05-02T07:28:49.422Z</time></trkpt><trkpt lat="44.9681204" lon="9.2287033"><ele>420.33333333333337</ele><time>2026-05-02T07:28:52.418Z</time></trkpt><trkpt lat="44.9680589" lon="9.2287326"><ele>420.1666666666667</ele><time>2026-05-02T07:28:54.424Z</time></trkpt><trkpt lat="44.9679981" lon="9.2287611"><ele>420.0</ele><time>2026-05-02T07:28:56.428Z</time></trkpt><trkpt lat="44.967918" lon="9.228799"><ele>420.0</ele><time>2026-05-02T07:28:59.427Z</time></trkpt><trkpt lat="44.9678469" lon="9.2288398"><ele>420.0</ele><time>2026-05-02T07:29:02.424Z</time></trkpt><trkpt lat="44.9677873" lon="9.228871"><ele>420.0</ele><time>2026-05-02T07:29:04.428Z</time></trkpt><trkpt lat="44.9677013" lon="9.2289035"><ele>420.0</ele><time>2026-05-02T07:29:07.427Z</time></trkpt><trkpt lat="44.9676176" lon="9.2289474"><ele>420.0</ele><time>2026-05-02T07:29:10.427Z</time></trkpt><trkpt lat="44.9675382" lon="9.2289812"><ele>420.0</ele><time>2026-05-02T07:29:13.425Z</time></trkpt><trkpt lat="44.9674578" lon="9.2290236"><ele>420.8333333333333</ele><time>2026-05-02T07:29:16.427Z</time></trkpt><trkpt lat="44.9673805" lon="9.2290571"><ele>421.66666666666663</ele><time>2026-05-02T07:29:19.493Z</time></trkpt><trkpt lat="44.9672931" lon="9.2290532"><ele>422.5</ele><time>2026-05-02T07:29:22.429Z</time></trkpt><trkpt lat="44.9672125" lon="9.2290389"><ele>423.3333333333333</ele><time>2026-05-02T07:29:25.431Z</time></trkpt><trkpt lat="44.9671219" lon="9.2290582"><ele>424.16666666666663</ele><time>2026-05-02T07:29:28.428Z</time></trkpt><trkpt lat="44.9670557" lon="9.2290695"><ele>425.0</ele><time>2026-05-02T07:29:30.433Z</time></trkpt><trkpt lat="44.9669854" lon="9.2290766"><ele>424.99999999999994</ele><time>2026-05-02T07:29:32.431Z</time></trkpt><trkpt lat="44.9668924" lon="9.2291139"><ele>425.0</ele><time>2026-05-02T07:29:35.426Z</time></trkpt><trkpt lat="44.9668312" lon="9.2291392"><ele>425.0</ele><time>2026-05-02T07:29:37.429Z</time></trkpt><trkpt lat="44.9667694" lon="9.2291679"><ele>425.0</ele><time>2026-05-02T07:29:39.421Z</time></trkpt><trkpt lat="44.9666844" lon="9.2292002"><ele>424.99999999999994</ele><time>2026-05-02T07:29:42.432Z</time></trkpt><trkpt lat="44.9666231" lon="9.2292257"><ele>425.0</ele><time>2026-05-02T07:29:44.439Z</time></trkpt><trkpt lat="44.9665313" lon="9.2292673"><ele>426.0</ele><time>2026-05-02T07:29:47.431Z</time></trkpt><trkpt lat="44.9664705" lon="9.2292941"><ele>427.0</ele><time>2026-05-02T07:29:49.434Z</time></trkpt><trkpt lat="44.9664059" lon="9.2293262"><ele>428.0</ele><time>2026-05-02T07:29:51.424Z</time></trkpt><trkpt lat="44.9663192" lon="9.2293719"><ele>429.0</ele><time>2026-05-02T07:29:54.421Z</time></trkpt><trkpt lat="44.9662505" lon="9.2294047"><ele>430.0</ele><time>2026-05-02T07:29:56.431Z</time></trkpt><trkpt lat="44.9661821" lon="9.2294295"><ele>431.0</ele><time>2026-05-02T07:29:58.491Z</time></trkpt><trkpt lat="44.9661194" lon="9.2294509"><ele>432.0</ele><time>2026-05-02T07:30:00.431Z</time></trkpt><trkpt lat="44.9660543" lon="9.2294694"><ele>432.0</ele><time>2026-05-02T07:30:02.426Z</time></trkpt><trkpt lat="44.9659876" lon="9.2294921"><ele>432.0</ele><time>2026-05-02T07:30:04.417Z</time></trkpt><trkpt lat="44.9659248" lon="9.2295125"><ele>432.0</ele><time>2026-05-02T07:30:06.428Z</time></trkpt><trkpt lat="44.9658618" lon="9.2295304"><ele>432.0</ele><time>2026-05-02T07:30:08.426Z</time></trkpt><trkpt lat="44.9657938" lon="9.2295722"><ele>432.0</ele><time>2026-05-02T07:30:10.436Z</time></trkpt><trkpt lat="44.9657272" lon="9.2295974"><ele>432.0</ele><time>2026-05-02T07:30:12.429Z</time></trkpt><trkpt lat="44.9656636" lon="9.2296214"><ele>432.0</ele><time>2026-05-02T07:30:14.431Z</time></trkpt><trkpt lat="44.9656017" lon="9.2296388"><ele>432.7142857142857</ele><time>2026-05-02T07:30:16.432Z</time></trkpt><trkpt lat="44.9655382" lon="9.229663"><ele>433.42857142857144</ele><time>2026-05-02T07:30:18.423Z</time></trkpt><trkpt lat="44.9654457" lon="9.2297012"><ele>434.1428571428571</ele><time>2026-05-02T07:30:21.425Z</time></trkpt><trkpt lat="44.9653802" lon="9.2297305"><ele>434.8571428571429</ele><time>2026-05-02T07:30:23.427Z</time></trkpt><trkpt lat="44.9653154" lon="9.2297608"><ele>435.5714285714286</ele><time>2026-05-02T07:30:25.498Z</time></trkpt><trkpt lat="44.9652537" lon="9.2297852"><ele>436.2857142857143</ele><time>2026-05-02T07:30:27.426Z</time></trkpt><trkpt lat="44.9651895" lon="9.2298024"><ele>437.0</ele><time>2026-05-02T07:30:29.43Z</time></trkpt><trkpt lat="44.9651206" lon="9.2298185"><ele>437.0</ele><time>2026-05-02T07:30:31.43Z</time></trkpt><trkpt lat="44.965057" lon="9.2298356"><ele>437.0</ele><time>2026-05-02T07:30:33.429Z</time></trkpt><trkpt lat="44.9649921" lon="9.2298483"><ele>437.0</ele><time>2026-05-02T07:30:35.432Z</time></trkpt><trkpt lat="44.9649295" lon="9.2298592"><ele>437.0</ele><time>2026-05-02T07:30:37.432Z</time></trkpt><trkpt lat="44.9648631" lon="9.229867"><ele>437.0</ele><time>2026-05-02T07:30:39.432Z</time></trkpt><trkpt lat="44.964767" lon="9.2298669"><ele>437.0</ele><time>2026-05-02T07:30:42.43Z</time></trkpt><trkpt lat="44.9647033" lon="9.2298566"><ele>437.0</ele><time>2026-05-02T07:30:44.428Z</time></trkpt><trkpt lat="44.964612" lon="9.229849"><ele>438.49999999999994</ele><time>2026-05-02T07:30:47.428Z</time></trkpt><trkpt lat="44.9645351" lon="9.22984"><ele>440.0</ele><time>2026-05-02T07:30:50.426Z</time></trkpt><trkpt lat="44.9644582" lon="9.229853"><ele>441.5</ele><time>2026-05-02T07:30:54.435Z</time></trkpt><trkpt lat="44.9643856" lon="9.2298903"><ele>443.0</ele><time>2026-05-02T07:30:59.423Z</time></trkpt><trkpt lat="44.9643267" lon="9.2299436"><ele>444.49999999999994</ele><time>2026-05-02T07:31:02.495Z</time></trkpt><trkpt lat="44.9642559" lon="9.2300006"><ele>446.0</ele><time>2026-05-02T07:31:05.493Z</time></trkpt><trkpt lat="44.9641858" lon="9.2300686"><ele>446.0</ele><time>2026-05-02T07:31:08.426Z</time></trkpt><trkpt lat="44.9641202" lon="9.2301421"><ele>446.0</ele><time>2026-05-02T07:31:11.426Z</time></trkpt><trkpt lat="44.9640562" lon="9.2302093"><ele>446.0</ele><time>2026-05-02T07:31:14.428Z</time></trkpt><trkpt lat="44.9639992" lon="9.2302698"><ele>446.0</ele><time>2026-05-02T07:31:17.479Z</time></trkpt><trkpt lat="44.9639346" lon="9.2303275"><ele>446.0</ele><time>2026-05-02T07:31:21.423Z</time></trkpt><trkpt lat="44.9638769" lon="9.2303747"><ele>446.0</ele><time>2026-05-02T07:31:24.429Z</time></trkpt><trkpt lat="44.9638173" lon="9.2304233"><ele>446.0</ele><time>2026-05-02T07:31:27.429Z</time></trkpt><trkpt lat="44.963744" lon="9.2304858"><ele>446.0</ele><time>2026-05-02T07:31:30.428Z</time></trkpt><trkpt lat="44.96368" lon="9.230545"><ele>446.0</ele><time>2026-05-02T07:31:33.427Z</time></trkpt><trkpt lat="44.9636122" lon="9.2306032"><ele>446.0</ele><time>2026-05-02T07:31:36.437Z</time></trkpt><trkpt lat="44.963544" lon="9.2306385"><ele>446.0</ele><time>2026-05-02T07:31:40.429Z</time></trkpt><trkpt lat="44.9634822" lon="9.2306652"><ele>446.0</ele><time>2026-05-02T07:31:44.426Z</time></trkpt><trkpt lat="44.963421" lon="9.2307056"><ele>446.0</ele><time>2026-05-02T07:31:47.427Z</time></trkpt><trkpt lat="44.9633559" lon="9.2307123"><ele>446.0</ele><time>2026-05-02T07:31:52.434Z</time></trkpt><trkpt lat="44.9633079" lon="9.23077"><ele>446.3333333333333</ele><time>2026-05-02T07:32:05.427Z</time></trkpt><trkpt lat="44.9632726" lon="9.2308486"><ele>446.66666666666663</ele><time>2026-05-02T07:32:08.432Z</time></trkpt><trkpt lat="44.9632378" lon="9.230943"><ele>447.0</ele><time>2026-05-02T07:32:11.424Z</time></trkpt><trkpt lat="44.9632007" lon="9.2310418"><ele>447.33333333333337</ele><time>2026-05-02T07:32:14.426Z</time></trkpt><trkpt lat="44.9631631" lon="9.2311242"><ele>447.6666666666667</ele><time>2026-05-02T07:32:16.423Z</time></trkpt><trkpt lat="44.9631309" lon="9.2312143"><ele>448.0</ele><time>2026-05-02T07:32:18.431Z</time></trkpt><trkpt lat="44.9630896" lon="9.2313305"><ele>448.00000000000006</ele><time>2026-05-02T07:32:21.434Z</time></trkpt><trkpt lat="44.9630444" lon="9.2314381"><ele>448.0</ele><time>2026-05-02T07:32:23.432Z</time></trkpt><trkpt lat="44.9630348" lon="9.2315811"><ele>448.0</ele><time>2026-05-02T07:32:25.426Z</time></trkpt><trkpt lat="44.9630431" lon="9.2317019"><ele>448.0</ele><time>2026-05-02T07:32:27.431Z</time></trkpt><trkpt lat="44.9630478" lon="9.2318426"><ele>448.00000000000006</ele><time>2026-05-02T07:32:29.427Z</time></trkpt><trkpt lat="44.9630346" lon="9.2319363"><ele>448.0</ele><time>2026-05-02T07:32:32.427Z</time></trkpt><trkpt lat="44.9630168" lon="9.2320257"><ele>446.33333333333337</ele><time>2026-05-02T07:32:35.43Z</time></trkpt><trkpt lat="44.9629837" lon="9.2321303"><ele>444.6666666666667</ele><time>2026-05-02T07:32:38.431Z</time></trkpt><trkpt lat="44.9629497" lon="9.2322249"><ele>443.0</ele><time>2026-05-02T07:32:41.435Z</time></trkpt><trkpt lat="44.9629236" lon="9.2323385"><ele>441.33333333333337</ele><time>2026-05-02T07:32:44.424Z</time></trkpt><trkpt lat="44.9628898" lon="9.2324425"><ele>439.6666666666667</ele><time>2026-05-02T07:32:47.489Z</time></trkpt><trkpt lat="44.9628751" lon="9.2325507"><ele>438.0</ele><time>2026-05-02T07:32:50.433Z</time></trkpt><trkpt lat="44.9628724" lon="9.2326475"><ele>436.3333333333333</ele><time>2026-05-02T07:32:53.425Z</time></trkpt><trkpt lat="44.9628714" lon="9.2327509"><ele>434.66666666666663</ele><time>2026-05-02T07:32:56.418Z</time></trkpt><trkpt lat="44.9628715" lon="9.2328636"><ele>433.0</ele><time>2026-05-02T07:32:59.427Z</time></trkpt><trkpt lat="44.9628586" lon="9.2329849"><ele>431.3333333333333</ele><time>2026-05-02T07:33:02.421Z</time></trkpt><trkpt lat="44.9628364" lon="9.2330946"><ele>429.66666666666663</ele><time>2026-05-02T07:33:05.427Z</time></trkpt><trkpt lat="44.9628181" lon="9.2331888"><ele>428.0</ele><time>2026-05-02T07:33:07.426Z</time></trkpt><trkpt lat="44.9627852" lon="9.2332896"><ele>427.3333333333333</ele><time>2026-05-02T07:33:09.495Z</time></trkpt><trkpt lat="44.9627417" lon="9.2334028"><ele>426.66666666666663</ele><time>2026-05-02T07:33:11.428Z</time></trkpt><trkpt lat="44.9627017" lon="9.233503"><ele>426.0</ele><time>2026-05-02T07:33:13.499Z</time></trkpt><trkpt lat="44.9626625" lon="9.2336127"><ele>425.33333333333337</ele><time>2026-05-02T07:33:15.418Z</time></trkpt><trkpt lat="44.9626267" lon="9.2337251"><ele>424.6666666666667</ele><time>2026-05-02T07:33:17.422Z</time></trkpt><trkpt lat="44.9625933" lon="9.2338304"><ele>424.0</ele><time>2026-05-02T07:33:19.42Z</time></trkpt><trkpt lat="44.9625665" lon="9.2339258"><ele>423.2857142857143</ele><time>2026-05-02T07:33:21.424Z</time></trkpt><trkpt lat="44.9625408" lon="9.2340114"><ele>422.57142857142856</ele><time>2026-05-02T07:33:23.424Z</time></trkpt><trkpt lat="44.9625162" lon="9.2341296"><ele>421.85714285714283</ele><time>2026-05-02T07:33:26.428Z</time></trkpt><trkpt lat="44.9624997" lon="9.2342216"><ele>421.1428571428571</ele><time>2026-05-02T07:33:28.429Z</time></trkpt><trkpt lat="44.9624894" lon="9.2343151"><ele>420.42857142857144</ele><time>2026-05-02T07:33:30.433Z</time></trkpt><trkpt lat="44.962481" lon="9.2344084"><ele>419.71428571428567</ele><time>2026-05-02T07:33:32.426Z</time></trkpt><trkpt lat="44.9624691" lon="9.2345075"><ele>419.0</ele><time>2026-05-02T07:33:34.43Z</time></trkpt><trkpt lat="44.9624634" lon="9.2346177"><ele>420.85714285714283</ele><time>2026-05-02T07:33:36.423Z</time></trkpt><trkpt lat="44.962454" lon="9.2347197"><ele>422.7142857142857</ele><time>2026-05-02T07:33:38.433Z</time></trkpt><trkpt lat="44.9624368" lon="9.2348273"><ele>424.57142857142856</ele><time>2026-05-02T07:33:41.423Z</time></trkpt><trkpt lat="44.9623959" lon="9.2349221"><ele>426.42857142857144</ele><time>2026-05-02T07:33:44.433Z</time></trkpt><trkpt lat="44.9623676" lon="9.2350036"><ele>428.2857142857143</ele><time>2026-05-02T07:33:46.429Z</time></trkpt><trkpt lat="44.9623469" lon="9.2350989"><ele>430.1428571428571</ele><time>2026-05-02T07:33:48.418Z</time></trkpt><trkpt lat="44.9623195" lon="9.2352127"><ele>432.0</ele><time>2026-05-02T07:33:51.427Z</time></trkpt><trkpt lat="44.9622798" lon="9.2353059"><ele>432.0</ele><time>2026-05-02T07:33:54.425Z</time></trkpt><trkpt lat="44.9622321" lon="9.2353733"><ele>432.0</ele><time>2026-05-02T07:33:57.43Z</time></trkpt><trkpt lat="44.9621723" lon="9.2354481"><ele>432.0</ele><time>2026-05-02T07:34:01.42Z</time></trkpt><trkpt lat="44.9621023" lon="9.2355171"><ele>432.0</ele><time>2026-05-02T07:34:05.426Z</time></trkpt><trkpt lat="44.9620441" lon="9.2355777"><ele>432.0</ele><time>2026-05-02T07:34:08.431Z</time></trkpt><trkpt lat="44.9619878" lon="9.2356553"><ele>432.0</ele><time>2026-05-02T07:34:11.426Z</time></trkpt><trkpt lat="44.9619482" lon="9.2357433"><ele>431.42857142857144</ele><time>2026-05-02T07:34:14.424Z</time></trkpt><trkpt lat="44.961909" lon="9.235833"><ele>430.85714285714283</ele><time>2026-05-02T07:34:18.427Z</time></trkpt><trkpt lat="44.9618583" lon="9.2359116"><ele>430.28571428571433</ele><time>2026-05-02T07:34:22.436Z</time></trkpt><trkpt lat="44.961807" lon="9.2359874"><ele>429.7142857142857</ele><time>2026-05-02T07:34:26.431Z</time></trkpt><trkpt lat="44.9617524" lon="9.2360365"><ele>429.14285714285717</ele><time>2026-05-02T07:34:30.489Z</time></trkpt><trkpt lat="44.9616939" lon="9.2361033"><ele>428.5714285714286</ele><time>2026-05-02T07:34:34.432Z</time></trkpt><trkpt lat="44.9616345" lon="9.2361674"><ele>428.0</ele><time>2026-05-02T07:34:38.427Z</time></trkpt><trkpt lat="44.9615723" lon="9.2362411"><ele>427.66666666666663</ele><time>2026-05-02T07:34:42.427Z</time></trkpt><trkpt lat="44.9615109" lon="9.2363076"><ele>427.3333333333333</ele><time>2026-05-02T07:34:46.427Z</time></trkpt><trkpt lat="44.9614477" lon="9.2363747"><ele>427.0</ele><time>2026-05-02T07:34:50.432Z</time></trkpt><trkpt lat="44.9613885" lon="9.2364469"><ele>426.66666666666663</ele><time>2026-05-02T07:34:54.423Z</time></trkpt><trkpt lat="44.9613308" lon="9.2365244"><ele>426.3333333333333</ele><time>2026-05-02T07:34:59.43Z</time></trkpt><trkpt lat="44.9612768" lon="9.2366031"><ele>426.0</ele><time>2026-05-02T07:35:05.424Z</time></trkpt><trkpt lat="44.9612257" lon="9.2366677"><ele>424.2857142857143</ele><time>2026-05-02T07:35:09.425Z</time></trkpt><trkpt lat="44.9611738" lon="9.2367306"><ele>422.57142857142856</ele><time>2026-05-02T07:35:13.422Z</time></trkpt><trkpt lat="44.9611211" lon="9.2368037"><ele>420.8571428571429</ele><time>2026-05-02T07:35:16.429Z</time></trkpt><trkpt lat="44.9610557" lon="9.2368769"><ele>419.1428571428571</ele><time>2026-05-02T07:35:20.431Z</time></trkpt><trkpt lat="44.9609978" lon="9.2369467"><ele>417.42857142857144</ele><time>2026-05-02T07:35:24.422Z</time></trkpt><trkpt lat="44.9609515" lon="9.2370124"><ele>415.7142857142857</ele><time>2026-05-02T07:35:27.428Z</time></trkpt><trkpt lat="44.9608987" lon="9.237096"><ele>414.0</ele><time>2026-05-02T07:35:31.424Z</time></trkpt><trkpt lat="44.9608499" lon="9.2371637"><ele>411.8571428571429</ele><time>2026-05-02T07:35:38.43Z</time></trkpt><trkpt lat="44.960797" lon="9.2372156"><ele>409.7142857142857</ele><time>2026-05-02T07:35:43.416Z</time></trkpt><trkpt lat="44.9607432" lon="9.237286"><ele>407.57142857142856</ele><time>2026-05-02T07:35:50.426Z</time></trkpt><trkpt lat="44.960689" lon="9.2373513"><ele>405.42857142857144</ele><time>2026-05-02T07:35:56.428Z</time></trkpt><trkpt lat="44.9606358" lon="9.2374128"><ele>403.2857142857143</ele><time>2026-05-02T07:36:04.431Z</time></trkpt><trkpt lat="44.9605892" lon="9.2374756"><ele>401.14285714285717</ele><time>2026-05-02T07:36:12.429Z</time></trkpt><trkpt lat="44.960547" lon="9.2375545"><ele>399.0</ele><time>2026-05-02T07:36:18.426Z</time></trkpt><trkpt lat="44.9605073" lon="9.2376259"><ele>397.2857142857143</ele><time>2026-05-02T07:36:24.432Z</time></trkpt><trkpt lat="44.9604439" lon="9.2376778"><ele>395.57142857142856</ele><time>2026-05-02T07:36:28.425Z</time></trkpt><trkpt lat="44.9603785" lon="9.2377283"><ele>393.8571428571429</ele><time>2026-05-02T07:36:31.436Z</time></trkpt><trkpt lat="44.9603129" lon="9.2377499"><ele>392.1428571428571</ele><time>2026-05-02T07:36:34.427Z</time></trkpt><trkpt lat="44.9602381" lon="9.2377598"><ele>390.42857142857144</ele><time>2026-05-02T07:36:38.434Z</time></trkpt><trkpt lat="44.9601687" lon="9.2377584"><ele>388.7142857142857</ele><time>2026-05-02T07:36:42.436Z</time></trkpt><trkpt lat="44.96009" lon="9.2377762"><ele>387.0</ele><time>2026-05-02T07:36:46.433Z</time></trkpt><trkpt lat="44.9600262" lon="9.237811"><ele>385.0</ele><time>2026-05-02T07:36:49.423Z</time></trkpt><trkpt lat="44.9599851" lon="9.2379034"><ele>383.0</ele><time>2026-05-02T07:36:52.442Z</time></trkpt><trkpt lat="44.9599399" lon="9.2380026"><ele>381.0</ele><time>2026-05-02T07:36:54.429Z</time></trkpt><trkpt lat="44.959873" lon="9.2380852"><ele>379.0</ele><time>2026-05-02T07:36:56.488Z</time></trkpt><trkpt lat="44.9597867" lon="9.2381563"><ele>377.0</ele><time>2026-05-02T07:36:58.422Z</time></trkpt><trkpt lat="44.9596911" lon="9.2382322"><ele>375.25</ele><time>2026-05-02T07:37:00.421Z</time></trkpt><trkpt lat="44.959582" lon="9.2383012"><ele>373.5</ele><time>2026-05-02T07:37:02.426Z</time></trkpt><trkpt lat="44.9594745" lon="9.2383696"><ele>371.75</ele><time>2026-05-02T07:37:04.423Z</time></trkpt><trkpt lat="44.9593694" lon="9.2384433"><ele>370.0</ele><time>2026-05-02T07:37:06.423Z</time></trkpt><trkpt lat="44.9592702" lon="9.2385198"><ele>369.0</ele><time>2026-05-02T07:37:08.432Z</time></trkpt><trkpt lat="44.9591767" lon="9.2385996"><ele>368.0</ele><time>2026-05-02T07:37:10.428Z</time></trkpt><trkpt lat="44.959094" lon="9.2386897"><ele>367.0</ele><time>2026-05-02T07:37:12.431Z</time></trkpt><trkpt lat="44.9590182" lon="9.238783"><ele>366.0</ele><time>2026-05-02T07:37:14.442Z</time></trkpt><trkpt lat="44.9589479" lon="9.2388529"><ele>365.0</ele><time>2026-05-02T07:37:16.424Z</time></trkpt><trkpt lat="44.9588753" lon="9.2389182"><ele>365.1666666666667</ele><time>2026-05-02T07:37:18.425Z</time></trkpt><trkpt lat="44.9588223" lon="9.2389704"><ele>365.33333333333337</ele><time>2026-05-02T07:37:20.424Z</time></trkpt><trkpt lat="44.9587508" lon="9.2390358"><ele>365.5</ele><time>2026-05-02T07:37:24.428Z</time></trkpt><trkpt lat="44.9586845" lon="9.239102"><ele>365.6666666666667</ele><time>2026-05-02T07:37:27.428Z</time></trkpt><trkpt lat="44.9586089" lon="9.2391681"><ele>365.8333333333333</ele><time>2026-05-02T07:37:30.426Z</time></trkpt><trkpt lat="44.9585403" lon="9.2392361"><ele>366.0</ele><time>2026-05-02T07:37:33.424Z</time></trkpt><trkpt lat="44.9584719" lon="9.2393226"><ele>366.0</ele><time>2026-05-02T07:37:36.423Z</time></trkpt><trkpt lat="44.9584239" lon="9.2393807"><ele>366.0</ele><time>2026-05-02T07:37:38.43Z</time></trkpt><trkpt lat="44.9583552" lon="9.2394584"><ele>366.0</ele><time>2026-05-02T07:37:41.428Z</time></trkpt><trkpt lat="44.9582867" lon="9.2395309"><ele>366.0</ele><time>2026-05-02T07:37:44.426Z</time></trkpt><trkpt lat="44.9582359" lon="9.2395842"><ele>366.0</ele><time>2026-05-02T07:37:46.422Z</time></trkpt><trkpt lat="44.9581783" lon="9.2396765"><ele>366.0</ele><time>2026-05-02T07:37:49.484Z</time></trkpt><trkpt lat="44.9581158" lon="9.2397599"><ele>366.6666666666667</ele><time>2026-05-02T07:37:52.431Z</time></trkpt><trkpt lat="44.9580548" lon="9.2398422"><ele>367.3333333333333</ele><time>2026-05-02T07:37:55.434Z</time></trkpt><trkpt lat="44.9579878" lon="9.2399195"><ele>368.0</ele><time>2026-05-02T07:37:58.433Z</time></trkpt><trkpt lat="44.9579254" lon="9.2400028"><ele>368.66666666666663</ele><time>2026-05-02T07:38:01.433Z</time></trkpt><trkpt lat="44.957873" lon="9.2400989"><ele>369.3333333333333</ele><time>2026-05-02T07:38:04.426Z</time></trkpt><trkpt lat="44.9578106" lon="9.2401795"><ele>370.0</ele><time>2026-05-02T07:38:07.426Z</time></trkpt><trkpt lat="44.957766" lon="9.2402425"><ele>369.99999999999994</ele><time>2026-05-02T07:38:09.421Z</time></trkpt><trkpt lat="44.9576965" lon="9.2403015"><ele>370.0</ele><time>2026-05-02T07:38:13.431Z</time></trkpt><trkpt lat="44.9576376" lon="9.2403548"><ele>370.0</ele><time>2026-05-02T07:38:17.428Z</time></trkpt><trkpt lat="44.9575863" lon="9.2404095"><ele>370.0</ele><time>2026-05-02T07:38:20.428Z</time></trkpt><trkpt lat="44.9575368" lon="9.2404869"><ele>370.0</ele><time>2026-05-02T07:38:23.424Z</time></trkpt><trkpt lat="44.9574678" lon="9.2405551"><ele>369.99999999999994</ele><time>2026-05-02T07:38:26.495Z</time></trkpt><trkpt lat="44.9573949" lon="9.2405692"><ele>370.0</ele><time>2026-05-02T07:38:29.433Z</time></trkpt><trkpt lat="44.9573335" lon="9.2405974"><ele>369.99999999999994</ele><time>2026-05-02T07:38:33.422Z</time></trkpt><trkpt lat="44.9572657" lon="9.240625"><ele>370.0</ele><time>2026-05-02T07:38:37.425Z</time></trkpt><trkpt lat="44.9571906" lon="9.2406507"><ele>370.0</ele><time>2026-05-02T07:38:40.424Z</time></trkpt><trkpt lat="44.9571233" lon="9.2406954"><ele>370.0</ele><time>2026-05-02T07:38:43.428Z</time></trkpt><trkpt lat="44.9570589" lon="9.2407167"><ele>370.0</ele><time>2026-05-02T07:38:46.431Z</time></trkpt><trkpt lat="44.9569834" lon="9.2407115"><ele>369.99999999999994</ele><time>2026-05-02T07:38:49.424Z</time></trkpt><trkpt lat="44.9569145" lon="9.2406923"><ele>370.0</ele><time>2026-05-02T07:38:52.431Z</time></trkpt><trkpt lat="44.9568399" lon="9.2406667"><ele>369.3333333333333</ele><time>2026-05-02T07:38:55.418Z</time></trkpt><trkpt lat="44.956756" lon="9.2406284"><ele>368.66666666666663</ele><time>2026-05-02T07:38:58.441Z</time></trkpt><trkpt lat="44.9566809" lon="9.2406079"><ele>368.0</ele><time>2026-05-02T07:39:01.428Z</time></trkpt><trkpt lat="44.9566089" lon="9.2405771"><ele>367.3333333333333</ele><time>2026-05-02T07:39:04.429Z</time></trkpt><trkpt lat="44.956536" lon="9.2405465"><ele>366.6666666666667</ele><time>2026-05-02T07:39:07.437Z</time></trkpt><trkpt lat="44.9564627" lon="9.2405171"><ele>366.0</ele><time>2026-05-02T07:39:10.435Z</time></trkpt><trkpt lat="44.9563876" lon="9.2404887"><ele>366.0</ele><time>2026-05-02T07:39:13.43Z</time></trkpt><trkpt lat="44.9563183" lon="9.2404503"><ele>366.0</ele><time>2026-05-02T07:39:16.423Z</time></trkpt><trkpt lat="44.9562442" lon="9.2404192"><ele>366.0</ele><time>2026-05-02T07:39:19.422Z</time></trkpt><trkpt lat="44.9561688" lon="9.2403819"><ele>366.0</ele><time>2026-05-02T07:39:22.429Z</time></trkpt><trkpt lat="44.9561038" lon="9.240365"><ele>366.0</ele><time>2026-05-02T07:39:25.425Z</time></trkpt><trkpt lat="44.9560225" lon="9.2403516"><ele>366.0</ele><time>2026-05-02T07:39:28.425Z</time></trkpt><trkpt lat="44.9559458" lon="9.2403494"><ele>367.0</ele><time>2026-05-02T07:39:31.426Z</time></trkpt><trkpt lat="44.9558614" lon="9.2403544"><ele>368.0</ele><time>2026-05-02T07:39:34.423Z</time></trkpt><trkpt lat="44.9557783" lon="9.2403598"><ele>369.0</ele><time>2026-05-02T07:39:37.427Z</time></trkpt><trkpt lat="44.9557019" lon="9.2403655"><ele>370.0</ele><time>2026-05-02T07:39:40.421Z</time></trkpt><trkpt lat="44.9556202" lon="9.2403863"><ele>371.0</ele><time>2026-05-02T07:39:43.435Z</time></trkpt><trkpt lat="44.9555483" lon="9.240435"><ele>372.0</ele><time>2026-05-02T07:39:46.432Z</time></trkpt><trkpt lat="44.9554692" lon="9.2404768"><ele>372.0</ele><time>2026-05-02T07:39:49.421Z</time></trkpt><trkpt lat="44.9553982" lon="9.2405161"><ele>372.0</ele><time>2026-05-02T07:39:51.426Z</time></trkpt><trkpt lat="44.9552942" lon="9.2405152"><ele>372.0</ele><time>2026-05-02T07:39:53.432Z</time></trkpt><trkpt lat="44.9552285" lon="9.2405057"><ele>372.0</ele><time>2026-05-02T07:39:54.425Z</time></trkpt><trkpt lat="44.9551616" lon="9.2404882"><ele>372.0</ele><time>2026-05-02T07:39:56.422Z</time></trkpt><trkpt lat="44.9550929" lon="9.2404271"><ele>372.0</ele><time>2026-05-02T07:40:00.432Z</time></trkpt><trkpt lat="44.9550451" lon="9.2403478"><ele>372.5714285714286</ele><time>2026-05-02T07:40:03.427Z</time></trkpt><trkpt lat="44.9549982" lon="9.240251"><ele>373.14285714285717</ele><time>2026-05-02T07:40:06.428Z</time></trkpt><trkpt lat="44.9549436" lon="9.2401657"><ele>373.7142857142857</ele><time>2026-05-02T07:40:09.429Z</time></trkpt><trkpt lat="44.9548832" lon="9.2400977"><ele>374.28571428571433</ele><time>2026-05-02T07:40:12.432Z</time></trkpt><trkpt lat="44.9548234" lon="9.2400635"><ele>374.85714285714283</ele><time>2026-05-02T07:40:14.43Z</time></trkpt><trkpt lat="44.9547623" lon="9.2400364"><ele>375.42857142857144</ele><time>2026-05-02T07:40:16.424Z</time></trkpt><trkpt lat="44.9546982" lon="9.2400028"><ele>376.0</ele><time>2026-05-02T07:40:18.422Z</time></trkpt><trkpt lat="44.9546248" lon="9.2399673"><ele>376.0</ele><time>2026-05-02T07:40:20.429Z</time></trkpt><trkpt lat="44.9545446" lon="9.2399353"><ele>376.0</ele><time>2026-05-02T07:40:22.421Z</time></trkpt><trkpt lat="44.9544676" lon="9.2399139"><ele>376.0</ele><time>2026-05-02T07:40:24.428Z</time></trkpt><trkpt lat="44.9543852" lon="9.2398941"><ele>376.0</ele><time>2026-05-02T07:40:27.421Z</time></trkpt><trkpt lat="44.9543023" lon="9.2398961"><ele>376.0</ele><time>2026-05-02T07:40:30.42Z</time></trkpt><trkpt lat="44.9542258" lon="9.2399003"><ele>376.0</ele><time>2026-05-02T07:40:33.421Z</time></trkpt><trkpt lat="44.9541642" lon="9.2398512"><ele>375.42857142857144</ele><time>2026-05-02T07:40:36.421Z</time></trkpt><trkpt lat="44.9540882" lon="9.2398097"><ele>374.85714285714283</ele><time>2026-05-02T07:40:41.419Z</time></trkpt><trkpt lat="44.9540192" lon="9.2398003"><ele>374.28571428571433</ele><time>2026-05-02T07:40:44.426Z</time></trkpt><trkpt lat="44.9539534" lon="9.2397711"><ele>373.7142857142857</ele><time>2026-05-02T07:40:47.425Z</time></trkpt><trkpt lat="44.9538782" lon="9.2397673"><ele>373.14285714285717</ele><time>2026-05-02T07:40:51.481Z</time></trkpt><trkpt lat="44.9538052" lon="9.2397309"><ele>372.5714285714286</ele><time>2026-05-02T07:40:55.432Z</time></trkpt><trkpt lat="44.953755" lon="9.2396729"><ele>372.0</ele><time>2026-05-02T07:40:58.425Z</time></trkpt><trkpt lat="44.9536937" lon="9.2396051"><ele>372.0</ele><time>2026-05-02T07:41:01.424Z</time></trkpt><trkpt lat="44.9536295" lon="9.2395766"><ele>372.0</ele><time>2026-05-02T07:41:04.426Z</time></trkpt><trkpt lat="44.9535548" lon="9.2395686"><ele>372.0</ele><time>2026-05-02T07:41:07.425Z</time></trkpt><trkpt lat="44.953488" lon="9.2395719"><ele>372.0</ele><time>2026-05-02T07:41:09.423Z</time></trkpt><trkpt lat="44.9534089" lon="9.2395567"><ele>372.0</ele><time>2026-05-02T07:41:13.424Z</time></trkpt><trkpt lat="44.9533227" lon="9.2395641"><ele>372.0</ele><time>2026-05-02T07:41:16.428Z</time></trkpt><trkpt lat="44.9532364" lon="9.2396033"><ele>372.0</ele><time>2026-05-02T07:41:19.416Z</time></trkpt><trkpt lat="44.9531714" lon="9.2396791"><ele>372.0</ele><time>2026-05-02T07:41:22.429Z</time></trkpt><trkpt lat="44.9531269" lon="9.2397584"><ele>372.0</ele><time>2026-05-02T07:41:24.421Z</time></trkpt><trkpt lat="44.9530901" lon="9.239854"><ele>372.0</ele><time>2026-05-02T07:41:26.42Z</time></trkpt><trkpt lat="44.9530433" lon="9.239952"><ele>372.0</ele><time>2026-05-02T07:41:29.492Z</time></trkpt><trkpt lat="44.9529897" lon="9.240033"><ele>372.0</ele><time>2026-05-02T07:41:31.425Z</time></trkpt><trkpt lat="44.9529347" lon="9.2400883"><ele>375.3333333333333</ele><time>2026-05-02T07:41:33.427Z</time></trkpt><trkpt lat="44.9528689" lon="9.2401653"><ele>378.66666666666663</ele><time>2026-05-02T07:41:36.423Z</time></trkpt><trkpt lat="44.952801" lon="9.2402203"><ele>382.0</ele><time>2026-05-02T07:41:39.423Z</time></trkpt><trkpt lat="44.9527396" lon="9.240283"><ele>385.3333333333333</ele><time>2026-05-02T07:41:42.428Z</time></trkpt><trkpt lat="44.952664" lon="9.2403677"><ele>388.66666666666663</ele><time>2026-05-02T07:41:45.418Z</time></trkpt><trkpt lat="44.952619" lon="9.2404303"><ele>392.0</ele><time>2026-05-02T07:41:47.43Z</time></trkpt><trkpt lat="44.9525709" lon="9.2404955"><ele>389.8333333333333</ele><time>2026-05-02T07:41:49.426Z</time></trkpt><trkpt lat="44.9525144" lon="9.2405852"><ele>387.66666666666663</ele><time>2026-05-02T07:41:52.429Z</time></trkpt><trkpt lat="44.9524539" lon="9.2406751"><ele>385.5</ele><time>2026-05-02T07:41:55.423Z</time></trkpt><trkpt lat="44.9524" lon="9.2407763"><ele>383.3333333333333</ele><time>2026-05-02T07:41:58.42Z</time></trkpt><trkpt lat="44.952348" lon="9.240898"><ele>381.16666666666663</ele><time>2026-05-02T07:42:01.423Z</time></trkpt><trkpt lat="44.9523198" lon="9.2409835"><ele>379.0</ele><time>2026-05-02T07:42:03.417Z</time></trkpt><trkpt lat="44.9522921" lon="9.2410741"><ele>379.0</ele><time>2026-05-02T07:42:05.423Z</time></trkpt><trkpt lat="44.9522592" lon="9.2411666"><ele>379.0</ele><time>2026-05-02T07:42:07.418Z</time></trkpt><trkpt lat="44.9522282" lon="9.241263"><ele>379.0</ele><time>2026-05-02T07:42:09.426Z</time></trkpt><trkpt lat="44.9522037" lon="9.2413819"><ele>379.0</ele><time>2026-05-02T07:42:11.427Z</time></trkpt><trkpt lat="44.9521717" lon="9.2414988"><ele>379.0</ele><time>2026-05-02T07:42:13.423Z</time></trkpt><trkpt lat="44.9521427" lon="9.2416455"><ele>379.0</ele><time>2026-05-02T07:42:15.426Z</time></trkpt><trkpt lat="44.9521205" lon="9.2417673"><ele>378.16666666666663</ele><time>2026-05-02T07:42:17.425Z</time></trkpt><trkpt lat="44.9521079" lon="9.2419126"><ele>377.3333333333333</ele><time>2026-05-02T07:42:19.42Z</time></trkpt><trkpt lat="44.9520741" lon="9.24204"><ele>376.5</ele><time>2026-05-02T07:42:21.42Z</time></trkpt><trkpt lat="44.9520245" lon="9.2421267"><ele>375.6666666666667</ele><time>2026-05-02T07:42:23.422Z</time></trkpt><trkpt lat="44.9519803" lon="9.2422102"><ele>374.83333333333337</ele><time>2026-05-02T07:42:25.423Z</time></trkpt><trkpt lat="44.9519346" lon="9.2423298"><ele>374.0</ele><time>2026-05-02T07:42:27.422Z</time></trkpt><trkpt lat="44.9518798" lon="9.2424503"><ele>373.6666666666667</ele><time>2026-05-02T07:42:29.422Z</time></trkpt><trkpt lat="44.9518237" lon="9.242537"><ele>373.33333333333337</ele><time>2026-05-02T07:42:31.427Z</time></trkpt><trkpt lat="44.9517409" lon="9.2425889"><ele>373.0</ele><time>2026-05-02T07:42:33.424Z</time></trkpt><trkpt lat="44.9516754" lon="9.2426173"><ele>372.6666666666667</ele><time>2026-05-02T07:42:35.423Z</time></trkpt><trkpt lat="44.9516111" lon="9.2426357"><ele>372.3333333333333</ele><time>2026-05-02T07:42:38.427Z</time></trkpt><trkpt lat="44.9515304" lon="9.2426541"><ele>372.0</ele><time>2026-05-02T07:42:41.42Z</time></trkpt><trkpt lat="44.9514423" lon="9.2426806"><ele>370.42857142857144</ele><time>2026-05-02T07:42:44.429Z</time></trkpt><trkpt lat="44.9513804" lon="9.2427053"><ele>368.8571428571429</ele><time>2026-05-02T07:42:46.429Z</time></trkpt><trkpt lat="44.9512975" lon="9.2427369"><ele>367.28571428571433</ele><time>2026-05-02T07:42:49.485Z</time></trkpt><trkpt lat="44.9512053" lon="9.2427707"><ele>365.7142857142857</ele><time>2026-05-02T07:42:52.42Z</time></trkpt><trkpt lat="44.9511449" lon="9.2427995"><ele>364.1428571428571</ele><time>2026-05-02T07:42:54.43Z</time></trkpt><trkpt lat="44.9510808" lon="9.2428243"><ele>362.5714285714286</ele><time>2026-05-02T07:42:56.43Z</time></trkpt><trkpt lat="44.9510164" lon="9.2428437"><ele>361.0</ele><time>2026-05-02T07:42:58.424Z</time></trkpt><trkpt lat="44.9509249" lon="9.2428821"><ele>361.5714285714286</ele><time>2026-05-02T07:43:01.417Z</time></trkpt><trkpt lat="44.9508607" lon="9.2429071"><ele>362.1428571428571</ele><time>2026-05-02T07:43:03.42Z</time></trkpt><trkpt lat="44.9507955" lon="9.2429388"><ele>362.7142857142857</ele><time>2026-05-02T07:43:05.425Z</time></trkpt><trkpt lat="44.9507315" lon="9.2429746"><ele>363.28571428571433</ele><time>2026-05-02T07:43:07.425Z</time></trkpt><trkpt lat="44.9506669" lon="9.2429916"><ele>363.8571428571429</ele><time>2026-05-02T07:43:09.424Z</time></trkpt><trkpt lat="44.9506049" lon="9.2430073"><ele>364.42857142857144</ele><time>2026-05-02T07:43:11.424Z</time></trkpt><trkpt lat="44.9505412" lon="9.2430327"><ele>365.0</ele><time>2026-05-02T07:43:13.49Z</time></trkpt><trkpt lat="44.9504552" lon="9.243079"><ele>365.0</ele><time>2026-05-02T07:43:16.427Z</time></trkpt><trkpt lat="44.9503723" lon="9.2431285"><ele>365.0</ele><time>2026-05-02T07:43:19.425Z</time></trkpt><trkpt lat="44.9502812" lon="9.2431632"><ele>365.0</ele><time>2026-05-02T07:43:22.429Z</time></trkpt><trkpt lat="44.9501909" lon="9.2431684"><ele>365.0</ele><time>2026-05-02T07:43:25.423Z</time></trkpt><trkpt lat="44.9501079" lon="9.2431691"><ele>365.0</ele><time>2026-05-02T07:43:28.426Z</time></trkpt><trkpt lat="44.9500248" lon="9.2431511"><ele>365.0</ele><time>2026-05-02T07:43:31.423Z</time></trkpt><trkpt lat="44.9499512" lon="9.2431389"><ele>365.8571428571429</ele><time>2026-05-02T07:43:34.422Z</time></trkpt><trkpt lat="44.9498823" lon="9.2431393"><ele>366.7142857142857</ele><time>2026-05-02T07:43:37.43Z</time></trkpt><trkpt lat="44.9498028" lon="9.2431284"><ele>367.57142857142856</ele><time>2026-05-02T07:43:40.424Z</time></trkpt><trkpt lat="44.9497155" lon="9.2431252"><ele>368.42857142857144</ele><time>2026-05-02T07:43:43.427Z</time></trkpt><trkpt lat="44.9496404" lon="9.2431183"><ele>369.2857142857143</ele><time>2026-05-02T07:43:46.417Z</time></trkpt><trkpt lat="44.949574" lon="9.243136"><ele>370.14285714285717</ele><time>2026-05-02T07:43:49.428Z</time></trkpt><trkpt lat="44.94951" lon="9.2431664"><ele>371.0</ele><time>2026-05-02T07:43:52.426Z</time></trkpt><trkpt lat="44.9494525" lon="9.2432159"><ele>372.0</ele><time>2026-05-02T07:43:55.429Z</time></trkpt><trkpt lat="44.9493928" lon="9.2432814"><ele>373.0</ele><time>2026-05-02T07:43:58.422Z</time></trkpt><trkpt lat="44.9493385" lon="9.2433409"><ele>374.0</ele><time>2026-05-02T07:44:01.426Z</time></trkpt><trkpt lat="44.9492719" lon="9.2434104"><ele>375.0</ele><time>2026-05-02T07:44:05.422Z</time></trkpt><trkpt lat="44.9492127" lon="9.2434684"><ele>376.0</ele><time>2026-05-02T07:44:09.432Z</time></trkpt><trkpt lat="44.9491603" lon="9.2435249"><ele>377.0</ele><time>2026-05-02T07:44:12.425Z</time></trkpt><trkpt lat="44.9491042" lon="9.2435742"><ele>378.0</ele><time>2026-05-02T07:44:15.421Z</time></trkpt><trkpt lat="44.9490507" lon="9.2436323"><ele>379.0</ele><time>2026-05-02T07:44:18.424Z</time></trkpt><trkpt lat="44.948978" lon="9.2436824"><ele>380.0</ele><time>2026-05-02T07:44:22.429Z</time></trkpt><trkpt lat="44.9489046" lon="9.2437308"><ele>381.0</ele><time>2026-05-02T07:44:26.426Z</time></trkpt><trkpt lat="44.9488455" lon="9.2437654"><ele>382.0</ele><time>2026-05-02T07:44:29.426Z</time></trkpt><trkpt lat="44.9487645" lon="9.243802"><ele>383.0</ele><time>2026-05-02T07:44:33.421Z</time></trkpt><trkpt lat="44.9487011" lon="9.2438385"><ele>384.0</ele><time>2026-05-02T07:44:36.424Z</time></trkpt><trkpt lat="44.9486375" lon="9.2438686"><ele>385.0</ele><time>2026-05-02T07:44:39.422Z</time></trkpt><trkpt lat="44.9485629" lon="9.2439217"><ele>386.50000000000006</ele><time>2026-05-02T07:44:43.419Z</time></trkpt><trkpt lat="44.948487" lon="9.2439701"><ele>388.0</ele><time>2026-05-02T07:44:47.422Z</time></trkpt><trkpt lat="44.9484091" lon="9.2440039"><ele>389.5</ele><time>2026-05-02T07:44:51.425Z</time></trkpt><trkpt lat="44.9483403" lon="9.2440368"><ele>391.0</ele><time>2026-05-02T07:44:54.43Z</time></trkpt><trkpt lat="44.9482682" lon="9.244072"><ele>392.50000000000006</ele><time>2026-05-02T07:44:58.425Z</time></trkpt><trkpt lat="44.9481858" lon="9.2440665"><ele>394.0</ele><time>2026-05-02T07:45:02.424Z</time></trkpt><trkpt lat="44.9481231" lon="9.2440584"><ele>394.1666666666667</ele><time>2026-05-02T07:45:04.429Z</time></trkpt><trkpt lat="44.9480516" lon="9.2440337"><ele>394.33333333333337</ele><time>2026-05-02T07:45:06.421Z</time></trkpt><trkpt lat="44.9479821" lon="9.2439959"><ele>394.5</ele><time>2026-05-02T07:45:08.423Z</time></trkpt><trkpt lat="44.9479115" lon="9.243937"><ele>394.66666666666663</ele><time>2026-05-02T07:45:11.49Z</time></trkpt><trkpt lat="44.9478485" lon="9.2438772"><ele>394.8333333333333</ele><time>2026-05-02T07:45:14.421Z</time></trkpt><trkpt lat="44.9477903" lon="9.2438116"><ele>395.0</ele><time>2026-05-02T07:45:17.427Z</time></trkpt><trkpt lat="44.9477377" lon="9.243745"><ele>395.0</ele><time>2026-05-02T07:45:20.42Z</time></trkpt><trkpt lat="44.9476908" lon="9.2436839"><ele>395.0</ele><time>2026-05-02T07:45:23.487Z</time></trkpt><trkpt lat="44.9476329" lon="9.2436031"><ele>395.0</ele><time>2026-05-02T07:45:27.428Z</time></trkpt><trkpt lat="44.9475801" lon="9.2435452"><ele>395.0</ele><time>2026-05-02T07:45:30.43Z</time></trkpt><trkpt lat="44.9475196" lon="9.2435059"><ele>395.0</ele><time>2026-05-02T07:45:33.428Z</time></trkpt><trkpt lat="44.9474694" lon="9.2434336"><ele>395.0</ele><time>2026-05-02T07:45:36.428Z</time></trkpt><trkpt lat="44.9474167" lon="9.2433666"><ele>395.0</ele><time>2026-05-02T07:45:39.418Z</time></trkpt><trkpt lat="44.9473643" lon="9.2432985"><ele>395.0</ele><time>2026-05-02T07:45:42.432Z</time></trkpt><trkpt lat="44.9473166" lon="9.2432348"><ele>395.0</ele><time>2026-05-02T07:45:45.422Z</time></trkpt><trkpt lat="44.9472686" lon="9.2431769"><ele>395.0</ele><time>2026-05-02T07:45:48.427Z</time></trkpt><trkpt lat="44.9472188" lon="9.2430928"><ele>395.0</ele><time>2026-05-02T07:45:52.428Z</time></trkpt><trkpt lat="44.9471754" lon="9.243025"><ele>395.0</ele><time>2026-05-02T07:45:55.416Z</time></trkpt><trkpt lat="44.9471244" lon="9.2429704"><ele>395.0</ele><time>2026-05-02T07:45:58.428Z</time></trkpt><trkpt lat="44.9470719" lon="9.2428927"><ele>395.0</ele><time>2026-05-02T07:46:02.43Z</time></trkpt><trkpt lat="44.9470288" lon="9.2428074"><ele>394.4285714285714</ele><time>2026-05-02T07:46:06.434Z</time></trkpt><trkpt lat="44.9469624" lon="9.2427674"><ele>393.8571428571429</ele><time>2026-05-02T07:46:10.423Z</time></trkpt><trkpt lat="44.946898" lon="9.2427359"><ele>393.2857142857143</ele><time>2026-05-02T07:46:13.429Z</time></trkpt><trkpt lat="44.9468321" lon="9.2427077"><ele>392.71428571428567</ele><time>2026-05-02T07:46:16.431Z</time></trkpt><trkpt lat="44.9467568" lon="9.2426873"><ele>392.1428571428571</ele><time>2026-05-02T07:46:21.422Z</time></trkpt><trkpt lat="44.9466799" lon="9.2426732"><ele>391.57142857142856</ele><time>2026-05-02T07:46:25.42Z</time></trkpt><trkpt lat="44.946605" lon="9.2426505"><ele>391.0</ele><time>2026-05-02T07:46:29.428Z</time></trkpt><trkpt lat="44.9465267" lon="9.2426031"><ele>393.33333333333337</ele><time>2026-05-02T07:46:33.428Z</time></trkpt><trkpt lat="44.9464557" lon="9.2425626"><ele>395.6666666666667</ele><time>2026-05-02T07:46:37.428Z</time></trkpt><trkpt lat="44.9463713" lon="9.2425478"><ele>398.0</ele><time>2026-05-02T07:46:41.425Z</time></trkpt><trkpt lat="44.9462978" lon="9.2425464"><ele>400.33333333333337</ele><time>2026-05-02T07:46:44.424Z</time></trkpt><trkpt lat="44.9462336" lon="9.2425363"><ele>402.6666666666667</ele><time>2026-05-02T07:46:47.425Z</time></trkpt><trkpt lat="44.9461612" lon="9.2425131"><ele>405.0</ele><time>2026-05-02T07:46:51.487Z</time></trkpt><trkpt lat="44.9460811" lon="9.2424831"><ele>404.99999999999994</ele><time>2026-05-02T07:46:55.423Z</time></trkpt><trkpt lat="44.9460107" lon="9.2424628"><ele>405.0</ele><time>2026-05-02T07:46:59.428Z</time></trkpt><trkpt lat="44.9459463" lon="9.2424386"><ele>405.0</ele><time>2026-05-02T07:47:03.422Z</time></trkpt><trkpt lat="44.9458769" lon="9.2424183"><ele>405.0</ele><time>2026-05-02T07:47:08.422Z</time></trkpt><trkpt lat="44.9459135" lon="9.2423347"><ele>405.0</ele><time>2026-05-02T07:49:14.418Z</time></trkpt><trkpt lat="44.9458587" lon="9.242281"><ele>404.99999999999994</ele><time>2026-05-02T07:49:19.432Z</time></trkpt><trkpt lat="44.945791" lon="9.2422814"><ele>405.0</ele><time>2026-05-02T07:49:23.42Z</time></trkpt><trkpt lat="44.945719" lon="9.2422744"><ele>406.71428571428567</ele><time>2026-05-02T07:49:28.433Z</time></trkpt><trkpt lat="44.9456468" lon="9.2422501"><ele>408.42857142857144</ele><time>2026-05-02T07:49:33.423Z</time></trkpt><trkpt lat="44.9455821" lon="9.2421875"><ele>410.1428571428571</ele><time>2026-05-02T07:49:38.421Z</time></trkpt><trkpt lat="44.9455232" lon="9.2421411"><ele>411.85714285714283</ele><time>2026-05-02T07:49:42.425Z</time></trkpt><trkpt lat="44.9454673" lon="9.242094"><ele>413.57142857142856</ele><time>2026-05-02T07:49:46.429Z</time></trkpt><trkpt lat="44.945408" lon="9.2420474"><ele>415.2857142857143</ele><time>2026-05-02T07:49:50.426Z</time></trkpt><trkpt lat="44.9453494" lon="9.2420091"><ele>417.0</ele><time>2026-05-02T07:49:54.421Z</time></trkpt><trkpt lat="44.9452877" lon="9.2419686"><ele>417.0</ele><time>2026-05-02T07:49:58.42Z</time></trkpt><trkpt lat="44.9452286" lon="9.241913"><ele>417.0</ele><time>2026-05-02T07:50:02.43Z</time></trkpt><trkpt lat="44.9451693" lon="9.2418558"><ele>417.0</ele><time>2026-05-02T07:50:06.424Z</time></trkpt><trkpt lat="44.9451092" lon="9.2417982"><ele>417.0</ele><time>2026-05-02T07:50:10.423Z</time></trkpt><trkpt lat="44.9450485" lon="9.241738"><ele>417.0</ele><time>2026-05-02T07:50:14.425Z</time></trkpt><trkpt lat="44.9449904" lon="9.2416707"><ele>417.0</ele><time>2026-05-02T07:50:18.42Z</time></trkpt><trkpt lat="44.9449285" lon="9.241614"><ele>417.0</ele><time>2026-05-02T07:50:22.424Z</time></trkpt><trkpt lat="44.9448609" lon="9.2415585"><ele>419.5</ele><time>2026-05-02T07:50:26.429Z</time></trkpt><trkpt lat="44.9447981" lon="9.2415103"><ele>422.0</ele><time>2026-05-02T07:50:30.418Z</time></trkpt><trkpt lat="44.9447271" lon="9.2414687"><ele>424.5</ele><time>2026-05-02T07:50:34.425Z</time></trkpt><trkpt lat="44.9446583" lon="9.2414347"><ele>427.0</ele><time>2026-05-02T07:50:38.429Z</time></trkpt><trkpt lat="44.9445859" lon="9.2414024"><ele>429.5</ele><time>2026-05-02T07:50:42.428Z</time></trkpt><trkpt lat="44.9445161" lon="9.2413612"><ele>432.0</ele><time>2026-05-02T07:50:46.487Z</time></trkpt><trkpt lat="44.9444429" lon="9.2413246"><ele>432.0</ele><time>2026-05-02T07:50:50.422Z</time></trkpt><trkpt lat="44.9443778" lon="9.2412838"><ele>432.0</ele><time>2026-05-02T07:50:54.422Z</time></trkpt><trkpt lat="44.9443073" lon="9.2412621"><ele>432.0</ele><time>2026-05-02T07:50:58.418Z</time></trkpt><trkpt lat="44.9442449" lon="9.2412266"><ele>432.0</ele><time>2026-05-02T07:51:02.416Z</time></trkpt><trkpt lat="44.9441834" lon="9.2411948"><ele>432.0</ele><time>2026-05-02T07:51:06.424Z</time></trkpt><trkpt lat="44.9441187" lon="9.2411553"><ele>432.0</ele><time>2026-05-02T07:51:10.422Z</time></trkpt><trkpt lat="44.9440469" lon="9.2411147"><ele>432.0</ele><time>2026-05-02T07:51:14.42Z</time></trkpt><trkpt lat="44.9439845" lon="9.2410931"><ele>433.85714285714283</ele><time>2026-05-02T07:51:18.418Z</time></trkpt><trkpt lat="44.9439216" lon="9.2410856"><ele>435.71428571428567</ele><time>2026-05-02T07:51:22.426Z</time></trkpt><trkpt lat="44.9438467" lon="9.241095"><ele>437.57142857142856</ele><time>2026-05-02T07:51:27.422Z</time></trkpt><trkpt lat="44.9437788" lon="9.2411168"><ele>439.42857142857144</ele><time>2026-05-02T07:51:32.416Z</time></trkpt><trkpt lat="44.9437065" lon="9.241145"><ele>441.2857142857143</ele><time>2026-05-02T07:51:37.422Z</time></trkpt><trkpt lat="44.9436406" lon="9.2412084"><ele>443.14285714285717</ele><time>2026-05-02T07:51:42.423Z</time></trkpt><trkpt lat="44.9435738" lon="9.2412399"><ele>445.0</ele><time>2026-05-02T07:51:46.426Z</time></trkpt><trkpt lat="44.9435095" lon="9.2412871"><ele>445.0</ele><time>2026-05-02T07:51:50.428Z</time></trkpt><trkpt lat="44.9434448" lon="9.2413312"><ele>445.0</ele><time>2026-05-02T07:51:54.419Z</time></trkpt><trkpt lat="44.9433884" lon="9.2414031"><ele>445.0</ele><time>2026-05-02T07:51:58.432Z</time></trkpt><trkpt lat="44.9433261" lon="9.2414644"><ele>445.0</ele><time>2026-05-02T07:52:02.424Z</time></trkpt><trkpt lat="44.9432649" lon="9.2415205"><ele>445.0</ele><time>2026-05-02T07:52:06.428Z</time></trkpt><trkpt lat="44.9432153" lon="9.2415931"><ele>445.0</ele><time>2026-05-02T07:52:10.425Z</time></trkpt><trkpt lat="44.9431833" lon="9.241678"><ele>445.0</ele><time>2026-05-02T07:52:14.423Z</time></trkpt><trkpt lat="44.943149" lon="9.2417698"><ele>447.28571428571433</ele><time>2026-05-02T07:52:18.423Z</time></trkpt><trkpt lat="44.9430979" lon="9.2418599"><ele>449.57142857142856</ele><time>2026-05-02T07:52:23.418Z</time></trkpt><trkpt lat="44.9430529" lon="9.2419252"><ele>451.8571428571429</ele><time>2026-05-02T07:52:27.416Z</time></trkpt><trkpt lat="44.9429952" lon="9.242005"><ele>454.14285714285717</ele><time>2026-05-02T07:52:32.421Z</time></trkpt><trkpt lat="44.9429456" lon="9.2420677"><ele>456.42857142857144</ele><time>2026-05-02T07:52:35.421Z</time></trkpt><trkpt lat="44.9428967" lon="9.2421253"><ele>458.7142857142857</ele><time>2026-05-02T07:52:38.421Z</time></trkpt><trkpt lat="44.9428417" lon="9.242194"><ele>461.0</ele><time>2026-05-02T07:52:41.42Z</time></trkpt><trkpt lat="44.9427916" lon="9.2422597"><ele>461.0</ele><time>2026-05-02T07:52:44.421Z</time></trkpt><trkpt lat="44.9427371" lon="9.2423137"><ele>461.00000000000006</ele><time>2026-05-02T07:52:47.421Z</time></trkpt><trkpt lat="44.9426833" lon="9.2423696"><ele>461.0</ele><time>2026-05-02T07:52:50.42Z</time></trkpt><trkpt lat="44.9426129" lon="9.2424233"><ele>461.0</ele><time>2026-05-02T07:52:54.417Z</time></trkpt><trkpt lat="44.9425384" lon="9.2424624"><ele>461.00000000000006</ele><time>2026-05-02T07:52:57.425Z</time></trkpt><trkpt lat="44.9424717" lon="9.2424972"><ele>461.0</ele><time>2026-05-02T07:53:00.42Z</time></trkpt><trkpt lat="44.9424052" lon="9.242522"><ele>461.0</ele><time>2026-05-02T07:53:03.425Z</time></trkpt><trkpt lat="44.9423354" lon="9.242535"><ele>463.14285714285717</ele><time>2026-05-02T07:53:06.419Z</time></trkpt><trkpt lat="44.9422773" lon="9.2425803"><ele>465.28571428571433</ele><time>2026-05-02T07:53:09.42Z</time></trkpt><trkpt lat="44.9422293" lon="9.2426494"><ele>467.42857142857144</ele><time>2026-05-02T07:53:12.433Z</time></trkpt><trkpt lat="44.9421713" lon="9.2427151"><ele>469.57142857142856</ele><time>2026-05-02T07:53:15.425Z</time></trkpt><trkpt lat="44.9420956" lon="9.2427606"><ele>471.7142857142857</ele><time>2026-05-02T07:53:19.42Z</time></trkpt><trkpt lat="44.9420279" lon="9.2428"><ele>473.8571428571429</ele><time>2026-05-02T07:53:22.43Z</time></trkpt><trkpt lat="44.9419704" lon="9.2428454"><ele>476.0</ele><time>2026-05-02T07:53:25.422Z</time></trkpt><trkpt lat="44.941899" lon="9.242905"><ele>476.0</ele><time>2026-05-02T07:53:29.42Z</time></trkpt><trkpt lat="44.9418207" lon="9.2429052"><ele>476.0</ele><time>2026-05-02T07:53:33.418Z</time></trkpt><trkpt lat="44.9417899" lon="9.2428192"><ele>476.0</ele><time>2026-05-02T07:53:37.419Z</time></trkpt><trkpt lat="44.9417666" lon="9.2427357"><ele>476.0</ele><time>2026-05-02T07:53:41.425Z</time></trkpt><trkpt lat="44.9417666" lon="9.242644"><ele>476.0</ele><time>2026-05-02T07:53:45.426Z</time></trkpt><trkpt lat="44.9417635" lon="9.2425501"><ele>476.0</ele><time>2026-05-02T07:53:49.433Z</time></trkpt><trkpt lat="44.9417478" lon="9.2424588"><ele>476.0</ele><time>2026-05-02T07:53:53.428Z</time></trkpt><trkpt lat="44.941742" lon="9.2423431"><ele>475.8571428571429</ele><time>2026-05-02T07:53:57.427Z</time></trkpt><trkpt lat="44.9417217" lon="9.24224"><ele>475.7142857142857</ele><time>2026-05-02T07:54:01.427Z</time></trkpt><trkpt lat="44.9416961" lon="9.2421562"><ele>475.57142857142856</ele><time>2026-05-02T07:54:04.427Z</time></trkpt><trkpt lat="44.9416583" lon="9.2420762"><ele>475.42857142857144</ele><time>2026-05-02T07:54:07.424Z</time></trkpt><trkpt lat="44.9416254" lon="9.2419932"><ele>475.28571428571433</ele><time>2026-05-02T07:54:09.423Z</time></trkpt><trkpt lat="44.9416016" lon="9.2418979"><ele>475.14285714285717</ele><time>2026-05-02T07:54:11.489Z</time></trkpt><trkpt lat="44.9415884" lon="9.2417817"><ele>475.0</ele><time>2026-05-02T07:54:13.435Z</time></trkpt><trkpt lat="44.9415985" lon="9.2416707"><ele>476.4</ele><time>2026-05-02T07:54:15.423Z</time></trkpt><trkpt lat="44.9416178" lon="9.2415506"><ele>477.8</ele><time>2026-05-02T07:54:17.42Z</time></trkpt><trkpt lat="44.9416433" lon="9.2413974"><ele>479.20000000000005</ele><time>2026-05-02T07:54:19.425Z</time></trkpt><trkpt lat="44.9416542" lon="9.2412385"><ele>480.6</ele><time>2026-05-02T07:54:21.435Z</time></trkpt><trkpt lat="44.9416451" lon="9.241091"><ele>482.0</ele><time>2026-05-02T07:54:23.494Z</time></trkpt><trkpt lat="44.9416109" lon="9.2409279"><ele>482.0</ele><time>2026-05-02T07:54:25.433Z</time></trkpt><trkpt lat="44.941576" lon="9.240783"><ele>482.00000000000006</ele><time>2026-05-02T07:54:27.417Z</time></trkpt><trkpt lat="44.9415581" lon="9.2406325"><ele>482.00000000000006</ele><time>2026-05-02T07:54:29.422Z</time></trkpt><trkpt lat="44.9415411" lon="9.2404721"><ele>482.0</ele><time>2026-05-02T07:54:31.42Z</time></trkpt><trkpt lat="44.9415181" lon="9.2403631"><ele>482.0</ele><time>2026-05-02T07:54:33.425Z</time></trkpt><trkpt lat="44.9415038" lon="9.2402614"><ele>481.66666666666663</ele><time>2026-05-02T07:54:35.417Z</time></trkpt><trkpt lat="44.9414916" lon="9.2401501"><ele>481.3333333333333</ele><time>2026-05-02T07:54:37.423Z</time></trkpt><trkpt lat="44.941494" lon="9.2400288"><ele>481.0</ele><time>2026-05-02T07:54:39.423Z</time></trkpt><trkpt lat="44.9414723" lon="9.2399086"><ele>480.66666666666663</ele><time>2026-05-02T07:54:41.42Z</time></trkpt><trkpt lat="44.9414418" lon="9.2398037"><ele>480.3333333333333</ele><time>2026-05-02T07:54:43.423Z</time></trkpt><trkpt lat="44.9414056" lon="9.2397152"><ele>480.0</ele><time>2026-05-02T07:54:45.433Z</time></trkpt><trkpt lat="44.9413694" lon="9.239638"><ele>480.0</ele><time>2026-05-02T07:54:47.422Z</time></trkpt><trkpt lat="44.9413349" lon="9.2395553"><ele>480.0</ele><time>2026-05-02T07:54:49.418Z</time></trkpt><trkpt lat="44.9413089" lon="9.2394286"><ele>480.0</ele><time>2026-05-02T07:54:51.423Z</time></trkpt><trkpt lat="44.9413017" lon="9.2392942"><ele>480.0</ele><time>2026-05-02T07:54:53.422Z</time></trkpt><trkpt lat="44.9412978" lon="9.2391668"><ele>480.0</ele><time>2026-05-02T07:54:55.415Z</time></trkpt><trkpt lat="44.9413141" lon="9.239052"><ele>480.0</ele><time>2026-05-02T07:54:57.419Z</time></trkpt><trkpt lat="44.9413427" lon="9.2389481"><ele>477.0</ele><time>2026-05-02T07:54:59.416Z</time></trkpt><trkpt lat="44.9413618" lon="9.2388385"><ele>474.0</ele><time>2026-05-02T07:55:01.419Z</time></trkpt><trkpt lat="44.9413865" lon="9.2387377"><ele>471.0</ele><time>2026-05-02T07:55:03.417Z</time></trkpt><trkpt lat="44.9414269" lon="9.2386288"><ele>468.0</ele><time>2026-05-02T07:55:05.42Z</time></trkpt><trkpt lat="44.9414836" lon="9.2384997"><ele>465.0</ele><time>2026-05-02T07:55:07.421Z</time></trkpt><trkpt lat="44.9415637" lon="9.2383745"><ele>465.0</ele><time>2026-05-02T07:55:09.42Z</time></trkpt><trkpt lat="44.9416425" lon="9.2382459"><ele>465.0</ele><time>2026-05-02T07:55:11.417Z</time></trkpt><trkpt lat="44.9416854" lon="9.2381779"><ele>465.0</ele><time>2026-05-02T07:55:12.421Z</time></trkpt><trkpt lat="44.9417625" lon="9.238065"><ele>465.0</ele><time>2026-05-02T07:55:14.42Z</time></trkpt><trkpt lat="44.9418378" lon="9.237974"><ele>465.0</ele><time>2026-05-02T07:55:16.432Z</time></trkpt><trkpt lat="44.9419016" lon="9.2379119"><ele>461.3333333333333</ele><time>2026-05-02T07:55:18.429Z</time></trkpt><trkpt lat="44.9419482" lon="9.2378268"><ele>457.66666666666663</ele><time>2026-05-02T07:55:20.438Z</time></trkpt><trkpt lat="44.9419657" lon="9.2377199"><ele>454.0</ele><time>2026-05-02T07:55:22.43Z</time></trkpt><trkpt lat="44.9419766" lon="9.2376311"><ele>450.3333333333333</ele><time>2026-05-02T07:55:24.428Z</time></trkpt><trkpt lat="44.9419726" lon="9.2375363"><ele>446.66666666666663</ele><time>2026-05-02T07:55:26.419Z</time></trkpt><trkpt lat="44.9419183" lon="9.2374447"><ele>443.0</ele><time>2026-05-02T07:55:29.423Z</time></trkpt><trkpt lat="44.9418345" lon="9.2374375"><ele>442.99999999999994</ele><time>2026-05-02T07:55:32.426Z</time></trkpt><trkpt lat="44.9417687" lon="9.2374688"><ele>443.0</ele><time>2026-05-02T07:55:34.427Z</time></trkpt><trkpt lat="44.9417109" lon="9.2375314"><ele>443.0</ele><time>2026-05-02T07:55:36.424Z</time></trkpt><trkpt lat="44.941645" lon="9.2375776"><ele>443.0</ele><time>2026-05-02T07:55:38.427Z</time></trkpt><trkpt lat="44.9415737" lon="9.2376451"><ele>442.99999999999994</ele><time>2026-05-02T07:55:40.492Z</time></trkpt><trkpt lat="44.9415053" lon="9.2377324"><ele>443.0</ele><time>2026-05-02T07:55:42.417Z</time></trkpt><trkpt lat="44.9414494" lon="9.2378117"><ele>444.0</ele><time>2026-05-02T07:55:44.426Z</time></trkpt><trkpt lat="44.9413962" lon="9.2378744"><ele>445.0</ele><time>2026-05-02T07:55:46.416Z</time></trkpt><trkpt lat="44.9413398" lon="9.2379217"><ele>446.0</ele><time>2026-05-02T07:55:48.431Z</time></trkpt><trkpt lat="44.9412845" lon="9.237972"><ele>447.0</ele><time>2026-05-02T07:55:50.435Z</time></trkpt><trkpt lat="44.9412068" lon="9.2380275"><ele>448.0</ele><time>2026-05-02T07:55:53.429Z</time></trkpt><trkpt lat="44.9411411" lon="9.2380676"><ele>449.00000000000006</ele><time>2026-05-02T07:55:57.422Z</time></trkpt><trkpt lat="44.9410683" lon="9.238122"><ele>450.00000000000006</ele><time>2026-05-02T07:56:01.427Z</time></trkpt><trkpt lat="44.9409974" lon="9.2381143"><ele>450.0</ele><time>2026-05-02T07:56:05.42Z</time></trkpt><trkpt lat="44.940937" lon="9.2380226"><ele>450.0</ele><time>2026-05-02T07:56:08.42Z</time></trkpt><trkpt lat="44.940886" lon="9.2379329"><ele>450.0</ele><time>2026-05-02T07:56:10.415Z</time></trkpt><trkpt lat="44.9408157" lon="9.2378627"><ele>450.0</ele><time>2026-05-02T07:56:13.427Z</time></trkpt><trkpt lat="44.9407511" lon="9.2378905"><ele>450.0</ele><time>2026-05-02T07:56:16.425Z</time></trkpt><trkpt lat="44.940695" lon="9.237977"><ele>450.0</ele><time>2026-05-02T07:56:19.418Z</time></trkpt><trkpt lat="44.9406545" lon="9.2380892"><ele>448.5714285714286</ele><time>2026-05-02T07:56:22.417Z</time></trkpt><trkpt lat="44.9405787" lon="9.2380779"><ele>447.14285714285717</ele><time>2026-05-02T07:56:26.42Z</time></trkpt><trkpt lat="44.9405247" lon="9.23803"><ele>445.7142857142857</ele><time>2026-05-02T07:56:29.429Z</time></trkpt><trkpt lat="44.9404744" lon="9.2379758"><ele>444.28571428571433</ele><time>2026-05-02T07:56:32.426Z</time></trkpt><trkpt lat="44.9404238" lon="9.2378982"><ele>442.8571428571429</ele><time>2026-05-02T07:56:36.425Z</time></trkpt><trkpt lat="44.940376" lon="9.2378277"><ele>441.4285714285714</ele><time>2026-05-02T07:56:40.424Z</time></trkpt><trkpt lat="44.9403309" lon="9.2377571"><ele>440.0</ele><time>2026-05-02T07:56:43.421Z</time></trkpt><trkpt lat="44.9402815" lon="9.2376869"><ele>439.99999999999994</ele><time>2026-05-02T07:56:46.419Z</time></trkpt><trkpt lat="44.9402357" lon="9.2376039"><ele>440.0</ele><time>2026-05-02T07:56:50.431Z</time></trkpt><trkpt lat="44.940188" lon="9.2375416"><ele>440.0</ele><time>2026-05-02T07:56:53.422Z</time></trkpt><trkpt lat="44.9401263" lon="9.2374652"><ele>440.0</ele><time>2026-05-02T07:56:56.42Z</time></trkpt><trkpt lat="44.9400436" lon="9.2374061"><ele>439.99999999999994</ele><time>2026-05-02T07:56:59.425Z</time></trkpt><trkpt lat="44.939955" lon="9.2374031"><ele>440.0</ele><time>2026-05-02T07:57:02.423Z</time></trkpt><trkpt lat="44.9398867" lon="9.2374585"><ele>437.66666666666663</ele><time>2026-05-02T07:57:05.437Z</time></trkpt><trkpt lat="44.9398345" lon="9.2375178"><ele>435.3333333333333</ele><time>2026-05-02T07:57:07.423Z</time></trkpt><trkpt lat="44.939778" lon="9.2375875"><ele>433.0</ele><time>2026-05-02T07:57:09.418Z</time></trkpt><trkpt lat="44.9397078" lon="9.2376847"><ele>430.66666666666663</ele><time>2026-05-02T07:57:11.421Z</time></trkpt><trkpt lat="44.9396324" lon="9.2377868"><ele>428.3333333333333</ele><time>2026-05-02T07:57:13.424Z</time></trkpt><trkpt lat="44.9395574" lon="9.2378854"><ele>426.0</ele><time>2026-05-02T07:57:15.483Z</time></trkpt><trkpt lat="44.9394931" lon="9.2379671"><ele>426.0</ele><time>2026-05-02T07:57:17.421Z</time></trkpt><trkpt lat="44.9394411" lon="9.2380346"><ele>426.0</ele><time>2026-05-02T07:57:19.42Z</time></trkpt><trkpt lat="44.9393743" lon="9.2381032"><ele>426.0</ele><time>2026-05-02T07:57:21.424Z</time></trkpt><trkpt lat="44.9393042" lon="9.2381785"><ele>426.0</ele><time>2026-05-02T07:57:23.421Z</time></trkpt><trkpt lat="44.9392162" lon="9.2382575"><ele>426.0</ele><time>2026-05-02T07:57:25.423Z</time></trkpt><trkpt lat="44.9391427" lon="9.2383318"><ele>426.0</ele><time>2026-05-02T07:57:27.421Z</time></trkpt><trkpt lat="44.9390852" lon="9.2384096"><ele>423.6666666666667</ele><time>2026-05-02T07:57:29.421Z</time></trkpt><trkpt lat="44.9390329" lon="9.238476"><ele>421.33333333333337</ele><time>2026-05-02T07:57:31.417Z</time></trkpt><trkpt lat="44.9389837" lon="9.2385473"><ele>419.0</ele><time>2026-05-02T07:57:33.416Z</time></trkpt><trkpt lat="44.93893" lon="9.2386219"><ele>416.6666666666667</ele><time>2026-05-02T07:57:35.428Z</time></trkpt><trkpt lat="44.9388577" lon="9.2387025"><ele>414.33333333333337</ele><time>2026-05-02T07:57:37.416Z</time></trkpt><trkpt lat="44.9387842" lon="9.2387861"><ele>412.0</ele><time>2026-05-02T07:57:39.419Z</time></trkpt><trkpt lat="44.938709" lon="9.2388685"><ele>412.00000000000006</ele><time>2026-05-02T07:57:41.412Z</time></trkpt><trkpt lat="44.9386336" lon="9.2389472"><ele>412.0</ele><time>2026-05-02T07:57:43.416Z</time></trkpt><trkpt lat="44.9385601" lon="9.2390162"><ele>412.0</ele><time>2026-05-02T07:57:45.431Z</time></trkpt><trkpt lat="44.9384866" lon="9.2390715"><ele>412.0</ele><time>2026-05-02T07:57:47.426Z</time></trkpt><trkpt lat="44.9384125" lon="9.2391155"><ele>412.00000000000006</ele><time>2026-05-02T07:57:49.42Z</time></trkpt><trkpt lat="44.9383334" lon="9.2391539"><ele>412.0</ele><time>2026-05-02T07:57:51.423Z</time></trkpt><trkpt lat="44.9382375" lon="9.2391969"><ele>410.83333333333337</ele><time>2026-05-02T07:57:53.435Z</time></trkpt><trkpt lat="44.9381489" lon="9.239241"><ele>409.6666666666667</ele><time>2026-05-02T07:57:55.492Z</time></trkpt><trkpt lat="44.9380735" lon="9.2392829"><ele>408.5</ele><time>2026-05-02T07:57:57.428Z</time></trkpt><trkpt lat="44.9380087" lon="9.2393249"><ele>407.33333333333337</ele><time>2026-05-02T07:57:59.424Z</time></trkpt><trkpt lat="44.9379397" lon="9.2393764"><ele>406.1666666666667</ele><time>2026-05-02T07:58:02.427Z</time></trkpt><trkpt lat="44.9378757" lon="9.2394428"><ele>405.0</ele><time>2026-05-02T07:58:06.418Z</time></trkpt><trkpt lat="44.9378218" lon="9.2394937"><ele>404.99999999999994</ele><time>2026-05-02T07:58:09.415Z</time></trkpt><trkpt lat="44.9377665" lon="9.2395466"><ele>405.0</ele><time>2026-05-02T07:58:12.425Z</time></trkpt><trkpt lat="44.9377077" lon="9.2396047"><ele>405.0</ele><time>2026-05-02T07:58:15.429Z</time></trkpt><trkpt lat="44.9376545" lon="9.2396727"><ele>405.0</ele><time>2026-05-02T07:58:18.417Z</time></trkpt><trkpt lat="44.9376162" lon="9.2397613"><ele>405.0</ele><time>2026-05-02T07:58:22.422Z</time></trkpt><trkpt lat="44.9375905" lon="9.2398473"><ele>404.99999999999994</ele><time>2026-05-02T07:58:25.421Z</time></trkpt><trkpt lat="44.9375663" lon="9.2399434"><ele>405.0</ele><time>2026-05-02T07:58:28.428Z</time></trkpt><trkpt lat="44.9375351" lon="9.2400354"><ele>404.3333333333333</ele><time>2026-05-02T07:58:31.424Z</time></trkpt><trkpt lat="44.9375046" lon="9.2401224"><ele>403.66666666666663</ele><time>2026-05-02T07:58:34.425Z</time></trkpt><trkpt lat="44.9374635" lon="9.2402298"><ele>403.0</ele><time>2026-05-02T07:58:37.426Z</time></trkpt><trkpt lat="44.9374242" lon="9.2403225"><ele>402.3333333333333</ele><time>2026-05-02T07:58:39.42Z</time></trkpt><trkpt lat="44.9373814" lon="9.2404113"><ele>401.66666666666663</ele><time>2026-05-02T07:58:41.413Z</time></trkpt><trkpt lat="44.937326" lon="9.2404833"><ele>401.0</ele><time>2026-05-02T07:58:44.421Z</time></trkpt><trkpt lat="44.9372603" lon="9.2405152"><ele>400.99999999999994</ele><time>2026-05-02T07:58:47.423Z</time></trkpt><trkpt lat="44.9372073" lon="9.2405791"><ele>401.0</ele><time>2026-05-02T07:58:51.418Z</time></trkpt><trkpt lat="44.9371926" lon="9.2406898"><ele>401.0</ele><time>2026-05-02T07:58:56.427Z</time></trkpt><trkpt lat="44.9372089" lon="9.2407834"><ele>401.0</ele><time>2026-05-02T07:59:00.42Z</time></trkpt><trkpt lat="44.9372492" lon="9.2408876"><ele>400.99999999999994</ele><time>2026-05-02T07:59:03.43Z</time></trkpt><trkpt lat="44.9372998" lon="9.2410017"><ele>401.0</ele><time>2026-05-02T07:59:05.411Z</time></trkpt><trkpt lat="44.9373538" lon="9.2411087"><ele>400.8571428571429</ele><time>2026-05-02T07:59:07.42Z</time></trkpt><trkpt lat="44.937391" lon="9.2411883"><ele>400.7142857142857</ele><time>2026-05-02T07:59:09.419Z</time></trkpt><trkpt lat="44.9374334" lon="9.2412575"><ele>400.57142857142856</ele><time>2026-05-02T07:59:11.422Z</time></trkpt><trkpt lat="44.9374798" lon="9.2413191"><ele>400.42857142857144</ele><time>2026-05-02T07:59:13.425Z</time></trkpt><trkpt lat="44.9375285" lon="9.2414032"><ele>400.2857142857143</ele><time>2026-05-02T07:59:16.425Z</time></trkpt><trkpt lat="44.937535" lon="9.2414922"><ele>400.14285714285717</ele><time>2026-05-02T07:59:18.42Z</time></trkpt><trkpt lat="44.9374772" lon="9.241617"><ele>400.0</ele><time>2026-05-02T07:59:20.415Z</time></trkpt><trkpt lat="44.9374179" lon="9.2416666"><ele>400.00000000000006</ele><time>2026-05-02T07:59:23.422Z</time></trkpt><trkpt lat="44.9374463" lon="9.2415847"><ele>400.0</ele><time>2026-05-02T07:59:59.425Z</time></trkpt><trkpt lat="44.937486" lon="9.2415136"><ele>400.0</ele><time>2026-05-02T08:00:03.485Z</time></trkpt><trkpt lat="44.9375244" lon="9.2414151"><ele>400.0</ele><time>2026-05-02T08:00:07.421Z</time></trkpt><trkpt lat="44.9375932" lon="9.2414512"><ele>400.0</ele><time>2026-05-02T08:00:11.414Z</time></trkpt><trkpt lat="44.937633" lon="9.2415423"><ele>400.00000000000006</ele><time>2026-05-02T08:00:15.482Z</time></trkpt><trkpt lat="44.9376729" lon="9.241645"><ele>400.0</ele><time>2026-05-02T08:00:19.416Z</time></trkpt><trkpt lat="44.9376981" lon="9.2417274"><ele>400.00000000000006</ele><time>2026-05-02T08:00:22.419Z</time></trkpt><trkpt lat="44.9376577" lon="9.2416465"><ele>400.0</ele><time>2026-05-02T08:01:08.476Z</time></trkpt><trkpt lat="44.9376157" lon="9.2415433"><ele>400.0</ele><time>2026-05-02T08:01:12.42Z</time></trkpt><trkpt lat="44.93757" lon="9.2414569"><ele>400.0</ele><time>2026-05-02T08:01:16.419Z</time></trkpt><trkpt lat="44.9375193" lon="9.2413911"><ele>400.0</ele><time>2026-05-02T08:01:20.479Z</time></trkpt><trkpt lat="44.9374683" lon="9.2413268"><ele>400.00000000000006</ele><time>2026-05-02T08:01:25.417Z</time></trkpt><trkpt lat="44.9374172" lon="9.2412725"><ele>400.0</ele><time>2026-05-02T08:01:29.418Z</time></trkpt><trkpt lat="44.9373789" lon="9.2411895"><ele>400.00000000000006</ele><time>2026-05-02T08:01:34.419Z</time></trkpt><trkpt lat="44.9374372" lon="9.2412718"><ele>400.0</ele><time>2026-05-02T08:01:51.418Z</time></trkpt><trkpt lat="44.9374946" lon="9.2413513"><ele>400.0</ele><time>2026-05-02T08:01:54.423Z</time></trkpt><trkpt lat="44.9375066" lon="9.2414722"><ele>400.0</ele><time>2026-05-02T08:01:58.418Z</time></trkpt><trkpt lat="44.9374737" lon="9.2415794"><ele>400.00000000000006</ele><time>2026-05-02T08:02:00.411Z</time></trkpt><trkpt lat="44.9374328" lon="9.2416522"><ele>400.0</ele><time>2026-05-02T08:02:02.42Z</time></trkpt><trkpt lat="44.9373561" lon="9.2416789"><ele>399.14285714285717</ele><time>2026-05-02T08:02:06.438Z</time></trkpt><trkpt lat="44.9372867" lon="9.2416874"><ele>398.2857142857143</ele><time>2026-05-02T08:02:09.421Z</time></trkpt><trkpt lat="44.9372085" lon="9.2416863"><ele>397.42857142857144</ele><time>2026-05-02T08:02:13.42Z</time></trkpt><trkpt lat="44.9371423" lon="9.2416911"><ele>396.57142857142856</ele><time>2026-05-02T08:02:16.417Z</time></trkpt><trkpt lat="44.9370665" lon="9.2416983"><ele>395.7142857142857</ele><time>2026-05-02T08:02:19.413Z</time></trkpt><trkpt lat="44.9369991" lon="9.2416878"><ele>394.8571428571429</ele><time>2026-05-02T08:02:22.417Z</time></trkpt><trkpt lat="44.9369247" lon="9.2417016"><ele>394.0</ele><time>2026-05-02T08:02:25.417Z</time></trkpt><trkpt lat="44.9368551" lon="9.2417126"><ele>394.0</ele><time>2026-05-02T08:02:28.419Z</time></trkpt><trkpt lat="44.936769" lon="9.2417434"><ele>394.0</ele><time>2026-05-02T08:02:32.481Z</time></trkpt><trkpt lat="44.9366975" lon="9.2417665"><ele>394.0</ele><time>2026-05-02T08:02:35.418Z</time></trkpt><trkpt lat="44.9366281" lon="9.2417719"><ele>394.0</ele><time>2026-05-02T08:02:38.486Z</time></trkpt><trkpt lat="44.9365627" lon="9.2417779"><ele>394.0</ele><time>2026-05-02T08:02:41.415Z</time></trkpt><trkpt lat="44.9364949" lon="9.2417752"><ele>394.0</ele><time>2026-05-02T08:02:45.414Z</time></trkpt><trkpt lat="44.9364294" lon="9.2417159"><ele>394.0</ele><time>2026-05-02T08:02:48.415Z</time></trkpt><trkpt lat="44.9363752" lon="9.2416387"><ele>390.6666666666667</ele><time>2026-05-02T08:02:51.426Z</time></trkpt><trkpt lat="44.9363146" lon="9.2415838"><ele>387.33333333333337</ele><time>2026-05-02T08:02:55.417Z</time></trkpt><trkpt lat="44.9362502" lon="9.241658"><ele>384.0</ele><time>2026-05-02T08:02:59.414Z</time></trkpt><trkpt lat="44.9362114" lon="9.2417584"><ele>380.6666666666667</ele><time>2026-05-02T08:03:02.419Z</time></trkpt><trkpt lat="44.9361718" lon="9.241861"><ele>377.33333333333337</ele><time>2026-05-02T08:03:05.483Z</time></trkpt><trkpt lat="44.936138" lon="9.2419382"><ele>374.0</ele><time>2026-05-02T08:03:07.428Z</time></trkpt><trkpt lat="44.9361005" lon="9.2420317"><ele>374.0</ele><time>2026-05-02T08:03:10.422Z</time></trkpt><trkpt lat="44.9360506" lon="9.2421371"><ele>374.0</ele><time>2026-05-02T08:03:14.419Z</time></trkpt><trkpt lat="44.9360045" lon="9.2422217"><ele>374.0</ele><time>2026-05-02T08:03:17.414Z</time></trkpt><trkpt lat="44.935976" lon="9.2423236"><ele>374.0</ele><time>2026-05-02T08:03:21.418Z</time></trkpt><trkpt lat="44.9359735" lon="9.2424238"><ele>374.0</ele><time>2026-05-02T08:03:25.414Z</time></trkpt><trkpt lat="44.935943" lon="9.2425268"><ele>374.0</ele><time>2026-05-02T08:03:30.465Z</time></trkpt><trkpt lat="44.9359149" lon="9.2426068"><ele>371.1428571428571</ele><time>2026-05-02T08:03:33.418Z</time></trkpt><trkpt lat="44.9358636" lon="9.2426795"><ele>368.28571428571433</ele><time>2026-05-02T08:03:37.418Z</time></trkpt><trkpt lat="44.9357922" lon="9.2427052"><ele>365.42857142857144</ele><time>2026-05-02T08:03:41.417Z</time></trkpt><trkpt lat="44.9357163" lon="9.2427338"><ele>362.57142857142856</ele><time>2026-05-02T08:03:45.424Z</time></trkpt><trkpt lat="44.9357087" lon="9.2428231"><ele>359.71428571428567</ele><time>2026-05-02T08:03:52.412Z</time></trkpt><trkpt lat="44.935753" lon="9.2428989"><ele>356.8571428571429</ele><time>2026-05-02T08:03:56.493Z</time></trkpt><trkpt lat="44.9357997" lon="9.242962"><ele>354.0</ele><time>2026-05-02T08:04:00.415Z</time></trkpt><trkpt lat="44.935829" lon="9.2430528"><ele>354.0</ele><time>2026-05-02T08:04:04.423Z</time></trkpt><trkpt lat="44.9358568" lon="9.2431385"><ele>354.0</ele><time>2026-05-02T08:04:08.414Z</time></trkpt><trkpt lat="44.9358882" lon="9.2432174"><ele>354.0</ele><time>2026-05-02T08:04:12.418Z</time></trkpt><trkpt lat="44.9358515" lon="9.243085"><ele>354.0</ele><time>2026-05-02T08:04:53.409Z</time></trkpt><trkpt lat="44.9358173" lon="9.2429783"><ele>354.0</ele><time>2026-05-02T08:04:57.419Z</time></trkpt><trkpt lat="44.9357862" lon="9.2429007"><ele>354.0</ele><time>2026-05-02T08:05:01.421Z</time></trkpt><trkpt lat="44.9357507" lon="9.2428204"><ele>354.0</ele><time>2026-05-02T08:05:06.416Z</time></trkpt><trkpt lat="44.9357057" lon="9.2427514"><ele>354.0</ele><time>2026-05-02T08:05:10.426Z</time></trkpt><trkpt lat="44.9357548" lon="9.2426667"><ele>354.0</ele><time>2026-05-02T08:05:38.418Z</time></trkpt><trkpt lat="44.9358256" lon="9.2426613"><ele>354.0</ele><time>2026-05-02T08:05:42.427Z</time></trkpt><trkpt lat="44.9358926" lon="9.2426078"><ele>354.0</ele><time>2026-05-02T08:05:47.42Z</time></trkpt><trkpt lat="44.9359279" lon="9.2425272"><ele>354.0</ele><time>2026-05-02T08:05:50.425Z</time></trkpt><trkpt lat="44.935956" lon="9.2424259"><ele>354.0</ele><time>2026-05-02T08:05:55.464Z</time></trkpt><trkpt lat="44.9359732" lon="9.2423205"><ele>354.0</ele><time>2026-05-02T08:06:00.43Z</time></trkpt><trkpt lat="44.9360034" lon="9.2422267"><ele>356.8571428571429</ele><time>2026-05-02T08:06:04.411Z</time></trkpt><trkpt lat="44.9360398" lon="9.2421459"><ele>359.71428571428567</ele><time>2026-05-02T08:06:08.432Z</time></trkpt><trkpt lat="44.9360786" lon="9.2420723"><ele>362.57142857142856</ele><time>2026-05-02T08:06:12.428Z</time></trkpt><trkpt lat="44.9361147" lon="9.2419693"><ele>365.42857142857144</ele><time>2026-05-02T08:06:17.417Z</time></trkpt><trkpt lat="44.9361538" lon="9.241896"><ele>368.28571428571433</ele><time>2026-05-02T08:06:22.416Z</time></trkpt><trkpt lat="44.9361953" lon="9.2418157"><ele>371.1428571428571</ele><time>2026-05-02T08:06:27.42Z</time></trkpt><trkpt lat="44.9362285" lon="9.2417318"><ele>374.0</ele><time>2026-05-02T08:06:31.419Z</time></trkpt><trkpt lat="44.9362639" lon="9.241632"><ele>374.0</ele><time>2026-05-02T08:06:36.412Z</time></trkpt><trkpt lat="44.9363049" lon="9.2415565"><ele>374.0</ele><time>2026-05-02T08:06:42.418Z</time></trkpt><trkpt lat="44.936247" lon="9.2415035"><ele>374.0</ele><time>2026-05-02T08:06:53.419Z</time></trkpt><trkpt lat="44.936176" lon="9.241476"><ele>374.0</ele><time>2026-05-02T08:06:57.463Z</time></trkpt><trkpt lat="44.9361083" lon="9.2414653"><ele>374.0</ele><time>2026-05-02T08:07:01.416Z</time></trkpt><trkpt lat="44.9360351" lon="9.2414761"><ele>374.0</ele><time>2026-05-02T08:07:05.412Z</time></trkpt><trkpt lat="44.9359588" lon="9.2414554"><ele>374.0</ele><time>2026-05-02T08:07:10.48Z</time></trkpt><trkpt lat="44.9358959" lon="9.2414475"><ele>371.1666666666667</ele><time>2026-05-02T08:07:13.42Z</time></trkpt><trkpt lat="44.9358123" lon="9.2414414"><ele>368.33333333333337</ele><time>2026-05-02T08:07:17.417Z</time></trkpt><trkpt lat="44.9357408" lon="9.241447"><ele>365.5</ele><time>2026-05-02T08:07:21.413Z</time></trkpt><trkpt lat="44.9356712" lon="9.2414181"><ele>362.6666666666667</ele><time>2026-05-02T08:07:24.409Z</time></trkpt><trkpt lat="44.935596" lon="9.2414036"><ele>359.8333333333333</ele><time>2026-05-02T08:07:28.416Z</time></trkpt><trkpt lat="44.9355241" lon="9.2413959"><ele>357.0</ele><time>2026-05-02T08:07:32.413Z</time></trkpt><trkpt lat="44.935443" lon="9.2414057"><ele>357.0</ele><time>2026-05-02T08:07:36.421Z</time></trkpt><trkpt lat="44.9353707" lon="9.2414105"><ele>357.0</ele><time>2026-05-02T08:07:39.416Z</time></trkpt><trkpt lat="44.9353019" lon="9.2414182"><ele>357.0</ele><time>2026-05-02T08:07:42.418Z</time></trkpt><trkpt lat="44.9352163" lon="9.2414083"><ele>357.0</ele><time>2026-05-02T08:07:45.419Z</time></trkpt><trkpt lat="44.9351368" lon="9.2413556"><ele>357.0</ele><time>2026-05-02T08:07:47.416Z</time></trkpt><trkpt lat="44.9350629" lon="9.2413185"><ele>357.0</ele><time>2026-05-02T08:07:49.419Z</time></trkpt><trkpt lat="44.9349965" lon="9.2412987"><ele>354.14285714285717</ele><time>2026-05-02T08:07:51.418Z</time></trkpt><trkpt lat="44.9349325" lon="9.2412679"><ele>351.2857142857143</ele><time>2026-05-02T08:07:53.418Z</time></trkpt><trkpt lat="44.9348611" lon="9.2412168"><ele>348.42857142857144</ele><time>2026-05-02T08:07:56.421Z</time></trkpt><trkpt lat="44.934804" lon="9.2411511"><ele>345.57142857142856</ele><time>2026-05-02T08:07:59.418Z</time></trkpt><trkpt lat="44.9347471" lon="9.2410721"><ele>342.7142857142857</ele><time>2026-05-02T08:08:03.421Z</time></trkpt><trkpt lat="44.9346968" lon="9.2410092"><ele>339.8571428571429</ele><time>2026-05-02T08:08:06.431Z</time></trkpt><trkpt lat="44.9346353" lon="9.240971"><ele>337.0</ele><time>2026-05-02T08:08:09.423Z</time></trkpt><trkpt lat="44.9345685" lon="9.2409328"><ele>337.0</ele><time>2026-05-02T08:08:12.418Z</time></trkpt><trkpt lat="44.9344956" lon="9.2408909"><ele>337.0</ele><time>2026-05-02T08:08:16.412Z</time></trkpt><trkpt lat="44.9344285" lon="9.240872"><ele>337.0</ele><time>2026-05-02T08:08:31.413Z</time></trkpt><trkpt lat="44.9343535" lon="9.2408494"><ele>337.0</ele><time>2026-05-02T08:08:35.414Z</time></trkpt><trkpt lat="44.9342738" lon="9.2408158"><ele>337.0</ele><time>2026-05-02T08:08:38.426Z</time></trkpt><trkpt lat="44.9341992" lon="9.240783"><ele>337.0</ele><time>2026-05-02T08:08:41.466Z</time></trkpt><trkpt lat="44.9341192" lon="9.2407516"><ele>334.8571428571429</ele><time>2026-05-02T08:08:44.417Z</time></trkpt><trkpt lat="44.9340455" lon="9.2407354"><ele>332.7142857142857</ele><time>2026-05-02T08:08:47.421Z</time></trkpt><trkpt lat="44.9339742" lon="9.2407172"><ele>330.57142857142856</ele><time>2026-05-02T08:08:50.415Z</time></trkpt><trkpt lat="44.9339054" lon="9.2407058"><ele>328.42857142857144</ele><time>2026-05-02T08:08:53.422Z</time></trkpt><trkpt lat="44.933836" lon="9.2407063"><ele>326.2857142857143</ele><time>2026-05-02T08:08:57.417Z</time></trkpt><trkpt lat="44.9337657" lon="9.2406899"><ele>324.14285714285717</ele><time>2026-05-02T08:09:01.421Z</time></trkpt><trkpt lat="44.933696" lon="9.2406531"><ele>322.0</ele><time>2026-05-02T08:09:05.42Z</time></trkpt><trkpt lat="44.9336121" lon="9.2406328"><ele>321.14285714285717</ele><time>2026-05-02T08:09:08.426Z</time></trkpt><trkpt lat="44.9335502" lon="9.2405934"><ele>320.2857142857143</ele><time>2026-05-02T08:09:11.424Z</time></trkpt><trkpt lat="44.9334838" lon="9.2405352"><ele>319.42857142857144</ele><time>2026-05-02T08:09:14.416Z</time></trkpt><trkpt lat="44.9334219" lon="9.2404745"><ele>318.57142857142856</ele><time>2026-05-02T08:09:17.421Z</time></trkpt><trkpt lat="44.9333609" lon="9.24041"><ele>317.7142857142857</ele><time>2026-05-02T08:09:20.421Z</time></trkpt><trkpt lat="44.9333021" lon="9.2403322"><ele>316.8571428571429</ele><time>2026-05-02T08:09:23.42Z</time></trkpt><trkpt lat="44.9332812" lon="9.2402389"><ele>316.0</ele><time>2026-05-02T08:09:26.412Z</time></trkpt><trkpt lat="44.9332475" lon="9.2401597"><ele>315.0</ele><time>2026-05-02T08:09:29.422Z</time></trkpt><trkpt lat="44.9332231" lon="9.2400521"><ele>314.0</ele><time>2026-05-02T08:09:33.421Z</time></trkpt><trkpt lat="44.9332325" lon="9.2399551"><ele>313.0</ele><time>2026-05-02T08:09:36.418Z</time></trkpt><trkpt lat="44.9332725" lon="9.2398447"><ele>312.0</ele><time>2026-05-02T08:09:40.423Z</time></trkpt><trkpt lat="44.9333198" lon="9.2397693"><ele>311.0</ele><time>2026-05-02T08:09:44.419Z</time></trkpt><trkpt lat="44.933371" lon="9.2396993"><ele>310.0</ele><time>2026-05-02T08:09:48.42Z</time></trkpt><trkpt lat="44.9334097" lon="9.2396095"><ele>310.0</ele><time>2026-05-02T08:09:52.424Z</time></trkpt><trkpt lat="44.9334471" lon="9.2395377"><ele>310.0</ele><time>2026-05-02T08:10:03.416Z</time></trkpt><trkpt lat="44.9334998" lon="9.2394745"><ele>310.0</ele><time>2026-05-02T08:10:08.419Z</time></trkpt><trkpt lat="44.9335563" lon="9.2394315"><ele>310.0</ele><time>2026-05-02T08:10:34.423Z</time></trkpt><trkpt lat="44.933515" lon="9.2395169"><ele>310.0</ele><time>2026-05-02T08:10:47.413Z</time></trkpt><trkpt lat="44.9334633" lon="9.2395855"><ele>310.0</ele><time>2026-05-02T08:10:52.424Z</time></trkpt><trkpt lat="44.9334193" lon="9.2396653"><ele>310.0</ele><time>2026-05-02T08:10:58.415Z</time></trkpt><trkpt lat="44.9333791" lon="9.2397579"><ele>310.8571428571429</ele><time>2026-05-02T08:11:03.471Z</time></trkpt><trkpt lat="44.9333366" lon="9.2398266"><ele>311.7142857142857</ele><time>2026-05-02T08:11:07.414Z</time></trkpt><trkpt lat="44.9332857" lon="9.2399089"><ele>312.57142857142856</ele><time>2026-05-02T08:11:13.42Z</time></trkpt><trkpt lat="44.9332651" lon="9.240018"><ele>313.42857142857144</ele><time>2026-05-02T08:11:18.418Z</time></trkpt><trkpt lat="44.9332676" lon="9.2401176"><ele>314.2857142857143</ele><time>2026-05-02T08:11:23.422Z</time></trkpt><trkpt lat="44.9333026" lon="9.2402032"><ele>315.14285714285717</ele><time>2026-05-02T08:11:28.426Z</time></trkpt><trkpt lat="44.9333457" lon="9.2402744"><ele>316.0</ele><time>2026-05-02T08:11:33.421Z</time></trkpt><trkpt lat="44.9334038" lon="9.2403463"><ele>316.00000000000006</ele><time>2026-05-02T08:11:38.419Z</time></trkpt><trkpt lat="44.9334593" lon="9.2404096"><ele>316.0</ele><time>2026-05-02T08:11:43.417Z</time></trkpt><trkpt lat="44.9335123" lon="9.2404838"><ele>316.0</ele><time>2026-05-02T08:11:48.421Z</time></trkpt><trkpt lat="44.9335666" lon="9.2405427"><ele>316.0</ele><time>2026-05-02T08:11:52.415Z</time></trkpt><trkpt lat="44.933626" lon="9.2406145"><ele>316.0</ele><time>2026-05-02T08:11:57.419Z</time></trkpt><trkpt lat="44.9336917" lon="9.2406609"><ele>316.00000000000006</ele><time>2026-05-02T08:12:02.416Z</time></trkpt><trkpt lat="44.9337647" lon="9.2406532"><ele>316.0</ele><time>2026-05-02T08:12:07.412Z</time></trkpt><trkpt lat="44.9338332" lon="9.2406722"><ele>316.8571428571429</ele><time>2026-05-02T08:12:12.423Z</time></trkpt><trkpt lat="44.9339081" lon="9.2406807"><ele>317.7142857142857</ele><time>2026-05-02T08:12:17.421Z</time></trkpt><trkpt lat="44.9339734" lon="9.2406928"><ele>318.57142857142856</ele><time>2026-05-02T08:12:21.424Z</time></trkpt><trkpt lat="44.9340392" lon="9.2407017"><ele>319.42857142857144</ele><time>2026-05-02T08:12:25.417Z</time></trkpt><trkpt lat="44.9341018" lon="9.2407152"><ele>320.2857142857143</ele><time>2026-05-02T08:12:29.42Z</time></trkpt><trkpt lat="44.934175" lon="9.2407299"><ele>321.14285714285717</ele><time>2026-05-02T08:12:33.41Z</time></trkpt><trkpt lat="44.9342384" lon="9.2407633"><ele>322.0</ele><time>2026-05-02T08:12:37.415Z</time></trkpt><trkpt lat="44.9343088" lon="9.2407961"><ele>324.14285714285717</ele><time>2026-05-02T08:12:42.421Z</time></trkpt><trkpt lat="44.9343772" lon="9.2408393"><ele>326.2857142857143</ele><time>2026-05-02T08:12:47.414Z</time></trkpt><trkpt lat="44.9344458" lon="9.2408587"><ele>328.42857142857144</ele><time>2026-05-02T08:12:51.429Z</time></trkpt><trkpt lat="44.9345196" lon="9.2409021"><ele>330.57142857142856</ele><time>2026-05-02T08:12:56.421Z</time></trkpt><trkpt lat="44.9345787" lon="9.2409335"><ele>332.7142857142857</ele><time>2026-05-02T08:13:00.42Z</time></trkpt><trkpt lat="44.9346383" lon="9.2409664"><ele>334.8571428571429</ele><time>2026-05-02T08:13:05.419Z</time></trkpt><trkpt lat="44.9346996" lon="9.2410012"><ele>337.0</ele><time>2026-05-02T08:13:09.415Z</time></trkpt><trkpt lat="44.9347585" lon="9.2410569"><ele>337.00000000000006</ele><time>2026-05-02T08:13:14.417Z</time></trkpt><trkpt lat="44.9348139" lon="9.2411217"><ele>337.0</ele><time>2026-05-02T08:13:19.425Z</time></trkpt><trkpt lat="44.9348649" lon="9.2411824"><ele>337.0</ele><time>2026-05-02T08:13:23.42Z</time></trkpt><trkpt lat="44.9349294" lon="9.2412358"><ele>337.0</ele><time>2026-05-02T08:13:28.416Z</time></trkpt><trkpt lat="44.935002" lon="9.2412793"><ele>337.0</ele><time>2026-05-02T08:13:33.419Z</time></trkpt><trkpt lat="44.9350672" lon="9.2413078"><ele>337.00000000000006</ele><time>2026-05-02T08:13:37.414Z</time></trkpt><trkpt lat="44.9351302" lon="9.2413248"><ele>337.0</ele><time>2026-05-02T08:13:41.411Z</time></trkpt><trkpt lat="44.9351924" lon="9.2413562"><ele>339.8571428571429</ele><time>2026-05-02T08:13:45.416Z</time></trkpt><trkpt lat="44.9352593" lon="9.2413788"><ele>342.7142857142857</ele><time>2026-05-02T08:13:49.408Z</time></trkpt><trkpt lat="44.9353264" lon="9.241391"><ele>345.57142857142856</ele><time>2026-05-02T08:13:53.415Z</time></trkpt><trkpt lat="44.9353894" lon="9.2413853"><ele>348.42857142857144</ele><time>2026-05-02T08:13:57.42Z</time></trkpt><trkpt lat="44.9354562" lon="9.2413867"><ele>351.2857142857143</ele><time>2026-05-02T08:14:01.411Z</time></trkpt><trkpt lat="44.9355246" lon="9.2413853"><ele>354.14285714285717</ele><time>2026-05-02T08:14:06.421Z</time></trkpt><trkpt lat="44.9356016" lon="9.2413922"><ele>357.0</ele><time>2026-05-02T08:14:11.41Z</time></trkpt><trkpt lat="44.9356807" lon="9.2414148"><ele>357.0</ele><time>2026-05-02T08:14:16.409Z</time></trkpt><trkpt lat="44.9357429" lon="9.24143"><ele>357.0</ele><time>2026-05-02T08:14:20.415Z</time></trkpt><trkpt lat="44.9358155" lon="9.2414364"><ele>357.0</ele><time>2026-05-02T08:14:25.418Z</time></trkpt><trkpt lat="44.9358843" lon="9.2414359"><ele>357.0</ele><time>2026-05-02T08:14:30.415Z</time></trkpt><trkpt lat="44.9359553" lon="9.2414473"><ele>357.0</ele><time>2026-05-02T08:14:35.412Z</time></trkpt><trkpt lat="44.9360306" lon="9.2414683"><ele>357.0</ele><time>2026-05-02T08:14:40.415Z</time></trkpt><trkpt lat="44.9360984" lon="9.2414611"><ele>357.0</ele><time>2026-05-02T08:14:45.421Z</time></trkpt><trkpt lat="44.9361743" lon="9.2414656"><ele>359.42857142857144</ele><time>2026-05-02T08:14:50.42Z</time></trkpt><trkpt lat="44.9362451" lon="9.2414915"><ele>361.8571428571429</ele><time>2026-05-02T08:14:55.417Z</time></trkpt><trkpt lat="44.9363113" lon="9.241488"><ele>364.2857142857143</ele><time>2026-05-02T08:15:00.414Z</time></trkpt><trkpt lat="44.9363683" lon="9.2414477"><ele>366.7142857142857</ele><time>2026-05-02T08:15:05.411Z</time></trkpt><trkpt lat="44.9364143" lon="9.2413772"><ele>369.14285714285717</ele><time>2026-05-02T08:15:10.422Z</time></trkpt><trkpt lat="44.9364682" lon="9.2413136"><ele>371.57142857142856</ele><time>2026-05-02T08:15:15.415Z</time></trkpt><trkpt lat="44.9365346" lon="9.2413197"><ele>374.0</ele><time>2026-05-02T08:15:20.418Z</time></trkpt><trkpt lat="44.9366074" lon="9.2413331"><ele>374.57142857142856</ele><time>2026-05-02T08:15:25.416Z</time></trkpt><trkpt lat="44.9366873" lon="9.2413315"><ele>375.14285714285717</ele><time>2026-05-02T08:15:30.413Z</time></trkpt><trkpt lat="44.9367652" lon="9.2413282"><ele>375.7142857142857</ele><time>2026-05-02T08:15:35.42Z</time></trkpt><trkpt lat="44.9368342" lon="9.2413394"><ele>376.2857142857143</ele><time>2026-05-02T08:15:40.424Z</time></trkpt><trkpt lat="44.936901" lon="9.2413346"><ele>376.8571428571429</ele><time>2026-05-02T08:15:45.421Z</time></trkpt><trkpt lat="44.9369662" lon="9.2413515"><ele>377.42857142857144</ele><time>2026-05-02T08:15:50.415Z</time></trkpt><trkpt lat="44.9370307" lon="9.2413109"><ele>378.0</ele><time>2026-05-02T08:15:55.416Z</time></trkpt><trkpt lat="44.9370727" lon="9.2412445"><ele>381.6666666666667</ele><time>2026-05-02T08:15:59.421Z</time></trkpt><trkpt lat="44.9370959" lon="9.2411454"><ele>385.33333333333337</ele><time>2026-05-02T08:16:04.425Z</time></trkpt><trkpt lat="44.9370865" lon="9.2410075"><ele>389.0</ele><time>2026-05-02T08:17:47.416Z</time></trkpt><trkpt lat="44.9370842" lon="9.2408956"><ele>392.6666666666667</ele><time>2026-05-02T08:17:52.418Z</time></trkpt><trkpt lat="44.9370774" lon="9.240797"><ele>396.33333333333337</ele><time>2026-05-02T08:17:56.414Z</time></trkpt><trkpt lat="44.9370797" lon="9.2406918"><ele>400.0</ele><time>2026-05-02T08:18:01.415Z</time></trkpt><trkpt lat="44.9371" lon="9.2405894"><ele>400.14285714285717</ele><time>2026-05-02T08:18:06.43Z</time></trkpt><trkpt lat="44.9371585" lon="9.2405478"><ele>400.2857142857143</ele><time>2026-05-02T08:18:10.412Z</time></trkpt><trkpt lat="44.9372259" lon="9.2404964"><ele>400.42857142857144</ele><time>2026-05-02T08:18:15.421Z</time></trkpt><trkpt lat="44.9372973" lon="9.2404857"><ele>400.57142857142856</ele><time>2026-05-02T08:18:21.417Z</time></trkpt><trkpt lat="44.9373571" lon="9.2404238"><ele>400.7142857142857</ele><time>2026-05-02T08:18:26.415Z</time></trkpt><trkpt lat="44.9373942" lon="9.2403278"><ele>400.8571428571429</ele><time>2026-05-02T08:18:31.417Z</time></trkpt><trkpt lat="44.9374322" lon="9.2402379"><ele>401.0</ele><time>2026-05-02T08:18:36.485Z</time></trkpt><trkpt lat="44.9374661" lon="9.2401593"><ele>401.0</ele><time>2026-05-02T08:18:40.42Z</time></trkpt><trkpt lat="44.9375" lon="9.2400761"><ele>401.0</ele><time>2026-05-02T08:18:58.417Z</time></trkpt><trkpt lat="44.9375453" lon="9.2399923"><ele>401.0</ele><time>2026-05-02T08:19:02.477Z</time></trkpt><trkpt lat="44.9375665" lon="9.2398858"><ele>401.0</ele><time>2026-05-02T08:19:06.419Z</time></trkpt><trkpt lat="44.9375902" lon="9.2397992"><ele>401.0</ele><time>2026-05-02T08:19:09.42Z</time></trkpt><trkpt lat="44.9376256" lon="9.2397043"><ele>401.0</ele><time>2026-05-02T08:19:13.422Z</time></trkpt><trkpt lat="44.9376621" lon="9.2396263"><ele>401.0</ele><time>2026-05-02T08:19:18.419Z</time></trkpt><trkpt lat="44.9377141" lon="9.2395708"><ele>401.57142857142856</ele><time>2026-05-02T08:19:23.42Z</time></trkpt><trkpt lat="44.937772" lon="9.2395064"><ele>402.14285714285717</ele><time>2026-05-02T08:19:29.424Z</time></trkpt><trkpt lat="44.9378286" lon="9.2394506"><ele>402.71428571428567</ele><time>2026-05-02T08:19:33.41Z</time></trkpt><trkpt lat="44.9378949" lon="9.2393988"><ele>403.2857142857143</ele><time>2026-05-02T08:19:38.419Z</time></trkpt><trkpt lat="44.937949" lon="9.2393397"><ele>403.85714285714283</ele><time>2026-05-02T08:19:42.499Z</time></trkpt><trkpt lat="44.938017" lon="9.2392935"><ele>404.4285714285714</ele><time>2026-05-02T08:19:47.415Z</time></trkpt><trkpt lat="44.9380827" lon="9.2392538"><ele>405.0</ele><time>2026-05-02T08:19:52.423Z</time></trkpt><trkpt lat="44.9381481" lon="9.2392254"><ele>404.99999999999994</ele><time>2026-05-02T08:19:57.427Z</time></trkpt><trkpt lat="44.9382118" lon="9.2392004"><ele>405.0</ele><time>2026-05-02T08:20:01.419Z</time></trkpt><trkpt lat="44.9382734" lon="9.2391727"><ele>405.0</ele><time>2026-05-02T08:20:05.416Z</time></trkpt><trkpt lat="44.9383382" lon="9.2391477"><ele>405.0</ele><time>2026-05-02T08:20:09.415Z</time></trkpt><trkpt lat="44.9384032" lon="9.2391219"><ele>405.0</ele><time>2026-05-02T08:20:13.405Z</time></trkpt><trkpt lat="44.9384648" lon="9.2390844"><ele>404.99999999999994</ele><time>2026-05-02T08:20:17.419Z</time></trkpt><trkpt lat="44.938523" lon="9.2390181"><ele>405.0</ele><time>2026-05-02T08:20:29.421Z</time></trkpt><trkpt lat="44.9385903" lon="9.2389561"><ele>405.99999999999994</ele><time>2026-05-02T08:20:34.416Z</time></trkpt><trkpt lat="44.9386444" lon="9.2389015"><ele>407.0</ele><time>2026-05-02T08:20:38.413Z</time></trkpt><trkpt lat="44.9386966" lon="9.238841"><ele>408.0</ele><time>2026-05-02T08:20:42.415Z</time></trkpt><trkpt lat="44.9387607" lon="9.23878"><ele>409.0</ele><time>2026-05-02T08:20:46.419Z</time></trkpt><trkpt lat="44.9388266" lon="9.2387154"><ele>410.0</ele><time>2026-05-02T08:20:50.427Z</time></trkpt><trkpt lat="44.9388854" lon="9.2386545"><ele>410.99999999999994</ele><time>2026-05-02T08:20:54.415Z</time></trkpt><trkpt lat="44.9389473" lon="9.2385856"><ele>412.0</ele><time>2026-05-02T08:20:58.424Z</time></trkpt><trkpt lat="44.9390018" lon="9.2385189"><ele>412.00000000000006</ele><time>2026-05-02T08:21:02.423Z</time></trkpt><trkpt lat="44.9390616" lon="9.2384452"><ele>412.0</ele><time>2026-05-02T08:21:06.438Z</time></trkpt><trkpt lat="44.9391122" lon="9.2383745"><ele>412.0</ele><time>2026-05-02T08:21:11.42Z</time></trkpt><trkpt lat="44.9391797" lon="9.2383081"><ele>412.0</ele><time>2026-05-02T08:21:16.417Z</time></trkpt><trkpt lat="44.9392358" lon="9.2382438"><ele>412.00000000000006</ele><time>2026-05-02T08:21:20.416Z</time></trkpt><trkpt lat="44.9392882" lon="9.2381831"><ele>412.0</ele><time>2026-05-02T08:21:24.413Z</time></trkpt><trkpt lat="44.9393557" lon="9.2381216"><ele>413.99999999999994</ele><time>2026-05-02T08:21:28.425Z</time></trkpt><trkpt lat="44.9394128" lon="9.2380503"><ele>416.0</ele><time>2026-05-02T08:21:32.418Z</time></trkpt><trkpt lat="44.9394712" lon="9.2379782"><ele>418.0</ele><time>2026-05-02T08:21:36.424Z</time></trkpt><trkpt lat="44.9395138" lon="9.2379058"><ele>420.0</ele><time>2026-05-02T08:21:40.492Z</time></trkpt><trkpt lat="44.9395674" lon="9.2378298"><ele>422.0</ele><time>2026-05-02T08:21:44.418Z</time></trkpt><trkpt lat="44.9396161" lon="9.2377562"><ele>423.99999999999994</ele><time>2026-05-02T08:21:48.418Z</time></trkpt><trkpt lat="44.9396633" lon="9.2376916"><ele>426.0</ele><time>2026-05-02T08:21:52.421Z</time></trkpt><trkpt lat="44.9397202" lon="9.2376261"><ele>426.0</ele><time>2026-05-02T08:21:56.421Z</time></trkpt><trkpt lat="44.9397816" lon="9.2375519"><ele>426.0</ele><time>2026-05-02T08:22:00.434Z</time></trkpt><trkpt lat="44.9398347" lon="9.2374817"><ele>426.0</ele><time>2026-05-02T08:22:04.426Z</time></trkpt><trkpt lat="44.9398958" lon="9.2374352"><ele>426.0</ele><time>2026-05-02T08:22:08.421Z</time></trkpt><trkpt lat="44.9399582" lon="9.2373815"><ele>426.0</ele><time>2026-05-02T08:22:12.425Z</time></trkpt><trkpt lat="44.940038" lon="9.2373734"><ele>426.0</ele><time>2026-05-02T08:22:16.421Z</time></trkpt><trkpt lat="44.9401057" lon="9.2374203"><ele>428.3333333333333</ele><time>2026-05-02T08:22:20.481Z</time></trkpt><trkpt lat="44.9401627" lon="9.2374838"><ele>430.66666666666663</ele><time>2026-05-02T08:22:24.416Z</time></trkpt><trkpt lat="44.9402245" lon="9.2375605"><ele>433.0</ele><time>2026-05-02T08:22:28.425Z</time></trkpt><trkpt lat="44.9402737" lon="9.2376333"><ele>435.3333333333333</ele><time>2026-05-02T08:22:32.425Z</time></trkpt><trkpt lat="44.9403121" lon="9.2377252"><ele>437.66666666666663</ele><time>2026-05-02T08:22:36.422Z</time></trkpt><trkpt lat="44.940365" lon="9.2377967"><ele>440.0</ele><time>2026-05-02T08:22:40.424Z</time></trkpt><trkpt lat="44.9404195" lon="9.2378747"><ele>439.99999999999994</ele><time>2026-05-02T08:22:44.429Z</time></trkpt><trkpt lat="44.9404768" lon="9.2379522"><ele>440.0</ele><time>2026-05-02T08:22:48.424Z</time></trkpt><trkpt lat="44.9405348" lon="9.2380203"><ele>440.0</ele><time>2026-05-02T08:22:52.42Z</time></trkpt><trkpt lat="44.9406002" lon="9.2380714"><ele>440.0</ele><time>2026-05-02T08:22:56.418Z</time></trkpt><trkpt lat="44.9406697" lon="9.2381032"><ele>439.99999999999994</ele><time>2026-05-02T08:23:00.425Z</time></trkpt><trkpt lat="44.9407399" lon="9.2381472"><ele>440.0</ele><time>2026-05-02T08:23:04.414Z</time></trkpt><trkpt lat="44.9408132" lon="9.2381552"><ele>441.1428571428571</ele><time>2026-05-02T08:23:08.423Z</time></trkpt><trkpt lat="44.9408761" lon="9.2381395"><ele>442.2857142857143</ele><time>2026-05-02T08:23:11.423Z</time></trkpt><trkpt lat="44.940937" lon="9.2381065"><ele>443.42857142857144</ele><time>2026-05-02T08:23:15.419Z</time></trkpt><trkpt lat="44.9410094" lon="9.2380886"><ele>444.57142857142856</ele><time>2026-05-02T08:23:20.422Z</time></trkpt><trkpt lat="44.9410727" lon="9.2380899"><ele>445.7142857142857</ele><time>2026-05-02T08:23:23.424Z</time></trkpt><trkpt lat="44.9411372" lon="9.2380557"><ele>446.85714285714283</ele><time>2026-05-02T08:23:26.424Z</time></trkpt><trkpt lat="44.9412069" lon="9.238006"><ele>448.0</ele><time>2026-05-02T08:23:29.42Z</time></trkpt><trkpt lat="44.9412618" lon="9.2379499"><ele>448.33333333333337</ele><time>2026-05-02T08:23:32.421Z</time></trkpt><trkpt lat="44.9413208" lon="9.2379045"><ele>448.6666666666667</ele><time>2026-05-02T08:23:35.414Z</time></trkpt><trkpt lat="44.9413908" lon="9.2378355"><ele>449.0</ele><time>2026-05-02T08:23:39.423Z</time></trkpt><trkpt lat="44.941453" lon="9.2377508"><ele>449.33333333333337</ele><time>2026-05-02T08:23:43.423Z</time></trkpt><trkpt lat="44.9415077" lon="9.2376818"><ele>449.6666666666667</ele><time>2026-05-02T08:23:46.413Z</time></trkpt><trkpt lat="44.941569" lon="9.2376239"><ele>450.0</ele><time>2026-05-02T08:23:49.424Z</time></trkpt><trkpt lat="44.9416464" lon="9.2375625"><ele>448.8333333333333</ele><time>2026-05-02T08:23:52.419Z</time></trkpt><trkpt lat="44.941717" lon="9.237506"><ele>447.66666666666663</ele><time>2026-05-02T08:23:55.417Z</time></trkpt><trkpt lat="44.9417899" lon="9.2374496"><ele>446.5</ele><time>2026-05-02T08:23:58.422Z</time></trkpt><trkpt lat="44.9418723" lon="9.2374323"><ele>445.3333333333333</ele><time>2026-05-02T08:24:01.417Z</time></trkpt><trkpt lat="44.9419492" lon="9.237469"><ele>444.16666666666663</ele><time>2026-05-02T08:24:04.432Z</time></trkpt><trkpt lat="44.9419974" lon="9.2375601"><ele>443.0</ele><time>2026-05-02T08:24:07.424Z</time></trkpt><trkpt lat="44.942001" lon="9.2376799"><ele>442.99999999999994</ele><time>2026-05-02T08:24:10.409Z</time></trkpt><trkpt lat="44.941989" lon="9.2377673"><ele>443.0</ele><time>2026-05-02T08:24:12.42Z</time></trkpt><trkpt lat="44.941958" lon="9.237889"><ele>443.0</ele><time>2026-05-02T08:24:15.422Z</time></trkpt><trkpt lat="44.941909" lon="9.2379813"><ele>443.0</ele><time>2026-05-02T08:24:18.415Z</time></trkpt><trkpt lat="44.9418448" lon="9.2380618"><ele>442.99999999999994</ele><time>2026-05-02T08:24:21.416Z</time></trkpt><trkpt lat="44.9417894" lon="9.2381049"><ele>443.0</ele><time>2026-05-02T08:24:23.421Z</time></trkpt><trkpt lat="44.9417336" lon="9.2381895"><ele>446.66666666666663</ele><time>2026-05-02T08:24:26.42Z</time></trkpt><trkpt lat="44.9416894" lon="9.238263"><ele>450.3333333333333</ele><time>2026-05-02T08:24:29.415Z</time></trkpt><trkpt lat="44.9416278" lon="9.238351"><ele>454.0</ele><time>2026-05-02T08:24:32.417Z</time></trkpt><trkpt lat="44.9415843" lon="9.2384394"><ele>457.66666666666663</ele><time>2026-05-02T08:24:35.422Z</time></trkpt><trkpt lat="44.94153" lon="9.238528"><ele>461.3333333333333</ele><time>2026-05-02T08:24:38.418Z</time></trkpt><trkpt lat="44.9414833" lon="9.2386265"><ele>465.0</ele><time>2026-05-02T08:24:41.405Z</time></trkpt><trkpt lat="44.9414485" lon="9.2387309"><ele>465.0</ele><time>2026-05-02T08:24:44.415Z</time></trkpt><trkpt lat="44.9414285" lon="9.238826"><ele>465.0</ele><time>2026-05-02T08:24:47.42Z</time></trkpt><trkpt lat="44.9413887" lon="9.2389008"><ele>465.0</ele><time>2026-05-02T08:24:50.416Z</time></trkpt><trkpt lat="44.941362" lon="9.2389966"><ele>465.0</ele><time>2026-05-02T08:24:53.415Z</time></trkpt><trkpt lat="44.9413312" lon="9.2391046"><ele>465.0</ele><time>2026-05-02T08:24:57.419Z</time></trkpt><trkpt lat="44.9413295" lon="9.2392176"><ele>465.0</ele><time>2026-05-02T08:25:01.426Z</time></trkpt><trkpt lat="44.9413243" lon="9.2393365"><ele>467.3333333333333</ele><time>2026-05-02T08:25:04.419Z</time></trkpt><trkpt lat="44.9413304" lon="9.2394535"><ele>469.66666666666663</ele><time>2026-05-02T08:25:07.424Z</time></trkpt><trkpt lat="44.9413581" lon="9.239576"><ele>472.0</ele><time>2026-05-02T08:25:10.409Z</time></trkpt><trkpt lat="44.9413945" lon="9.2396765"><ele>474.3333333333333</ele><time>2026-05-02T08:25:13.425Z</time></trkpt><trkpt lat="44.9414294" lon="9.2397619"><ele>476.66666666666663</ele><time>2026-05-02T08:25:16.422Z</time></trkpt><trkpt lat="44.9414697" lon="9.2398568"><ele>479.0</ele><time>2026-05-02T08:25:19.416Z</time></trkpt><trkpt lat="44.9414997" lon="9.2399785"><ele>478.99999999999994</ele><time>2026-05-02T08:25:22.424Z</time></trkpt><trkpt lat="44.9415118" lon="9.2400889"><ele>479.0</ele><time>2026-05-02T08:25:25.413Z</time></trkpt><trkpt lat="44.9415141" lon="9.2402133"><ele>479.0</ele><time>2026-05-02T08:25:28.419Z</time></trkpt><trkpt lat="44.9415258" lon="9.2403337"><ele>479.0</ele><time>2026-05-02T08:25:31.426Z</time></trkpt><trkpt lat="44.9415526" lon="9.2404514"><ele>478.99999999999994</ele><time>2026-05-02T08:25:34.425Z</time></trkpt><trkpt lat="44.9415689" lon="9.2405723"><ele>479.0</ele><time>2026-05-02T08:25:37.421Z</time></trkpt><trkpt lat="44.9415752" lon="9.2406872"><ele>479.49999999999994</ele><time>2026-05-02T08:25:40.432Z</time></trkpt><trkpt lat="44.9415943" lon="9.2408024"><ele>480.0</ele><time>2026-05-02T08:25:43.421Z</time></trkpt><trkpt lat="44.9416102" lon="9.2409234"><ele>480.5</ele><time>2026-05-02T08:25:46.427Z</time></trkpt><trkpt lat="44.9416523" lon="9.2410302"><ele>481.0</ele><time>2026-05-02T08:25:49.428Z</time></trkpt><trkpt lat="44.9416729" lon="9.2411446"><ele>481.49999999999994</ele><time>2026-05-02T08:25:52.421Z</time></trkpt><trkpt lat="44.9416765" lon="9.2412712"><ele>482.0</ele><time>2026-05-02T08:25:55.425Z</time></trkpt><trkpt lat="44.9416749" lon="9.2413897"><ele>483.16666666666663</ele><time>2026-05-02T08:25:58.425Z</time></trkpt><trkpt lat="44.9416597" lon="9.2414793"><ele>484.3333333333333</ele><time>2026-05-02T08:26:00.423Z</time></trkpt><trkpt lat="44.9416349" lon="9.2416034"><ele>485.5</ele><time>2026-05-02T08:26:03.427Z</time></trkpt><trkpt lat="44.9416175" lon="9.241727"><ele>486.66666666666663</ele><time>2026-05-02T08:26:06.424Z</time></trkpt><trkpt lat="44.9416179" lon="9.2418419"><ele>487.8333333333333</ele><time>2026-05-02T08:26:09.423Z</time></trkpt><trkpt lat="44.9416374" lon="9.2419515"><ele>489.0</ele><time>2026-05-02T08:26:12.425Z</time></trkpt><trkpt lat="44.9416681" lon="9.2420715"><ele>489.0</ele><time>2026-05-02T08:26:15.419Z</time></trkpt><trkpt lat="44.9417069" lon="9.242164"><ele>489.00000000000006</ele><time>2026-05-02T08:26:18.426Z</time></trkpt><trkpt lat="44.94174" lon="9.2422678"><ele>489.0</ele><time>2026-05-02T08:26:21.423Z</time></trkpt><trkpt lat="44.9417614" lon="9.2423619"><ele>489.0</ele><time>2026-05-02T08:26:24.419Z</time></trkpt><trkpt lat="44.9417778" lon="9.2424639"><ele>489.00000000000006</ele><time>2026-05-02T08:26:27.41Z</time></trkpt><trkpt lat="44.9417806" lon="9.2425549"><ele>489.0</ele><time>2026-05-02T08:26:30.423Z</time></trkpt><trkpt lat="44.9417874" lon="9.2426631"><ele>489.0</ele><time>2026-05-02T08:26:33.417Z</time></trkpt><trkpt lat="44.9418072" lon="9.24275"><ele>486.8333333333333</ele><time>2026-05-02T08:26:37.497Z</time></trkpt><trkpt lat="44.9418335" lon="9.2428474"><ele>484.66666666666663</ele><time>2026-05-02T08:26:41.419Z</time></trkpt><trkpt lat="44.9418851" lon="9.242907"><ele>482.5</ele><time>2026-05-02T08:26:46.417Z</time></trkpt><trkpt lat="44.941951" lon="9.2428642"><ele>480.3333333333333</ele><time>2026-05-02T08:26:49.421Z</time></trkpt><trkpt lat="44.9420198" lon="9.2427934"><ele>478.16666666666663</ele><time>2026-05-02T08:26:52.422Z</time></trkpt><trkpt lat="44.9420923" lon="9.2427425"><ele>476.0</ele><time>2026-05-02T08:26:55.418Z</time></trkpt><trkpt lat="44.9421733" lon="9.2426956"><ele>475.99999999999994</ele><time>2026-05-02T08:26:58.413Z</time></trkpt><trkpt lat="44.9422293" lon="9.2426375"><ele>476.0</ele><time>2026-05-02T08:27:01.419Z</time></trkpt><trkpt lat="44.9422877" lon="9.2425644"><ele>476.0</ele><time>2026-05-02T08:27:04.416Z</time></trkpt><trkpt lat="44.9423434" lon="9.2425067"><ele>476.0</ele><time>2026-05-02T08:27:07.42Z</time></trkpt><trkpt lat="44.9424265" lon="9.242488"><ele>475.99999999999994</ele><time>2026-05-02T08:27:10.423Z</time></trkpt><trkpt lat="44.9425188" lon="9.2424592"><ele>476.0</ele><time>2026-05-02T08:27:13.418Z</time></trkpt><trkpt lat="44.9418851" lon="9.242907"><ele>475.99999999999994</ele><time>2026-05-02T08:26:46.417Z</time></trkpt><trkpt lat="44.941951" lon="9.2428642"><ele>476.0</ele><time>2026-05-02T08:26:49.421Z</time></trkpt><trkpt lat="44.9420198" lon="9.2427934"><ele>476.0</ele><time>2026-05-02T08:26:52.422Z</time></trkpt><trkpt lat="44.9420923" lon="9.2427425"><ele>476.0</ele><time>2026-05-02T08:26:55.418Z</time></trkpt><trkpt lat="44.9421733" lon="9.2426956"><ele>475.99999999999994</ele><time>2026-05-02T08:26:58.413Z</time></trkpt><trkpt lat="44.9422293" lon="9.2426375"><ele>476.0</ele><time>2026-05-02T08:27:01.419Z</time></trkpt><trkpt lat="44.9422877" lon="9.2425644"><ele>475.99999999999994</ele><time>2026-05-02T08:27:04.416Z</time></trkpt><trkpt lat="44.9423434" lon="9.2425067"><ele>476.0</ele><time>2026-05-02T08:27:07.42Z</time></trkpt><trkpt lat="44.9424265" lon="9.242488"><ele>476.0</ele><time>2026-05-02T08:27:10.423Z</time></trkpt><trkpt lat="44.9425188" lon="9.2424592"><ele>476.0</ele><time>2026-05-02T08:27:13.418Z</time></trkpt><trkpt lat="44.9425891" lon="9.2424205"><ele>475.99999999999994</ele><time>2026-05-02T08:27:15.41Z</time></trkpt><trkpt lat="44.9426569" lon="9.2423764"><ele>476.0</ele><time>2026-05-02T08:27:17.419Z</time></trkpt><trkpt lat="44.9427263" lon="9.2423272"><ele>473.49999999999994</ele><time>2026-05-02T08:27:19.415Z</time></trkpt><trkpt lat="44.94279" lon="9.2422606"><ele>471.0</ele><time>2026-05-02T08:27:21.419Z</time></trkpt><trkpt lat="44.9428547" lon="9.2421841"><ele>468.5</ele><time>2026-05-02T08:27:24.422Z</time></trkpt><trkpt lat="44.9428998" lon="9.2421167"><ele>466.0</ele><time>2026-05-02T08:27:26.424Z</time></trkpt><trkpt lat="44.9429544" lon="9.2420491"><ele>463.49999999999994</ele><time>2026-05-02T08:27:28.419Z</time></trkpt><trkpt lat="44.9430166" lon="9.2419605"><ele>461.0</ele><time>2026-05-02T08:27:30.417Z</time></trkpt><trkpt lat="44.9430699" lon="9.2418853"><ele>460.99999999999994</ele><time>2026-05-02T08:27:32.416Z</time></trkpt><trkpt lat="44.9431212" lon="9.2417984"><ele>461.0</ele><time>2026-05-02T08:27:35.413Z</time></trkpt><trkpt lat="44.9431755" lon="9.2417059"><ele>461.0</ele><time>2026-05-02T08:27:39.413Z</time></trkpt><trkpt lat="44.9432175" lon="9.2416181"><ele>461.0</ele><time>2026-05-02T08:27:43.413Z</time></trkpt><trkpt lat="44.9432472" lon="9.2415281"><ele>460.99999999999994</ele><time>2026-05-02T08:27:47.421Z</time></trkpt><trkpt lat="44.9433056" lon="9.2414657"><ele>461.0</ele><time>2026-05-02T08:27:50.415Z</time></trkpt><trkpt lat="44.9433641" lon="9.2414084"><ele>458.7142857142857</ele><time>2026-05-02T08:27:53.42Z</time></trkpt><trkpt lat="44.9434279" lon="9.2413496"><ele>456.42857142857144</ele><time>2026-05-02T08:27:57.415Z</time></trkpt><trkpt lat="44.9434872" lon="9.2412864"><ele>454.14285714285717</ele><time>2026-05-02T08:28:01.414Z</time></trkpt><trkpt lat="44.9435452" lon="9.2412455"><ele>451.8571428571429</ele><time>2026-05-02T08:28:04.415Z</time></trkpt><trkpt lat="44.9436188" lon="9.2412166"><ele>449.57142857142856</ele><time>2026-05-02T08:28:08.414Z</time></trkpt><trkpt lat="44.9436784" lon="9.2411674"><ele>447.28571428571433</ele><time>2026-05-02T08:28:11.418Z</time></trkpt><trkpt lat="44.9437328" lon="9.2411153"><ele>445.0</ele><time>2026-05-02T08:28:14.415Z</time></trkpt><trkpt lat="44.9438107" lon="9.2411094"><ele>445.00000000000006</ele><time>2026-05-02T08:28:18.425Z</time></trkpt><trkpt lat="44.9438845" lon="9.2410685"><ele>445.0</ele><time>2026-05-02T08:28:22.421Z</time></trkpt><trkpt lat="44.9439631" lon="9.2410689"><ele>445.0</ele><time>2026-05-02T08:28:26.414Z</time></trkpt><trkpt lat="44.9440461" lon="9.2411042"><ele>445.0</ele><time>2026-05-02T08:28:30.412Z</time></trkpt><trkpt lat="44.9441196" lon="9.2411459"><ele>445.00000000000006</ele><time>2026-05-02T08:28:34.417Z</time></trkpt><trkpt lat="44.9441793" lon="9.2411871"><ele>445.0</ele><time>2026-05-02T08:28:37.428Z</time></trkpt><trkpt lat="44.9442497" lon="9.2412238"><ele>442.83333333333337</ele><time>2026-05-02T08:28:40.422Z</time></trkpt><trkpt lat="44.944312" lon="9.2412427"><ele>440.6666666666667</ele><time>2026-05-02T08:28:43.411Z</time></trkpt><trkpt lat="44.9443811" lon="9.2412887"><ele>438.5</ele><time>2026-05-02T08:28:47.419Z</time></trkpt><trkpt lat="44.9444621" lon="9.2413337"><ele>436.33333333333337</ele><time>2026-05-02T08:28:51.416Z</time></trkpt><trkpt lat="44.944549" lon="9.241387"><ele>434.1666666666667</ele><time>2026-05-02T08:28:54.415Z</time></trkpt><trkpt lat="44.9446104" lon="9.2414207"><ele>432.0</ele><time>2026-05-02T08:28:56.416Z</time></trkpt><trkpt lat="44.9446895" lon="9.2414552"><ele>432.0</ele><time>2026-05-02T08:28:59.413Z</time></trkpt><trkpt lat="44.9447651" lon="9.2414937"><ele>432.0</ele><time>2026-05-02T08:29:02.427Z</time></trkpt><trkpt lat="44.9448221" lon="9.2415338"><ele>432.0</ele><time>2026-05-02T08:29:04.419Z</time></trkpt><trkpt lat="44.9449022" lon="9.2416026"><ele>432.0</ele><time>2026-05-02T08:29:07.415Z</time></trkpt><trkpt lat="44.9449556" lon="9.241654"><ele>432.0</ele><time>2026-05-02T08:29:09.423Z</time></trkpt><trkpt lat="44.9450157" lon="9.2417108"><ele>432.0</ele><time>2026-05-02T08:29:11.409Z</time></trkpt><trkpt lat="44.9450915" lon="9.2417826"><ele>429.5</ele><time>2026-05-02T08:29:14.408Z</time></trkpt><trkpt lat="44.9451518" lon="9.2418306"><ele>427.0</ele><time>2026-05-02T08:29:16.419Z</time></trkpt><trkpt lat="44.9452083" lon="9.2418807"><ele>424.5</ele><time>2026-05-02T08:29:18.422Z</time></trkpt><trkpt lat="44.9452643" lon="9.2419302"><ele>422.0</ele><time>2026-05-02T08:29:20.417Z</time></trkpt><trkpt lat="44.9453391" lon="9.2419897"><ele>419.5</ele><time>2026-05-02T08:29:22.425Z</time></trkpt><trkpt lat="44.9454246" lon="9.2420511"><ele>417.0</ele><time>2026-05-02T08:29:24.427Z</time></trkpt><trkpt lat="44.9455033" lon="9.2421205"><ele>417.0</ele><time>2026-05-02T08:29:26.419Z</time></trkpt><trkpt lat="44.9455628" lon="9.2421762"><ele>417.0</ele><time>2026-05-02T08:29:28.422Z</time></trkpt><trkpt lat="44.9456221" lon="9.2422251"><ele>417.0</ele><time>2026-05-02T08:29:30.431Z</time></trkpt><trkpt lat="44.9456994" lon="9.242283"><ele>417.0</ele><time>2026-05-02T08:29:32.415Z</time></trkpt><trkpt lat="44.9457882" lon="9.2423403"><ele>417.0</ele><time>2026-05-02T08:29:34.419Z</time></trkpt><trkpt lat="44.9458488" lon="9.2423792"><ele>417.0</ele><time>2026-05-02T08:29:36.429Z</time></trkpt><trkpt lat="44.9459309" lon="9.242428"><ele>415.0</ele><time>2026-05-02T08:29:40.419Z</time></trkpt><trkpt lat="44.9460044" lon="9.2424554"><ele>413.0</ele><time>2026-05-02T08:29:42.423Z</time></trkpt><trkpt lat="44.9460752" lon="9.2424714"><ele>411.0</ele><time>2026-05-02T08:29:44.426Z</time></trkpt><trkpt lat="44.9461505" lon="9.2424907"><ele>409.0</ele><time>2026-05-02T08:29:46.419Z</time></trkpt><trkpt lat="44.9462423" lon="9.2425158"><ele>407.0</ele><time>2026-05-02T08:29:48.421Z</time></trkpt><trkpt lat="44.9463393" lon="9.2425499"><ele>405.0</ele><time>2026-05-02T08:29:50.42Z</time></trkpt><trkpt lat="44.9464373" lon="9.2425771"><ele>405.0</ele><time>2026-05-02T08:29:52.418Z</time></trkpt><trkpt lat="44.9465283" lon="9.2426068"><ele>405.0</ele><time>2026-05-02T08:29:54.423Z</time></trkpt><trkpt lat="44.9466227" lon="9.2426336"><ele>405.0</ele><time>2026-05-02T08:29:56.422Z</time></trkpt><trkpt lat="44.9467041" lon="9.2426672"><ele>405.0</ele><time>2026-05-02T08:29:58.485Z</time></trkpt><trkpt lat="44.9467762" lon="9.2426781"><ele>405.0</ele><time>2026-05-02T08:30:00.425Z</time></trkpt><trkpt lat="44.9468669" lon="9.2426903"><ele>405.0</ele><time>2026-05-02T08:30:02.416Z</time></trkpt><trkpt lat="44.9469324" lon="9.2427138"><ele>403.3333333333333</ele><time>2026-05-02T08:30:04.417Z</time></trkpt><trkpt lat="44.947002" lon="9.2427579"><ele>401.66666666666663</ele><time>2026-05-02T08:30:06.424Z</time></trkpt><trkpt lat="44.947054" lon="9.2428322"><ele>400.0</ele><time>2026-05-02T08:30:08.424Z</time></trkpt><trkpt lat="44.9471093" lon="9.2429207"><ele>398.3333333333333</ele><time>2026-05-02T08:30:10.418Z</time></trkpt><trkpt lat="44.9471632" lon="9.2430187"><ele>396.66666666666663</ele><time>2026-05-02T08:30:12.499Z</time></trkpt><trkpt lat="44.9471995" lon="9.2431003"><ele>395.0</ele><time>2026-05-02T08:30:14.425Z</time></trkpt><trkpt lat="44.9472658" lon="9.243183"><ele>395.0</ele><time>2026-05-02T08:30:17.411Z</time></trkpt><trkpt lat="44.9473224" lon="9.2432557"><ele>395.0</ele><time>2026-05-02T08:30:19.415Z</time></trkpt><trkpt lat="44.9473945" lon="9.2433321"><ele>395.0</ele><time>2026-05-02T08:30:21.428Z</time></trkpt><trkpt lat="44.9474836" lon="9.2434353"><ele>395.0</ele><time>2026-05-02T08:30:23.426Z</time></trkpt><trkpt lat="44.9475797" lon="9.2435361"><ele>395.0</ele><time>2026-05-02T08:30:25.427Z</time></trkpt><trkpt lat="44.947664" lon="9.2436305"><ele>394.99999999999994</ele><time>2026-05-02T08:30:27.429Z</time></trkpt><trkpt lat="44.9477222" lon="9.243709"><ele>395.0</ele><time>2026-05-02T08:30:29.416Z</time></trkpt><trkpt lat="44.9477864" lon="9.2437824"><ele>395.0</ele><time>2026-05-02T08:30:32.423Z</time></trkpt><trkpt lat="44.9478569" lon="9.2438518"><ele>395.0</ele><time>2026-05-02T08:30:35.415Z</time></trkpt><trkpt lat="44.9479162" lon="9.2439082"><ele>394.99999999999994</ele><time>2026-05-02T08:30:38.43Z</time></trkpt><trkpt lat="44.9479757" lon="9.2439586"><ele>395.0</ele><time>2026-05-02T08:30:41.419Z</time></trkpt><trkpt lat="44.9480571" lon="9.2439994"><ele>394.99999999999994</ele><time>2026-05-02T08:30:44.421Z</time></trkpt><trkpt lat="44.94812" lon="9.2440165"><ele>395.0</ele><time>2026-05-02T08:30:46.423Z</time></trkpt><trkpt lat="44.9482014" lon="9.2440258"><ele>395.0</ele><time>2026-05-02T08:30:49.426Z</time></trkpt><trkpt lat="44.9482771" lon="9.244029"><ele>395.0</ele><time>2026-05-02T08:30:52.494Z</time></trkpt><trkpt lat="44.9483447" lon="9.2440309"><ele>394.99999999999994</ele><time>2026-05-02T08:30:55.425Z</time></trkpt><trkpt lat="44.9484276" lon="9.24399"><ele>395.0</ele><time>2026-05-02T08:30:58.442Z</time></trkpt><trkpt lat="44.9484968" lon="9.2439559"><ele>393.0</ele><time>2026-05-02T08:31:00.421Z</time></trkpt><trkpt lat="44.9485689" lon="9.2439092"><ele>391.0</ele><time>2026-05-02T08:31:02.414Z</time></trkpt><trkpt lat="44.9486463" lon="9.2438616"><ele>389.0</ele><time>2026-05-02T08:31:04.422Z</time></trkpt><trkpt lat="44.9487294" lon="9.2438054"><ele>387.0</ele><time>2026-05-02T08:31:06.409Z</time></trkpt><trkpt lat="44.948823" lon="9.2437535"><ele>385.0</ele><time>2026-05-02T08:31:08.426Z</time></trkpt><trkpt lat="44.9489203" lon="9.2436966"><ele>385.0</ele><time>2026-05-02T08:31:10.412Z</time></trkpt><trkpt lat="44.9490272" lon="9.2436258"><ele>385.0</ele><time>2026-05-02T08:31:12.424Z</time></trkpt><trkpt lat="44.9491208" lon="9.2435339"><ele>385.0</ele><time>2026-05-02T08:31:14.416Z</time></trkpt><trkpt lat="44.9492029" lon="9.243456"><ele>385.0</ele><time>2026-05-02T08:31:16.419Z</time></trkpt><trkpt lat="44.9492809" lon="9.2433758"><ele>385.0</ele><time>2026-05-02T08:31:18.423Z</time></trkpt><trkpt lat="44.9493553" lon="9.2432961"><ele>383.83333333333337</ele><time>2026-05-02T08:31:20.431Z</time></trkpt><trkpt lat="44.9494264" lon="9.2432227"><ele>382.6666666666667</ele><time>2026-05-02T08:31:22.422Z</time></trkpt><trkpt lat="44.9494948" lon="9.2431591"><ele>381.5</ele><time>2026-05-02T08:31:24.409Z</time></trkpt><trkpt lat="44.949565" lon="9.2430997"><ele>380.33333333333337</ele><time>2026-05-02T08:31:26.417Z</time></trkpt><trkpt lat="44.9496499" lon="9.243072"><ele>379.1666666666667</ele><time>2026-05-02T08:31:28.422Z</time></trkpt><trkpt lat="44.9497325" lon="9.2430685"><ele>378.0</ele><time>2026-05-02T08:31:30.49Z</time></trkpt><trkpt lat="44.9498188" lon="9.2430867"><ele>376.8333333333333</ele><time>2026-05-02T08:31:32.419Z</time></trkpt><trkpt lat="44.9499022" lon="9.2430929"><ele>375.6666666666667</ele><time>2026-05-02T08:31:34.418Z</time></trkpt><trkpt lat="44.9499763" lon="9.2430955"><ele>374.5</ele><time>2026-05-02T08:31:36.416Z</time></trkpt><trkpt lat="44.950047" lon="9.2431056"><ele>373.33333333333337</ele><time>2026-05-02T08:31:38.417Z</time></trkpt><trkpt lat="44.9501303" lon="9.2431304"><ele>372.1666666666667</ele><time>2026-05-02T08:31:40.411Z</time></trkpt><trkpt lat="44.9502144" lon="9.2431451"><ele>371.0</ele><time>2026-05-02T08:31:42.408Z</time></trkpt><trkpt lat="44.9502966" lon="9.243135"><ele>369.8</ele><time>2026-05-02T08:31:44.42Z</time></trkpt><trkpt lat="44.9503908" lon="9.2430939"><ele>368.6</ele><time>2026-05-02T08:31:46.421Z</time></trkpt><trkpt lat="44.9504889" lon="9.2430556"><ele>367.4</ele><time>2026-05-02T08:31:48.422Z</time></trkpt><trkpt lat="44.9505868" lon="9.2430031"><ele>366.2</ele><time>2026-05-02T08:31:50.423Z</time></trkpt><trkpt lat="44.9507016" lon="9.2429542"><ele>365.0</ele><time>2026-05-02T08:31:52.421Z</time></trkpt><trkpt lat="44.9507676" lon="9.2429231"><ele>365.00000000000006</ele><time>2026-05-02T08:31:53.419Z</time></trkpt><trkpt lat="44.9508365" lon="9.2428929"><ele>365.0</ele><time>2026-05-02T08:31:54.416Z</time></trkpt><trkpt lat="44.9509085" lon="9.2428669"><ele>365.0</ele><time>2026-05-02T08:31:55.486Z</time></trkpt><trkpt lat="44.950981" lon="9.2428462"><ele>365.0</ele><time>2026-05-02T08:31:56.411Z</time></trkpt><trkpt lat="44.9510524" lon="9.2428225"><ele>365.0</ele><time>2026-05-02T08:31:57.426Z</time></trkpt><trkpt lat="44.9511264" lon="9.2428"><ele>365.00000000000006</ele><time>2026-05-02T08:31:58.417Z</time></trkpt><trkpt lat="44.9511978" lon="9.2427717"><ele>365.0</ele><time>2026-05-02T08:31:59.419Z</time></trkpt><trkpt lat="44.9512689" lon="9.2427454"><ele>364.2</ele><time>2026-05-02T08:32:00.423Z</time></trkpt><trkpt lat="44.9513365" lon="9.2427251"><ele>363.4</ele><time>2026-05-02T08:32:01.409Z</time></trkpt><trkpt lat="44.9514594" lon="9.2426814"><ele>362.6</ele><time>2026-05-02T08:32:03.419Z</time></trkpt><trkpt lat="44.9515722" lon="9.2426407"><ele>361.8</ele><time>2026-05-02T08:32:05.414Z</time></trkpt><trkpt lat="44.95169" lon="9.2426275"><ele>361.0</ele><time>2026-05-02T08:32:07.416Z</time></trkpt><trkpt lat="44.9517553" lon="9.2426463"><ele>362.8333333333333</ele><time>2026-05-02T08:32:08.423Z</time></trkpt><trkpt lat="44.951821" lon="9.2426731"><ele>364.66666666666663</ele><time>2026-05-02T08:32:09.423Z</time></trkpt><trkpt lat="44.9518847" lon="9.2427085"><ele>366.5</ele><time>2026-05-02T08:32:10.423Z</time></trkpt><trkpt lat="44.9519484" lon="9.2427449"><ele>368.3333333333333</ele><time>2026-05-02T08:32:11.426Z</time></trkpt><trkpt lat="44.9520073" lon="9.2427775"><ele>370.1666666666667</ele><time>2026-05-02T08:32:12.422Z</time></trkpt><trkpt lat="44.9521073" lon="9.2428491"><ele>372.0</ele><time>2026-05-02T08:32:14.413Z</time></trkpt><trkpt lat="44.952192" lon="9.2429361"><ele>372.0</ele><time>2026-05-02T08:32:16.423Z</time></trkpt><trkpt lat="44.9522649" lon="9.2430669"><ele>372.0</ele><time>2026-05-02T08:32:18.411Z</time></trkpt><trkpt lat="44.9523043" lon="9.2432306"><ele>372.0</ele><time>2026-05-02T08:32:20.493Z</time></trkpt><trkpt lat="44.9523414" lon="9.2433926"><ele>372.0</ele><time>2026-05-02T08:32:22.491Z</time></trkpt><trkpt lat="44.9523917" lon="9.2435404"><ele>371.20000000000005</ele><time>2026-05-02T08:32:24.413Z</time></trkpt><trkpt lat="44.9524544" lon="9.2436922"><ele>370.4</ele><time>2026-05-02T08:32:26.418Z</time></trkpt><trkpt lat="44.9524878" lon="9.2437678"><ele>369.6</ele><time>2026-05-02T08:32:27.412Z</time></trkpt><trkpt lat="44.9525453" lon="9.2439106"><ele>368.79999999999995</ele><time>2026-05-02T08:32:29.417Z</time></trkpt><trkpt lat="44.9526102" lon="9.2440475"><ele>368.0</ele><time>2026-05-02T08:32:31.42Z</time></trkpt><trkpt lat="44.9526671" lon="9.2442077"><ele>368.8571428571429</ele><time>2026-05-02T08:32:33.499Z</time></trkpt><trkpt lat="44.952684" lon="9.2443174"><ele>369.71428571428567</ele><time>2026-05-02T08:32:34.42Z</time></trkpt><trkpt lat="44.9526985" lon="9.2444073"><ele>370.57142857142856</ele><time>2026-05-02T08:32:35.482Z</time></trkpt><trkpt lat="44.952706" lon="9.244503"><ele>371.42857142857144</ele><time>2026-05-02T08:32:36.413Z</time></trkpt><trkpt lat="44.9527187" lon="9.2445902"><ele>372.28571428571433</ele><time>2026-05-02T08:32:37.419Z</time></trkpt><trkpt lat="44.9527339" lon="9.2446769"><ele>373.1428571428571</ele><time>2026-05-02T08:32:38.417Z</time></trkpt><trkpt lat="44.9527539" lon="9.2447701"><ele>374.0</ele><time>2026-05-02T08:32:39.406Z</time></trkpt><trkpt lat="44.9527724" lon="9.2448573"><ele>374.0</ele><time>2026-05-02T08:32:40.414Z</time></trkpt><trkpt lat="44.9527968" lon="9.2449482"><ele>374.0</ele><time>2026-05-02T08:32:41.413Z</time></trkpt><trkpt lat="44.9528123" lon="9.245037"><ele>374.0</ele><time>2026-05-02T08:32:42.416Z</time></trkpt><trkpt lat="44.9528266" lon="9.2451241"><ele>374.0</ele><time>2026-05-02T08:32:43.415Z</time></trkpt><trkpt lat="44.9528663" lon="9.2452594"><ele>374.0</ele><time>2026-05-02T08:32:45.426Z</time></trkpt><trkpt lat="44.9529207" lon="9.2453932"><ele>374.0</ele><time>2026-05-02T08:32:47.418Z</time></trkpt><trkpt lat="44.9529686" lon="9.2455269"><ele>371.2</ele><time>2026-05-02T08:32:49.417Z</time></trkpt><trkpt lat="44.9530131" lon="9.245666"><ele>368.4</ele><time>2026-05-02T08:32:51.416Z</time></trkpt><trkpt lat="44.953067" lon="9.2458092"><ele>365.6</ele><time>2026-05-02T08:32:53.409Z</time></trkpt><trkpt lat="44.953114" lon="9.2459445"><ele>362.8</ele><time>2026-05-02T08:32:55.412Z</time></trkpt><trkpt lat="44.9531609" lon="9.2460761"><ele>360.0</ele><time>2026-05-02T08:32:57.412Z</time></trkpt><trkpt lat="44.9532002" lon="9.24619"><ele>360.0</ele><time>2026-05-02T08:32:59.414Z</time></trkpt><trkpt lat="44.9532415" lon="9.2463094"><ele>360.0</ele><time>2026-05-02T08:33:01.416Z</time></trkpt><trkpt lat="44.9532987" lon="9.2464119"><ele>360.0</ele><time>2026-05-02T08:33:03.419Z</time></trkpt><trkpt lat="44.9533502" lon="9.2464878"><ele>360.0</ele><time>2026-05-02T08:33:05.424Z</time></trkpt><trkpt lat="44.9534146" lon="9.2465672"><ele>360.0</ele><time>2026-05-02T08:33:07.412Z</time></trkpt><trkpt lat="44.9534868" lon="9.2466624"><ele>360.0</ele><time>2026-05-02T08:33:09.423Z</time></trkpt><trkpt lat="44.9535556" lon="9.2467707"><ele>362.0</ele><time>2026-05-02T08:33:11.423Z</time></trkpt><trkpt lat="44.9536158" lon="9.2469036"><ele>364.0</ele><time>2026-05-02T08:33:13.484Z</time></trkpt><trkpt lat="44.9536531" lon="9.247052"><ele>366.0</ele><time>2026-05-02T08:33:15.413Z</time></trkpt><trkpt lat="44.9536847" lon="9.2472079"><ele>368.0</ele><time>2026-05-02T08:33:17.415Z</time></trkpt><trkpt lat="44.9536898" lon="9.2472974"><ele>370.0</ele><time>2026-05-02T08:33:18.419Z</time></trkpt><trkpt lat="44.9536898" lon="9.247452"><ele>365.6</ele><time>2026-05-02T08:33:20.418Z</time></trkpt><trkpt lat="44.9536845" lon="9.2476118"><ele>361.2</ele><time>2026-05-02T08:33:22.424Z</time></trkpt><trkpt lat="44.9536893" lon="9.2477552"><ele>356.79999999999995</ele><time>2026-05-02T08:33:24.412Z</time></trkpt><trkpt lat="44.9536811" lon="9.2479125"><ele>352.4</ele><time>2026-05-02T08:33:26.422Z</time></trkpt><trkpt lat="44.9536674" lon="9.2480569"><ele>348.0</ele><time>2026-05-02T08:33:28.422Z</time></trkpt><trkpt lat="44.9536694" lon="9.2482032"><ele>345.8333333333333</ele><time>2026-05-02T08:33:30.422Z</time></trkpt><trkpt lat="44.9537283" lon="9.248302"><ele>343.6666666666667</ele><time>2026-05-02T08:33:32.423Z</time></trkpt><trkpt lat="44.9538186" lon="9.2482892"><ele>341.5</ele><time>2026-05-02T08:33:34.418Z</time></trkpt><trkpt lat="44.953891" lon="9.248279"><ele>339.33333333333337</ele><time>2026-05-02T08:33:36.421Z</time></trkpt><trkpt lat="44.9539553" lon="9.2482372"><ele>337.1666666666667</ele><time>2026-05-02T08:33:38.421Z</time></trkpt><trkpt lat="44.9540295" lon="9.2482101"><ele>335.0</ele><time>2026-05-02T08:33:41.412Z</time></trkpt><trkpt lat="44.954115" lon="9.2481871"><ele>334.99999999999994</ele><time>2026-05-02T08:33:45.421Z</time></trkpt><trkpt lat="44.9541739" lon="9.24815"><ele>335.0</ele><time>2026-05-02T08:33:47.413Z</time></trkpt><trkpt lat="44.954233" lon="9.2481082"><ele>335.0</ele><time>2026-05-02T08:33:49.414Z</time></trkpt><trkpt lat="44.954284" lon="9.2480415"><ele>335.0</ele><time>2026-05-02T08:33:51.41Z</time></trkpt><trkpt lat="44.9543278" lon="9.2479439"><ele>335.0</ele><time>2026-05-02T08:33:53.417Z</time></trkpt><trkpt lat="44.9543481" lon="9.2478479"><ele>334.99999999999994</ele><time>2026-05-02T08:33:55.418Z</time></trkpt><trkpt lat="44.954357" lon="9.2477431"><ele>335.0</ele><time>2026-05-02T08:33:57.411Z</time></trkpt><trkpt lat="44.9543654" lon="9.2476348"><ele>335.0</ele><time>2026-05-02T08:33:59.411Z</time></trkpt><trkpt lat="44.9543487" lon="9.2475311"><ele>335.0</ele><time>2026-05-02T08:34:01.42Z</time></trkpt><trkpt lat="44.9543498" lon="9.2474232"><ele>335.0</ele><time>2026-05-02T08:34:03.42Z</time></trkpt><trkpt lat="44.9543687" lon="9.2473183"><ele>335.0</ele><time>2026-05-02T08:34:05.417Z</time></trkpt><trkpt lat="44.9544308" lon="9.2472164"><ele>335.0</ele><time>2026-05-02T08:34:08.42Z</time></trkpt><trkpt lat="44.9545091" lon="9.2471749"><ele>335.0</ele><time>2026-05-02T08:34:11.414Z</time></trkpt><trkpt lat="44.9545754" lon="9.2471664"><ele>334.33333333333337</ele><time>2026-05-02T08:34:13.482Z</time></trkpt><trkpt lat="44.95465" lon="9.247141"><ele>333.6666666666667</ele><time>2026-05-02T08:34:15.412Z</time></trkpt><trkpt lat="44.9547259" lon="9.2471131"><ele>333.0</ele><time>2026-05-02T08:34:17.416Z</time></trkpt><trkpt lat="44.954803" lon="9.2470934"><ele>332.3333333333333</ele><time>2026-05-02T08:34:19.416Z</time></trkpt><trkpt lat="44.9548775" lon="9.2470852"><ele>331.66666666666663</ele><time>2026-05-02T08:34:21.415Z</time></trkpt><trkpt lat="44.9549567" lon="9.247086"><ele>331.0</ele><time>2026-05-02T08:34:23.416Z</time></trkpt><trkpt lat="44.9550536" lon="9.2470828"><ele>331.0</ele><time>2026-05-02T08:34:25.418Z</time></trkpt><trkpt lat="44.9551374" lon="9.2470816"><ele>331.0</ele><time>2026-05-02T08:34:27.415Z</time></trkpt><trkpt lat="44.9552144" lon="9.2470734"><ele>331.0</ele><time>2026-05-02T08:34:29.417Z</time></trkpt><trkpt lat="44.95528" lon="9.2470597"><ele>331.0</ele><time>2026-05-02T08:34:31.425Z</time></trkpt><trkpt lat="44.9553647" lon="9.2470076"><ele>331.0</ele><time>2026-05-02T08:34:34.42Z</time></trkpt><trkpt lat="44.9554198" lon="9.2469525"><ele>331.0</ele><time>2026-05-02T08:34:36.423Z</time></trkpt><trkpt lat="44.9554536" lon="9.2468635"><ele>331.0</ele><time>2026-05-02T08:34:38.42Z</time></trkpt><trkpt lat="44.9554773" lon="9.2467461"><ele>331.0</ele><time>2026-05-02T08:34:40.497Z</time></trkpt><trkpt lat="44.9555016" lon="9.2466199"><ele>331.0</ele><time>2026-05-02T08:34:42.421Z</time></trkpt><trkpt lat="44.9555187" lon="9.2464917"><ele>331.0</ele><time>2026-05-02T08:34:44.411Z</time></trkpt><trkpt lat="44.9555296" lon="9.2464008"><ele>331.0</ele><time>2026-05-02T08:34:46.416Z</time></trkpt><trkpt lat="44.9555496" lon="9.2463044"><ele>331.0</ele><time>2026-05-02T08:34:49.418Z</time></trkpt><trkpt lat="44.9555617" lon="9.2461884"><ele>332.5</ele><time>2026-05-02T08:34:52.508Z</time></trkpt><trkpt lat="44.9555774" lon="9.246079"><ele>334.0</ele><time>2026-05-02T08:34:55.418Z</time></trkpt><trkpt lat="44.9556265" lon="9.2459647"><ele>335.5</ele><time>2026-05-02T08:34:58.423Z</time></trkpt><trkpt lat="44.9556559" lon="9.2458532"><ele>337.0</ele><time>2026-05-02T08:35:00.418Z</time></trkpt><trkpt lat="44.9556966" lon="9.2457702"><ele>338.5</ele><time>2026-05-02T08:35:02.426Z</time></trkpt><trkpt lat="44.9557464" lon="9.24567"><ele>340.0</ele><time>2026-05-02T08:35:04.408Z</time></trkpt><trkpt lat="44.9557808" lon="9.2455558"><ele>338.2857142857143</ele><time>2026-05-02T08:35:06.407Z</time></trkpt><trkpt lat="44.9558106" lon="9.2454757"><ele>336.57142857142856</ele><time>2026-05-02T08:35:08.417Z</time></trkpt><trkpt lat="44.9558749" lon="9.2453772"><ele>334.85714285714283</ele><time>2026-05-02T08:35:11.41Z</time></trkpt><trkpt lat="44.9559275" lon="9.2452887"><ele>333.1428571428571</ele><time>2026-05-02T08:35:14.419Z</time></trkpt><trkpt lat="44.9559731" lon="9.2452188"><ele>331.42857142857144</ele><time>2026-05-02T08:35:16.475Z</time></trkpt><trkpt lat="44.956027" lon="9.2451508"><ele>329.71428571428567</ele><time>2026-05-02T08:35:18.481Z</time></trkpt><trkpt lat="44.9560759" lon="9.2450851"><ele>328.0</ele><time>2026-05-02T08:35:20.411Z</time></trkpt><trkpt lat="44.9561222" lon="9.2450106"><ele>328.0</ele><time>2026-05-02T08:35:22.419Z</time></trkpt><trkpt lat="44.9561878" lon="9.2449302"><ele>328.0</ele><time>2026-05-02T08:35:24.418Z</time></trkpt><trkpt lat="44.9562515" lon="9.2448514"><ele>328.0</ele><time>2026-05-02T08:35:26.418Z</time></trkpt><trkpt lat="44.9563015" lon="9.2447779"><ele>328.0</ele><time>2026-05-02T08:35:28.415Z</time></trkpt><trkpt lat="44.9563476" lon="9.2447007"><ele>328.0</ele><time>2026-05-02T08:35:30.413Z</time></trkpt><trkpt lat="44.9563917" lon="9.2446176"><ele>328.0</ele><time>2026-05-02T08:35:32.416Z</time></trkpt><trkpt lat="44.956437" lon="9.2445407"><ele>328.1428571428571</ele><time>2026-05-02T08:35:34.408Z</time></trkpt><trkpt lat="44.9564821" lon="9.2444669"><ele>328.2857142857143</ele><time>2026-05-02T08:35:36.407Z</time></trkpt><trkpt lat="44.9565257" lon="9.2443842"><ele>328.42857142857144</ele><time>2026-05-02T08:35:38.423Z</time></trkpt><trkpt lat="44.9565616" lon="9.2442949"><ele>328.57142857142856</ele><time>2026-05-02T08:35:40.424Z</time></trkpt><trkpt lat="44.9566086" lon="9.2442241"><ele>328.7142857142857</ele><time>2026-05-02T08:35:42.422Z</time></trkpt><trkpt lat="44.9566549" lon="9.2441534"><ele>328.85714285714283</ele><time>2026-05-02T08:35:44.409Z</time></trkpt><trkpt lat="44.9567044" lon="9.2440782"><ele>329.0</ele><time>2026-05-02T08:35:46.411Z</time></trkpt><trkpt lat="44.9567521" lon="9.2440038"><ele>330.0</ele><time>2026-05-02T08:35:48.419Z</time></trkpt><trkpt lat="44.9568056" lon="9.2439366"><ele>331.0</ele><time>2026-05-02T08:35:50.419Z</time></trkpt><trkpt lat="44.9568598" lon="9.2438632"><ele>332.0</ele><time>2026-05-02T08:35:52.414Z</time></trkpt><trkpt lat="44.9569158" lon="9.243798"><ele>333.0</ele><time>2026-05-02T08:35:54.411Z</time></trkpt><trkpt lat="44.956973" lon="9.2437263"><ele>334.0</ele><time>2026-05-02T08:35:56.415Z</time></trkpt><trkpt lat="44.957029" lon="9.2436543"><ele>335.0</ele><time>2026-05-02T08:35:58.424Z</time></trkpt><trkpt lat="44.9570775" lon="9.2435857"><ele>336.0</ele><time>2026-05-02T08:36:00.426Z</time></trkpt><trkpt lat="44.9571403" lon="9.2435103"><ele>336.0</ele><time>2026-05-02T08:36:02.418Z</time></trkpt><trkpt lat="44.9571946" lon="9.2434317"><ele>336.0</ele><time>2026-05-02T08:36:04.414Z</time></trkpt><trkpt lat="44.9572521" lon="9.2433639"><ele>336.0</ele><time>2026-05-02T08:36:06.421Z</time></trkpt><trkpt lat="44.9573191" lon="9.243297"><ele>336.0</ele><time>2026-05-02T08:36:08.422Z</time></trkpt><trkpt lat="44.9573956" lon="9.2432384"><ele>336.0</ele><time>2026-05-02T08:36:10.428Z</time></trkpt><trkpt lat="44.9574654" lon="9.2431759"><ele>336.0</ele><time>2026-05-02T08:36:12.421Z</time></trkpt><trkpt lat="44.9575477" lon="9.2431305"><ele>337.4</ele><time>2026-05-02T08:36:14.419Z</time></trkpt><trkpt lat="44.9576382" lon="9.2430874"><ele>338.8</ele><time>2026-05-02T08:36:16.408Z</time></trkpt><trkpt lat="44.9577358" lon="9.2430506"><ele>340.2</ele><time>2026-05-02T08:36:18.42Z</time></trkpt><trkpt lat="44.9578307" lon="9.2430148"><ele>341.59999999999997</ele><time>2026-05-02T08:36:20.417Z</time></trkpt><trkpt lat="44.9579244" lon="9.2429501"><ele>343.0</ele><time>2026-05-02T08:36:22.423Z</time></trkpt><trkpt lat="44.9580083" lon="9.2428833"><ele>343.0</ele><time>2026-05-02T08:36:24.41Z</time></trkpt><trkpt lat="44.9580977" lon="9.2428074"><ele>343.0</ele><time>2026-05-02T08:36:26.422Z</time></trkpt><trkpt lat="44.9581945" lon="9.2427339"><ele>343.0</ele><time>2026-05-02T08:36:28.422Z</time></trkpt><trkpt lat="44.9583034" lon="9.2426678"><ele>343.0</ele><time>2026-05-02T08:36:30.42Z</time></trkpt><trkpt lat="44.9584175" lon="9.2426081"><ele>340.2857142857143</ele><time>2026-05-02T08:36:32.416Z</time></trkpt><trkpt lat="44.9584789" lon="9.2425685"><ele>337.57142857142856</ele><time>2026-05-02T08:36:33.415Z</time></trkpt><trkpt lat="44.9585466" lon="9.2425324"><ele>334.8571428571429</ele><time>2026-05-02T08:36:34.405Z</time></trkpt><trkpt lat="44.9586081" lon="9.2424966"><ele>332.1428571428571</ele><time>2026-05-02T08:36:35.418Z</time></trkpt><trkpt lat="44.9586688" lon="9.2424617"><ele>329.42857142857144</ele><time>2026-05-02T08:36:36.41Z</time></trkpt><trkpt lat="44.9587377" lon="9.242421"><ele>326.7142857142857</ele><time>2026-05-02T08:36:37.409Z</time></trkpt><trkpt lat="44.9587974" lon="9.2423759"><ele>324.0</ele><time>2026-05-02T08:36:38.42Z</time></trkpt><trkpt lat="44.958858" lon="9.2423359"><ele>323.4</ele><time>2026-05-02T08:36:39.419Z</time></trkpt><trkpt lat="44.958918" lon="9.2422913"><ele>322.79999999999995</ele><time>2026-05-02T08:36:40.412Z</time></trkpt><trkpt lat="44.959023" lon="9.242199"><ele>322.20000000000005</ele><time>2026-05-02T08:36:42.419Z</time></trkpt><trkpt lat="44.959113" lon="9.2420888"><ele>321.6</ele><time>2026-05-02T08:36:44.418Z</time></trkpt><trkpt lat="44.9592007" lon="9.2419564"><ele>321.0</ele><time>2026-05-02T08:36:46.417Z</time></trkpt><trkpt lat="44.9592734" lon="9.2418216"><ele>321.0</ele><time>2026-05-02T08:36:48.414Z</time></trkpt><trkpt lat="44.9593426" lon="9.2416945"><ele>321.0</ele><time>2026-05-02T08:36:50.412Z</time></trkpt><trkpt lat="44.9594118" lon="9.2415781"><ele>321.0</ele><time>2026-05-02T08:36:52.415Z</time></trkpt><trkpt lat="44.9594782" lon="9.2414748"><ele>321.0</ele><time>2026-05-02T08:36:54.417Z</time></trkpt><trkpt lat="44.9595512" lon="9.2413668"><ele>321.0</ele><time>2026-05-02T08:36:56.41Z</time></trkpt><trkpt lat="44.9596303" lon="9.2412948"><ele>323.6</ele><time>2026-05-02T08:36:58.413Z</time></trkpt><trkpt lat="44.9597234" lon="9.2412238"><ele>326.20000000000005</ele><time>2026-05-02T08:37:00.415Z</time></trkpt><trkpt lat="44.9598134" lon="9.2411594"><ele>328.79999999999995</ele><time>2026-05-02T08:37:02.409Z</time></trkpt><trkpt lat="44.9598949" lon="9.2411052"><ele>331.4</ele><time>2026-05-02T08:37:04.415Z</time></trkpt><trkpt lat="44.9599634" lon="9.2410633"><ele>334.0</ele><time>2026-05-02T08:37:06.414Z</time></trkpt><trkpt lat="44.9600327" lon="9.2410099"><ele>333.42857142857144</ele><time>2026-05-02T08:37:08.417Z</time></trkpt><trkpt lat="44.9601049" lon="9.2409736"><ele>332.8571428571429</ele><time>2026-05-02T08:37:10.42Z</time></trkpt><trkpt lat="44.9601762" lon="9.2409505"><ele>332.28571428571433</ele><time>2026-05-02T08:37:12.415Z</time></trkpt><trkpt lat="44.9602577" lon="9.2409296"><ele>331.7142857142857</ele><time>2026-05-02T08:37:14.415Z</time></trkpt><trkpt lat="44.9603303" lon="9.2409216"><ele>331.14285714285717</ele><time>2026-05-02T08:37:16.419Z</time></trkpt><trkpt lat="44.9604016" lon="9.2409144"><ele>330.5714285714286</ele><time>2026-05-02T08:37:18.422Z</time></trkpt><trkpt lat="44.9604684" lon="9.2409233"><ele>330.0</ele><time>2026-05-02T08:37:20.498Z</time></trkpt><trkpt lat="44.9605349" lon="9.2409468"><ele>330.0</ele><time>2026-05-02T08:37:22.483Z</time></trkpt><trkpt lat="44.960611" lon="9.2409728"><ele>330.0</ele><time>2026-05-02T08:37:24.417Z</time></trkpt><trkpt lat="44.9607014" lon="9.240995"><ele>330.0</ele><time>2026-05-02T08:37:26.416Z</time></trkpt><trkpt lat="44.960773" lon="9.2410409"><ele>330.0</ele><time>2026-05-02T08:37:28.42Z</time></trkpt><trkpt lat="44.9608454" lon="9.2410994"><ele>330.0</ele><time>2026-05-02T08:37:30.416Z</time></trkpt><trkpt lat="44.9609236" lon="9.2411806"><ele>330.0</ele><time>2026-05-02T08:37:32.418Z</time></trkpt><trkpt lat="44.9610212" lon="9.2412553"><ele>331.2</ele><time>2026-05-02T08:37:34.41Z</time></trkpt><trkpt lat="44.9611164" lon="9.241322"><ele>332.4</ele><time>2026-05-02T08:37:36.413Z</time></trkpt><trkpt lat="44.9612105" lon="9.2413567"><ele>333.6</ele><time>2026-05-02T08:37:38.413Z</time></trkpt><trkpt lat="44.9613097" lon="9.2414059"><ele>334.8</ele><time>2026-05-02T08:37:40.419Z</time></trkpt><trkpt lat="44.9614028" lon="9.2414936"><ele>336.0</ele><time>2026-05-02T08:37:42.411Z</time></trkpt><trkpt lat="44.961456" lon="9.2416128"><ele>333.0</ele><time>2026-05-02T08:37:44.416Z</time></trkpt><trkpt lat="44.9615124" lon="9.2417584"><ele>330.0</ele><time>2026-05-02T08:37:46.409Z</time></trkpt><trkpt lat="44.9615498" lon="9.2419104"><ele>327.0</ele><time>2026-05-02T08:37:48.412Z</time></trkpt><trkpt lat="44.9615781" lon="9.2420665"><ele>324.0</ele><time>2026-05-02T08:37:50.416Z</time></trkpt><trkpt lat="44.9616009" lon="9.2422232"><ele>323.2</ele><time>2026-05-02T08:37:52.415Z</time></trkpt><trkpt lat="44.9616207" lon="9.242367"><ele>322.4</ele><time>2026-05-02T08:37:54.421Z</time></trkpt><trkpt lat="44.9616481" lon="9.2425235"><ele>321.6</ele><time>2026-05-02T08:37:56.416Z</time></trkpt><trkpt lat="44.961698" lon="9.2426647"><ele>320.8</ele><time>2026-05-02T08:37:58.493Z</time></trkpt><trkpt lat="44.9617946" lon="9.2427431"><ele>320.0</ele><time>2026-05-02T08:38:00.407Z</time></trkpt><trkpt lat="44.9619185" lon="9.2427657"><ele>320.0</ele><time>2026-05-02T08:38:02.418Z</time></trkpt><trkpt lat="44.9619871" lon="9.2427599"><ele>320.0</ele><time>2026-05-02T08:38:03.412Z</time></trkpt><trkpt lat="44.9620683" lon="9.2427456"><ele>320.0</ele><time>2026-05-02T08:38:04.419Z</time></trkpt><trkpt lat="44.9621907" lon="9.242781"><ele>320.0</ele><time>2026-05-02T08:38:06.417Z</time></trkpt><trkpt lat="44.9622513" lon="9.2428219"><ele>320.0</ele><time>2026-05-02T08:38:07.409Z</time></trkpt><trkpt lat="44.9623031" lon="9.2428804"><ele>320.0</ele><time>2026-05-02T08:38:08.422Z</time></trkpt><trkpt lat="44.9623855" lon="9.2429985"><ele>320.0</ele><time>2026-05-02T08:38:10.413Z</time></trkpt><trkpt lat="44.9624334" lon="9.2431273"><ele>320.0</ele><time>2026-05-02T08:38:12.415Z</time></trkpt><trkpt lat="44.9624611" lon="9.2432827"><ele>320.0</ele><time>2026-05-02T08:38:14.427Z</time></trkpt><trkpt lat="44.962475" lon="9.2433778"><ele>320.0</ele><time>2026-05-02T08:38:15.425Z</time></trkpt><trkpt lat="44.9624883" lon="9.2434768"><ele>320.0</ele><time>2026-05-02T08:38:16.414Z</time></trkpt><trkpt lat="44.9625044" lon="9.243583"><ele>320.0</ele><time>2026-05-02T08:38:17.421Z</time></trkpt><trkpt lat="44.9625208" lon="9.2436881"><ele>319.83333333333337</ele><time>2026-05-02T08:38:18.413Z</time></trkpt><trkpt lat="44.9625442" lon="9.2438081"><ele>319.6666666666667</ele><time>2026-05-02T08:38:19.429Z</time></trkpt><trkpt lat="44.9625615" lon="9.2439236"><ele>319.5</ele><time>2026-05-02T08:38:20.408Z</time></trkpt><trkpt lat="44.962578" lon="9.24404"><ele>319.3333333333333</ele><time>2026-05-02T08:38:21.411Z</time></trkpt><trkpt lat="44.9625922" lon="9.2441605"><ele>319.16666666666663</ele><time>2026-05-02T08:38:22.415Z</time></trkpt><trkpt lat="44.9626043" lon="9.2442728"><ele>319.0</ele><time>2026-05-02T08:38:23.483Z</time></trkpt><trkpt lat="44.9626268" lon="9.2443815"><ele>316.8333333333333</ele><time>2026-05-02T08:38:24.416Z</time></trkpt><trkpt lat="44.9626634" lon="9.244487"><ele>314.66666666666663</ele><time>2026-05-02T08:38:25.411Z</time></trkpt><trkpt lat="44.9627094" lon="9.2445873"><ele>312.5</ele><time>2026-05-02T08:38:26.416Z</time></trkpt><trkpt lat="44.9627582" lon="9.2446846"><ele>310.3333333333333</ele><time>2026-05-02T08:38:27.417Z</time></trkpt><trkpt lat="44.9628092" lon="9.2447808"><ele>308.1666666666667</ele><time>2026-05-02T08:38:28.424Z</time></trkpt><trkpt lat="44.9628689" lon="9.2448736"><ele>306.0</ele><time>2026-05-02T08:38:29.424Z</time></trkpt><trkpt lat="44.9629303" lon="9.2449672"><ele>303.6666666666667</ele><time>2026-05-02T08:38:30.417Z</time></trkpt><trkpt lat="44.9629881" lon="9.245059"><ele>301.3333333333333</ele><time>2026-05-02T08:38:31.427Z</time></trkpt><trkpt lat="44.9630445" lon="9.2451447"><ele>299.0</ele><time>2026-05-02T08:38:32.413Z</time></trkpt><trkpt lat="44.963092" lon="9.2452235"><ele>296.66666666666663</ele><time>2026-05-02T08:38:33.409Z</time></trkpt><trkpt lat="44.9631443" lon="9.2452734"><ele>294.3333333333333</ele><time>2026-05-02T08:38:34.413Z</time></trkpt><trkpt lat="44.9632653" lon="9.2453046"><ele>292.0</ele><time>2026-05-02T08:38:36.42Z</time></trkpt><trkpt lat="44.9633286" lon="9.2452861"><ele>292.16666666666663</ele><time>2026-05-02T08:38:37.411Z</time></trkpt><trkpt lat="44.9633881" lon="9.2452485"><ele>292.3333333333333</ele><time>2026-05-02T08:38:38.41Z</time></trkpt><trkpt lat="44.9635039" lon="9.245168"><ele>292.5</ele><time>2026-05-02T08:38:40.419Z</time></trkpt><trkpt lat="44.9635715" lon="9.2451379"><ele>292.6666666666667</ele><time>2026-05-02T08:38:41.419Z</time></trkpt><trkpt lat="44.9636467" lon="9.2451125"><ele>292.83333333333337</ele><time>2026-05-02T08:38:42.409Z</time></trkpt><trkpt lat="44.9637155" lon="9.2451015"><ele>293.0</ele><time>2026-05-02T08:38:43.415Z</time></trkpt><trkpt lat="44.9637863" lon="9.245089"><ele>293.0</ele><time>2026-05-02T08:38:44.407Z</time></trkpt><trkpt lat="44.9638518" lon="9.2450766"><ele>293.0</ele><time>2026-05-02T08:38:45.432Z</time></trkpt><trkpt lat="44.9639659" lon="9.2450708"><ele>293.0</ele><time>2026-05-02T08:38:47.414Z</time></trkpt><trkpt lat="44.9640713" lon="9.2451065"><ele>293.0</ele><time>2026-05-02T08:38:49.419Z</time></trkpt><trkpt lat="44.9641496" lon="9.2452333"><ele>293.0</ele><time>2026-05-02T08:38:51.417Z</time></trkpt><trkpt lat="44.9641852" lon="9.2453125"><ele>292.57142857142856</ele><time>2026-05-02T08:38:52.421Z</time></trkpt><trkpt lat="44.9642219" lon="9.2453909"><ele>292.1428571428571</ele><time>2026-05-02T08:38:53.412Z</time></trkpt><trkpt lat="44.9642562" lon="9.2454738"><ele>291.7142857142857</ele><time>2026-05-02T08:38:54.423Z</time></trkpt><trkpt lat="44.9642881" lon="9.2455591"><ele>291.2857142857143</ele><time>2026-05-02T08:38:55.419Z</time></trkpt><trkpt lat="44.9643182" lon="9.2456499"><ele>290.8571428571429</ele><time>2026-05-02T08:38:56.416Z</time></trkpt><trkpt lat="44.9643501" lon="9.2457351"><ele>290.42857142857144</ele><time>2026-05-02T08:38:57.407Z</time></trkpt><trkpt lat="44.9643818" lon="9.245823"><ele>290.0</ele><time>2026-05-02T08:38:58.413Z</time></trkpt><trkpt lat="44.9644149" lon="9.2459065"><ele>290.0</ele><time>2026-05-02T08:38:59.415Z</time></trkpt><trkpt lat="44.9644825" lon="9.2460449"><ele>290.0</ele><time>2026-05-02T08:39:01.428Z</time></trkpt><trkpt lat="44.9645782" lon="9.2461584"><ele>290.0</ele><time>2026-05-02T08:39:03.42Z</time></trkpt><trkpt lat="44.9646334" lon="9.2462142"><ele>290.0</ele><time>2026-05-02T08:39:04.417Z</time></trkpt><trkpt lat="44.9647287" lon="9.2463055"><ele>290.0</ele><time>2026-05-02T08:39:06.414Z</time></trkpt><trkpt lat="44.9648185" lon="9.2463894"><ele>288.0</ele><time>2026-05-02T08:39:08.408Z</time></trkpt><trkpt lat="44.9648764" lon="9.2464899"><ele>286.0</ele><time>2026-05-02T08:39:10.417Z</time></trkpt><trkpt lat="44.9649171" lon="9.2466193"><ele>284.0</ele><time>2026-05-02T08:39:12.408Z</time></trkpt><trkpt lat="44.9649288" lon="9.2467871"><ele>282.0</ele><time>2026-05-02T08:39:14.415Z</time></trkpt><trkpt lat="44.9649276" lon="9.2468781"><ele>280.0</ele><time>2026-05-02T08:39:15.414Z</time></trkpt><trkpt lat="44.9649408" lon="9.2470441"><ele>280.0</ele><time>2026-05-02T08:39:17.411Z</time></trkpt><trkpt lat="44.9649483" lon="9.2472019"><ele>280.0</ele><time>2026-05-02T08:39:19.415Z</time></trkpt><trkpt lat="44.9649643" lon="9.2473364"><ele>280.0</ele><time>2026-05-02T08:39:21.419Z</time></trkpt><trkpt lat="44.9650058" lon="9.2474583"><ele>280.0</ele><time>2026-05-02T08:39:23.416Z</time></trkpt><trkpt lat="44.9650747" lon="9.2475596"><ele>280.0</ele><time>2026-05-02T08:39:25.485Z</time></trkpt><trkpt lat="44.9651706" lon="9.2476262"><ele>279.8</ele><time>2026-05-02T08:39:27.419Z</time></trkpt><trkpt lat="44.9652928" lon="9.2476578"><ele>279.6</ele><time>2026-05-02T08:39:29.417Z</time></trkpt><trkpt lat="44.9654151" lon="9.2477029"><ele>279.4</ele><time>2026-05-02T08:39:31.418Z</time></trkpt><trkpt lat="44.9654899" lon="9.2477254"><ele>279.2</ele><time>2026-05-02T08:39:32.417Z</time></trkpt><trkpt lat="44.9655614" lon="9.2477488"><ele>279.0</ele><time>2026-05-02T08:39:33.413Z</time></trkpt><trkpt lat="44.9656307" lon="9.2477812"><ele>278.99999999999994</ele><time>2026-05-02T08:39:34.423Z</time></trkpt><trkpt lat="44.9656928" lon="9.2478144"><ele>279.0</ele><time>2026-05-02T08:39:35.416Z</time></trkpt><trkpt lat="44.9657582" lon="9.2478532"><ele>279.0</ele><time>2026-05-02T08:39:36.416Z</time></trkpt><trkpt lat="44.9658177" lon="9.2479028"><ele>279.0</ele><time>2026-05-02T08:39:37.412Z</time></trkpt><trkpt lat="44.9658805" lon="9.2479528"><ele>279.0</ele><time>2026-05-02T08:39:38.415Z</time></trkpt><trkpt lat="44.9659423" lon="9.2479984"><ele>278.99999999999994</ele><time>2026-05-02T08:39:39.413Z</time></trkpt><trkpt lat="44.9660025" lon="9.2480414"><ele>279.0</ele><time>2026-05-02T08:39:40.418Z</time></trkpt><trkpt lat="44.966064" lon="9.2480779"><ele>279.1428571428571</ele><time>2026-05-02T08:39:41.419Z</time></trkpt><trkpt lat="44.9661259" lon="9.2481154"><ele>279.2857142857143</ele><time>2026-05-02T08:39:42.423Z</time></trkpt><trkpt lat="44.9661876" lon="9.2481466"><ele>279.42857142857144</ele><time>2026-05-02T08:39:43.419Z</time></trkpt><trkpt lat="44.966254" lon="9.2481759"><ele>279.57142857142856</ele><time>2026-05-02T08:39:44.417Z</time></trkpt><trkpt lat="44.9663237" lon="9.2482014"><ele>279.7142857142857</ele><time>2026-05-02T08:39:45.418Z</time></trkpt><trkpt lat="44.9663888" lon="9.2482302"><ele>279.85714285714283</ele><time>2026-05-02T08:39:46.411Z</time></trkpt><trkpt lat="44.9664496" lon="9.2482636"><ele>280.0</ele><time>2026-05-02T08:39:47.417Z</time></trkpt><trkpt lat="44.9665145" lon="9.248318"><ele>278.7142857142857</ele><time>2026-05-02T08:39:48.415Z</time></trkpt><trkpt lat="44.9665751" lon="9.2483713"><ele>277.42857142857144</ele><time>2026-05-02T08:39:49.421Z</time></trkpt><trkpt lat="44.9666427" lon="9.2484212"><ele>276.1428571428571</ele><time>2026-05-02T08:39:50.421Z</time></trkpt><trkpt lat="44.9667126" lon="9.2484653"><ele>274.8571428571429</ele><time>2026-05-02T08:39:51.412Z</time></trkpt><trkpt lat="44.966773" lon="9.2485166"><ele>273.57142857142856</ele><time>2026-05-02T08:39:52.415Z</time></trkpt><trkpt lat="44.9668359" lon="9.2485495"><ele>272.2857142857143</ele><time>2026-05-02T08:39:53.417Z</time></trkpt><trkpt lat="44.9669005" lon="9.2485746"><ele>271.0</ele><time>2026-05-02T08:39:54.415Z</time></trkpt><trkpt lat="44.9670235" lon="9.248568"><ele>271.0</ele><time>2026-05-02T08:39:56.409Z</time></trkpt><trkpt lat="44.9670866" lon="9.2485513"><ele>271.0</ele><time>2026-05-02T08:39:57.414Z</time></trkpt><trkpt lat="44.9671553" lon="9.2485424"><ele>271.0</ele><time>2026-05-02T08:39:58.41Z</time></trkpt><trkpt lat="44.9672747" lon="9.2485482"><ele>271.0</ele><time>2026-05-02T08:40:00.414Z</time></trkpt><trkpt lat="44.9673363" lon="9.2485838"><ele>271.0</ele><time>2026-05-02T08:40:01.413Z</time></trkpt><trkpt lat="44.9673914" lon="9.2486387"><ele>271.0</ele><time>2026-05-02T08:40:02.428Z</time></trkpt><trkpt lat="44.9674407" lon="9.2487036"><ele>271.0</ele><time>2026-05-02T08:40:03.41Z</time></trkpt><trkpt lat="44.967472" lon="9.2487847"><ele>271.0</ele><time>2026-05-02T08:40:04.503Z</time></trkpt><trkpt lat="44.9674999" lon="9.2488718"><ele>271.0</ele><time>2026-05-02T08:40:05.416Z</time></trkpt><trkpt lat="44.9675224" lon="9.2489628"><ele>271.0</ele><time>2026-05-02T08:40:06.417Z</time></trkpt><trkpt lat="44.9675373" lon="9.2490549"><ele>271.0</ele><time>2026-05-02T08:40:07.407Z</time></trkpt><trkpt lat="44.9675553" lon="9.2491439"><ele>271.0</ele><time>2026-05-02T08:40:08.407Z</time></trkpt><trkpt lat="44.9675819" lon="9.2493122"><ele>271.0</ele><time>2026-05-02T08:40:10.418Z</time></trkpt><trkpt lat="44.967614" lon="9.2494711"><ele>271.0</ele><time>2026-05-02T08:40:12.414Z</time></trkpt><trkpt lat="44.9676452" lon="9.2496206"><ele>271.0</ele><time>2026-05-02T08:40:14.413Z</time></trkpt><trkpt lat="44.9676858" lon="9.2497692"><ele>271.0</ele><time>2026-05-02T08:40:16.425Z</time></trkpt><trkpt lat="44.9677235" lon="9.2499251"><ele>269.0</ele><time>2026-05-02T08:40:18.501Z</time></trkpt><trkpt lat="44.9677623" lon="9.2500711"><ele>267.0</ele><time>2026-05-02T08:40:20.413Z</time></trkpt><trkpt lat="44.9678113" lon="9.2501955"><ele>265.0</ele><time>2026-05-02T08:40:22.414Z</time></trkpt><trkpt lat="44.9678783" lon="9.2503171"><ele>263.0</ele><time>2026-05-02T08:40:24.416Z</time></trkpt><trkpt lat="44.9679191" lon="9.2503864"><ele>261.0</ele><time>2026-05-02T08:40:25.416Z</time></trkpt><trkpt lat="44.9679556" lon="9.2504619"><ele>259.0</ele><time>2026-05-02T08:40:26.42Z</time></trkpt><trkpt lat="44.967998" lon="9.2505458"><ele>257.5</ele><time>2026-05-02T08:40:27.413Z</time></trkpt><trkpt lat="44.9680455" lon="9.2506255"><ele>256.0</ele><time>2026-05-02T08:40:28.429Z</time></trkpt><trkpt lat="44.9680888" lon="9.2506975"><ele>254.5</ele><time>2026-05-02T08:40:29.404Z</time></trkpt><trkpt lat="44.9681302" lon="9.2507707"><ele>253.0</ele><time>2026-05-02T08:40:30.406Z</time></trkpt><trkpt lat="44.9682202" lon="9.2508553"><ele>251.49999999999997</ele><time>2026-05-02T08:40:32.416Z</time></trkpt><trkpt lat="44.9683189" lon="9.25082"><ele>250.0</ele><time>2026-05-02T08:40:34.413Z</time></trkpt><trkpt lat="44.968375" lon="9.2507035"><ele>250.0</ele><time>2026-05-02T08:40:36.405Z</time></trkpt><trkpt lat="44.9684376" lon="9.2505678"><ele>250.0</ele><time>2026-05-02T08:40:38.416Z</time></trkpt><trkpt lat="44.9685115" lon="9.2504298"><ele>250.0</ele><time>2026-05-02T08:40:40.414Z</time></trkpt><trkpt lat="44.9685782" lon="9.2502827"><ele>250.0</ele><time>2026-05-02T08:40:42.41Z</time></trkpt><trkpt lat="44.9686261" lon="9.2502161"><ele>250.0</ele><time>2026-05-02T08:40:43.412Z</time></trkpt><trkpt lat="44.9686802" lon="9.2501688"><ele>249.99999999999997</ele><time>2026-05-02T08:40:44.418Z</time></trkpt><trkpt lat="44.9687969" lon="9.250137"><ele>250.0</ele><time>2026-05-02T08:40:46.411Z</time></trkpt><trkpt lat="44.9688628" lon="9.2501703"><ele>250.0</ele><time>2026-05-02T08:40:47.419Z</time></trkpt><trkpt lat="44.968921" lon="9.2502211"><ele>250.0</ele><time>2026-05-02T08:40:48.413Z</time></trkpt><trkpt lat="44.9689746" lon="9.250283"><ele>249.99999999999997</ele><time>2026-05-02T08:40:49.423Z</time></trkpt><trkpt lat="44.9690177" lon="9.2503668"><ele>250.0</ele><time>2026-05-02T08:40:50.413Z</time></trkpt><trkpt lat="44.9690492" lon="9.2504645"><ele>250.0</ele><time>2026-05-02T08:40:51.413Z</time></trkpt><trkpt lat="44.969067" lon="9.2505663"><ele>250.0</ele><time>2026-05-02T08:40:52.407Z</time></trkpt><trkpt lat="44.969083" lon="9.250665"><ele>250.0</ele><time>2026-05-02T08:40:53.411Z</time></trkpt><trkpt lat="44.969112" lon="9.2507556"><ele>250.0</ele><time>2026-05-02T08:40:54.425Z</time></trkpt><trkpt lat="44.9691507" lon="9.2508293"><ele>250.0</ele><time>2026-05-02T08:40:55.417Z</time></trkpt><trkpt lat="44.9692009" lon="9.2509045"><ele>250.0</ele><time>2026-05-02T08:40:56.412Z</time></trkpt><trkpt lat="44.969254" lon="9.250961"><ele>250.0</ele><time>2026-05-02T08:40:57.41Z</time></trkpt><trkpt lat="44.9693812" lon="9.250982"><ele>248.14285714285714</ele><time>2026-05-02T08:40:59.408Z</time></trkpt><trkpt lat="44.9694487" lon="9.250959"><ele>246.28571428571428</ele><time>2026-05-02T08:41:00.419Z</time></trkpt><trkpt lat="44.9695111" lon="9.2509173"><ele>244.42857142857142</ele><time>2026-05-02T08:41:01.415Z</time></trkpt><trkpt lat="44.9695707" lon="9.2508784"><ele>242.57142857142856</ele><time>2026-05-02T08:41:02.42Z</time></trkpt><trkpt lat="44.9696309" lon="9.2508284"><ele>240.71428571428572</ele><time>2026-05-02T08:41:03.411Z</time></trkpt><trkpt lat="44.9696891" lon="9.2507815"><ele>238.85714285714283</ele><time>2026-05-02T08:41:04.41Z</time></trkpt><trkpt lat="44.9697929" lon="9.2507371"><ele>236.99999999999997</ele><time>2026-05-02T08:41:06.409Z</time></trkpt><trkpt lat="44.9698827" lon="9.2507608"><ele>237.0</ele><time>2026-05-02T08:41:08.417Z</time></trkpt><trkpt lat="44.9699431" lon="9.2508406"><ele>237.0</ele><time>2026-05-02T08:41:10.412Z</time></trkpt><trkpt lat="44.9699381" lon="9.2509687"><ele>237.0</ele><time>2026-05-02T08:41:12.409Z</time></trkpt><trkpt lat="44.9698693" lon="9.2510862"><ele>237.0</ele><time>2026-05-02T08:41:14.417Z</time></trkpt><trkpt lat="44.9698029" lon="9.2511881"><ele>237.0</ele><time>2026-05-02T08:41:16.42Z</time></trkpt><trkpt lat="44.969721" lon="9.2512998"><ele>237.0</ele><time>2026-05-02T08:41:18.419Z</time></trkpt><trkpt lat="44.9696288" lon="9.2514037"><ele>237.0</ele><time>2026-05-02T08:41:20.419Z</time></trkpt><trkpt lat="44.9695767" lon="9.2514548"><ele>237.0</ele><time>2026-05-02T08:41:21.419Z</time></trkpt><trkpt lat="44.9695189" lon="9.2515063"><ele>237.0</ele><time>2026-05-02T08:41:22.407Z</time></trkpt><trkpt lat="44.969461" lon="9.251554"><ele>237.0</ele><time>2026-05-02T08:41:23.412Z</time></trkpt><trkpt lat="44.9693962" lon="9.2515977"><ele>237.0</ele><time>2026-05-02T08:41:24.417Z</time></trkpt><trkpt lat="44.9693286" lon="9.2516446"><ele>236.33333333333334</ele><time>2026-05-02T08:41:25.417Z</time></trkpt><trkpt lat="44.969261" lon="9.2517006"><ele>235.66666666666669</ele><time>2026-05-02T08:41:26.412Z</time></trkpt><trkpt lat="44.9691942" lon="9.251757"><ele>235.0</ele><time>2026-05-02T08:41:27.414Z</time></trkpt><trkpt lat="44.9691287" lon="9.2518125"><ele>234.33333333333334</ele><time>2026-05-02T08:41:28.419Z</time></trkpt><trkpt lat="44.9690636" lon="9.2518602"><ele>233.66666666666669</ele><time>2026-05-02T08:41:29.416Z</time></trkpt><trkpt lat="44.9689975" lon="9.2519144"><ele>233.0</ele><time>2026-05-02T08:41:30.415Z</time></trkpt><trkpt lat="44.9689259" lon="9.2519675"><ele>233.00000000000003</ele><time>2026-05-02T08:41:31.411Z</time></trkpt><trkpt lat="44.9688557" lon="9.2520207"><ele>233.0</ele><time>2026-05-02T08:41:32.411Z</time></trkpt><trkpt lat="44.9687856" lon="9.2520795"><ele>233.0</ele><time>2026-05-02T08:41:33.412Z</time></trkpt><trkpt lat="44.9687138" lon="9.2521322"><ele>233.0</ele><time>2026-05-02T08:41:34.417Z</time></trkpt><trkpt lat="44.9686454" lon="9.2521837"><ele>233.00000000000003</ele><time>2026-05-02T08:41:35.408Z</time></trkpt><trkpt lat="44.9685701" lon="9.2522245"><ele>233.0</ele><time>2026-05-02T08:41:36.414Z</time></trkpt><trkpt lat="44.968498" lon="9.2522585"><ele>231.83333333333334</ele><time>2026-05-02T08:41:37.415Z</time></trkpt><trkpt lat="44.968425" lon="9.2522943"><ele>230.66666666666669</ele><time>2026-05-02T08:41:38.414Z</time></trkpt><trkpt lat="44.9683485" lon="9.2523251"><ele>229.5</ele><time>2026-05-02T08:41:39.409Z</time></trkpt><trkpt lat="44.9682795" lon="9.2523376"><ele>228.33333333333331</ele><time>2026-05-02T08:41:40.416Z</time></trkpt><trkpt lat="44.968215" lon="9.2523564"><ele>227.16666666666666</ele><time>2026-05-02T08:41:41.408Z</time></trkpt><trkpt lat="44.9681503" lon="9.2523714"><ele>226.0</ele><time>2026-05-02T08:41:42.409Z</time></trkpt><trkpt lat="44.9680359" lon="9.2524198"><ele>226.0</ele><time>2026-05-02T08:41:44.417Z</time></trkpt><trkpt lat="44.9679836" lon="9.2524813"><ele>226.00000000000003</ele><time>2026-05-02T08:41:45.413Z</time></trkpt><trkpt lat="44.9679162" lon="9.2526304"><ele>226.00000000000003</ele><time>2026-05-02T08:41:47.41Z</time></trkpt><trkpt lat="44.9679022" lon="9.2528128"><ele>226.0</ele><time>2026-05-02T08:41:49.48Z</time></trkpt><trkpt lat="44.9679183" lon="9.2529039"><ele>226.0</ele><time>2026-05-02T08:41:50.411Z</time></trkpt><trkpt lat="44.9679556" lon="9.2529788"><ele>226.0</ele><time>2026-05-02T08:41:51.419Z</time></trkpt><trkpt lat="44.9680251" lon="9.2530906"><ele>226.00000000000003</ele><time>2026-05-02T08:41:53.421Z</time></trkpt><trkpt lat="44.9681015" lon="9.2531872"><ele>226.00000000000003</ele><time>2026-05-02T08:41:55.406Z</time></trkpt><trkpt lat="44.9681812" lon="9.2532805"><ele>226.0</ele><time>2026-05-02T08:41:57.406Z</time></trkpt><trkpt lat="44.968239" lon="9.2533714"><ele>226.0</ele><time>2026-05-02T08:41:59.411Z</time></trkpt><trkpt lat="44.9683024" lon="9.2534417"><ele>225.33333333333331</ele><time>2026-05-02T08:42:01.411Z</time></trkpt><trkpt lat="44.9683926" lon="9.2535016"><ele>224.66666666666666</ele><time>2026-05-02T08:42:03.411Z</time></trkpt><trkpt lat="44.9684606" lon="9.2535648"><ele>224.0</ele><time>2026-05-02T08:42:05.415Z</time></trkpt><trkpt lat="44.9685386" lon="9.2536169"><ele>223.33333333333331</ele><time>2026-05-02T08:42:07.414Z</time></trkpt><trkpt lat="44.9686155" lon="9.2536634"><ele>222.66666666666666</ele><time>2026-05-02T08:42:09.413Z</time></trkpt><trkpt lat="44.9686918" lon="9.2536938"><ele>222.0</ele><time>2026-05-02T08:42:11.473Z</time></trkpt><trkpt lat="44.9687671" lon="9.253723"><ele>222.0</ele><time>2026-05-02T08:42:13.49Z</time></trkpt><trkpt lat="44.9688323" lon="9.2537555"><ele>222.0</ele><time>2026-05-02T08:42:15.418Z</time></trkpt><trkpt lat="44.9688951" lon="9.253788"><ele>222.0</ele><time>2026-05-02T08:42:18.417Z</time></trkpt><trkpt lat="44.9689708" lon="9.2538229"><ele>222.0</ele><time>2026-05-02T08:42:23.405Z</time></trkpt><trkpt lat="44.9690349" lon="9.2538118"><ele>222.0</ele><time>2026-05-02T08:42:25.412Z</time></trkpt><trkpt lat="44.9691032" lon="9.2537721"><ele>222.0</ele><time>2026-05-02T08:42:27.42Z</time></trkpt><trkpt lat="44.9691824" lon="9.2537281"><ele>222.0</ele><time>2026-05-02T08:42:29.417Z</time></trkpt><trkpt lat="44.9692722" lon="9.2537044"><ele>221.33333333333334</ele><time>2026-05-02T08:42:31.411Z</time></trkpt><trkpt lat="44.9693416" lon="9.2536672"><ele>220.66666666666669</ele><time>2026-05-02T08:42:33.41Z</time></trkpt><trkpt lat="44.9694133" lon="9.2536388"><ele>220.0</ele><time>2026-05-02T08:42:35.409Z</time></trkpt><trkpt lat="44.9694923" lon="9.2535997"><ele>219.33333333333334</ele><time>2026-05-02T08:42:37.419Z</time></trkpt><trkpt lat="44.9695681" lon="9.2535688"><ele>218.66666666666669</ele><time>2026-05-02T08:42:39.41Z</time></trkpt><trkpt lat="44.9696475" lon="9.2535269"><ele>218.0</ele><time>2026-05-02T08:42:41.419Z</time></trkpt><trkpt lat="44.9697266" lon="9.2534944"><ele>218.00000000000003</ele><time>2026-05-02T08:42:43.409Z</time></trkpt><trkpt lat="44.9697974" lon="9.2534546"><ele>218.0</ele><time>2026-05-02T08:42:45.409Z</time></trkpt><trkpt lat="44.9698824" lon="9.2534066"><ele>218.0</ele><time>2026-05-02T08:42:47.415Z</time></trkpt><trkpt lat="44.969969" lon="9.2533681"><ele>218.0</ele><time>2026-05-02T08:42:49.419Z</time></trkpt><trkpt lat="44.9700349" lon="9.2533323"><ele>218.00000000000003</ele><time>2026-05-02T08:42:51.415Z</time></trkpt><trkpt lat="44.9701109" lon="9.2532843"><ele>218.0</ele><time>2026-05-02T08:42:53.415Z</time></trkpt><trkpt lat="44.970196" lon="9.253258"><ele>218.16666666666669</ele><time>2026-05-02T08:42:55.416Z</time></trkpt><trkpt lat="44.9702786" lon="9.2532159"><ele>218.33333333333334</ele><time>2026-05-02T08:42:57.429Z</time></trkpt><trkpt lat="44.9703668" lon="9.2531782"><ele>218.5</ele><time>2026-05-02T08:42:59.415Z</time></trkpt><trkpt lat="44.9704368" lon="9.2531402"><ele>218.66666666666669</ele><time>2026-05-02T08:43:01.414Z</time></trkpt><trkpt lat="44.9705084" lon="9.2531018"><ele>218.83333333333334</ele><time>2026-05-02T08:43:03.408Z</time></trkpt><trkpt lat="44.970581" lon="9.2530608"><ele>219.0</ele><time>2026-05-02T08:43:05.472Z</time></trkpt><trkpt lat="44.9706561" lon="9.2530175"><ele>219.0</ele><time>2026-05-02T08:43:07.409Z</time></trkpt><trkpt lat="44.9707345" lon="9.2529631"><ele>219.0</ele><time>2026-05-02T08:43:09.409Z</time></trkpt><trkpt lat="44.9708099" lon="9.2529316"><ele>219.0</ele><time>2026-05-02T08:43:11.41Z</time></trkpt><trkpt lat="44.9708835" lon="9.2529008"><ele>219.0</ele><time>2026-05-02T08:43:13.42Z</time></trkpt><trkpt lat="44.970954" lon="9.2528393"><ele>219.0</ele><time>2026-05-02T08:43:15.412Z</time></trkpt><trkpt lat="44.971028" lon="9.2527687"><ele>219.0</ele><time>2026-05-02T08:43:17.479Z</time></trkpt><trkpt lat="44.9710927" lon="9.2526912"><ele>219.0</ele><time>2026-05-02T08:43:19.425Z</time></trkpt><trkpt lat="44.971163" lon="9.2526312"><ele>219.0</ele><time>2026-05-02T08:43:21.411Z</time></trkpt><trkpt lat="44.9712242" lon="9.25256"><ele>219.0</ele><time>2026-05-02T08:43:23.417Z</time></trkpt><trkpt lat="44.971302" lon="9.2524993"><ele>219.0</ele><time>2026-05-02T08:43:25.411Z</time></trkpt><trkpt lat="44.9713725" lon="9.2524201"><ele>219.0</ele><time>2026-05-02T08:43:27.412Z</time></trkpt><trkpt lat="44.9714331" lon="9.2523448"><ele>219.0</ele><time>2026-05-02T08:43:29.41Z</time></trkpt><trkpt lat="44.9714882" lon="9.2522762"><ele>218.66666666666666</ele><time>2026-05-02T08:43:31.401Z</time></trkpt><trkpt lat="44.9715375" lon="9.2522049"><ele>218.33333333333331</ele><time>2026-05-02T08:43:33.415Z</time></trkpt><trkpt lat="44.9715899" lon="9.2521512"><ele>218.0</ele><time>2026-05-02T08:43:35.411Z</time></trkpt><trkpt lat="44.9716522" lon="9.2520699"><ele>217.66666666666666</ele><time>2026-05-02T08:43:38.415Z</time></trkpt><trkpt lat="44.9717201" lon="9.2519883"><ele>217.33333333333331</ele><time>2026-05-02T08:43:41.409Z</time></trkpt><trkpt lat="44.971773" lon="9.2519331"><ele>217.0</ele><time>2026-05-02T08:43:43.411Z</time></trkpt><trkpt lat="44.9718348" lon="9.2518689"><ele>216.49999999999997</ele><time>2026-05-02T08:43:45.42Z</time></trkpt><trkpt lat="44.9718971" lon="9.2518092"><ele>216.0</ele><time>2026-05-02T08:43:47.421Z</time></trkpt><trkpt lat="44.9719611" lon="9.2517353"><ele>215.5</ele><time>2026-05-02T08:43:49.416Z</time></trkpt><trkpt lat="44.9720166" lon="9.2516742"><ele>215.0</ele><time>2026-05-02T08:43:51.407Z</time></trkpt><trkpt lat="44.9720819" lon="9.2515949"><ele>214.49999999999997</ele><time>2026-05-02T08:43:53.411Z</time></trkpt><trkpt lat="44.972143" lon="9.2515274"><ele>214.0</ele><time>2026-05-02T08:43:55.409Z</time></trkpt><trkpt lat="44.9722008" lon="9.2514675"><ele>213.99999999999997</ele><time>2026-05-02T08:43:57.419Z</time></trkpt><trkpt lat="44.9722624" lon="9.2513945"><ele>214.0</ele><time>2026-05-02T08:43:59.412Z</time></trkpt><trkpt lat="44.9723276" lon="9.2513138"><ele>214.0</ele><time>2026-05-02T08:44:01.413Z</time></trkpt><trkpt lat="44.9723914" lon="9.2512496"><ele>214.0</ele><time>2026-05-02T08:44:03.409Z</time></trkpt><trkpt lat="44.9724587" lon="9.2511815"><ele>213.99999999999997</ele><time>2026-05-02T08:44:05.418Z</time></trkpt><trkpt lat="44.9725241" lon="9.2511192"><ele>214.0</ele><time>2026-05-02T08:44:07.418Z</time></trkpt><trkpt lat="44.9725909" lon="9.2510509"><ele>213.99999999999997</ele><time>2026-05-02T08:44:09.416Z</time></trkpt><trkpt lat="44.9726622" lon="9.2509857"><ele>214.0</ele><time>2026-05-02T08:44:11.411Z</time></trkpt><trkpt lat="44.9727172" lon="9.2509138"><ele>214.0</ele><time>2026-05-02T08:44:13.411Z</time></trkpt><trkpt lat="44.9727757" lon="9.2508547"><ele>214.0</ele><time>2026-05-02T08:44:15.413Z</time></trkpt><trkpt lat="44.9728424" lon="9.250764"><ele>213.99999999999997</ele><time>2026-05-02T08:44:17.425Z</time></trkpt><trkpt lat="44.9729174" lon="9.2506732"><ele>214.0</ele><time>2026-05-02T08:44:19.412Z</time></trkpt><trkpt lat="44.9729851" lon="9.2505853"><ele>213.79999999999998</ele><time>2026-05-02T08:44:21.419Z</time></trkpt><trkpt lat="44.9730676" lon="9.2504978"><ele>213.59999999999997</ele><time>2026-05-02T08:44:23.412Z</time></trkpt><trkpt lat="44.9731509" lon="9.2504052"><ele>213.4</ele><time>2026-05-02T08:44:25.416Z</time></trkpt><trkpt lat="44.9732242" lon="9.2503324"><ele>213.2</ele><time>2026-05-02T08:44:27.417Z</time></trkpt><trkpt lat="44.9732997" lon="9.2502647"><ele>213.0</ele><time>2026-05-02T08:44:29.411Z</time></trkpt><trkpt lat="44.9733784" lon="9.2501797"><ele>213.0</ele><time>2026-05-02T08:44:31.473Z</time></trkpt><trkpt lat="44.9734491" lon="9.2500958"><ele>213.0</ele><time>2026-05-02T08:44:33.422Z</time></trkpt><trkpt lat="44.9735019" lon="9.2499939"><ele>213.0</ele><time>2026-05-02T08:44:35.423Z</time></trkpt><trkpt lat="44.9735676" lon="9.2499265"><ele>213.0</ele><time>2026-05-02T08:44:37.406Z</time></trkpt><trkpt lat="44.97364" lon="9.2498142"><ele>213.0</ele><time>2026-05-02T08:44:39.415Z</time></trkpt><trkpt lat="44.973704" lon="9.2497741"><ele>213.0</ele><time>2026-05-02T08:44:41.41Z</time></trkpt><trkpt lat="44.9737882" lon="9.2496574"><ele>212.83333333333334</ele><time>2026-05-02T08:44:44.487Z</time></trkpt><trkpt lat="44.9738461" lon="9.2495949"><ele>212.66666666666669</ele><time>2026-05-02T08:44:46.407Z</time></trkpt><trkpt lat="44.9739052" lon="9.2495194"><ele>212.5</ele><time>2026-05-02T08:44:48.419Z</time></trkpt><trkpt lat="44.9739578" lon="9.2494704"><ele>212.33333333333334</ele><time>2026-05-02T08:44:50.41Z</time></trkpt><trkpt lat="44.9740119" lon="9.2493899"><ele>212.16666666666669</ele><time>2026-05-02T08:44:52.413Z</time></trkpt><trkpt lat="44.9740797" lon="9.2493079"><ele>212.0</ele><time>2026-05-02T08:44:54.413Z</time></trkpt><trkpt lat="44.9741407" lon="9.249253"><ele>212.50000000000003</ele><time>2026-05-02T08:44:56.409Z</time></trkpt><trkpt lat="44.9742038" lon="9.2491924"><ele>213.0</ele><time>2026-05-02T08:44:58.417Z</time></trkpt><trkpt lat="44.9742609" lon="9.2491354"><ele>213.5</ele><time>2026-05-02T08:45:00.416Z</time></trkpt><trkpt lat="44.9743208" lon="9.2490862"><ele>214.0</ele><time>2026-05-02T08:45:02.409Z</time></trkpt><trkpt lat="44.9743992" lon="9.2490281"><ele>214.50000000000003</ele><time>2026-05-02T08:45:04.41Z</time></trkpt><trkpt lat="44.9744698" lon="9.2489706"><ele>215.0</ele><time>2026-05-02T08:45:06.416Z</time></trkpt><trkpt lat="44.9745384" lon="9.2489298"><ele>213.66666666666669</ele><time>2026-05-02T08:45:08.405Z</time></trkpt><trkpt lat="44.9746112" lon="9.2488912"><ele>212.33333333333334</ele><time>2026-05-02T08:45:10.411Z</time></trkpt><trkpt lat="44.9747057" lon="9.2488374"><ele>211.0</ele><time>2026-05-02T08:45:12.42Z</time></trkpt><trkpt lat="44.9747694" lon="9.2488281"><ele>209.66666666666669</ele><time>2026-05-02T08:45:14.415Z</time></trkpt><trkpt lat="44.9748068" lon="9.24875"><ele>208.33333333333334</ele><time>2026-05-02T08:45:18.41Z</time></trkpt><trkpt lat="44.9747876" lon="9.2486383"><ele>207.0</ele><time>2026-05-02T08:45:20.413Z</time></trkpt><trkpt lat="44.9747372" lon="9.2485206"><ele>207.0</ele><time>2026-05-02T08:45:22.415Z</time></trkpt><trkpt lat="44.9746805" lon="9.2484372"><ele>207.0</ele><time>2026-05-02T08:45:23.4Z</time></trkpt><trkpt lat="44.9746225" lon="9.2483761"><ele>207.0</ele><time>2026-05-02T08:45:24.414Z</time></trkpt><trkpt lat="44.9745602" lon="9.2483201"><ele>207.0</ele><time>2026-05-02T08:45:25.409Z</time></trkpt><trkpt lat="44.9744963" lon="9.248276"><ele>207.0</ele><time>2026-05-02T08:45:26.41Z</time></trkpt><trkpt lat="44.9743932" lon="9.248242"><ele>207.0</ele><time>2026-05-02T08:45:28.415Z</time></trkpt><trkpt lat="44.9742945" lon="9.2482284"><ele>207.0</ele><time>2026-05-02T08:45:30.423Z</time></trkpt><trkpt lat="44.9742054" lon="9.2482187"><ele>207.0</ele><time>2026-05-02T08:45:32.414Z</time></trkpt><trkpt lat="44.9741247" lon="9.2482087"><ele>207.0</ele><time>2026-05-02T08:45:34.414Z</time></trkpt><trkpt lat="44.9740397" lon="9.2481889"><ele>207.0</ele><time>2026-05-02T08:45:36.413Z</time></trkpt><trkpt lat="44.973972" lon="9.2481408"><ele>207.0</ele><time>2026-05-02T08:45:38.406Z</time></trkpt><trkpt lat="44.9739303" lon="9.2480701"><ele>207.0</ele><time>2026-05-02T08:45:40.408Z</time></trkpt><trkpt lat="44.9738927" lon="9.2479916"><ele>206.83333333333334</ele><time>2026-05-02T08:45:42.413Z</time></trkpt><trkpt lat="44.9738582" lon="9.2479091"><ele>206.66666666666669</ele><time>2026-05-02T08:45:44.414Z</time></trkpt><trkpt lat="44.9738205" lon="9.2478038"><ele>206.5</ele><time>2026-05-02T08:45:46.421Z</time></trkpt><trkpt lat="44.9737839" lon="9.2476999"><ele>206.33333333333334</ele><time>2026-05-02T08:45:48.417Z</time></trkpt><trkpt lat="44.9737331" lon="9.2475952"><ele>206.16666666666669</ele><time>2026-05-02T08:45:51.417Z</time></trkpt><trkpt lat="44.9736986" lon="9.2474972"><ele>206.0</ele><time>2026-05-02T08:45:53.418Z</time></trkpt><trkpt lat="44.9736638" lon="9.2474095"><ele>205.99999999999997</ele><time>2026-05-02T08:45:55.403Z</time></trkpt><trkpt lat="44.9736219" lon="9.2473332"><ele>206.0</ele><time>2026-05-02T08:45:57.407Z</time></trkpt><trkpt lat="44.9735676" lon="9.2472694"><ele>206.0</ele><time>2026-05-02T08:45:59.416Z</time></trkpt><trkpt lat="44.9735141" lon="9.247182"><ele>206.0</ele><time>2026-05-02T08:46:02.417Z</time></trkpt><trkpt lat="44.9734653" lon="9.2471145"><ele>206.0</ele><time>2026-05-02T08:46:04.409Z</time></trkpt><trkpt lat="44.9734267" lon="9.2470375"><ele>205.99999999999997</ele><time>2026-05-02T08:46:06.414Z</time></trkpt><trkpt lat="44.9734038" lon="9.2469491"><ele>206.0</ele><time>2026-05-02T08:46:08.424Z</time></trkpt><trkpt lat="44.9733801" lon="9.2468602"><ele>207.66666666666669</ele><time>2026-05-02T08:46:10.488Z</time></trkpt><trkpt lat="44.9733616" lon="9.2467684"><ele>209.33333333333334</ele><time>2026-05-02T08:46:12.415Z</time></trkpt><trkpt lat="44.9733369" lon="9.246651"><ele>211.0</ele><time>2026-05-02T08:46:15.415Z</time></trkpt><trkpt lat="44.9733165" lon="9.2465268"><ele>212.66666666666669</ele><time>2026-05-02T08:46:18.412Z</time></trkpt><trkpt lat="44.9732922" lon="9.2464068"><ele>214.33333333333334</ele><time>2026-05-02T08:46:21.412Z</time></trkpt><trkpt lat="44.9732704" lon="9.2462786"><ele>216.0</ele><time>2026-05-02T08:46:24.414Z</time></trkpt><trkpt lat="44.9732534" lon="9.2461884"><ele>217.0</ele><time>2026-05-02T08:46:26.407Z</time></trkpt><trkpt lat="44.9732354" lon="9.2461007"><ele>218.0</ele><time>2026-05-02T08:46:28.418Z</time></trkpt><trkpt lat="44.9732183" lon="9.2460086"><ele>219.0</ele><time>2026-05-02T08:46:30.417Z</time></trkpt><trkpt lat="44.9731966" lon="9.245913"><ele>220.0</ele><time>2026-05-02T08:46:32.415Z</time></trkpt><trkpt lat="44.973174" lon="9.2457847"><ele>221.0</ele><time>2026-05-02T08:46:35.474Z</time></trkpt><trkpt lat="44.9731635" lon="9.2456964"><ele>222.0</ele><time>2026-05-02T08:46:37.418Z</time></trkpt><trkpt lat="44.9731689" lon="9.2455942"><ele>223.0</ele><time>2026-05-02T08:46:39.416Z</time></trkpt><trkpt lat="44.9731824" lon="9.2455008"><ele>223.85714285714286</ele><time>2026-05-02T08:46:41.405Z</time></trkpt><trkpt lat="44.973214" lon="9.2454162"><ele>224.71428571428572</ele><time>2026-05-02T08:46:43.413Z</time></trkpt><trkpt lat="44.973257" lon="9.2453358"><ele>225.57142857142856</ele><time>2026-05-02T08:46:45.416Z</time></trkpt><trkpt lat="44.9732944" lon="9.2452577"><ele>226.42857142857144</ele><time>2026-05-02T08:46:47.42Z</time></trkpt><trkpt lat="44.9733338" lon="9.245181"><ele>227.2857142857143</ele><time>2026-05-02T08:46:49.416Z</time></trkpt><trkpt lat="44.9733693" lon="9.2450976"><ele>228.14285714285714</ele><time>2026-05-02T08:46:51.415Z</time></trkpt><trkpt lat="44.9733913" lon="9.2450098"><ele>229.0</ele><time>2026-05-02T08:46:53.419Z</time></trkpt><trkpt lat="44.9733999" lon="9.2448761"><ele>231.14285714285714</ele><time>2026-05-02T08:46:56.406Z</time></trkpt><trkpt lat="44.9733998" lon="9.2447779"><ele>233.28571428571428</ele><time>2026-05-02T08:46:58.414Z</time></trkpt><trkpt lat="44.9733888" lon="9.2446856"><ele>235.42857142857142</ele><time>2026-05-02T08:47:00.417Z</time></trkpt><trkpt lat="44.9733836" lon="9.2445929"><ele>237.57142857142856</ele><time>2026-05-02T08:47:02.422Z</time></trkpt><trkpt lat="44.9733773" lon="9.2444877"><ele>239.71428571428572</ele><time>2026-05-02T08:47:04.412Z</time></trkpt><trkpt lat="44.9733778" lon="9.244395"><ele>241.85714285714283</ele><time>2026-05-02T08:47:06.417Z</time></trkpt><trkpt lat="44.9733784" lon="9.244297"><ele>243.99999999999997</ele><time>2026-05-02T08:47:08.428Z</time></trkpt><trkpt lat="44.9733865" lon="9.244176"><ele>243.99999999999997</ele><time>2026-05-02T08:47:11.409Z</time></trkpt><trkpt lat="44.9733934" lon="9.2440724"><ele>244.0</ele><time>2026-05-02T08:47:13.42Z</time></trkpt><trkpt lat="44.9734118" lon="9.2439812"><ele>244.0</ele><time>2026-05-02T08:47:15.417Z</time></trkpt><trkpt lat="44.9734313" lon="9.2438911"><ele>244.0</ele><time>2026-05-02T08:47:17.419Z</time></trkpt><trkpt lat="44.9734838" lon="9.2437918"><ele>243.99999999999997</ele><time>2026-05-02T08:47:20.416Z</time></trkpt><trkpt lat="44.9735403" lon="9.2437014"><ele>244.0</ele><time>2026-05-02T08:47:23.412Z</time></trkpt><trkpt lat="44.9735854" lon="9.2436142"><ele>245.33333333333331</ele><time>2026-05-02T08:47:26.408Z</time></trkpt><trkpt lat="44.9736382" lon="9.243515"><ele>246.66666666666666</ele><time>2026-05-02T08:47:29.411Z</time></trkpt><trkpt lat="44.9736974" lon="9.2434315"><ele>248.0</ele><time>2026-05-02T08:47:32.414Z</time></trkpt><trkpt lat="44.9737453" lon="9.2433378"><ele>249.33333333333331</ele><time>2026-05-02T08:47:35.41Z</time></trkpt><trkpt lat="44.9737946" lon="9.243241"><ele>250.66666666666666</ele><time>2026-05-02T08:47:38.412Z</time></trkpt><trkpt lat="44.9738275" lon="9.2431349"><ele>252.0</ele><time>2026-05-02T08:47:41.415Z</time></trkpt><trkpt lat="44.9738724" lon="9.2430364"><ele>253.0</ele><time>2026-05-02T08:47:44.431Z</time></trkpt><trkpt lat="44.9739173" lon="9.2429304"><ele>254.0</ele><time>2026-05-02T08:47:47.413Z</time></trkpt><trkpt lat="44.9739604" lon="9.2428313"><ele>255.0</ele><time>2026-05-02T08:47:50.417Z</time></trkpt><trkpt lat="44.9740091" lon="9.2427366"><ele>256.0</ele><time>2026-05-02T08:47:53.407Z</time></trkpt><trkpt lat="44.9740513" lon="9.2426447"><ele>257.0</ele><time>2026-05-02T08:47:56.414Z</time></trkpt><trkpt lat="44.9741016" lon="9.2425462"><ele>258.0</ele><time>2026-05-02T08:47:59.415Z</time></trkpt><trkpt lat="44.9741487" lon="9.2424577"><ele>260.5</ele><time>2026-05-02T08:48:02.423Z</time></trkpt><trkpt lat="44.974196" lon="9.2423593"><ele>263.0</ele><time>2026-05-02T08:48:05.415Z</time></trkpt><trkpt lat="44.9742382" lon="9.2422613"><ele>265.5</ele><time>2026-05-02T08:48:08.413Z</time></trkpt><trkpt lat="44.974273" lon="9.2421523"><ele>268.0</ele><time>2026-05-02T08:48:11.411Z</time></trkpt><trkpt lat="44.9743036" lon="9.2420412"><ele>270.5</ele><time>2026-05-02T08:48:14.41Z</time></trkpt><trkpt lat="44.974328" lon="9.241931"><ele>273.0</ele><time>2026-05-02T08:48:17.488Z</time></trkpt><trkpt lat="44.9743559" lon="9.2418276"><ele>273.5</ele><time>2026-05-02T08:48:20.421Z</time></trkpt><trkpt lat="44.9743947" lon="9.2417295"><ele>274.0</ele><time>2026-05-02T08:48:23.415Z</time></trkpt><trkpt lat="44.9744421" lon="9.2416455"><ele>274.5</ele><time>2026-05-02T08:48:26.418Z</time></trkpt><trkpt lat="44.974522" lon="9.241603"><ele>275.0</ele><time>2026-05-02T08:48:29.422Z</time></trkpt><trkpt lat="44.9746022" lon="9.2416082"><ele>275.5</ele><time>2026-05-02T08:48:32.413Z</time></trkpt><trkpt lat="44.9746848" lon="9.2416382"><ele>276.0</ele><time>2026-05-02T08:48:35.423Z</time></trkpt><trkpt lat="44.9747585" lon="9.2416629"><ele>276.0</ele><time>2026-05-02T08:48:38.414Z</time></trkpt><trkpt lat="44.9748414" lon="9.2417027"><ele>276.0</ele><time>2026-05-02T08:48:41.413Z</time></trkpt><trkpt lat="44.974929" lon="9.2417296"><ele>276.0</ele><time>2026-05-02T08:48:44.491Z</time></trkpt><trkpt lat="44.9750162" lon="9.2417488"><ele>276.0</ele><time>2026-05-02T08:48:47.413Z</time></trkpt><trkpt lat="44.9750819" lon="9.2418185"><ele>276.0</ele><time>2026-05-02T08:48:50.415Z</time></trkpt><trkpt lat="44.9751447" lon="9.2418962"><ele>276.0</ele><time>2026-05-02T08:48:53.414Z</time></trkpt><trkpt lat="44.975193" lon="9.241999"><ele>277.6666666666667</ele><time>2026-05-02T08:48:56.491Z</time></trkpt><trkpt lat="44.9752391" lon="9.2421056"><ele>279.3333333333333</ele><time>2026-05-02T08:48:59.413Z</time></trkpt><trkpt lat="44.9752694" lon="9.2422146"><ele>281.0</ele><time>2026-05-02T08:49:02.407Z</time></trkpt><trkpt lat="44.9752997" lon="9.2423177"><ele>282.66666666666663</ele><time>2026-05-02T08:49:05.419Z</time></trkpt><trkpt lat="44.9753397" lon="9.2424265"><ele>284.3333333333333</ele><time>2026-05-02T08:49:08.417Z</time></trkpt><trkpt lat="44.9753846" lon="9.2425178"><ele>286.0</ele><time>2026-05-02T08:49:11.423Z</time></trkpt><trkpt lat="44.9754319" lon="9.242616"><ele>286.0</ele><time>2026-05-02T08:49:14.415Z</time></trkpt><trkpt lat="44.9754933" lon="9.2426815"><ele>286.0</ele><time>2026-05-02T08:49:17.413Z</time></trkpt><trkpt lat="44.975578" lon="9.2426924"><ele>286.0</ele><time>2026-05-02T08:49:20.419Z</time></trkpt><trkpt lat="44.9756596" lon="9.2426671"><ele>286.0</ele><time>2026-05-02T08:49:23.414Z</time></trkpt><trkpt lat="44.9757367" lon="9.242616"><ele>286.0</ele><time>2026-05-02T08:49:26.413Z</time></trkpt><trkpt lat="44.9758022" lon="9.2425572"><ele>286.0</ele><time>2026-05-02T08:49:29.414Z</time></trkpt><trkpt lat="44.9758574" lon="9.2424644"><ele>283.8333333333333</ele><time>2026-05-02T08:49:32.415Z</time></trkpt><trkpt lat="44.9758903" lon="9.2423515"><ele>281.66666666666663</ele><time>2026-05-02T08:49:35.493Z</time></trkpt><trkpt lat="44.9759096" lon="9.2422263"><ele>279.5</ele><time>2026-05-02T08:49:38.411Z</time></trkpt><trkpt lat="44.9759257" lon="9.2421031"><ele>277.3333333333333</ele><time>2026-05-02T08:49:41.417Z</time></trkpt><trkpt lat="44.9759373" lon="9.2419816"><ele>275.1666666666667</ele><time>2026-05-02T08:49:44.422Z</time></trkpt><trkpt lat="44.9759566" lon="9.2418623"><ele>273.0</ele><time>2026-05-02T08:49:47.42Z</time></trkpt><trkpt lat="44.9759675" lon="9.2417445"><ele>273.0</ele><time>2026-05-02T08:49:50.426Z</time></trkpt><trkpt lat="44.9759876" lon="9.241631"><ele>273.0</ele><time>2026-05-02T08:49:53.417Z</time></trkpt><trkpt lat="44.9760073" lon="9.2415154"><ele>273.0</ele><time>2026-05-02T08:49:56.412Z</time></trkpt><trkpt lat="44.9760099" lon="9.2413983"><ele>273.0</ele><time>2026-05-02T08:49:59.414Z</time></trkpt><trkpt lat="44.9760117" lon="9.2412861"><ele>273.0</ele><time>2026-05-02T08:50:02.404Z</time></trkpt><trkpt lat="44.9760052" lon="9.2411964"><ele>273.0</ele><time>2026-05-02T08:50:04.412Z</time></trkpt><trkpt lat="44.9759947" lon="9.2411021"><ele>274.7142857142857</ele><time>2026-05-02T08:50:06.415Z</time></trkpt><trkpt lat="44.9759844" lon="9.2410115"><ele>276.42857142857144</ele><time>2026-05-02T08:50:08.41Z</time></trkpt><trkpt lat="44.9759633" lon="9.2409234"><ele>278.1428571428571</ele><time>2026-05-02T08:50:10.427Z</time></trkpt><trkpt lat="44.9759488" lon="9.2408351"><ele>279.8571428571429</ele><time>2026-05-02T08:50:12.416Z</time></trkpt><trkpt lat="44.9759147" lon="9.240715"><ele>281.57142857142856</ele><time>2026-05-02T08:50:15.421Z</time></trkpt><trkpt lat="44.9758968" lon="9.2406255"><ele>283.2857142857143</ele><time>2026-05-02T08:50:17.422Z</time></trkpt><trkpt lat="44.975869" lon="9.2405097"><ele>285.0</ele><time>2026-05-02T08:50:20.409Z</time></trkpt><trkpt lat="44.9758321" lon="9.240406"><ele>287.3333333333333</ele><time>2026-05-02T08:50:23.498Z</time></trkpt><trkpt lat="44.9757827" lon="9.2402951"><ele>289.6666666666667</ele><time>2026-05-02T08:50:26.413Z</time></trkpt><trkpt lat="44.9757305" lon="9.2402011"><ele>292.0</ele><time>2026-05-02T08:50:29.414Z</time></trkpt><trkpt lat="44.9756696" lon="9.240096"><ele>294.33333333333337</ele><time>2026-05-02T08:50:32.421Z</time></trkpt><trkpt lat="44.9756196" lon="9.2399862"><ele>296.6666666666667</ele><time>2026-05-02T08:50:35.41Z</time></trkpt><trkpt lat="44.97559" lon="9.2399066"><ele>299.0</ele><time>2026-05-02T08:50:37.418Z</time></trkpt><trkpt lat="44.9755613" lon="9.239825"><ele>299.85714285714283</ele><time>2026-05-02T08:50:39.412Z</time></trkpt><trkpt lat="44.975544" lon="9.2397384"><ele>300.7142857142857</ele><time>2026-05-02T08:50:41.413Z</time></trkpt><trkpt lat="44.9755331" lon="9.2396483"><ele>301.57142857142856</ele><time>2026-05-02T08:50:43.413Z</time></trkpt><trkpt lat="44.9755194" lon="9.2395144"><ele>302.42857142857144</ele><time>2026-05-02T08:50:46.41Z</time></trkpt><trkpt lat="44.9755164" lon="9.2394217"><ele>303.2857142857143</ele><time>2026-05-02T08:50:48.492Z</time></trkpt><trkpt lat="44.9755152" lon="9.2393287"><ele>304.14285714285717</ele><time>2026-05-02T08:50:50.422Z</time></trkpt><trkpt lat="44.9755238" lon="9.2392404"><ele>305.0</ele><time>2026-05-02T08:50:52.414Z</time></trkpt><trkpt lat="44.9755308" lon="9.2391481"><ele>305.0</ele><time>2026-05-02T08:50:54.416Z</time></trkpt><trkpt lat="44.9755434" lon="9.2390604"><ele>305.0</ele><time>2026-05-02T08:50:56.412Z</time></trkpt><trkpt lat="44.9755552" lon="9.2389695"><ele>305.0</ele><time>2026-05-02T08:50:58.411Z</time></trkpt><trkpt lat="44.9755782" lon="9.2388865"><ele>305.0</ele><time>2026-05-02T08:51:00.411Z</time></trkpt><trkpt lat="44.9756035" lon="9.2387668"><ele>305.0</ele><time>2026-05-02T08:51:03.411Z</time></trkpt><trkpt lat="44.9756187" lon="9.238679"><ele>305.0</ele><time>2026-05-02T08:51:05.415Z</time></trkpt><trkpt lat="44.9756493" lon="9.2385604"><ele>305.0</ele><time>2026-05-02T08:51:08.416Z</time></trkpt><trkpt lat="44.9756978" lon="9.2384586"><ele>306.0</ele><time>2026-05-02T08:51:11.408Z</time></trkpt><trkpt lat="44.9757375" lon="9.2383427"><ele>307.0</ele><time>2026-05-02T08:51:14.413Z</time></trkpt><trkpt lat="44.9757755" lon="9.2382712"><ele>308.0</ele><time>2026-05-02T08:51:16.417Z</time></trkpt><trkpt lat="44.9758404" lon="9.238171"><ele>309.0</ele><time>2026-05-02T08:51:19.417Z</time></trkpt><trkpt lat="44.9758981" lon="9.2380774"><ele>310.0</ele><time>2026-05-02T08:51:22.414Z</time></trkpt><trkpt lat="44.9759647" lon="9.2379925"><ele>311.0</ele><time>2026-05-02T08:51:25.408Z</time></trkpt><trkpt lat="44.9760205" lon="9.2378922"><ele>314.1666666666667</ele><time>2026-05-02T08:51:28.416Z</time></trkpt><trkpt lat="44.9760775" lon="9.2377923"><ele>317.33333333333337</ele><time>2026-05-02T08:51:31.417Z</time></trkpt><trkpt lat="44.9761332" lon="9.2376931"><ele>320.5</ele><time>2026-05-02T08:51:34.414Z</time></trkpt><trkpt lat="44.9761873" lon="9.2376043"><ele>323.6666666666667</ele><time>2026-05-02T08:51:37.414Z</time></trkpt><trkpt lat="44.9762414" lon="9.2375123"><ele>326.8333333333333</ele><time>2026-05-02T08:51:40.418Z</time></trkpt><trkpt lat="44.9762955" lon="9.2374123"><ele>330.0</ele><time>2026-05-02T08:51:43.484Z</time></trkpt><trkpt lat="44.9763402" lon="9.2373197"><ele>331.0</ele><time>2026-05-02T08:51:46.406Z</time></trkpt><trkpt lat="44.9763974" lon="9.2372358"><ele>332.0</ele><time>2026-05-02T08:51:49.416Z</time></trkpt><trkpt lat="44.976454" lon="9.2371409"><ele>333.0</ele><time>2026-05-02T08:51:52.413Z</time></trkpt><trkpt lat="44.9765113" lon="9.2370627"><ele>334.0</ele><time>2026-05-02T08:51:55.415Z</time></trkpt><trkpt lat="44.976566" lon="9.236971"><ele>335.0</ele><time>2026-05-02T08:51:58.414Z</time></trkpt><trkpt lat="44.9766255" lon="9.2368807"><ele>336.0</ele><time>2026-05-02T08:52:01.417Z</time></trkpt><trkpt lat="44.9766753" lon="9.2367969"><ele>338.0</ele><time>2026-05-02T08:52:04.422Z</time></trkpt><trkpt lat="44.9767256" lon="9.2367132"><ele>340.0</ele><time>2026-05-02T08:52:07.497Z</time></trkpt><trkpt lat="44.9767747" lon="9.2366306"><ele>342.0</ele><time>2026-05-02T08:52:10.412Z</time></trkpt><trkpt lat="44.9768153" lon="9.2365502"><ele>344.0</ele><time>2026-05-02T08:52:13.41Z</time></trkpt><trkpt lat="44.9768711" lon="9.2364743"><ele>346.0</ele><time>2026-05-02T08:52:16.415Z</time></trkpt><trkpt lat="44.9769226" lon="9.2363911"><ele>348.0</ele><time>2026-05-02T08:52:19.413Z</time></trkpt><trkpt lat="44.9769764" lon="9.2363087"><ele>348.3333333333333</ele><time>2026-05-02T08:52:22.41Z</time></trkpt><trkpt lat="44.9770263" lon="9.2362228"><ele>348.6666666666667</ele><time>2026-05-02T08:52:25.417Z</time></trkpt><trkpt lat="44.9770789" lon="9.2361351"><ele>349.0</ele><time>2026-05-02T08:52:28.414Z</time></trkpt><trkpt lat="44.9771326" lon="9.2360355"><ele>349.33333333333337</ele><time>2026-05-02T08:52:31.418Z</time></trkpt><trkpt lat="44.9771857" lon="9.2359448"><ele>349.6666666666667</ele><time>2026-05-02T08:52:34.427Z</time></trkpt><trkpt lat="44.9772391" lon="9.23585"><ele>350.0</ele><time>2026-05-02T08:52:37.411Z</time></trkpt><trkpt lat="44.9772957" lon="9.2357648"><ele>350.0</ele><time>2026-05-02T08:52:40.412Z</time></trkpt><trkpt lat="44.9773046" lon="9.23565"><ele>350.0</ele><time>2026-05-02T08:52:43.407Z</time></trkpt><trkpt lat="44.9772523" lon="9.2355441"><ele>350.0</ele><time>2026-05-02T08:52:46.408Z</time></trkpt><trkpt lat="44.9771905" lon="9.2354547"><ele>350.0</ele><time>2026-05-02T08:52:49.488Z</time></trkpt><trkpt lat="44.9771276" lon="9.2353769"><ele>350.0</ele><time>2026-05-02T08:52:52.414Z</time></trkpt><trkpt lat="44.9770599" lon="9.2352931"><ele>350.0</ele><time>2026-05-02T08:52:55.41Z</time></trkpt><trkpt lat="44.9769981" lon="9.2352132"><ele>349.0</ele><time>2026-05-02T08:52:58.415Z</time></trkpt><trkpt lat="44.9769418" lon="9.2351213"><ele>348.0</ele><time>2026-05-02T08:53:01.413Z</time></trkpt><trkpt lat="44.9768838" lon="9.2350266"><ele>347.0</ele><time>2026-05-02T08:53:04.416Z</time></trkpt><trkpt lat="44.9768271" lon="9.2349236"><ele>346.0</ele><time>2026-05-02T08:53:07.409Z</time></trkpt><trkpt lat="44.9767719" lon="9.2348205"><ele>345.0</ele><time>2026-05-02T08:53:10.412Z</time></trkpt><trkpt lat="44.9767099" lon="9.2347224"><ele>346.0</ele><time>2026-05-02T08:53:13.411Z</time></trkpt><trkpt lat="44.9766471" lon="9.2346338"><ele>347.0</ele><time>2026-05-02T08:53:16.412Z</time></trkpt><trkpt lat="44.9766116" lon="9.2345602"><ele>348.0</ele><time>2026-05-02T08:53:18.409Z</time></trkpt><trkpt lat="44.9765617" lon="9.2344477"><ele>349.0</ele><time>2026-05-02T08:53:21.42Z</time></trkpt><trkpt lat="44.9765237" lon="9.2343725"><ele>350.0</ele><time>2026-05-02T08:53:23.407Z</time></trkpt><trkpt lat="44.9764686" lon="9.2342709"><ele>351.0</ele><time>2026-05-02T08:53:26.498Z</time></trkpt><trkpt lat="44.9764124" lon="9.2341608"><ele>351.00000000000006</ele><time>2026-05-02T08:53:29.418Z</time></trkpt><trkpt lat="44.9763578" lon="9.2340577"><ele>351.0</ele><time>2026-05-02T08:53:32.414Z</time></trkpt><trkpt lat="44.9763135" lon="9.2339854"><ele>351.0</ele><time>2026-05-02T08:53:34.413Z</time></trkpt><trkpt lat="44.9762689" lon="9.2339199"><ele>351.0</ele><time>2026-05-02T08:53:36.41Z</time></trkpt><trkpt lat="44.9762227" lon="9.2338491"><ele>351.0</ele><time>2026-05-02T08:53:38.404Z</time></trkpt><trkpt lat="44.9761807" lon="9.233774"><ele>351.00000000000006</ele><time>2026-05-02T08:53:40.419Z</time></trkpt><trkpt lat="44.9761229" lon="9.2337189"><ele>351.0</ele><time>2026-05-02T08:53:42.418Z</time></trkpt><trkpt lat="44.9760673" lon="9.2336732"><ele>350.0</ele><time>2026-05-02T08:53:44.416Z</time></trkpt><trkpt lat="44.9760092" lon="9.2336341"><ele>349.0</ele><time>2026-05-02T08:53:46.497Z</time></trkpt><trkpt lat="44.9759205" lon="9.2336026"><ele>348.0</ele><time>2026-05-02T08:53:49.411Z</time></trkpt><trkpt lat="44.975834" lon="9.2335637"><ele>347.0</ele><time>2026-05-02T08:53:52.485Z</time></trkpt><trkpt lat="44.9757469" lon="9.2335109"><ele>346.0</ele><time>2026-05-02T08:53:55.407Z</time></trkpt><trkpt lat="44.9756758" lon="9.2334262"><ele>345.0</ele><time>2026-05-02T08:53:58.421Z</time></trkpt><trkpt lat="44.9756323" lon="9.2333523"><ele>346.7142857142857</ele><time>2026-05-02T08:54:00.414Z</time></trkpt><trkpt lat="44.9755992" lon="9.2332718"><ele>348.42857142857144</ele><time>2026-05-02T08:54:02.412Z</time></trkpt><trkpt lat="44.97556" lon="9.2331988"><ele>350.1428571428571</ele><time>2026-05-02T08:54:04.412Z</time></trkpt><trkpt lat="44.9755263" lon="9.2331235"><ele>351.8571428571429</ele><time>2026-05-02T08:54:06.409Z</time></trkpt><trkpt lat="44.9754956" lon="9.2330429"><ele>353.57142857142856</ele><time>2026-05-02T08:54:08.416Z</time></trkpt><trkpt lat="44.9754503" lon="9.2329203"><ele>355.2857142857143</ele><time>2026-05-02T08:54:11.406Z</time></trkpt><trkpt lat="44.9754221" lon="9.2328051"><ele>357.0</ele><time>2026-05-02T08:54:14.413Z</time></trkpt><trkpt lat="44.9754002" lon="9.2327047"><ele>357.0</ele><time>2026-05-02T08:54:17.404Z</time></trkpt><trkpt lat="44.9753937" lon="9.2325791"><ele>357.0</ele><time>2026-05-02T08:54:20.412Z</time></trkpt><trkpt lat="44.9753785" lon="9.2324923"><ele>357.0</ele><time>2026-05-02T08:54:22.406Z</time></trkpt><trkpt lat="44.9753672" lon="9.2323652"><ele>357.0</ele><time>2026-05-02T08:54:25.414Z</time></trkpt><trkpt lat="44.9753704" lon="9.2322733"><ele>357.0</ele><time>2026-05-02T08:54:27.409Z</time></trkpt><trkpt lat="44.9753827" lon="9.2321786"><ele>357.0</ele><time>2026-05-02T08:54:29.413Z</time></trkpt><trkpt lat="44.9753976" lon="9.2320836"><ele>357.0</ele><time>2026-05-02T08:54:31.412Z</time></trkpt><trkpt lat="44.9754185" lon="9.231994"><ele>357.2857142857143</ele><time>2026-05-02T08:54:33.415Z</time></trkpt><trkpt lat="44.9754386" lon="9.231901"><ele>357.57142857142856</ele><time>2026-05-02T08:54:35.412Z</time></trkpt><trkpt lat="44.9754592" lon="9.2318125"><ele>357.8571428571429</ele><time>2026-05-02T08:54:37.403Z</time></trkpt><trkpt lat="44.9754754" lon="9.2317254"><ele>358.1428571428571</ele><time>2026-05-02T08:54:39.412Z</time></trkpt><trkpt lat="44.9754958" lon="9.2316362"><ele>358.42857142857144</ele><time>2026-05-02T08:54:41.419Z</time></trkpt><trkpt lat="44.9755108" lon="9.2315399"><ele>358.7142857142857</ele><time>2026-05-02T08:54:43.411Z</time></trkpt><trkpt lat="44.9755215" lon="9.2314447"><ele>359.0</ele><time>2026-05-02T08:54:45.411Z</time></trkpt><trkpt lat="44.9755308" lon="9.2313477"><ele>359.2</ele><time>2026-05-02T08:54:47.407Z</time></trkpt><trkpt lat="44.9755434" lon="9.2312515"><ele>359.4</ele><time>2026-05-02T08:54:49.415Z</time></trkpt><trkpt lat="44.9755602" lon="9.2311349"><ele>359.6</ele><time>2026-05-02T08:54:51.41Z</time></trkpt><trkpt lat="44.9755843" lon="9.2309979"><ele>359.8</ele><time>2026-05-02T08:54:53.405Z</time></trkpt><trkpt lat="44.9756149" lon="9.23085"><ele>360.0</ele><time>2026-05-02T08:54:55.415Z</time></trkpt><trkpt lat="44.9756437" lon="9.2307092"><ele>360.8333333333333</ele><time>2026-05-02T08:54:57.497Z</time></trkpt><trkpt lat="44.9756592" lon="9.2305637"><ele>361.6666666666667</ele><time>2026-05-02T08:54:59.423Z</time></trkpt><trkpt lat="44.9756727" lon="9.2304373"><ele>362.5</ele><time>2026-05-02T08:55:01.417Z</time></trkpt><trkpt lat="44.9756787" lon="9.2303382"><ele>363.33333333333337</ele><time>2026-05-02T08:55:03.412Z</time></trkpt><trkpt lat="44.9756919" lon="9.2302234"><ele>364.1666666666667</ele><time>2026-05-02T08:55:06.415Z</time></trkpt><trkpt lat="44.9756967" lon="9.2301321"><ele>365.0</ele><time>2026-05-02T08:55:08.416Z</time></trkpt><trkpt lat="44.9756937" lon="9.2300389"><ele>365.0</ele><time>2026-05-02T08:55:10.412Z</time></trkpt><trkpt lat="44.9756999" lon="9.229944"><ele>365.0</ele><time>2026-05-02T08:55:12.418Z</time></trkpt><trkpt lat="44.9757018" lon="9.2298526"><ele>365.0</ele><time>2026-05-02T08:55:14.413Z</time></trkpt><trkpt lat="44.9756972" lon="9.2297587"><ele>365.0</ele><time>2026-05-02T08:55:16.409Z</time></trkpt><trkpt lat="44.9757022" lon="9.2296468"><ele>365.0</ele><time>2026-05-02T08:55:19.406Z</time></trkpt><trkpt lat="44.9756921" lon="9.2295207"><ele>365.0</ele><time>2026-05-02T08:55:22.419Z</time></trkpt><trkpt lat="44.9756771" lon="9.229392"><ele>365.33333333333337</ele><time>2026-05-02T08:55:25.41Z</time></trkpt><trkpt lat="44.9756618" lon="9.2292976"><ele>365.6666666666667</ele><time>2026-05-02T08:55:27.409Z</time></trkpt><trkpt lat="44.9756449" lon="9.2291937"><ele>366.0</ele><time>2026-05-02T08:55:29.406Z</time></trkpt><trkpt lat="44.97562" lon="9.2290925"><ele>366.3333333333333</ele><time>2026-05-02T08:55:31.412Z</time></trkpt><trkpt lat="44.9755981" lon="9.2289962"><ele>366.66666666666663</ele><time>2026-05-02T08:55:33.413Z</time></trkpt><trkpt lat="44.9755797" lon="9.2288816"><ele>367.0</ele><time>2026-05-02T08:55:35.411Z</time></trkpt><trkpt lat="44.9755593" lon="9.2287515"><ele>367.5</ele><time>2026-05-02T08:55:37.407Z</time></trkpt><trkpt lat="44.9755462" lon="9.2286154"><ele>368.0</ele><time>2026-05-02T08:55:39.416Z</time></trkpt><trkpt lat="44.9755376" lon="9.2284939"><ele>368.5</ele><time>2026-05-02T08:55:41.406Z</time></trkpt><trkpt lat="44.9755333" lon="9.2283943"><ele>369.0</ele><time>2026-05-02T08:55:43.424Z</time></trkpt><trkpt lat="44.975518" lon="9.2282727"><ele>369.5</ele><time>2026-05-02T08:55:46.413Z</time></trkpt><trkpt lat="44.9755137" lon="9.2281833"><ele>370.0</ele><time>2026-05-02T08:55:48.479Z</time></trkpt><trkpt lat="44.975514" lon="9.2280861"><ele>370.99999999999994</ele><time>2026-05-02T08:55:50.409Z</time></trkpt><trkpt lat="44.9755356" lon="9.2279897"><ele>372.0</ele><time>2026-05-02T08:55:52.414Z</time></trkpt><trkpt lat="44.9755739" lon="9.2279021"><ele>373.0</ele><time>2026-05-02T08:55:54.414Z</time></trkpt><trkpt lat="44.9756118" lon="9.2278146"><ele>374.0</ele><time>2026-05-02T08:55:56.425Z</time></trkpt><trkpt lat="44.9756528" lon="9.2277348"><ele>375.0</ele><time>2026-05-02T08:55:58.406Z</time></trkpt><trkpt lat="44.975693" lon="9.2276578"><ele>375.99999999999994</ele><time>2026-05-02T08:56:00.411Z</time></trkpt><trkpt lat="44.9757251" lon="9.2275791"><ele>377.0</ele><time>2026-05-02T08:56:02.493Z</time></trkpt><trkpt lat="44.9757532" lon="9.2274962"><ele>376.99999999999994</ele><time>2026-05-02T08:56:04.426Z</time></trkpt><trkpt lat="44.9757748" lon="9.2274118"><ele>377.0</ele><time>2026-05-02T08:56:06.411Z</time></trkpt><trkpt lat="44.9757958" lon="9.2273266"><ele>377.0</ele><time>2026-05-02T08:56:08.412Z</time></trkpt><trkpt lat="44.9758115" lon="9.2272375"><ele>377.0</ele><time>2026-05-02T08:56:10.415Z</time></trkpt><trkpt lat="44.9758241" lon="9.2271411"><ele>377.0</ele><time>2026-05-02T08:56:12.405Z</time></trkpt><trkpt lat="44.9758367" lon="9.2270487"><ele>376.99999999999994</ele><time>2026-05-02T08:56:14.41Z</time></trkpt><trkpt lat="44.9758483" lon="9.2269521"><ele>377.0</ele><time>2026-05-02T08:56:16.403Z</time></trkpt><trkpt lat="44.9758664" lon="9.2268615"><ele>376.71428571428567</ele><time>2026-05-02T08:56:18.417Z</time></trkpt><trkpt lat="44.9758825" lon="9.2267699"><ele>376.42857142857144</ele><time>2026-05-02T08:56:20.424Z</time></trkpt><trkpt lat="44.9758986" lon="9.2266777"><ele>376.1428571428571</ele><time>2026-05-02T08:56:22.418Z</time></trkpt><trkpt lat="44.975922" lon="9.2265522"><ele>375.85714285714283</ele><time>2026-05-02T08:56:25.413Z</time></trkpt><trkpt lat="44.9759366" lon="9.2264561"><ele>375.57142857142856</ele><time>2026-05-02T08:56:27.411Z</time></trkpt><trkpt lat="44.975947" lon="9.2263621"><ele>375.2857142857143</ele><time>2026-05-02T08:56:29.403Z</time></trkpt><trkpt lat="44.9759503" lon="9.2262721"><ele>375.0</ele><time>2026-05-02T08:56:31.411Z</time></trkpt><trkpt lat="44.9759551" lon="9.2261829"><ele>375.0</ele><time>2026-05-02T08:56:33.412Z</time></trkpt><trkpt lat="44.9759553" lon="9.2260448"><ele>375.0</ele><time>2026-05-02T08:56:36.413Z</time></trkpt><trkpt lat="44.9759522" lon="9.2259538"><ele>375.0</ele><time>2026-05-02T08:56:38.416Z</time></trkpt><trkpt lat="44.9759468" lon="9.2258213"><ele>375.0</ele><time>2026-05-02T08:56:41.415Z</time></trkpt><trkpt lat="44.9759478" lon="9.2257322"><ele>375.0</ele><time>2026-05-02T08:56:43.407Z</time></trkpt><trkpt lat="44.9759489" lon="9.2256155"><ele>375.0</ele><time>2026-05-02T08:56:46.412Z</time></trkpt><trkpt lat="44.9759606" lon="9.2255022"><ele>376.8333333333333</ele><time>2026-05-02T08:56:49.407Z</time></trkpt><trkpt lat="44.9759606" lon="9.2253764"><ele>378.66666666666663</ele><time>2026-05-02T08:56:52.405Z</time></trkpt><trkpt lat="44.9759558" lon="9.22525"><ele>380.5</ele><time>2026-05-02T08:56:55.41Z</time></trkpt><trkpt lat="44.975955" lon="9.2251603"><ele>382.3333333333333</ele><time>2026-05-02T08:56:57.418Z</time></trkpt><trkpt lat="44.9759549" lon="9.2250289"><ele>384.16666666666663</ele><time>2026-05-02T08:57:00.406Z</time></trkpt><trkpt lat="44.975957" lon="9.2249381"><ele>386.0</ele><time>2026-05-02T08:57:02.414Z</time></trkpt><trkpt lat="44.9759587" lon="9.2248447"><ele>387.3333333333333</ele><time>2026-05-02T08:57:04.417Z</time></trkpt><trkpt lat="44.9759745" lon="9.2247538"><ele>388.66666666666663</ele><time>2026-05-02T08:57:06.412Z</time></trkpt><trkpt lat="44.975994" lon="9.2246679"><ele>390.0</ele><time>2026-05-02T08:57:08.407Z</time></trkpt><trkpt lat="44.9760374" lon="9.2245602"><ele>391.33333333333337</ele><time>2026-05-02T08:57:11.418Z</time></trkpt><trkpt lat="44.9760819" lon="9.2244526"><ele>392.6666666666667</ele><time>2026-05-02T08:57:14.402Z</time></trkpt><trkpt lat="44.9761212" lon="9.2243447"><ele>394.0</ele><time>2026-05-02T08:57:17.416Z</time></trkpt><trkpt lat="44.9761598" lon="9.224231"><ele>394.00000000000006</ele><time>2026-05-02T08:57:20.413Z</time></trkpt><trkpt lat="44.9761959" lon="9.2241217"><ele>394.0</ele><time>2026-05-02T08:57:23.419Z</time></trkpt><trkpt lat="44.9762108" lon="9.2240094"><ele>394.0</ele><time>2026-05-02T08:57:26.407Z</time></trkpt><trkpt lat="44.9762292" lon="9.2238932"><ele>394.0</ele><time>2026-05-02T08:57:29.421Z</time></trkpt><trkpt lat="44.9762562" lon="9.2237871"><ele>394.00000000000006</ele><time>2026-05-02T08:57:32.419Z</time></trkpt><trkpt lat="44.9762802" lon="9.2236636"><ele>394.0</ele><time>2026-05-02T08:57:35.4Z</time></trkpt><trkpt lat="44.9763132" lon="9.2235382"><ele>395.33333333333337</ele><time>2026-05-02T08:57:38.408Z</time></trkpt><trkpt lat="44.9763466" lon="9.2234602"><ele>396.6666666666667</ele><time>2026-05-02T08:57:40.411Z</time></trkpt><trkpt lat="44.9763918" lon="9.2233492"><ele>398.0</ele><time>2026-05-02T08:57:43.477Z</time></trkpt><trkpt lat="44.9764269" lon="9.2232349"><ele>399.33333333333337</ele><time>2026-05-02T08:57:46.411Z</time></trkpt><trkpt lat="44.9764573" lon="9.2231194"><ele>400.6666666666667</ele><time>2026-05-02T08:57:49.413Z</time></trkpt><trkpt lat="44.9764963" lon="9.2230137"><ele>402.0</ele><time>2026-05-02T08:57:52.415Z</time></trkpt><trkpt lat="44.9765278" lon="9.2229285"><ele>401.5</ele><time>2026-05-02T08:57:54.407Z</time></trkpt><trkpt lat="44.9765583" lon="9.2228506"><ele>401.0</ele><time>2026-05-02T08:57:56.421Z</time></trkpt><trkpt lat="44.9766022" lon="9.2227449"><ele>400.5</ele><time>2026-05-02T08:57:59.416Z</time></trkpt><trkpt lat="44.9766352" lon="9.2226665"><ele>400.0</ele><time>2026-05-02T08:58:01.405Z</time></trkpt><trkpt lat="44.9766721" lon="9.2225852"><ele>399.5</ele><time>2026-05-02T08:58:03.405Z</time></trkpt><trkpt lat="44.9767293" lon="9.2224887"><ele>399.0</ele><time>2026-05-02T08:58:06.408Z</time></trkpt><trkpt lat="44.9767852" lon="9.2223819"><ele>398.1666666666667</ele><time>2026-05-02T08:58:09.414Z</time></trkpt><trkpt lat="44.9768208" lon="9.2223069"><ele>397.33333333333337</ele><time>2026-05-02T08:58:11.422Z</time></trkpt><trkpt lat="44.9768659" lon="9.2221882"><ele>396.5</ele><time>2026-05-02T08:58:14.405Z</time></trkpt><trkpt lat="44.9768819" lon="9.2220978"><ele>395.6666666666667</ele><time>2026-05-02T08:58:16.403Z</time></trkpt><trkpt lat="44.9768943" lon="9.2219575"><ele>394.83333333333337</ele><time>2026-05-02T08:58:19.407Z</time></trkpt><trkpt lat="44.9768911" lon="9.2218574"><ele>394.0</ele><time>2026-05-02T08:58:21.416Z</time></trkpt><trkpt lat="44.9768894" lon="9.2217591"><ele>394.00000000000006</ele><time>2026-05-02T08:58:23.412Z</time></trkpt><trkpt lat="44.9768875" lon="9.2216613"><ele>394.0</ele><time>2026-05-02T08:58:25.411Z</time></trkpt><trkpt lat="44.9768926" lon="9.2215591"><ele>394.0</ele><time>2026-05-02T08:58:27.408Z</time></trkpt><trkpt lat="44.9768997" lon="9.2214499"><ele>394.0</ele><time>2026-05-02T08:58:29.424Z</time></trkpt><trkpt lat="44.9768924" lon="9.2213279"><ele>394.00000000000006</ele><time>2026-05-02T08:58:31.41Z</time></trkpt><trkpt lat="44.976888" lon="9.2212022"><ele>394.0</ele><time>2026-05-02T08:58:33.415Z</time></trkpt><trkpt lat="44.9768868" lon="9.2210619"><ele>393.75</ele><time>2026-05-02T08:58:35.416Z</time></trkpt><trkpt lat="44.9768866" lon="9.2209228"><ele>393.5</ele><time>2026-05-02T08:58:37.407Z</time></trkpt><trkpt lat="44.9768856" lon="9.2207705"><ele>393.25</ele><time>2026-05-02T08:58:39.427Z</time></trkpt><trkpt lat="44.976874" lon="9.2206003"><ele>393.0</ele><time>2026-05-02T08:58:41.406Z</time></trkpt><trkpt lat="44.9768629" lon="9.2204233"><ele>392.7142857142857</ele><time>2026-05-02T08:58:43.413Z</time></trkpt><trkpt lat="44.9768597" lon="9.2203307"><ele>392.42857142857144</ele><time>2026-05-02T08:58:44.419Z</time></trkpt><trkpt lat="44.9768631" lon="9.2202418"><ele>392.1428571428571</ele><time>2026-05-02T08:58:45.416Z</time></trkpt><trkpt lat="44.9768608" lon="9.2201483"><ele>391.8571428571429</ele><time>2026-05-02T08:58:46.413Z</time></trkpt><trkpt lat="44.9768585" lon="9.2200492"><ele>391.57142857142856</ele><time>2026-05-02T08:58:47.409Z</time></trkpt><trkpt lat="44.9768548" lon="9.2199518"><ele>391.2857142857143</ele><time>2026-05-02T08:58:48.488Z</time></trkpt><trkpt lat="44.9768513" lon="9.2198507"><ele>391.0</ele><time>2026-05-02T08:58:49.419Z</time></trkpt><trkpt lat="44.9768511" lon="9.2197507"><ele>390.6666666666667</ele><time>2026-05-02T08:58:50.483Z</time></trkpt><trkpt lat="44.9768484" lon="9.2196465"><ele>390.33333333333337</ele><time>2026-05-02T08:58:51.411Z</time></trkpt><trkpt lat="44.9768471" lon="9.2195427"><ele>390.0</ele><time>2026-05-02T08:58:52.417Z</time></trkpt><trkpt lat="44.9768459" lon="9.2194333"><ele>389.66666666666663</ele><time>2026-05-02T08:58:53.407Z</time></trkpt><trkpt lat="44.976841" lon="9.219326"><ele>389.3333333333333</ele><time>2026-05-02T08:58:54.409Z</time></trkpt><trkpt lat="44.9768372" lon="9.2192186"><ele>389.0</ele><time>2026-05-02T08:58:55.411Z</time></trkpt><trkpt lat="44.9768361" lon="9.219113"><ele>389.0</ele><time>2026-05-02T08:58:56.414Z</time></trkpt><trkpt lat="44.9768366" lon="9.2190043"><ele>389.0</ele><time>2026-05-02T08:58:57.417Z</time></trkpt><trkpt lat="44.9768404" lon="9.2188978"><ele>389.0</ele><time>2026-05-02T08:58:58.408Z</time></trkpt><trkpt lat="44.9768434" lon="9.2187968"><ele>389.0</ele><time>2026-05-02T08:58:59.414Z</time></trkpt><trkpt lat="44.9768518" lon="9.2187026"><ele>389.0</ele><time>2026-05-02T08:59:00.412Z</time></trkpt><trkpt lat="44.976864" lon="9.2186034"><ele>389.0</ele><time>2026-05-02T08:59:01.412Z</time></trkpt><trkpt lat="44.9768773" lon="9.2185101"><ele>389.0</ele><time>2026-05-02T08:59:02.419Z</time></trkpt><trkpt lat="44.9768968" lon="9.2184212"><ele>388.8571428571429</ele><time>2026-05-02T08:59:03.419Z</time></trkpt><trkpt lat="44.9769151" lon="9.2183325"><ele>388.71428571428567</ele><time>2026-05-02T08:59:04.405Z</time></trkpt><trkpt lat="44.9769348" lon="9.218243"><ele>388.57142857142856</ele><time>2026-05-02T08:59:05.406Z</time></trkpt><trkpt lat="44.9769518" lon="9.2181508"><ele>388.42857142857144</ele><time>2026-05-02T08:59:06.416Z</time></trkpt><trkpt lat="44.9769678" lon="9.2180631"><ele>388.28571428571433</ele><time>2026-05-02T08:59:07.418Z</time></trkpt><trkpt lat="44.9769853" lon="9.217974"><ele>388.1428571428571</ele><time>2026-05-02T08:59:08.408Z</time></trkpt><trkpt lat="44.9770017" lon="9.217888"><ele>388.0</ele><time>2026-05-02T08:59:09.41Z</time></trkpt><trkpt lat="44.9770346" lon="9.2177251"><ele>387.79999999999995</ele><time>2026-05-02T08:59:11.415Z</time></trkpt><trkpt lat="44.9770592" lon="9.2175674"><ele>387.6</ele><time>2026-05-02T08:59:13.416Z</time></trkpt><trkpt lat="44.9770866" lon="9.2174156"><ele>387.4</ele><time>2026-05-02T08:59:15.414Z</time></trkpt><trkpt lat="44.9771195" lon="9.2172673"><ele>387.20000000000005</ele><time>2026-05-02T08:59:17.41Z</time></trkpt><trkpt lat="44.977156" lon="9.217125"><ele>387.0</ele><time>2026-05-02T08:59:19.415Z</time></trkpt><trkpt lat="44.9771908" lon="9.2169934"><ele>386.8</ele><time>2026-05-02T08:59:21.417Z</time></trkpt><trkpt lat="44.9772335" lon="9.216853"><ele>386.6</ele><time>2026-05-02T08:59:23.411Z</time></trkpt><trkpt lat="44.9772819" lon="9.2167095"><ele>386.40000000000003</ele><time>2026-05-02T08:59:25.404Z</time></trkpt><trkpt lat="44.9773378" lon="9.2165741"><ele>386.20000000000005</ele><time>2026-05-02T08:59:27.418Z</time></trkpt><trkpt lat="44.9774025" lon="9.2164443"><ele>386.0</ele><time>2026-05-02T08:59:29.417Z</time></trkpt><trkpt lat="44.9774668" lon="9.2163253"><ele>385.0</ele><time>2026-05-02T08:59:31.404Z</time></trkpt><trkpt lat="44.9775316" lon="9.2162054"><ele>384.0</ele><time>2026-05-02T08:59:33.404Z</time></trkpt><trkpt lat="44.9775853" lon="9.2160929"><ele>383.0</ele><time>2026-05-02T08:59:35.409Z</time></trkpt><trkpt lat="44.9776392" lon="9.2159781"><ele>382.0</ele><time>2026-05-02T08:59:37.423Z</time></trkpt><trkpt lat="44.9776934" lon="9.2158799"><ele>381.0</ele><time>2026-05-02T08:59:39.416Z</time></trkpt><trkpt lat="44.9777379" lon="9.2157787"><ele>381.0</ele><time>2026-05-02T08:59:41.411Z</time></trkpt><trkpt lat="44.977788" lon="9.2156734"><ele>381.0</ele><time>2026-05-02T08:59:43.413Z</time></trkpt><trkpt lat="44.9778229" lon="9.2155653"><ele>381.0</ele><time>2026-05-02T08:59:45.414Z</time></trkpt><trkpt lat="44.9778719" lon="9.2154599"><ele>381.0</ele><time>2026-05-02T08:59:47.409Z</time></trkpt><trkpt lat="44.9779195" lon="9.2153547"><ele>381.0</ele><time>2026-05-02T08:59:49.414Z</time></trkpt><trkpt lat="44.9779643" lon="9.2152599"><ele>381.0</ele><time>2026-05-02T08:59:51.411Z</time></trkpt><trkpt lat="44.9780093" lon="9.2151694"><ele>381.5</ele><time>2026-05-02T08:59:53.418Z</time></trkpt><trkpt lat="44.9780467" lon="9.2150762"><ele>382.0</ele><time>2026-05-02T08:59:55.424Z</time></trkpt><trkpt lat="44.9780893" lon="9.2149839"><ele>382.5</ele><time>2026-05-02T08:59:57.409Z</time></trkpt><trkpt lat="44.9781302" lon="9.2148825"><ele>383.0</ele><time>2026-05-02T08:59:59.414Z</time></trkpt><trkpt lat="44.9781676" lon="9.2147841"><ele>383.5</ele><time>2026-05-02T09:00:01.424Z</time></trkpt><trkpt lat="44.9782054" lon="9.2146822"><ele>384.0</ele><time>2026-05-02T09:00:03.411Z</time></trkpt><trkpt lat="44.9782441" lon="9.2145829"><ele>384.4285714285714</ele><time>2026-05-02T09:00:05.412Z</time></trkpt><trkpt lat="44.9782642" lon="9.2144914"><ele>384.85714285714283</ele><time>2026-05-02T09:00:07.427Z</time></trkpt><trkpt lat="44.9782809" lon="9.2143987"><ele>385.2857142857143</ele><time>2026-05-02T09:00:09.414Z</time></trkpt><trkpt lat="44.9782944" lon="9.214301"><ele>385.71428571428567</ele><time>2026-05-02T09:00:11.408Z</time></trkpt><trkpt lat="44.9783173" lon="9.2142005"><ele>386.14285714285717</ele><time>2026-05-02T09:00:13.41Z</time></trkpt><trkpt lat="44.9783263" lon="9.2140938"><ele>386.57142857142856</ele><time>2026-05-02T09:00:15.411Z</time></trkpt><trkpt lat="44.9783317" lon="9.2139823"><ele>387.0</ele><time>2026-05-02T09:00:17.484Z</time></trkpt><trkpt lat="44.9783389" lon="9.2138887"><ele>387.0</ele><time>2026-05-02T09:00:19.423Z</time></trkpt><trkpt lat="44.9783491" lon="9.2137594"><ele>387.0</ele><time>2026-05-02T09:00:22.419Z</time></trkpt><trkpt lat="44.978357" lon="9.2136641"><ele>387.0</ele><time>2026-05-02T09:00:24.403Z</time></trkpt><trkpt lat="44.978366" lon="9.2135659"><ele>387.0</ele><time>2026-05-02T09:00:26.413Z</time></trkpt><trkpt lat="44.9783801" lon="9.2134665"><ele>387.0</ele><time>2026-05-02T09:00:28.398Z</time></trkpt><trkpt lat="44.978389" lon="9.2133585"><ele>387.0</ele><time>2026-05-02T09:00:30.415Z</time></trkpt><trkpt lat="44.978399" lon="9.2132411"><ele>385.8333333333333</ele><time>2026-05-02T09:00:32.413Z</time></trkpt><trkpt lat="44.9784105" lon="9.2131474"><ele>384.6666666666667</ele><time>2026-05-02T09:00:34.414Z</time></trkpt><trkpt lat="44.9784233" lon="9.2130533"><ele>383.5</ele><time>2026-05-02T09:00:36.415Z</time></trkpt><trkpt lat="44.9784522" lon="9.2129186"><ele>382.33333333333337</ele><time>2026-05-02T09:00:39.423Z</time></trkpt><trkpt lat="44.9784714" lon="9.2128214"><ele>381.1666666666667</ele><time>2026-05-02T09:00:41.412Z</time></trkpt><trkpt lat="44.9784918" lon="9.2127169"><ele>380.0</ele><time>2026-05-02T09:00:43.413Z</time></trkpt><trkpt lat="44.9785152" lon="9.2126229"><ele>380.0</ele><time>2026-05-02T09:00:45.413Z</time></trkpt><trkpt lat="44.9785345" lon="9.2125277"><ele>380.0</ele><time>2026-05-02T09:00:47.405Z</time></trkpt><trkpt lat="44.9785603" lon="9.2124334"><ele>380.0</ele><time>2026-05-02T09:00:49.413Z</time></trkpt><trkpt lat="44.9785882" lon="9.212336"><ele>380.0</ele><time>2026-05-02T09:00:51.413Z</time></trkpt><trkpt lat="44.9786148" lon="9.2122271"><ele>380.0</ele><time>2026-05-02T09:00:53.409Z</time></trkpt><trkpt lat="44.9786364" lon="9.212118"><ele>380.0</ele><time>2026-05-02T09:00:55.412Z</time></trkpt><trkpt lat="44.9786688" lon="9.2120166"><ele>380.6666666666667</ele><time>2026-05-02T09:00:57.411Z</time></trkpt><trkpt lat="44.9787108" lon="9.2119076"><ele>381.33333333333337</ele><time>2026-05-02T09:00:59.41Z</time></trkpt><trkpt lat="44.9787387" lon="9.2117869"><ele>382.0</ele><time>2026-05-02T09:01:01.413Z</time></trkpt><trkpt lat="44.9787747" lon="9.2116766"><ele>382.6666666666667</ele><time>2026-05-02T09:01:03.42Z</time></trkpt><trkpt lat="44.9788113" lon="9.2115687"><ele>383.3333333333333</ele><time>2026-05-02T09:01:05.419Z</time></trkpt><trkpt lat="44.9788578" lon="9.2114492"><ele>384.0</ele><time>2026-05-02T09:01:07.414Z</time></trkpt><trkpt lat="44.9788985" lon="9.2113337"><ele>384.2</ele><time>2026-05-02T09:01:09.408Z</time></trkpt><trkpt lat="44.9789415" lon="9.2112052"><ele>384.4</ele><time>2026-05-02T09:01:11.42Z</time></trkpt><trkpt lat="44.9789819" lon="9.211058"><ele>384.6</ele><time>2026-05-02T09:01:13.411Z</time></trkpt><trkpt lat="44.9790262" lon="9.2109227"><ele>384.8</ele><time>2026-05-02T09:01:15.407Z</time></trkpt><trkpt lat="44.9790733" lon="9.2107797"><ele>385.0</ele><time>2026-05-02T09:01:17.411Z</time></trkpt><trkpt lat="44.9791166" lon="9.2106301"><ele>384.1666666666667</ele><time>2026-05-02T09:01:19.413Z</time></trkpt><trkpt lat="44.9791574" lon="9.2104741"><ele>383.33333333333337</ele><time>2026-05-02T09:01:21.423Z</time></trkpt><trkpt lat="44.9791982" lon="9.2103099"><ele>382.5</ele><time>2026-05-02T09:01:23.422Z</time></trkpt><trkpt lat="44.979219" lon="9.2102238"><ele>381.6666666666667</ele><time>2026-05-02T09:01:24.404Z</time></trkpt><trkpt lat="44.9792409" lon="9.2101369"><ele>380.83333333333337</ele><time>2026-05-02T09:01:25.408Z</time></trkpt><trkpt lat="44.9792644" lon="9.2100484"><ele>380.0</ele><time>2026-05-02T09:01:26.413Z</time></trkpt><trkpt lat="44.9793021" lon="9.2098804"><ele>379.1666666666667</ele><time>2026-05-02T09:01:28.408Z</time></trkpt><trkpt lat="44.9793368" lon="9.2097463"><ele>378.33333333333337</ele><time>2026-05-02T09:01:30.415Z</time></trkpt><trkpt lat="44.9793614" lon="9.2096253"><ele>377.5</ele><time>2026-05-02T09:01:32.405Z</time></trkpt><trkpt lat="44.9793911" lon="9.2095134"><ele>376.6666666666667</ele><time>2026-05-02T09:01:34.417Z</time></trkpt><trkpt lat="44.9794396" lon="9.2094126"><ele>375.8333333333333</ele><time>2026-05-02T09:01:36.418Z</time></trkpt><trkpt lat="44.9794658" lon="9.209324"><ele>375.0</ele><time>2026-05-02T09:01:38.408Z</time></trkpt><trkpt lat="44.9794934" lon="9.2092129"><ele>375.0</ele><time>2026-05-02T09:01:41.408Z</time></trkpt><trkpt lat="44.979501" lon="9.2091074"><ele>375.0</ele><time>2026-05-02T09:01:44.417Z</time></trkpt><trkpt lat="44.9795211" lon="9.2090015"><ele>375.0</ele><time>2026-05-02T09:01:47.407Z</time></trkpt><trkpt lat="44.9795438" lon="9.2088871"><ele>375.0</ele><time>2026-05-02T09:01:50.417Z</time></trkpt><trkpt lat="44.9795728" lon="9.2087621"><ele>375.0</ele><time>2026-05-02T09:01:53.412Z</time></trkpt><trkpt lat="44.9796" lon="9.2086795"><ele>375.0</ele><time>2026-05-02T09:01:55.414Z</time></trkpt><trkpt lat="44.9796258" lon="9.2085975"><ele>376.1666666666667</ele><time>2026-05-02T09:01:57.487Z</time></trkpt><trkpt lat="44.9796638" lon="9.2084869"><ele>377.3333333333333</ele><time>2026-05-02T09:02:00.413Z</time></trkpt><trkpt lat="44.9797048" lon="9.2084001"><ele>378.5</ele><time>2026-05-02T09:02:03.406Z</time></trkpt><trkpt lat="44.9797664" lon="9.2083601"><ele>379.66666666666663</ele><time>2026-05-02T09:02:07.406Z</time></trkpt><trkpt lat="44.9798472" lon="9.2083486"><ele>380.8333333333333</ele><time>2026-05-02T09:02:10.415Z</time></trkpt><trkpt lat="44.9799118" lon="9.2083198"><ele>382.0</ele><time>2026-05-02T09:02:12.412Z</time></trkpt><trkpt lat="44.979989" lon="9.2083053"><ele>381.0</ele><time>2026-05-02T09:02:14.405Z</time></trkpt><trkpt lat="44.9800712" lon="9.208283"><ele>380.0</ele><time>2026-05-02T09:02:16.41Z</time></trkpt><trkpt lat="44.9801545" lon="9.2082658"><ele>379.0</ele><time>2026-05-02T09:02:18.412Z</time></trkpt><trkpt lat="44.9802353" lon="9.2082438"><ele>378.0</ele><time>2026-05-02T09:02:20.418Z</time></trkpt><trkpt lat="44.9803081" lon="9.2082228"><ele>377.0</ele><time>2026-05-02T09:02:22.42Z</time></trkpt><trkpt lat="44.9803749" lon="9.2082047"><ele>376.0</ele><time>2026-05-02T09:02:24.412Z</time></trkpt><trkpt lat="44.9804386" lon="9.2081885"><ele>376.0</ele><time>2026-05-02T09:02:26.412Z</time></trkpt><trkpt lat="44.9805022" lon="9.2081782"><ele>376.0</ele><time>2026-05-02T09:02:28.414Z</time></trkpt><trkpt lat="44.9805871" lon="9.2081351"><ele>376.0</ele><time>2026-05-02T09:02:31.415Z</time></trkpt><trkpt lat="44.9806697" lon="9.2081084"><ele>376.0</ele><time>2026-05-02T09:02:35.4Z</time></trkpt><trkpt lat="44.9807478" lon="9.2080863"><ele>376.0</ele><time>2026-05-02T09:02:38.417Z</time></trkpt><trkpt lat="44.9808132" lon="9.2080737"><ele>376.0</ele><time>2026-05-02T09:02:40.41Z</time></trkpt><trkpt lat="44.9809035" lon="9.2080412"><ele>377.7142857142857</ele><time>2026-05-02T09:02:43.403Z</time></trkpt><trkpt lat="44.9809679" lon="9.208014"><ele>379.42857142857144</ele><time>2026-05-02T09:02:45.413Z</time></trkpt><trkpt lat="44.9810337" lon="9.2079987"><ele>381.1428571428571</ele><time>2026-05-02T09:02:47.406Z</time></trkpt><trkpt lat="44.9811183" lon="9.2079847"><ele>382.8571428571429</ele><time>2026-05-02T09:02:49.398Z</time></trkpt><trkpt lat="44.9811968" lon="9.2079842"><ele>384.5714285714286</ele><time>2026-05-02T09:02:51.407Z</time></trkpt><trkpt lat="44.9812664" lon="9.2079889"><ele>386.2857142857143</ele><time>2026-05-02T09:02:53.404Z</time></trkpt><trkpt lat="44.9813289" lon="9.2080092"><ele>388.0</ele><time>2026-05-02T09:02:55.407Z</time></trkpt><trkpt lat="44.9813908" lon="9.2080428"><ele>388.0</ele><time>2026-05-02T09:02:57.414Z</time></trkpt><trkpt lat="44.9814419" lon="9.2081009"><ele>388.0</ele><time>2026-05-02T09:02:59.405Z</time></trkpt><trkpt lat="44.9814922" lon="9.208158"><ele>388.0</ele><time>2026-05-02T09:03:01.403Z</time></trkpt><trkpt lat="44.9815498" lon="9.2082559"><ele>388.0</ele><time>2026-05-02T09:03:04.407Z</time></trkpt><trkpt lat="44.9815943" lon="9.2083268"><ele>388.0</ele><time>2026-05-02T09:03:06.412Z</time></trkpt><trkpt lat="44.9816666" lon="9.2084171"><ele>388.0</ele><time>2026-05-02T09:03:09.408Z</time></trkpt><trkpt lat="44.9817224" lon="9.2084656"><ele>388.0</ele><time>2026-05-02T09:03:11.418Z</time></trkpt><trkpt lat="44.9817888" lon="9.2084966"><ele>385.0</ele><time>2026-05-02T09:03:13.41Z</time></trkpt><trkpt lat="44.9818523" lon="9.2084908"><ele>382.0</ele><time>2026-05-02T09:03:15.419Z</time></trkpt><trkpt lat="44.981922" lon="9.2084326"><ele>379.0</ele><time>2026-05-02T09:03:18.414Z</time></trkpt><trkpt lat="44.9819719" lon="9.2083641"><ele>376.0</ele><time>2026-05-02T09:03:20.411Z</time></trkpt><trkpt lat="44.9820017" lon="9.2082613"><ele>373.0</ele><time>2026-05-02T09:03:22.414Z</time></trkpt><trkpt lat="44.9820245" lon="9.2081657"><ele>370.0</ele><time>2026-05-02T09:03:24.42Z</time></trkpt><trkpt lat="44.9820409" lon="9.2080676"><ele>367.0</ele><time>2026-05-02T09:03:26.413Z</time></trkpt><trkpt lat="44.9820634" lon="9.2079739"><ele>367.0</ele><time>2026-05-02T09:03:28.421Z</time></trkpt><trkpt lat="44.9820849" lon="9.2078804"><ele>367.0</ele><time>2026-05-02T09:03:30.406Z</time></trkpt><trkpt lat="44.9821035" lon="9.2077918"><ele>367.0</ele><time>2026-05-02T09:03:32.409Z</time></trkpt><trkpt lat="44.982131" lon="9.2076631"><ele>367.0</ele><time>2026-05-02T09:03:35.47Z</time></trkpt><trkpt lat="44.9821821" lon="9.2075514"><ele>367.0</ele><time>2026-05-02T09:03:38.483Z</time></trkpt><trkpt lat="44.9822255" lon="9.2074678"><ele>367.0</ele><time>2026-05-02T09:03:40.425Z</time></trkpt><trkpt lat="44.9822623" lon="9.2073492"><ele>364.25</ele><time>2026-05-02T09:03:42.41Z</time></trkpt><trkpt lat="44.9823094" lon="9.207227"><ele>361.5</ele><time>2026-05-02T09:03:44.414Z</time></trkpt><trkpt lat="44.9823601" lon="9.2070965"><ele>358.75</ele><time>2026-05-02T09:03:46.412Z</time></trkpt><trkpt lat="44.9824326" lon="9.2069623"><ele>356.0</ele><time>2026-05-02T09:03:48.412Z</time></trkpt><trkpt lat="44.982522" lon="9.2068281"><ele>355.99999999999994</ele><time>2026-05-02T09:03:50.487Z</time></trkpt><trkpt lat="44.9825719" lon="9.2067669"><ele>356.0</ele><time>2026-05-02T09:03:51.412Z</time></trkpt><trkpt lat="44.9826197" lon="9.2067051"><ele>356.0</ele><time>2026-05-02T09:03:52.408Z</time></trkpt><trkpt lat="44.9826687" lon="9.2066418"><ele>356.0</ele><time>2026-05-02T09:03:53.412Z</time></trkpt><trkpt lat="44.9827207" lon="9.2065727"><ele>356.0</ele><time>2026-05-02T09:03:54.41Z</time></trkpt><trkpt lat="44.982765" lon="9.2064914"><ele>355.99999999999994</ele><time>2026-05-02T09:03:55.403Z</time></trkpt><trkpt lat="44.982798" lon="9.2064129"><ele>356.0</ele><time>2026-05-02T09:03:56.405Z</time></trkpt><trkpt lat="44.9828456" lon="9.2063405"><ele>357.85714285714283</ele><time>2026-05-02T09:03:57.402Z</time></trkpt><trkpt lat="44.9828828" lon="9.2062554"><ele>359.7142857142857</ele><time>2026-05-02T09:03:58.407Z</time></trkpt><trkpt lat="44.9829101" lon="9.2061689"><ele>361.57142857142856</ele><time>2026-05-02T09:03:59.409Z</time></trkpt><trkpt lat="44.9829427" lon="9.2060822"><ele>363.42857142857144</ele><time>2026-05-02T09:04:00.41Z</time></trkpt><trkpt lat="44.9829783" lon="9.2060028"><ele>365.2857142857143</ele><time>2026-05-02T09:04:01.407Z</time></trkpt><trkpt lat="44.9830238" lon="9.2059226"><ele>367.1428571428571</ele><time>2026-05-02T09:04:02.479Z</time></trkpt><trkpt lat="44.983076" lon="9.2058508"><ele>369.0</ele><time>2026-05-02T09:04:03.407Z</time></trkpt><trkpt lat="44.9831331" lon="9.2057989"><ele>369.0</ele><time>2026-05-02T09:04:04.401Z</time></trkpt><trkpt lat="44.9832028" lon="9.2057542"><ele>369.0</ele><time>2026-05-02T09:04:05.4Z</time></trkpt><trkpt lat="44.9832737" lon="9.2057065"><ele>369.0</ele><time>2026-05-02T09:04:06.406Z</time></trkpt><trkpt lat="44.9833486" lon="9.2056728"><ele>369.0</ele><time>2026-05-02T09:04:07.405Z</time></trkpt><trkpt lat="44.9834319" lon="9.205651"><ele>369.0</ele><time>2026-05-02T09:04:08.422Z</time></trkpt><trkpt lat="44.9835177" lon="9.2056346"><ele>369.0</ele><time>2026-05-02T09:04:09.402Z</time></trkpt><trkpt lat="44.9835954" lon="9.2056283"><ele>368.3333333333333</ele><time>2026-05-02T09:04:10.407Z</time></trkpt><trkpt lat="44.9836768" lon="9.2056376"><ele>367.6666666666667</ele><time>2026-05-02T09:04:11.408Z</time></trkpt><trkpt lat="44.9837586" lon="9.2056579"><ele>367.0</ele><time>2026-05-02T09:04:12.408Z</time></trkpt><trkpt lat="44.9838404" lon="9.2056921"><ele>366.33333333333337</ele><time>2026-05-02T09:04:13.401Z</time></trkpt><trkpt lat="44.9839193" lon="9.205732"><ele>365.6666666666667</ele><time>2026-05-02T09:04:14.407Z</time></trkpt><trkpt lat="44.9839935" lon="9.2057789"><ele>365.0</ele><time>2026-05-02T09:04:15.403Z</time></trkpt><trkpt lat="44.9840652" lon="9.2058246"><ele>363.83333333333337</ele><time>2026-05-02T09:04:16.404Z</time></trkpt><trkpt lat="44.9841375" lon="9.2058732"><ele>362.6666666666667</ele><time>2026-05-02T09:04:17.413Z</time></trkpt><trkpt lat="44.9842091" lon="9.2059215"><ele>361.5</ele><time>2026-05-02T09:04:18.415Z</time></trkpt><trkpt lat="44.9842875" lon="9.2059713"><ele>360.3333333333333</ele><time>2026-05-02T09:04:19.415Z</time></trkpt><trkpt lat="44.9843669" lon="9.2060148"><ele>359.16666666666663</ele><time>2026-05-02T09:04:20.406Z</time></trkpt><trkpt lat="44.9844451" lon="9.2060569"><ele>358.0</ele><time>2026-05-02T09:04:21.403Z</time></trkpt><trkpt lat="44.9845224" lon="9.206104"><ele>356.8333333333333</ele><time>2026-05-02T09:04:22.406Z</time></trkpt><trkpt lat="44.9846019" lon="9.2061575"><ele>355.66666666666663</ele><time>2026-05-02T09:04:23.404Z</time></trkpt><trkpt lat="44.9846809" lon="9.2062013"><ele>354.5</ele><time>2026-05-02T09:04:24.4Z</time></trkpt><trkpt lat="44.9847666" lon="9.206241"><ele>353.3333333333333</ele><time>2026-05-02T09:04:25.409Z</time></trkpt><trkpt lat="44.9848441" lon="9.2062847"><ele>352.1666666666667</ele><time>2026-05-02T09:04:26.418Z</time></trkpt><trkpt lat="44.984923" lon="9.2063369"><ele>351.0</ele><time>2026-05-02T09:04:27.472Z</time></trkpt><trkpt lat="44.9849996" lon="9.2063933"><ele>349.6666666666667</ele><time>2026-05-02T09:04:28.406Z</time></trkpt><trkpt lat="44.9850772" lon="9.2064523"><ele>348.3333333333333</ele><time>2026-05-02T09:04:29.415Z</time></trkpt><trkpt lat="44.9851468" lon="9.2065169"><ele>347.0</ele><time>2026-05-02T09:04:30.415Z</time></trkpt><trkpt lat="44.9852069" lon="9.2065888"><ele>345.66666666666663</ele><time>2026-05-02T09:04:31.407Z</time></trkpt><trkpt lat="44.9852513" lon="9.2066649"><ele>344.3333333333333</ele><time>2026-05-02T09:04:32.407Z</time></trkpt><trkpt lat="44.985286" lon="9.2067464"><ele>343.0</ele><time>2026-05-02T09:04:33.413Z</time></trkpt><trkpt lat="44.9853162" lon="9.2068388"><ele>343.0</ele><time>2026-05-02T09:04:34.406Z</time></trkpt><trkpt lat="44.9853442" lon="9.2069229"><ele>343.0</ele><time>2026-05-02T09:04:35.403Z</time></trkpt><trkpt lat="44.9853718" lon="9.2070099"><ele>343.0</ele><time>2026-05-02T09:04:36.422Z</time></trkpt><trkpt lat="44.9854094" lon="9.2070969"><ele>343.0</ele><time>2026-05-02T09:04:37.413Z</time></trkpt><trkpt lat="44.9854496" lon="9.20719"><ele>343.0</ele><time>2026-05-02T09:04:38.409Z</time></trkpt><trkpt lat="44.9854951" lon="9.2072828"><ele>343.0</ele><time>2026-05-02T09:04:39.48Z</time></trkpt><trkpt lat="44.9855484" lon="9.2073713"><ele>343.0</ele><time>2026-05-02T09:04:40.417Z</time></trkpt><trkpt lat="44.9856082" lon="9.2074568"><ele>342.0</ele><time>2026-05-02T09:04:41.416Z</time></trkpt><trkpt lat="44.9856685" lon="9.2075488"><ele>341.0</ele><time>2026-05-02T09:04:42.416Z</time></trkpt><trkpt lat="44.9857277" lon="9.2076418"><ele>340.0</ele><time>2026-05-02T09:04:43.413Z</time></trkpt><trkpt lat="44.9857949" lon="9.2077386"><ele>339.0</ele><time>2026-05-02T09:04:44.412Z</time></trkpt><trkpt lat="44.9858656" lon="9.207835"><ele>338.0</ele><time>2026-05-02T09:04:45.405Z</time></trkpt><trkpt lat="44.9859382" lon="9.2079304"><ele>335.79999999999995</ele><time>2026-05-02T09:04:46.4Z</time></trkpt><trkpt lat="44.9860041" lon="9.2080272"><ele>333.6</ele><time>2026-05-02T09:04:47.412Z</time></trkpt><trkpt lat="44.9860657" lon="9.208124"><ele>331.4</ele><time>2026-05-02T09:04:48.412Z</time></trkpt><trkpt lat="44.9861348" lon="9.2082216"><ele>329.20000000000005</ele><time>2026-05-02T09:04:49.416Z</time></trkpt><trkpt lat="44.986203" lon="9.2083107"><ele>327.0</ele><time>2026-05-02T09:04:50.402Z</time></trkpt><trkpt lat="44.9862742" lon="9.2083987"><ele>325.8333333333333</ele><time>2026-05-02T09:04:51.411Z</time></trkpt><trkpt lat="44.9863357" lon="9.2084785"><ele>324.6666666666667</ele><time>2026-05-02T09:04:52.403Z</time></trkpt><trkpt lat="44.9863961" lon="9.2085607"><ele>323.5</ele><time>2026-05-02T09:04:53.484Z</time></trkpt><trkpt lat="44.9864468" lon="9.2086358"><ele>322.33333333333337</ele><time>2026-05-02T09:04:54.416Z</time></trkpt><trkpt lat="44.9864875" lon="9.2087104"><ele>321.1666666666667</ele><time>2026-05-02T09:04:55.404Z</time></trkpt><trkpt lat="44.9865423" lon="9.2088524"><ele>320.0</ele><time>2026-05-02T09:04:57.41Z</time></trkpt><trkpt lat="44.9865736" lon="9.2090193"><ele>319.6666666666667</ele><time>2026-05-02T09:04:59.409Z</time></trkpt><trkpt lat="44.9865945" lon="9.2091119"><ele>319.33333333333337</ele><time>2026-05-02T09:05:00.41Z</time></trkpt><trkpt lat="44.9866351" lon="9.2092768"><ele>319.0</ele><time>2026-05-02T09:05:02.412Z</time></trkpt><trkpt lat="44.9866691" lon="9.2093586"><ele>318.6666666666667</ele><time>2026-05-02T09:05:03.419Z</time></trkpt><trkpt lat="44.986709" lon="9.2094345"><ele>318.3333333333333</ele><time>2026-05-02T09:05:04.408Z</time></trkpt><trkpt lat="44.986754" lon="9.2095003"><ele>318.0</ele><time>2026-05-02T09:05:05.409Z</time></trkpt><trkpt lat="44.9868463" lon="9.2095986"><ele>314.2</ele><time>2026-05-02T09:05:07.409Z</time></trkpt><trkpt lat="44.9869519" lon="9.2096714"><ele>310.4</ele><time>2026-05-02T09:05:09.405Z</time></trkpt><trkpt lat="44.9870721" lon="9.2097195"><ele>306.59999999999997</ele><time>2026-05-02T09:05:11.412Z</time></trkpt><trkpt lat="44.9871444" lon="9.2097476"><ele>302.8</ele><time>2026-05-02T09:05:12.414Z</time></trkpt><trkpt lat="44.9872225" lon="9.2097753"><ele>299.0</ele><time>2026-05-02T09:05:13.41Z</time></trkpt><trkpt lat="44.987307" lon="9.2097976"><ele>299.0</ele><time>2026-05-02T09:05:14.412Z</time></trkpt><trkpt lat="44.987398" lon="9.2098181"><ele>299.0</ele><time>2026-05-02T09:05:15.488Z</time></trkpt><trkpt lat="44.9874815" lon="9.2098345"><ele>299.0</ele><time>2026-05-02T09:05:16.411Z</time></trkpt><trkpt lat="44.9875505" lon="9.2098549"><ele>299.0</ele><time>2026-05-02T09:05:17.419Z</time></trkpt><trkpt lat="44.9876492" lon="9.209934"><ele>299.0</ele><time>2026-05-02T09:05:19.415Z</time></trkpt><trkpt lat="44.9877054" lon="9.2099868"><ele>299.0</ele><time>2026-05-02T09:05:20.415Z</time></trkpt><trkpt lat="44.9877615" lon="9.210036"><ele>295.83333333333337</ele><time>2026-05-02T09:05:21.413Z</time></trkpt><trkpt lat="44.9878285" lon="9.2100739"><ele>292.6666666666667</ele><time>2026-05-02T09:05:22.417Z</time></trkpt><trkpt lat="44.9879053" lon="9.2100891"><ele>289.5</ele><time>2026-05-02T09:05:23.403Z</time></trkpt><trkpt lat="44.9879878" lon="9.2100973"><ele>286.3333333333333</ele><time>2026-05-02T09:05:24.413Z</time></trkpt><trkpt lat="44.9880723" lon="9.2101027"><ele>283.16666666666663</ele><time>2026-05-02T09:05:25.41Z</time></trkpt><trkpt lat="44.9881591" lon="9.2100971"><ele>280.0</ele><time>2026-05-02T09:05:26.414Z</time></trkpt><trkpt lat="44.9882482" lon="9.2100806"><ele>280.0</ele><time>2026-05-02T09:05:27.411Z</time></trkpt><trkpt lat="44.9883272" lon="9.2100809"><ele>280.0</ele><time>2026-05-02T09:05:28.411Z</time></trkpt><trkpt lat="44.9884041" lon="9.2100985"><ele>280.0</ele><time>2026-05-02T09:05:29.41Z</time></trkpt><trkpt lat="44.9884734" lon="9.2101365"><ele>280.0</ele><time>2026-05-02T09:05:30.408Z</time></trkpt><trkpt lat="44.9885243" lon="9.2101967"><ele>280.0</ele><time>2026-05-02T09:05:31.403Z</time></trkpt><trkpt lat="44.988566" lon="9.2102686"><ele>280.0</ele><time>2026-05-02T09:05:32.409Z</time></trkpt><trkpt lat="44.9886535" lon="9.2103856"><ele>277.66666666666663</ele><time>2026-05-02T09:05:34.412Z</time></trkpt><trkpt lat="44.9887236" lon="9.2104944"><ele>275.3333333333333</ele><time>2026-05-02T09:05:36.408Z</time></trkpt><trkpt lat="44.9887795" lon="9.2105447"><ele>273.0</ele><time>2026-05-02T09:05:40.415Z</time></trkpt><trkpt lat="44.9888521" lon="9.2106105"><ele>270.6666666666667</ele><time>2026-05-02T09:07:00.486Z</time></trkpt><trkpt lat="44.9889262" lon="9.2106825"><ele>268.33333333333337</ele><time>2026-05-02T09:07:03.406Z</time></trkpt><trkpt lat="44.9889827" lon="9.2107296"><ele>266.0</ele><time>2026-05-02T09:07:05.403Z</time></trkpt><trkpt lat="44.9890631" lon="9.2107931"><ele>266.0</ele><time>2026-05-02T09:07:07.407Z</time></trkpt><trkpt lat="44.9891275" lon="9.2108443"><ele>266.0</ele><time>2026-05-02T09:07:09.413Z</time></trkpt><trkpt lat="44.9891863" lon="9.2108839"><ele>266.0</ele><time>2026-05-02T09:07:11.411Z</time></trkpt><trkpt lat="44.9892665" lon="9.2109427"><ele>266.0</ele><time>2026-05-02T09:07:13.406Z</time></trkpt><trkpt lat="44.9893488" lon="9.2109954"><ele>266.0</ele><time>2026-05-02T09:07:15.408Z</time></trkpt><trkpt lat="44.9894178" lon="9.2110361"><ele>266.0</ele><time>2026-05-02T09:07:17.408Z</time></trkpt><trkpt lat="44.9894838" lon="9.2110574"><ele>264.0</ele><time>2026-05-02T09:07:19.41Z</time></trkpt><trkpt lat="44.9895584" lon="9.2110476"><ele>262.0</ele><time>2026-05-02T09:07:23.413Z</time></trkpt><trkpt lat="44.9896402" lon="9.2110818"><ele>260.0</ele><time>2026-05-02T09:07:26.41Z</time></trkpt><trkpt lat="44.9897201" lon="9.2111375"><ele>258.0</ele><time>2026-05-02T09:07:28.401Z</time></trkpt><trkpt lat="44.9898029" lon="9.2111909"><ele>256.0</ele><time>2026-05-02T09:07:30.415Z</time></trkpt><trkpt lat="44.9898892" lon="9.211219"><ele>254.0</ele><time>2026-05-02T09:07:32.405Z</time></trkpt><trkpt lat="44.9899763" lon="9.2112481"><ele>250.83333333333334</ele><time>2026-05-02T09:07:34.403Z</time></trkpt><trkpt lat="44.9900539" lon="9.2112725"><ele>247.66666666666669</ele><time>2026-05-02T09:07:36.411Z</time></trkpt><trkpt lat="44.9901389" lon="9.2113285"><ele>244.5</ele><time>2026-05-02T09:07:38.4Z</time></trkpt><trkpt lat="44.9902026" lon="9.2113823"><ele>241.33333333333331</ele><time>2026-05-02T09:07:40.404Z</time></trkpt><trkpt lat="44.9902959" lon="9.2114377"><ele>238.16666666666666</ele><time>2026-05-02T09:07:43.407Z</time></trkpt><trkpt lat="44.9903589" lon="9.2114641"><ele>235.0</ele><time>2026-05-02T09:07:45.404Z</time></trkpt><trkpt lat="44.9904263" lon="9.2114651"><ele>234.99999999999997</ele><time>2026-05-02T09:07:47.409Z</time></trkpt><trkpt lat="44.9905055" lon="9.2114702"><ele>235.0</ele><time>2026-05-02T09:07:49.4Z</time></trkpt><trkpt lat="44.9905805" lon="9.2115001"><ele>235.0</ele><time>2026-05-02T09:07:51.405Z</time></trkpt><trkpt lat="44.9906524" lon="9.211562"><ele>235.0</ele><time>2026-05-02T09:07:53.409Z</time></trkpt><trkpt lat="44.9907111" lon="9.2116071"><ele>234.99999999999997</ele><time>2026-05-02T09:07:55.404Z</time></trkpt><trkpt lat="44.9907702" lon="9.2116558"><ele>235.0</ele><time>2026-05-02T09:07:57.405Z</time></trkpt><trkpt lat="44.9908483" lon="9.2117296"><ele>233.33333333333331</ele><time>2026-05-02T09:08:00.412Z</time></trkpt><trkpt lat="44.9909125" lon="9.2117755"><ele>231.66666666666666</ele><time>2026-05-02T09:08:02.408Z</time></trkpt><trkpt lat="44.990992" lon="9.2118262"><ele>230.0</ele><time>2026-05-02T09:08:04.48Z</time></trkpt><trkpt lat="44.9910816" lon="9.2118832"><ele>228.33333333333331</ele><time>2026-05-02T09:08:06.404Z</time></trkpt><trkpt lat="44.9911631" lon="9.2119277"><ele>226.66666666666666</ele><time>2026-05-02T09:08:08.409Z</time></trkpt><trkpt lat="44.9912438" lon="9.2119746"><ele>225.0</ele><time>2026-05-02T09:08:10.409Z</time></trkpt><trkpt lat="44.9913143" lon="9.2120103"><ele>225.0</ele><time>2026-05-02T09:08:12.421Z</time></trkpt><trkpt lat="44.9913811" lon="9.2120562"><ele>225.0</ele><time>2026-05-02T09:08:14.405Z</time></trkpt><trkpt lat="44.9914663" lon="9.2121056"><ele>225.0</ele><time>2026-05-02T09:08:16.411Z</time></trkpt><trkpt lat="44.9915594" lon="9.2121546"><ele>225.0</ele><time>2026-05-02T09:08:18.41Z</time></trkpt><trkpt lat="44.9916473" lon="9.2122027"><ele>225.0</ele><time>2026-05-02T09:08:20.413Z</time></trkpt><trkpt lat="44.9917194" lon="9.2122295"><ele>225.0</ele><time>2026-05-02T09:08:22.401Z</time></trkpt><trkpt lat="44.9917777" lon="9.2122642"><ele>223.0</ele><time>2026-05-02T09:08:24.409Z</time></trkpt><trkpt lat="44.9918744" lon="9.2123191"><ele>221.0</ele><time>2026-05-02T09:08:27.399Z</time></trkpt><trkpt lat="44.9919459" lon="9.2123884"><ele>219.0</ele><time>2026-05-02T09:08:29.406Z</time></trkpt><trkpt lat="44.9920419" lon="9.2123622"><ele>217.0</ele><time>2026-05-02T09:08:31.406Z</time></trkpt><trkpt lat="44.9921244" lon="9.2122394"><ele>215.0</ele><time>2026-05-02T09:08:33.405Z</time></trkpt><trkpt lat="44.992186" lon="9.21211"><ele>214.33333333333334</ele><time>2026-05-02T09:08:35.408Z</time></trkpt><trkpt lat="44.9922562" lon="9.2120273"><ele>213.66666666666669</ele><time>2026-05-02T09:08:37.409Z</time></trkpt><trkpt lat="44.9923739" lon="9.2120245"><ele>213.0</ele><time>2026-05-02T09:08:39.404Z</time></trkpt><trkpt lat="44.9924429" lon="9.2120485"><ele>212.33333333333331</ele><time>2026-05-02T09:08:40.407Z</time></trkpt><trkpt lat="44.9925096" lon="9.2120769"><ele>211.66666666666666</ele><time>2026-05-02T09:08:41.41Z</time></trkpt><trkpt lat="44.99258" lon="9.2121074"><ele>211.0</ele><time>2026-05-02T09:08:42.412Z</time></trkpt><trkpt lat="44.9926541" lon="9.2121267"><ele>209.99999999999997</ele><time>2026-05-02T09:08:43.406Z</time></trkpt><trkpt lat="44.9927328" lon="9.2121383"><ele>209.0</ele><time>2026-05-02T09:08:44.408Z</time></trkpt><trkpt lat="44.9928139" lon="9.2121398"><ele>208.0</ele><time>2026-05-02T09:08:45.407Z</time></trkpt><trkpt lat="44.9928932" lon="9.2121194"><ele>207.0</ele><time>2026-05-02T09:08:46.42Z</time></trkpt><trkpt lat="44.9930152" lon="9.2120872"><ele>205.99999999999997</ele><time>2026-05-02T09:08:48.421Z</time></trkpt><trkpt lat="44.9930833" lon="9.2120557"><ele>205.0</ele><time>2026-05-02T09:08:49.405Z</time></trkpt><trkpt lat="44.9931454" lon="9.212023"><ele>205.0</ele><time>2026-05-02T09:08:50.404Z</time></trkpt><trkpt lat="44.9932487" lon="9.2119812"><ele>205.0</ele><time>2026-05-02T09:08:52.405Z</time></trkpt><trkpt lat="44.9933596" lon="9.2119656"><ele>205.0</ele><time>2026-05-02T09:08:54.408Z</time></trkpt><trkpt lat="44.9934574" lon="9.211963"><ele>205.0</ele><time>2026-05-02T09:08:56.417Z</time></trkpt><trkpt lat="44.993558" lon="9.2119437"><ele>205.0</ele><time>2026-05-02T09:08:58.407Z</time></trkpt><trkpt lat="44.9936709" lon="9.2119147"><ele>202.6</ele><time>2026-05-02T09:09:00.41Z</time></trkpt><trkpt lat="44.9937883" lon="9.2119168"><ele>200.2</ele><time>2026-05-02T09:09:02.407Z</time></trkpt><trkpt lat="44.9939287" lon="9.2119373"><ele>197.8</ele><time>2026-05-02T09:09:04.403Z</time></trkpt><trkpt lat="44.9940099" lon="9.2119561"><ele>195.4</ele><time>2026-05-02T09:09:05.49Z</time></trkpt><trkpt lat="44.9940861" lon="9.2119717"><ele>193.0</ele><time>2026-05-02T09:09:06.407Z</time></trkpt><trkpt lat="44.9941658" lon="9.2119844"><ele>191.49999999999997</ele><time>2026-05-02T09:09:07.415Z</time></trkpt><trkpt lat="44.9942441" lon="9.2120038"><ele>190.0</ele><time>2026-05-02T09:09:08.416Z</time></trkpt><trkpt lat="44.9943238" lon="9.2120251"><ele>188.5</ele><time>2026-05-02T09:09:09.411Z</time></trkpt><trkpt lat="44.9943949" lon="9.2120337"><ele>187.0</ele><time>2026-05-02T09:09:10.42Z</time></trkpt><trkpt lat="44.994463" lon="9.2120416"><ele>185.5</ele><time>2026-05-02T09:09:11.409Z</time></trkpt><trkpt lat="44.9945696" lon="9.2120938"><ele>184.0</ele><time>2026-05-02T09:09:13.416Z</time></trkpt><trkpt lat="44.9946643" lon="9.2121728"><ele>184.0</ele><time>2026-05-02T09:09:15.414Z</time></trkpt><trkpt lat="44.9947193" lon="9.2122324"><ele>184.0</ele><time>2026-05-02T09:09:16.409Z</time></trkpt><trkpt lat="44.9947837" lon="9.2122967"><ele>184.0</ele><time>2026-05-02T09:09:17.401Z</time></trkpt><trkpt lat="44.994845" lon="9.2123848"><ele>184.0</ele><time>2026-05-02T09:09:18.42Z</time></trkpt><trkpt lat="44.9948929" lon="9.212458"><ele>184.0</ele><time>2026-05-02T09:09:19.413Z</time></trkpt><trkpt lat="44.9949852" lon="9.212557"><ele>184.0</ele><time>2026-05-02T09:09:21.414Z</time></trkpt><trkpt lat="44.9950695" lon="9.2126206"><ele>182.75</ele><time>2026-05-02T09:09:23.405Z</time></trkpt><trkpt lat="44.9951245" lon="9.2126873"><ele>181.5</ele><time>2026-05-02T09:09:25.412Z</time></trkpt><trkpt lat="44.9950984" lon="9.2127862"><ele>180.25</ele><time>2026-05-02T09:09:28.407Z</time></trkpt><trkpt lat="44.995022" lon="9.2127904"><ele>179.0</ele><time>2026-05-02T09:09:31.398Z</time></trkpt><trkpt lat="44.9937883" lon="9.2119168"><ele>180.0</ele><time>2026-05-02T09:09:02.407Z</time></trkpt><trkpt lat="44.9939287" lon="9.2119373"><ele>181.0</ele><time>2026-05-02T09:09:04.403Z</time></trkpt><trkpt lat="44.9940099" lon="9.2119561"><ele>182.0</ele><time>2026-05-02T09:09:05.49Z</time></trkpt><trkpt lat="44.9940861" lon="9.2119717"><ele>183.0</ele><time>2026-05-02T09:09:06.407Z</time></trkpt><trkpt lat="44.9941658" lon="9.2119844"><ele>184.0</ele><time>2026-05-02T09:09:07.415Z</time></trkpt><trkpt lat="44.9942441" lon="9.2120038"><ele>184.0</ele><time>2026-05-02T09:09:08.416Z</time></trkpt><trkpt lat="44.9943238" lon="9.2120251"><ele>184.0</ele><time>2026-05-02T09:09:09.411Z</time></trkpt><trkpt lat="44.9943949" lon="9.2120337"><ele>184.0</ele><time>2026-05-02T09:09:10.42Z</time></trkpt><trkpt lat="44.994463" lon="9.2120416"><ele>184.0</ele><time>2026-05-02T09:09:11.409Z</time></trkpt><trkpt lat="44.9945696" lon="9.2120938"><ele>184.0</ele><time>2026-05-02T09:09:13.416Z</time></trkpt><trkpt lat="44.9946643" lon="9.2121728"><ele>184.0</ele><time>2026-05-02T09:09:15.414Z</time></trkpt><trkpt lat="44.9947193" lon="9.2122324"><ele>184.0</ele><time>2026-05-02T09:09:16.409Z</time></trkpt><trkpt lat="44.9947837" lon="9.2122967"><ele>184.0</ele><time>2026-05-02T09:09:17.401Z</time></trkpt><trkpt lat="44.994845" lon="9.2123848"><ele>184.0</ele><time>2026-05-02T09:09:18.42Z</time></trkpt><trkpt lat="44.9948929" lon="9.212458"><ele>184.0</ele><time>2026-05-02T09:09:19.413Z</time></trkpt><trkpt lat="44.9949852" lon="9.212557"><ele>184.0</ele><time>2026-05-02T09:09:21.414Z</time></trkpt><trkpt lat="44.9950695" lon="9.2126206"><ele>184.0</ele><time>2026-05-02T09:09:23.405Z</time></trkpt><trkpt lat="44.9951245" lon="9.2126873"><ele>183.66666666666669</ele><time>2026-05-02T09:09:25.412Z</time></trkpt><trkpt lat="44.9950984" lon="9.2127862"><ele>183.33333333333334</ele><time>2026-05-02T09:09:28.407Z</time></trkpt><trkpt lat="44.995022" lon="9.2127904"><ele>183.0</ele><time>2026-05-02T09:09:31.398Z</time></trkpt><trkpt lat="44.9949364" lon="9.2128023"><ele>182.66666666666666</ele><time>2026-05-02T09:09:35.404Z</time></trkpt><trkpt lat="44.9948529" lon="9.2128288"><ele>182.33333333333331</ele><time>2026-05-02T09:09:38.404Z</time></trkpt><trkpt lat="44.9947733" lon="9.2128729"><ele>182.0</ele><time>2026-05-02T09:09:41.485Z</time></trkpt><trkpt lat="44.9947104" lon="9.212954"><ele>182.0</ele><time>2026-05-02T09:09:44.415Z</time></trkpt><trkpt lat="44.9946667" lon="9.2130653"><ele>182.0</ele><time>2026-05-02T09:09:47.413Z</time></trkpt><trkpt lat="44.9946619" lon="9.2131705"><ele>182.0</ele><time>2026-05-02T09:09:49.408Z</time></trkpt><trkpt lat="44.9946564" lon="9.21326"><ele>182.0</ele><time>2026-05-02T09:09:51.416Z</time></trkpt><trkpt lat="44.9946591" lon="9.2133536"><ele>182.0</ele><time>2026-05-02T09:09:53.409Z</time></trkpt><trkpt lat="44.9946696" lon="9.21346"><ele>182.0</ele><time>2026-05-02T09:09:55.482Z</time></trkpt><trkpt lat="44.994682" lon="9.2135567"><ele>182.0</ele><time>2026-05-02T09:09:57.411Z</time></trkpt><trkpt lat="44.9946954" lon="9.2136561"><ele>182.33333333333331</ele><time>2026-05-02T09:09:59.406Z</time></trkpt><trkpt lat="44.9947112" lon="9.2137644"><ele>182.66666666666666</ele><time>2026-05-02T09:10:01.406Z</time></trkpt><trkpt lat="44.9947233" lon="9.2138586"><ele>183.0</ele><time>2026-05-02T09:10:03.408Z</time></trkpt><trkpt lat="44.9947372" lon="9.2139618"><ele>183.33333333333334</ele><time>2026-05-02T09:10:05.399Z</time></trkpt><trkpt lat="44.9947577" lon="9.2140759"><ele>183.66666666666669</ele><time>2026-05-02T09:10:07.413Z</time></trkpt><trkpt lat="44.9947667" lon="9.2141758"><ele>184.0</ele><time>2026-05-02T09:10:09.407Z</time></trkpt><trkpt lat="44.9947741" lon="9.2142832"><ele>185.0</ele><time>2026-05-02T09:10:11.401Z</time></trkpt><trkpt lat="44.9947877" lon="9.214393"><ele>186.0</ele><time>2026-05-02T09:10:13.405Z</time></trkpt><trkpt lat="44.9948049" lon="9.2145018"><ele>187.0</ele><time>2026-05-02T09:10:15.41Z</time></trkpt><trkpt lat="44.9948207" lon="9.2146059"><ele>188.0</ele><time>2026-05-02T09:10:17.41Z</time></trkpt><trkpt lat="44.9948402" lon="9.2147121"><ele>189.0</ele><time>2026-05-02T09:10:19.416Z</time></trkpt><trkpt lat="44.9948577" lon="9.2148141"><ele>190.0</ele><time>2026-05-02T09:10:21.409Z</time></trkpt><trkpt lat="44.9948743" lon="9.2149174"><ele>191.0</ele><time>2026-05-02T09:10:23.403Z</time></trkpt><trkpt lat="44.9948856" lon="9.2150178"><ele>192.0</ele><time>2026-05-02T09:10:25.415Z</time></trkpt><trkpt lat="44.9948953" lon="9.2151358"><ele>193.0</ele><time>2026-05-02T09:10:27.396Z</time></trkpt><trkpt lat="44.9949132" lon="9.2152413"><ele>194.0</ele><time>2026-05-02T09:10:29.404Z</time></trkpt><trkpt lat="44.9949279" lon="9.2153466"><ele>194.99999999999997</ele><time>2026-05-02T09:10:31.408Z</time></trkpt><trkpt lat="44.994947" lon="9.215449"><ele>196.0</ele><time>2026-05-02T09:10:33.409Z</time></trkpt><trkpt lat="44.9949657" lon="9.2155476"><ele>196.0</ele><time>2026-05-02T09:10:35.491Z</time></trkpt><trkpt lat="44.994983" lon="9.2156451"><ele>196.0</ele><time>2026-05-02T09:10:37.41Z</time></trkpt><trkpt lat="44.9949977" lon="9.2157428"><ele>196.0</ele><time>2026-05-02T09:10:39.398Z</time></trkpt><trkpt lat="44.9950012" lon="9.2158403"><ele>196.0</ele><time>2026-05-02T09:10:41.408Z</time></trkpt><trkpt lat="44.9949885" lon="9.2159454"><ele>196.0</ele><time>2026-05-02T09:10:43.406Z</time></trkpt><trkpt lat="44.9949642" lon="9.2160454"><ele>196.0</ele><time>2026-05-02T09:10:45.407Z</time></trkpt><trkpt lat="44.9949265" lon="9.2161314"><ele>196.0</ele><time>2026-05-02T09:10:47.406Z</time></trkpt><trkpt lat="44.994883" lon="9.2161992"><ele>196.0</ele><time>2026-05-02T09:10:49.412Z</time></trkpt><trkpt lat="44.9948228" lon="9.2162524"><ele>196.0</ele><time>2026-05-02T09:10:51.414Z</time></trkpt><trkpt lat="44.9947567" lon="9.2162881"><ele>196.0</ele><time>2026-05-02T09:10:53.405Z</time></trkpt><trkpt lat="44.9946856" lon="9.2163265"><ele>196.0</ele><time>2026-05-02T09:10:55.4Z</time></trkpt><trkpt lat="44.9946139" lon="9.2163542"><ele>196.0</ele><time>2026-05-02T09:10:57.405Z</time></trkpt><trkpt lat="44.9945482" lon="9.2163692"><ele>196.0</ele><time>2026-05-02T09:10:59.398Z</time></trkpt><trkpt lat="44.9944842" lon="9.2164148"><ele>196.0</ele><time>2026-05-02T09:11:01.405Z</time></trkpt><trkpt lat="44.9949132" lon="9.2152413"><ele>196.0</ele><time>2026-05-02T09:10:29.404Z</time></trkpt><trkpt lat="44.9949279" lon="9.2153466"><ele>196.0</ele><time>2026-05-02T09:10:31.408Z</time></trkpt><trkpt lat="44.994947" lon="9.215449"><ele>196.0</ele><time>2026-05-02T09:10:33.409Z</time></trkpt><trkpt lat="44.9949657" lon="9.2155476"><ele>196.0</ele><time>2026-05-02T09:10:35.491Z</time></trkpt><trkpt lat="44.994983" lon="9.2156451"><ele>196.0</ele><time>2026-05-02T09:10:37.41Z</time></trkpt><trkpt lat="44.9949977" lon="9.2157428"><ele>196.0</ele><time>2026-05-02T09:10:39.398Z</time></trkpt><trkpt lat="44.9950012" lon="9.2158403"><ele>196.0</ele><time>2026-05-02T09:10:41.408Z</time></trkpt><trkpt lat="44.9949885" lon="9.2159454"><ele>197.0</ele><time>2026-05-02T09:10:43.406Z</time></trkpt><trkpt lat="44.9949642" lon="9.2160454"><ele>198.0</ele><time>2026-05-02T09:10:45.407Z</time></trkpt><trkpt lat="44.9949265" lon="9.2161314"><ele>199.0</ele><time>2026-05-02T09:10:47.406Z</time></trkpt><trkpt lat="44.994883" lon="9.2161992"><ele>200.0</ele><time>2026-05-02T09:10:49.412Z</time></trkpt><trkpt lat="44.9948228" lon="9.2162524"><ele>201.0</ele><time>2026-05-02T09:10:51.414Z</time></trkpt><trkpt lat="44.9947567" lon="9.2162881"><ele>202.0</ele><time>2026-05-02T09:10:53.405Z</time></trkpt><trkpt lat="44.9946856" lon="9.2163265"><ele>203.0</ele><time>2026-05-02T09:10:55.4Z</time></trkpt><trkpt lat="44.9946139" lon="9.2163542"><ele>203.0</ele><time>2026-05-02T09:10:57.405Z</time></trkpt><trkpt lat="44.9945482" lon="9.2163692"><ele>203.0</ele><time>2026-05-02T09:10:59.398Z</time></trkpt><trkpt lat="44.9944842" lon="9.2164148"><ele>203.0</ele><time>2026-05-02T09:11:01.405Z</time></trkpt><trkpt lat="44.9944278" lon="9.2164587"><ele>203.0</ele><time>2026-05-02T09:11:03.403Z</time></trkpt><trkpt lat="44.9943731" lon="9.2165466"><ele>203.0</ele><time>2026-05-02T09:11:06.414Z</time></trkpt><trkpt lat="44.9943545" lon="9.2166458"><ele>203.0</ele><time>2026-05-02T09:11:09.402Z</time></trkpt><trkpt lat="44.994357" lon="9.2167435"><ele>203.0</ele><time>2026-05-02T09:11:12.418Z</time></trkpt><trkpt lat="44.9943579" lon="9.2168353"><ele>204.60000000000002</ele><time>2026-05-02T09:11:15.417Z</time></trkpt><trkpt lat="44.9943699" lon="9.2169481"><ele>206.20000000000002</ele><time>2026-05-02T09:11:18.41Z</time></trkpt><trkpt lat="44.9943847" lon="9.2170736"><ele>207.8</ele><time>2026-05-02T09:11:21.402Z</time></trkpt><trkpt lat="44.9943859" lon="9.2172149"><ele>209.4</ele><time>2026-05-02T09:11:24.419Z</time></trkpt><trkpt lat="44.9943848" lon="9.2173502"><ele>211.0</ele><time>2026-05-02T09:11:27.406Z</time></trkpt><trkpt lat="44.9943806" lon="9.2174732"><ele>212.49999999999997</ele><time>2026-05-02T09:11:30.404Z</time></trkpt><trkpt lat="44.9943779" lon="9.2175957"><ele>214.0</ele><time>2026-05-02T09:11:33.415Z</time></trkpt><trkpt lat="44.9943689" lon="9.2177203"><ele>215.5</ele><time>2026-05-02T09:11:36.404Z</time></trkpt><trkpt lat="44.9943599" lon="9.217845"><ele>217.0</ele><time>2026-05-02T09:11:39.406Z</time></trkpt><trkpt lat="44.9943645" lon="9.2179609"><ele>218.49999999999997</ele><time>2026-05-02T09:11:42.409Z</time></trkpt><trkpt lat="44.9943607" lon="9.2180798"><ele>220.0</ele><time>2026-05-02T09:11:45.424Z</time></trkpt><trkpt lat="44.9943671" lon="9.2181883"><ele>221.66666666666666</ele><time>2026-05-02T09:11:48.418Z</time></trkpt><trkpt lat="44.9943797" lon="9.2183091"><ele>223.33333333333331</ele><time>2026-05-02T09:11:51.481Z</time></trkpt><trkpt lat="44.9944055" lon="9.2184244"><ele>225.0</ele><time>2026-05-02T09:11:54.414Z</time></trkpt><trkpt lat="44.9944241" lon="9.2185383"><ele>226.66666666666669</ele><time>2026-05-02T09:11:57.415Z</time></trkpt><trkpt lat="44.994428" lon="9.2186469"><ele>228.33333333333334</ele><time>2026-05-02T09:12:00.409Z</time></trkpt><trkpt lat="44.9944041" lon="9.2187304"><ele>230.0</ele><time>2026-05-02T09:12:02.478Z</time></trkpt><trkpt lat="44.994354" lon="9.218822"><ele>230.00000000000003</ele><time>2026-05-02T09:12:05.413Z</time></trkpt><trkpt lat="44.9942848" lon="9.2189015"><ele>230.0</ele><time>2026-05-02T09:12:08.41Z</time></trkpt><trkpt lat="44.9942514" lon="9.2190144"><ele>230.0</ele><time>2026-05-02T09:12:11.411Z</time></trkpt><trkpt lat="44.9942355" lon="9.2191376"><ele>230.0</ele><time>2026-05-02T09:12:14.403Z</time></trkpt><trkpt lat="44.9942321" lon="9.219229"><ele>230.00000000000003</ele><time>2026-05-02T09:12:16.409Z</time></trkpt><trkpt lat="44.9941932" lon="9.2193201"><ele>230.0</ele><time>2026-05-02T09:12:19.407Z</time></trkpt><trkpt lat="44.9941574" lon="9.2194233"><ele>233.66666666666669</ele><time>2026-05-02T09:12:22.413Z</time></trkpt><trkpt lat="44.9941148" lon="9.2195227"><ele>237.33333333333334</ele><time>2026-05-02T09:12:25.409Z</time></trkpt><trkpt lat="44.9940866" lon="9.2196399"><ele>241.0</ele><time>2026-05-02T09:12:28.467Z</time></trkpt><trkpt lat="44.9940665" lon="9.2197433"><ele>244.66666666666669</ele><time>2026-05-02T09:12:31.404Z</time></trkpt><trkpt lat="44.9940592" lon="9.2198321"><ele>248.33333333333334</ele><time>2026-05-02T09:12:33.41Z</time></trkpt><trkpt lat="44.994051" lon="9.2199518"><ele>252.0</ele><time>2026-05-02T09:12:36.414Z</time></trkpt><trkpt lat="44.994034" lon="9.2200535"><ele>252.5</ele><time>2026-05-02T09:12:38.419Z</time></trkpt><trkpt lat="44.9940072" lon="9.2201759"><ele>253.0</ele><time>2026-05-02T09:12:41.486Z</time></trkpt><trkpt lat="44.9939927" lon="9.2202753"><ele>253.5</ele><time>2026-05-02T09:12:43.48Z</time></trkpt><trkpt lat="44.9939819" lon="9.2203746"><ele>254.0</ele><time>2026-05-02T09:12:45.409Z</time></trkpt><trkpt lat="44.9939498" lon="9.220506"><ele>254.5</ele><time>2026-05-02T09:12:48.41Z</time></trkpt><trkpt lat="44.9939306" lon="9.2206008"><ele>255.0</ele><time>2026-05-02T09:12:50.398Z</time></trkpt><trkpt lat="44.9939037" lon="9.2206973"><ele>255.57142857142858</ele><time>2026-05-02T09:12:52.401Z</time></trkpt><trkpt lat="44.993878" lon="9.2207837"><ele>256.14285714285717</ele><time>2026-05-02T09:12:54.41Z</time></trkpt><trkpt lat="44.9938475" lon="9.2208699"><ele>256.7142857142857</ele><time>2026-05-02T09:12:56.407Z</time></trkpt><trkpt lat="44.9938112" lon="9.2209557"><ele>257.2857142857143</ele><time>2026-05-02T09:12:58.405Z</time></trkpt><trkpt lat="44.9937797" lon="9.2210364"><ele>257.8571428571429</ele><time>2026-05-02T09:13:00.412Z</time></trkpt><trkpt lat="44.9937547" lon="9.221132"><ele>258.42857142857144</ele><time>2026-05-02T09:13:02.399Z</time></trkpt><trkpt lat="44.9937346" lon="9.2212197"><ele>259.0</ele><time>2026-05-02T09:13:04.407Z</time></trkpt><trkpt lat="44.9937199" lon="9.2213493"><ele>259.0</ele><time>2026-05-02T09:13:07.402Z</time></trkpt><trkpt lat="44.9937113" lon="9.2214496"><ele>259.0</ele><time>2026-05-02T09:13:09.405Z</time></trkpt><trkpt lat="44.9937048" lon="9.221541"><ele>259.0</ele><time>2026-05-02T09:13:11.412Z</time></trkpt><trkpt lat="44.9936887" lon="9.2216705"><ele>259.0</ele><time>2026-05-02T09:13:14.398Z</time></trkpt><trkpt lat="44.9936797" lon="9.2217588"><ele>259.0</ele><time>2026-05-02T09:13:16.408Z</time></trkpt><trkpt lat="44.9936642" lon="9.2218485"><ele>259.0</ele><time>2026-05-02T09:13:18.408Z</time></trkpt><trkpt lat="44.9936378" lon="9.2219675"><ele>259.0</ele><time>2026-05-02T09:13:21.404Z</time></trkpt><trkpt lat="44.9936122" lon="9.2220937"><ele>260.3333333333333</ele><time>2026-05-02T09:13:24.413Z</time></trkpt><trkpt lat="44.9935944" lon="9.2221818"><ele>261.66666666666663</ele><time>2026-05-02T09:13:26.41Z</time></trkpt><trkpt lat="44.9935752" lon="9.2222727"><ele>263.0</ele><time>2026-05-02T09:13:28.417Z</time></trkpt><trkpt lat="44.9935381" lon="9.2223947"><ele>264.3333333333333</ele><time>2026-05-02T09:13:31.405Z</time></trkpt><trkpt lat="44.9934869" lon="9.2225084"><ele>265.6666666666667</ele><time>2026-05-02T09:13:34.48Z</time></trkpt><trkpt lat="44.9934549" lon="9.2225863"><ele>267.0</ele><time>2026-05-02T09:13:36.406Z</time></trkpt><trkpt lat="44.9933991" lon="9.2226975"><ele>267.8333333333333</ele><time>2026-05-02T09:13:39.408Z</time></trkpt><trkpt lat="44.9933431" lon="9.2228057"><ele>268.6666666666667</ele><time>2026-05-02T09:13:42.408Z</time></trkpt><trkpt lat="44.9933046" lon="9.2228802"><ele>269.5</ele><time>2026-05-02T09:13:44.411Z</time></trkpt><trkpt lat="44.9932708" lon="9.2229666"><ele>270.33333333333337</ele><time>2026-05-02T09:13:46.414Z</time></trkpt><trkpt lat="44.9932459" lon="9.2230492"><ele>271.1666666666667</ele><time>2026-05-02T09:13:48.409Z</time></trkpt><trkpt lat="44.9932073" lon="9.2231717"><ele>272.0</ele><time>2026-05-02T09:13:51.413Z</time></trkpt><trkpt lat="44.9931937" lon="9.2232726"><ele>273.71428571428567</ele><time>2026-05-02T09:13:53.409Z</time></trkpt><trkpt lat="44.9931835" lon="9.2233683"><ele>275.42857142857144</ele><time>2026-05-02T09:13:55.399Z</time></trkpt><trkpt lat="44.993175" lon="9.2234568"><ele>277.1428571428571</ele><time>2026-05-02T09:13:57.409Z</time></trkpt><trkpt lat="44.9931685" lon="9.223546"><ele>278.85714285714283</ele><time>2026-05-02T09:13:59.408Z</time></trkpt><trkpt lat="44.9931674" lon="9.2236401"><ele>280.57142857142856</ele><time>2026-05-02T09:14:01.41Z</time></trkpt><trkpt lat="44.9931658" lon="9.2237433"><ele>282.2857142857143</ele><time>2026-05-02T09:14:03.404Z</time></trkpt><trkpt lat="44.9931815" lon="9.2238757"><ele>284.0</ele><time>2026-05-02T09:14:06.416Z</time></trkpt><trkpt lat="44.9931992" lon="9.2239773"><ele>284.7142857142857</ele><time>2026-05-02T09:14:08.411Z</time></trkpt><trkpt lat="44.9932158" lon="9.2240732"><ele>285.4285714285714</ele><time>2026-05-02T09:14:10.413Z</time></trkpt><trkpt lat="44.9932283" lon="9.2241732"><ele>286.1428571428571</ele><time>2026-05-02T09:14:12.408Z</time></trkpt><trkpt lat="44.9932419" lon="9.2242656"><ele>286.85714285714283</ele><time>2026-05-02T09:14:14.412Z</time></trkpt><trkpt lat="44.9932495" lon="9.2243616"><ele>287.57142857142856</ele><time>2026-05-02T09:14:16.395Z</time></trkpt><trkpt lat="44.9932581" lon="9.2244636"><ele>288.2857142857143</ele><time>2026-05-02T09:14:18.411Z</time></trkpt><trkpt lat="44.9932666" lon="9.2245539"><ele>289.0</ele><time>2026-05-02T09:14:20.406Z</time></trkpt><trkpt lat="44.9932729" lon="9.2246511"><ele>289.0</ele><time>2026-05-02T09:14:22.403Z</time></trkpt><trkpt lat="44.9932686" lon="9.2247487"><ele>289.0</ele><time>2026-05-02T09:14:24.408Z</time></trkpt><trkpt lat="44.9932581" lon="9.2248423"><ele>289.0</ele><time>2026-05-02T09:14:26.413Z</time></trkpt><trkpt lat="44.9932418" lon="9.2249396"><ele>289.0</ele><time>2026-05-02T09:14:28.408Z</time></trkpt><trkpt lat="44.9932158" lon="9.2250703"><ele>289.0</ele><time>2026-05-02T09:14:31.404Z</time></trkpt><trkpt lat="44.9931955" lon="9.2251626"><ele>289.0</ele><time>2026-05-02T09:14:33.401Z</time></trkpt><trkpt lat="44.9931759" lon="9.2252542"><ele>289.0</ele><time>2026-05-02T09:14:35.407Z</time></trkpt><trkpt lat="44.9931535" lon="9.2253411"><ele>290.0</ele><time>2026-05-02T09:14:37.401Z</time></trkpt><trkpt lat="44.9931395" lon="9.2254313"><ele>291.0</ele><time>2026-05-02T09:14:39.413Z</time></trkpt><trkpt lat="44.993129" lon="9.2255225"><ele>292.0</ele><time>2026-05-02T09:14:41.405Z</time></trkpt><trkpt lat="44.9931181" lon="9.2256126"><ele>293.0</ele><time>2026-05-02T09:14:43.402Z</time></trkpt><trkpt lat="44.9931056" lon="9.2257011"><ele>294.0</ele><time>2026-05-02T09:14:45.409Z</time></trkpt><trkpt lat="44.9930906" lon="9.2257882"><ele>295.0</ele><time>2026-05-02T09:14:47.404Z</time></trkpt><trkpt lat="44.9930717" lon="9.2259223"><ele>296.0</ele><time>2026-05-02T09:14:50.41Z</time></trkpt><trkpt lat="44.9930553" lon="9.2260506"><ele>297.5</ele><time>2026-05-02T09:14:53.407Z</time></trkpt><trkpt lat="44.9930483" lon="9.2261397"><ele>299.0</ele><time>2026-05-02T09:14:55.416Z</time></trkpt><trkpt lat="44.9930313" lon="9.2262654"><ele>300.5</ele><time>2026-05-02T09:14:58.416Z</time></trkpt><trkpt lat="44.9930283" lon="9.2263961"><ele>302.0</ele><time>2026-05-02T09:15:01.412Z</time></trkpt><trkpt lat="44.9930201" lon="9.2264907"><ele>303.5</ele><time>2026-05-02T09:15:03.411Z</time></trkpt><trkpt lat="44.9930265" lon="9.2266153"><ele>305.0</ele><time>2026-05-02T09:15:06.415Z</time></trkpt><trkpt lat="44.9930324" lon="9.2267416"><ele>306.83333333333337</ele><time>2026-05-02T09:15:09.403Z</time></trkpt><trkpt lat="44.9930378" lon="9.2268579"><ele>308.6666666666667</ele><time>2026-05-02T09:15:12.405Z</time></trkpt><trkpt lat="44.9930385" lon="9.2269609"><ele>310.5</ele><time>2026-05-02T09:15:15.414Z</time></trkpt><trkpt lat="44.9930451" lon="9.2270749"><ele>312.3333333333333</ele><time>2026-05-02T09:15:18.489Z</time></trkpt><trkpt lat="44.9930402" lon="9.2271914"><ele>314.16666666666663</ele><time>2026-05-02T09:15:21.417Z</time></trkpt><trkpt lat="44.9930132" lon="9.2272879"><ele>316.0</ele><time>2026-05-02T09:15:24.408Z</time></trkpt><trkpt lat="44.9930027" lon="9.227395"><ele>317.8571428571429</ele><time>2026-05-02T09:15:27.407Z</time></trkpt><trkpt lat="44.9929862" lon="9.2274853"><ele>319.7142857142857</ele><time>2026-05-02T09:15:30.406Z</time></trkpt><trkpt lat="44.9929572" lon="9.2275901"><ele>321.57142857142856</ele><time>2026-05-02T09:15:33.407Z</time></trkpt><trkpt lat="44.9929231" lon="9.2276855"><ele>323.42857142857144</ele><time>2026-05-02T09:15:36.409Z</time></trkpt><trkpt lat="44.9928962" lon="9.2277903"><ele>325.2857142857143</ele><time>2026-05-02T09:15:39.402Z</time></trkpt><trkpt lat="44.9928642" lon="9.2278893"><ele>327.14285714285717</ele><time>2026-05-02T09:15:42.406Z</time></trkpt><trkpt lat="44.9928454" lon="9.2279863"><ele>329.0</ele><time>2026-05-02T09:15:45.407Z</time></trkpt><trkpt lat="44.9928317" lon="9.2280911"><ele>330.6666666666667</ele><time>2026-05-02T09:15:48.409Z</time></trkpt><trkpt lat="44.9928364" lon="9.2282048"><ele>332.33333333333337</ele><time>2026-05-02T09:15:51.4Z</time></trkpt><trkpt lat="44.9928447" lon="9.2283148"><ele>334.0</ele><time>2026-05-02T09:15:54.409Z</time></trkpt><trkpt lat="44.9928414" lon="9.2284331"><ele>335.6666666666667</ele><time>2026-05-02T09:15:57.402Z</time></trkpt><trkpt lat="44.9928468" lon="9.2285492"><ele>337.3333333333333</ele><time>2026-05-02T09:16:00.409Z</time></trkpt><trkpt lat="44.9928566" lon="9.2286775"><ele>339.0</ele><time>2026-05-02T09:16:03.404Z</time></trkpt><trkpt lat="44.9928665" lon="9.2288045"><ele>339.0</ele><time>2026-05-02T09:16:06.405Z</time></trkpt><trkpt lat="44.9928675" lon="9.2289343"><ele>339.0</ele><time>2026-05-02T09:16:09.41Z</time></trkpt><trkpt lat="44.9928791" lon="9.229061"><ele>339.0</ele><time>2026-05-02T09:16:12.405Z</time></trkpt><trkpt lat="44.9928875" lon="9.229189"><ele>339.0</ele><time>2026-05-02T09:16:15.401Z</time></trkpt><trkpt lat="44.9928965" lon="9.2292829"><ele>339.0</ele><time>2026-05-02T09:16:17.413Z</time></trkpt><trkpt lat="44.99291" lon="9.2293709"><ele>339.0</ele><time>2026-05-02T09:16:19.403Z</time></trkpt><trkpt lat="44.9929271" lon="9.2294585"><ele>340.2857142857143</ele><time>2026-05-02T09:16:21.407Z</time></trkpt><trkpt lat="44.9929403" lon="9.2295476"><ele>341.5714285714286</ele><time>2026-05-02T09:16:23.405Z</time></trkpt><trkpt lat="44.992956" lon="9.2296339"><ele>342.8571428571429</ele><time>2026-05-02T09:16:25.41Z</time></trkpt><trkpt lat="44.9929741" lon="9.2297587"><ele>344.1428571428571</ele><time>2026-05-02T09:16:28.41Z</time></trkpt><trkpt lat="44.9929879" lon="9.2298472"><ele>345.42857142857144</ele><time>2026-05-02T09:16:30.405Z</time></trkpt><trkpt lat="44.993007" lon="9.2299574"><ele>346.7142857142857</ele><time>2026-05-02T09:16:33.411Z</time></trkpt><trkpt lat="44.9930131" lon="9.2300467"><ele>348.0</ele><time>2026-05-02T09:16:35.41Z</time></trkpt><trkpt lat="44.9929987" lon="9.2301591"><ele>349.8333333333333</ele><time>2026-05-02T09:16:38.42Z</time></trkpt><trkpt lat="44.9929499" lon="9.2302708"><ele>351.6666666666667</ele><time>2026-05-02T09:16:41.408Z</time></trkpt><trkpt lat="44.9929109" lon="9.2303923"><ele>353.5</ele><time>2026-05-02T09:16:44.419Z</time></trkpt><trkpt lat="44.9928821" lon="9.2305118"><ele>355.33333333333337</ele><time>2026-05-02T09:16:47.406Z</time></trkpt><trkpt lat="44.9928546" lon="9.2305922"><ele>357.1666666666667</ele><time>2026-05-02T09:16:49.396Z</time></trkpt><trkpt lat="44.9928322" lon="9.2306756"><ele>359.0</ele><time>2026-05-02T09:16:51.406Z</time></trkpt><trkpt lat="44.9927956" lon="9.2307866"><ele>360.1666666666667</ele><time>2026-05-02T09:16:54.411Z</time></trkpt><trkpt lat="44.9927705" lon="9.2308713"><ele>361.33333333333337</ele><time>2026-05-02T09:16:56.419Z</time></trkpt><trkpt lat="44.9927527" lon="9.2309917"><ele>362.5</ele><time>2026-05-02T09:16:59.404Z</time></trkpt><trkpt lat="44.9927343" lon="9.2311195"><ele>363.6666666666667</ele><time>2026-05-02T09:17:02.406Z</time></trkpt><trkpt lat="44.9926969" lon="9.2312361"><ele>364.8333333333333</ele><time>2026-05-02T09:17:05.417Z</time></trkpt><trkpt lat="44.9926545" lon="9.2313037"><ele>366.0</ele><time>2026-05-02T09:17:07.411Z</time></trkpt><trkpt lat="44.9925953" lon="9.2313676"><ele>366.0</ele><time>2026-05-02T09:17:10.409Z</time></trkpt><trkpt lat="44.9925142" lon="9.231422"><ele>366.0</ele><time>2026-05-02T09:17:13.401Z</time></trkpt><trkpt lat="44.9924568" lon="9.2314661"><ele>366.0</ele><time>2026-05-02T09:17:15.398Z</time></trkpt><trkpt lat="44.992369" lon="9.2315039"><ele>366.0</ele><time>2026-05-02T09:17:18.408Z</time></trkpt><trkpt lat="44.9922845" lon="9.231518"><ele>366.0</ele><time>2026-05-02T09:17:21.408Z</time></trkpt><trkpt lat="44.9921927" lon="9.231521"><ele>366.0</ele><time>2026-05-02T09:17:24.41Z</time></trkpt><trkpt lat="44.9920985" lon="9.231515"><ele>367.42857142857144</ele><time>2026-05-02T09:17:27.411Z</time></trkpt><trkpt lat="44.9920122" lon="9.2315351"><ele>368.8571428571429</ele><time>2026-05-02T09:17:30.414Z</time></trkpt><trkpt lat="44.9919574" lon="9.2315881"><ele>370.2857142857143</ele><time>2026-05-02T09:17:32.41Z</time></trkpt><trkpt lat="44.9919543" lon="9.2316797"><ele>371.7142857142857</ele><time>2026-05-02T09:17:35.475Z</time></trkpt><trkpt lat="44.9920021" lon="9.2317642"><ele>373.1428571428571</ele><time>2026-05-02T09:17:38.424Z</time></trkpt><trkpt lat="44.9920641" lon="9.2318445"><ele>374.57142857142856</ele><time>2026-05-02T09:17:40.401Z</time></trkpt><trkpt lat="44.9921174" lon="9.2318968"><ele>376.0</ele><time>2026-05-02T09:17:42.409Z</time></trkpt><trkpt lat="44.9921843" lon="9.2319474"><ele>376.0</ele><time>2026-05-02T09:17:45.406Z</time></trkpt><trkpt lat="44.9922467" lon="9.2319644"><ele>376.0</ele><time>2026-05-02T09:17:48.409Z</time></trkpt><trkpt lat="44.9923266" lon="9.2319965"><ele>376.0</ele><time>2026-05-02T09:17:51.412Z</time></trkpt><trkpt lat="44.9923902" lon="9.2320336"><ele>376.0</ele><time>2026-05-02T09:17:53.411Z</time></trkpt><trkpt lat="44.9924702" lon="9.2320742"><ele>376.0</ele><time>2026-05-02T09:17:56.418Z</time></trkpt><trkpt lat="44.9925562" lon="9.2321188"><ele>376.0</ele><time>2026-05-02T09:17:59.398Z</time></trkpt><trkpt lat="44.9926425" lon="9.2321766"><ele>375.57142857142856</ele><time>2026-05-02T09:18:02.408Z</time></trkpt><trkpt lat="44.9927042" lon="9.2322167"><ele>375.1428571428571</ele><time>2026-05-02T09:18:04.407Z</time></trkpt><trkpt lat="44.9927614" lon="9.2322675"><ele>374.7142857142857</ele><time>2026-05-02T09:18:06.421Z</time></trkpt><trkpt lat="44.9928177" lon="9.2323159"><ele>374.2857142857143</ele><time>2026-05-02T09:18:08.4Z</time></trkpt><trkpt lat="44.9928914" lon="9.2323964"><ele>373.8571428571429</ele><time>2026-05-02T09:18:11.405Z</time></trkpt><trkpt lat="44.9929441" lon="9.2324526"><ele>373.42857142857144</ele><time>2026-05-02T09:18:13.407Z</time></trkpt><trkpt lat="44.9929919" lon="9.2325166"><ele>373.0</ele><time>2026-05-02T09:18:15.398Z</time></trkpt><trkpt lat="44.9930349" lon="9.2325826"><ele>374.42857142857144</ele><time>2026-05-02T09:18:17.406Z</time></trkpt><trkpt lat="44.993101" lon="9.232676"><ele>375.8571428571429</ele><time>2026-05-02T09:18:20.397Z</time></trkpt><trkpt lat="44.9931464" lon="9.2327508"><ele>377.2857142857143</ele><time>2026-05-02T09:18:22.406Z</time></trkpt><trkpt lat="44.9931892" lon="9.2328224"><ele>378.7142857142857</ele><time>2026-05-02T09:18:24.407Z</time></trkpt><trkpt lat="44.9932353" lon="9.2328968"><ele>380.1428571428571</ele><time>2026-05-02T09:18:26.407Z</time></trkpt><trkpt lat="44.9932816" lon="9.2329779"><ele>381.57142857142856</ele><time>2026-05-02T09:18:28.406Z</time></trkpt><trkpt lat="44.9933164" lon="9.2330622"><ele>383.0</ele><time>2026-05-02T09:18:30.408Z</time></trkpt><trkpt lat="44.9933544" lon="9.2331393"><ele>383.2857142857143</ele><time>2026-05-02T09:18:32.408Z</time></trkpt><trkpt lat="44.9933989" lon="9.2332138"><ele>383.57142857142856</ele><time>2026-05-02T09:18:34.411Z</time></trkpt><trkpt lat="44.9934528" lon="9.2333224"><ele>383.8571428571429</ele><time>2026-05-02T09:18:37.405Z</time></trkpt><trkpt lat="44.9935039" lon="9.2333916"><ele>384.1428571428571</ele><time>2026-05-02T09:18:39.406Z</time></trkpt><trkpt lat="44.9935492" lon="9.2334711"><ele>384.42857142857144</ele><time>2026-05-02T09:18:41.402Z</time></trkpt><trkpt lat="44.9935911" lon="9.2335482"><ele>384.7142857142857</ele><time>2026-05-02T09:18:43.48Z</time></trkpt><trkpt lat="44.9936369" lon="9.2336257"><ele>385.0</ele><time>2026-05-02T09:18:45.412Z</time></trkpt><trkpt lat="44.9936831" lon="9.2337004"><ele>385.0</ele><time>2026-05-02T09:18:47.405Z</time></trkpt><trkpt lat="44.9937368" lon="9.233777"><ele>385.0</ele><time>2026-05-02T09:18:49.402Z</time></trkpt><trkpt lat="44.9937811" lon="9.233852"><ele>385.0</ele><time>2026-05-02T09:18:51.409Z</time></trkpt><trkpt lat="44.9938294" lon="9.2339158"><ele>385.0</ele><time>2026-05-02T09:18:53.475Z</time></trkpt><trkpt lat="44.9938968" lon="9.2340002"><ele>385.0</ele><time>2026-05-02T09:18:56.402Z</time></trkpt><trkpt lat="44.9939444" lon="9.2340657"><ele>385.0</ele><time>2026-05-02T09:18:58.41Z</time></trkpt><trkpt lat="44.9939921" lon="9.2341239"><ele>385.0</ele><time>2026-05-02T09:19:00.399Z</time></trkpt><trkpt lat="44.9940425" lon="9.2341795"><ele>385.14285714285717</ele><time>2026-05-02T09:19:02.411Z</time></trkpt><trkpt lat="44.994096" lon="9.2342389"><ele>385.2857142857143</ele><time>2026-05-02T09:19:04.406Z</time></trkpt><trkpt lat="44.9941477" lon="9.2342929"><ele>385.42857142857144</ele><time>2026-05-02T09:19:06.406Z</time></trkpt><trkpt lat="44.9942233" lon="9.2343572"><ele>385.57142857142856</ele><time>2026-05-02T09:19:09.411Z</time></trkpt><trkpt lat="44.9942823" lon="9.2343948"><ele>385.7142857142857</ele><time>2026-05-02T09:19:11.398Z</time></trkpt><trkpt lat="44.9943607" lon="9.2344368"><ele>385.8571428571429</ele><time>2026-05-02T09:19:14.405Z</time></trkpt><trkpt lat="44.9944207" lon="9.234498"><ele>386.0</ele><time>2026-05-02T09:20:49.409Z</time></trkpt><trkpt lat="44.9945068" lon="9.2345313"><ele>385.99999999999994</ele><time>2026-05-02T09:20:53.4Z</time></trkpt><trkpt lat="44.9945815" lon="9.2345927"><ele>386.0</ele><time>2026-05-02T09:20:56.423Z</time></trkpt><trkpt lat="44.9946326" lon="9.2347026"><ele>386.0</ele><time>2026-05-02T09:20:59.402Z</time></trkpt><trkpt lat="44.9946662" lon="9.2347887"><ele>386.0</ele><time>2026-05-02T09:21:01.403Z</time></trkpt><trkpt lat="44.9946899" lon="9.2348958"><ele>385.99999999999994</ele><time>2026-05-02T09:21:03.414Z</time></trkpt><trkpt lat="44.9947155" lon="9.2350367"><ele>386.0</ele><time>2026-05-02T09:21:05.417Z</time></trkpt><trkpt lat="44.994744" lon="9.2352094"><ele>386.3333333333333</ele><time>2026-05-02T09:21:07.409Z</time></trkpt><trkpt lat="44.9947614" lon="9.2353122"><ele>386.66666666666663</ele><time>2026-05-02T09:21:08.408Z</time></trkpt><trkpt lat="44.9947782" lon="9.2354257"><ele>387.0</ele><time>2026-05-02T09:21:09.403Z</time></trkpt><trkpt lat="44.9947929" lon="9.2355392"><ele>387.33333333333337</ele><time>2026-05-02T09:21:10.407Z</time></trkpt><trkpt lat="44.9948059" lon="9.2356616"><ele>387.6666666666667</ele><time>2026-05-02T09:21:11.406Z</time></trkpt><trkpt lat="44.9948212" lon="9.2357869"><ele>388.0</ele><time>2026-05-02T09:21:12.409Z</time></trkpt><trkpt lat="44.9948365" lon="9.2359198"><ele>388.00000000000006</ele><time>2026-05-02T09:21:13.4Z</time></trkpt><trkpt lat="44.9948503" lon="9.2360409"><ele>388.0</ele><time>2026-05-02T09:21:14.42Z</time></trkpt><trkpt lat="44.9948646" lon="9.2361633"><ele>388.0</ele><time>2026-05-02T09:21:15.406Z</time></trkpt><trkpt lat="44.9948823" lon="9.2362906"><ele>388.0</ele><time>2026-05-02T09:21:16.407Z</time></trkpt><trkpt lat="44.9948907" lon="9.2364126"><ele>388.00000000000006</ele><time>2026-05-02T09:21:17.405Z</time></trkpt><trkpt lat="44.9949053" lon="9.236527"><ele>388.0</ele><time>2026-05-02T09:21:18.402Z</time></trkpt><trkpt lat="44.9949111" lon="9.2366315"><ele>388.0</ele><time>2026-05-02T09:21:19.399Z</time></trkpt><trkpt lat="44.9949074" lon="9.2367363"><ele>388.0</ele><time>2026-05-02T09:21:20.419Z</time></trkpt><trkpt lat="44.9948977" lon="9.2368387"><ele>388.0</ele><time>2026-05-02T09:21:21.415Z</time></trkpt><trkpt lat="44.9948894" lon="9.2369395"><ele>388.0</ele><time>2026-05-02T09:21:22.408Z</time></trkpt><trkpt lat="44.9948935" lon="9.2370414"><ele>388.0</ele><time>2026-05-02T09:21:23.414Z</time></trkpt><trkpt lat="44.9949093" lon="9.2371314"><ele>388.0</ele><time>2026-05-02T09:21:24.405Z</time></trkpt><trkpt lat="44.9949349" lon="9.2372196"><ele>388.0</ele><time>2026-05-02T09:21:25.404Z</time></trkpt><trkpt lat="44.994963" lon="9.237311"><ele>387.83333333333337</ele><time>2026-05-02T09:21:26.399Z</time></trkpt><trkpt lat="44.9949945" lon="9.2374528"><ele>387.6666666666667</ele><time>2026-05-02T09:21:28.495Z</time></trkpt><trkpt lat="44.9950202" lon="9.2375647"><ele>387.5</ele><time>2026-05-02T09:21:30.418Z</time></trkpt><trkpt lat="44.9950426" lon="9.2376769"><ele>387.33333333333337</ele><time>2026-05-02T09:21:32.409Z</time></trkpt><trkpt lat="44.9950504" lon="9.2377927"><ele>387.1666666666667</ele><time>2026-05-02T09:21:34.406Z</time></trkpt><trkpt lat="44.9950529" lon="9.2379144"><ele>387.0</ele><time>2026-05-02T09:21:36.408Z</time></trkpt><trkpt lat="44.9950371" lon="9.2380498"><ele>386.6666666666667</ele><time>2026-05-02T09:21:38.413Z</time></trkpt><trkpt lat="44.9950104" lon="9.2381964"><ele>386.33333333333337</ele><time>2026-05-02T09:21:40.415Z</time></trkpt><trkpt lat="44.9949705" lon="9.2383595"><ele>386.0</ele><time>2026-05-02T09:21:42.405Z</time></trkpt><trkpt lat="44.9949414" lon="9.238446"><ele>385.6666666666667</ele><time>2026-05-02T09:21:43.479Z</time></trkpt><trkpt lat="44.994907" lon="9.2385387"><ele>385.33333333333337</ele><time>2026-05-02T09:21:44.398Z</time></trkpt><trkpt lat="44.9948691" lon="9.2386298"><ele>385.0</ele><time>2026-05-02T09:21:46.069Z</time></trkpt><trkpt lat="44.9948274" lon="9.2387249"><ele>385.00000000000006</ele><time>2026-05-02T09:21:47.06Z</time></trkpt><trkpt lat="44.9947822" lon="9.2388235"><ele>385.0</ele><time>2026-05-02T09:21:48.068Z</time></trkpt><trkpt lat="44.9947364" lon="9.2389146"><ele>385.0</ele><time>2026-05-02T09:21:49.061Z</time></trkpt><trkpt lat="44.9946948" lon="9.2390141"><ele>385.0</ele><time>2026-05-02T09:21:50.063Z</time></trkpt><trkpt lat="44.9946547" lon="9.2391132"><ele>385.00000000000006</ele><time>2026-05-02T09:21:51.067Z</time></trkpt><trkpt lat="44.9946196" lon="9.2392096"><ele>385.0</ele><time>2026-05-02T09:21:52.056Z</time></trkpt><trkpt lat="44.9945849" lon="9.2393116"><ele>383.33333333333337</ele><time>2026-05-02T09:21:53.145Z</time></trkpt><trkpt lat="44.9945492" lon="9.2394078"><ele>381.6666666666667</ele><time>2026-05-02T09:21:54.061Z</time></trkpt><trkpt lat="44.9945217" lon="9.239517"><ele>380.0</ele><time>2026-05-02T09:21:55.15Z</time></trkpt><trkpt lat="44.9944944" lon="9.2396267"><ele>378.33333333333337</ele><time>2026-05-02T09:21:56.057Z</time></trkpt><trkpt lat="44.9944788" lon="9.2397254"><ele>376.6666666666667</ele><time>2026-05-02T09:21:57.065Z</time></trkpt><trkpt lat="44.9944765" lon="9.2398278"><ele>375.0</ele><time>2026-05-02T09:21:58.072Z</time></trkpt><trkpt lat="44.9944871" lon="9.2399982"><ele>373.4</ele><time>2026-05-02T09:22:00.062Z</time></trkpt><trkpt lat="44.994491" lon="9.2401651"><ele>371.8</ele><time>2026-05-02T09:22:02.057Z</time></trkpt><trkpt lat="44.9944978" lon="9.2403057"><ele>370.20000000000005</ele><time>2026-05-02T09:22:04.075Z</time></trkpt><trkpt lat="44.9945198" lon="9.2404333"><ele>368.6</ele><time>2026-05-02T09:22:06.122Z</time></trkpt><trkpt lat="44.9945254" lon="9.2405603"><ele>367.0</ele><time>2026-05-02T09:22:08.053Z</time></trkpt><trkpt lat="44.9945495" lon="9.2406915"><ele>366.66666666666663</ele><time>2026-05-02T09:22:10.067Z</time></trkpt><trkpt lat="44.9945843" lon="9.2408391"><ele>366.3333333333333</ele><time>2026-05-02T09:22:12.061Z</time></trkpt><trkpt lat="44.9946144" lon="9.2409198"><ele>366.0</ele><time>2026-05-02T09:22:13.069Z</time></trkpt><trkpt lat="44.994677" lon="9.2410753"><ele>365.6666666666667</ele><time>2026-05-02T09:22:15.074Z</time></trkpt><trkpt lat="44.9947184" lon="9.2411515"><ele>365.33333333333337</ele><time>2026-05-02T09:22:16.053Z</time></trkpt><trkpt lat="44.9947594" lon="9.2412239"><ele>365.0</ele><time>2026-05-02T09:22:17.069Z</time></trkpt><trkpt lat="44.9948336" lon="9.2413657"><ele>365.00000000000006</ele><time>2026-05-02T09:22:19.064Z</time></trkpt><trkpt lat="44.9948634" lon="9.2414525"><ele>365.0</ele><time>2026-05-02T09:22:20.073Z</time></trkpt><trkpt lat="44.9948876" lon="9.2415419"><ele>365.0</ele><time>2026-05-02T09:22:21.052Z</time></trkpt><trkpt lat="44.9949048" lon="9.2416295"><ele>365.0</ele><time>2026-05-02T09:22:22.067Z</time></trkpt><trkpt lat="44.9949085" lon="9.241727"><ele>365.0</ele><time>2026-05-02T09:22:23.068Z</time></trkpt><trkpt lat="44.9949155" lon="9.2418252"><ele>365.00000000000006</ele><time>2026-05-02T09:22:24.059Z</time></trkpt><trkpt lat="44.994931" lon="9.2419169"><ele>365.0</ele><time>2026-05-02T09:22:25.068Z</time></trkpt><trkpt lat="44.9949742" lon="9.2420889"><ele>361.33333333333337</ele><time>2026-05-02T09:22:27.058Z</time></trkpt><trkpt lat="44.9950064" lon="9.242169"><ele>357.6666666666667</ele><time>2026-05-02T09:22:28.068Z</time></trkpt><trkpt lat="44.9950691" lon="9.2423264"><ele>354.0</ele><time>2026-05-02T09:22:30.06Z</time></trkpt><trkpt lat="44.9951004" lon="9.2424134"><ele>350.3333333333333</ele><time>2026-05-02T09:22:31.057Z</time></trkpt><trkpt lat="44.9951358" lon="9.2424982"><ele>346.66666666666663</ele><time>2026-05-02T09:22:32.064Z</time></trkpt><trkpt lat="44.9951783" lon="9.2425816"><ele>343.0</ele><time>2026-05-02T09:22:33.067Z</time></trkpt><trkpt lat="44.9952157" lon="9.2426691"><ele>343.0</ele><time>2026-05-02T09:22:34.062Z</time></trkpt><trkpt lat="44.9952579" lon="9.2427555"><ele>343.0</ele><time>2026-05-02T09:22:35.056Z</time></trkpt><trkpt lat="44.9952988" lon="9.2428435"><ele>343.0</ele><time>2026-05-02T09:22:36.07Z</time></trkpt><trkpt lat="44.9953405" lon="9.2429341"><ele>343.0</ele><time>2026-05-02T09:22:37.07Z</time></trkpt><trkpt lat="44.9953825" lon="9.2430302"><ele>343.0</ele><time>2026-05-02T09:22:38.059Z</time></trkpt><trkpt lat="44.9954247" lon="9.2431134"><ele>343.0</ele><time>2026-05-02T09:22:39.065Z</time></trkpt><trkpt lat="44.9955131" lon="9.2432499"><ele>344.59999999999997</ele><time>2026-05-02T09:22:41.065Z</time></trkpt><trkpt lat="44.9956055" lon="9.2433327"><ele>346.2</ele><time>2026-05-02T09:22:43.064Z</time></trkpt><trkpt lat="44.9956836" lon="9.2433515"><ele>347.8</ele><time>2026-05-02T09:22:45.065Z</time></trkpt><trkpt lat="44.9957663" lon="9.2433797"><ele>349.4</ele><time>2026-05-02T09:22:47.065Z</time></trkpt><trkpt lat="44.9958606" lon="9.2434249"><ele>351.0</ele><time>2026-05-02T09:22:49.065Z</time></trkpt><trkpt lat="44.995944" lon="9.2435062"><ele>347.4</ele><time>2026-05-02T09:22:51.058Z</time></trkpt><trkpt lat="44.996026" lon="9.243659"><ele>343.8</ele><time>2026-05-02T09:22:53.071Z</time></trkpt><trkpt lat="44.9960705" lon="9.2437442"><ele>340.2</ele><time>2026-05-02T09:22:54.065Z</time></trkpt><trkpt lat="44.9961251" lon="9.2438421"><ele>336.59999999999997</ele><time>2026-05-02T09:22:55.069Z</time></trkpt><trkpt lat="44.9961802" lon="9.2439386"><ele>333.0</ele><time>2026-05-02T09:22:56.059Z</time></trkpt><trkpt lat="44.9962315" lon="9.2440338"><ele>333.0</ele><time>2026-05-02T09:22:57.066Z</time></trkpt><trkpt lat="44.996287" lon="9.2441287"><ele>333.0</ele><time>2026-05-02T09:22:58.055Z</time></trkpt><trkpt lat="44.9963374" lon="9.2442223"><ele>333.0</ele><time>2026-05-02T09:22:59.063Z</time></trkpt><trkpt lat="44.9963899" lon="9.2443226"><ele>333.0</ele><time>2026-05-02T09:23:00.068Z</time></trkpt><trkpt lat="44.9964364" lon="9.2444163"><ele>333.0</ele><time>2026-05-02T09:23:01.069Z</time></trkpt><trkpt lat="44.9964813" lon="9.2445106"><ele>333.0</ele><time>2026-05-02T09:23:02.064Z</time></trkpt><trkpt lat="44.9965257" lon="9.2446068"><ele>333.0</ele><time>2026-05-02T09:23:03.06Z</time></trkpt><trkpt lat="44.9965635" lon="9.2446971"><ele>333.0</ele><time>2026-05-02T09:23:04.061Z</time></trkpt><trkpt lat="44.996597" lon="9.2447884"><ele>333.0</ele><time>2026-05-02T09:23:05.065Z</time></trkpt><trkpt lat="44.9966278" lon="9.2448695"><ele>333.0</ele><time>2026-05-02T09:23:06.07Z</time></trkpt><trkpt lat="44.9966691" lon="9.2449439"><ele>333.0</ele><time>2026-05-02T09:23:07.068Z</time></trkpt><trkpt lat="44.9967167" lon="9.2450082"><ele>333.0</ele><time>2026-05-02T09:23:08.06Z</time></trkpt><trkpt lat="44.9967857" lon="9.2451197"><ele>332.2</ele><time>2026-05-02T09:23:10.054Z</time></trkpt><trkpt lat="44.9968297" lon="9.2452262"><ele>331.4</ele><time>2026-05-02T09:23:12.05Z</time></trkpt><trkpt lat="44.9968706" lon="9.2453261"><ele>330.59999999999997</ele><time>2026-05-02T09:23:14.056Z</time></trkpt><trkpt lat="44.9968955" lon="9.2454649"><ele>329.79999999999995</ele><time>2026-05-02T09:23:16.059Z</time></trkpt><trkpt lat="44.9969065" lon="9.2456054"><ele>329.0</ele><time>2026-05-02T09:23:18.051Z</time></trkpt><trkpt lat="44.996924" lon="9.2457269"><ele>329.0</ele><time>2026-05-02T09:23:20.057Z</time></trkpt><trkpt lat="44.9969431" lon="9.2458742"><ele>329.0</ele><time>2026-05-02T09:23:22.058Z</time></trkpt><trkpt lat="44.9969599" lon="9.246033"><ele>329.0</ele><time>2026-05-02T09:23:24.051Z</time></trkpt><trkpt lat="44.9969837" lon="9.2461895"><ele>329.0</ele><time>2026-05-02T09:23:26.063Z</time></trkpt><trkpt lat="44.9970079" lon="9.2463392"><ele>329.0</ele><time>2026-05-02T09:23:28.061Z</time></trkpt><trkpt lat="44.9970286" lon="9.2464598"><ele>328.4</ele><time>2026-05-02T09:23:30.055Z</time></trkpt><trkpt lat="44.9970857" lon="9.246558"><ele>327.79999999999995</ele><time>2026-05-02T09:23:32.154Z</time></trkpt><trkpt lat="44.9971694" lon="9.2465966"><ele>327.20000000000005</ele><time>2026-05-02T09:23:34.058Z</time></trkpt><trkpt lat="44.9972633" lon="9.2466221"><ele>326.6</ele><time>2026-05-02T09:23:36.056Z</time></trkpt><trkpt lat="44.9973784" lon="9.2466407"><ele>326.0</ele><time>2026-05-02T09:23:38.064Z</time></trkpt><trkpt lat="44.9974476" lon="9.2466505"><ele>324.7142857142857</ele><time>2026-05-02T09:23:39.06Z</time></trkpt><trkpt lat="44.997511" lon="9.2466588"><ele>323.4285714285714</ele><time>2026-05-02T09:23:40.06Z</time></trkpt><trkpt lat="44.9975775" lon="9.2466633"><ele>322.1428571428571</ele><time>2026-05-02T09:23:41.065Z</time></trkpt><trkpt lat="44.9976454" lon="9.2466724"><ele>320.8571428571429</ele><time>2026-05-02T09:23:42.054Z</time></trkpt><trkpt lat="44.9977136" lon="9.2466878"><ele>319.57142857142856</ele><time>2026-05-02T09:23:43.076Z</time></trkpt><trkpt lat="44.9977884" lon="9.246708"><ele>318.2857142857143</ele><time>2026-05-02T09:23:44.057Z</time></trkpt><trkpt lat="44.9978668" lon="9.2467329"><ele>317.0</ele><time>2026-05-02T09:23:45.066Z</time></trkpt><trkpt lat="44.9979438" lon="9.2467657"><ele>317.0</ele><time>2026-05-02T09:23:46.058Z</time></trkpt><trkpt lat="44.9980257" lon="9.2467958"><ele>317.0</ele><time>2026-05-02T09:23:47.126Z</time></trkpt><trkpt lat="44.9981092" lon="9.2468349"><ele>317.0</ele><time>2026-05-02T09:23:48.055Z</time></trkpt><trkpt lat="44.9981928" lon="9.2468675"><ele>317.0</ele><time>2026-05-02T09:23:49.065Z</time></trkpt><trkpt lat="44.9982825" lon="9.2468997"><ele>317.0</ele><time>2026-05-02T09:23:50.058Z</time></trkpt><trkpt lat="44.9983787" lon="9.2469229"><ele>317.0</ele><time>2026-05-02T09:23:51.05Z</time></trkpt><trkpt lat="44.9984641" lon="9.2469551"><ele>314.83333333333337</ele><time>2026-05-02T09:23:52.06Z</time></trkpt><trkpt lat="44.9985482" lon="9.2469986"><ele>312.6666666666667</ele><time>2026-05-02T09:23:53.06Z</time></trkpt><trkpt lat="44.9986288" lon="9.2470444"><ele>310.5</ele><time>2026-05-02T09:23:54.062Z</time></trkpt><trkpt lat="44.9987006" lon="9.2470811"><ele>308.3333333333333</ele><time>2026-05-02T09:23:55.06Z</time></trkpt><trkpt lat="44.99878" lon="9.2471089"><ele>306.16666666666663</ele><time>2026-05-02T09:23:56.058Z</time></trkpt><trkpt lat="44.9988622" lon="9.2471123"><ele>304.0</ele><time>2026-05-02T09:23:57.054Z</time></trkpt><trkpt lat="44.9989508" lon="9.2471157"><ele>304.0</ele><time>2026-05-02T09:23:58.055Z</time></trkpt><trkpt lat="44.999042" lon="9.2471316"><ele>304.0</ele><time>2026-05-02T09:23:59.067Z</time></trkpt><trkpt lat="44.9991349" lon="9.2471413"><ele>304.0</ele><time>2026-05-02T09:24:00.127Z</time></trkpt><trkpt lat="44.9992262" lon="9.2471494"><ele>304.0</ele><time>2026-05-02T09:24:01.057Z</time></trkpt><trkpt lat="44.9993195" lon="9.2471503"><ele>304.0</ele><time>2026-05-02T09:24:02.065Z</time></trkpt><trkpt lat="44.9994134" lon="9.2471483"><ele>303.3333333333333</ele><time>2026-05-02T09:24:03.065Z</time></trkpt><trkpt lat="44.9995043" lon="9.2471437"><ele>302.66666666666663</ele><time>2026-05-02T09:24:04.055Z</time></trkpt><trkpt lat="44.9995949" lon="9.2471393"><ele>302.0</ele><time>2026-05-02T09:24:05.063Z</time></trkpt><trkpt lat="44.9996862" lon="9.2471373"><ele>301.3333333333333</ele><time>2026-05-02T09:24:06.065Z</time></trkpt><trkpt lat="44.9997642" lon="9.2471322"><ele>300.6666666666667</ele><time>2026-05-02T09:24:07.052Z</time></trkpt><trkpt lat="44.9998353" lon="9.2471329"><ele>300.0</ele><time>2026-05-02T09:24:08.056Z</time></trkpt><trkpt lat="44.9998987" lon="9.2471363"><ele>300.0</ele><time>2026-05-02T09:24:09.053Z</time></trkpt><trkpt lat="45.0000091" lon="9.2471548"><ele>300.0</ele><time>2026-05-02T09:24:11.138Z</time></trkpt><trkpt lat="45.0000993" lon="9.2471859"><ele>300.0</ele><time>2026-05-02T09:24:13.065Z</time></trkpt><trkpt lat="45.0001714" lon="9.2472547"><ele>300.0</ele><time>2026-05-02T09:24:15.062Z</time></trkpt><trkpt lat="45.0001982" lon="9.2473427"><ele>300.0</ele><time>2026-05-02T09:24:17.057Z</time></trkpt><trkpt lat="45.0002037" lon="9.2474488"><ele>300.0</ele><time>2026-05-02T09:24:19.066Z</time></trkpt><trkpt lat="45.0002181" lon="9.2475679"><ele>299.8</ele><time>2026-05-02T09:24:21.061Z</time></trkpt><trkpt lat="45.0002285" lon="9.2477119"><ele>299.6</ele><time>2026-05-02T09:24:23.073Z</time></trkpt><trkpt lat="45.0002414" lon="9.2478747"><ele>299.4</ele><time>2026-05-02T09:24:25.062Z</time></trkpt><trkpt lat="45.0002817" lon="9.2480179"><ele>299.2</ele><time>2026-05-02T09:24:27.067Z</time></trkpt><trkpt lat="45.00035" lon="9.2481421"><ele>299.0</ele><time>2026-05-02T09:24:29.057Z</time></trkpt><trkpt lat="45.0004535" lon="9.2481735"><ele>299.0</ele><time>2026-05-02T09:24:31.058Z</time></trkpt><trkpt lat="45.0005163" lon="9.2481827"><ele>299.0</ele><time>2026-05-02T09:24:32.054Z</time></trkpt><trkpt lat="45.0006375" lon="9.2482"><ele>299.0</ele><time>2026-05-02T09:24:34.063Z</time></trkpt><trkpt lat="45.0007006" lon="9.2481997"><ele>299.0</ele><time>2026-05-02T09:24:35.07Z</time></trkpt><trkpt lat="45.0008188" lon="9.2481713"><ele>299.0</ele><time>2026-05-02T09:24:37.071Z</time></trkpt><trkpt lat="45.0009286" lon="9.248106"><ele>300.0</ele><time>2026-05-02T09:24:39.066Z</time></trkpt><trkpt lat="45.0010201" lon="9.2480369"><ele>301.0</ele><time>2026-05-02T09:24:41.068Z</time></trkpt><trkpt lat="45.0011134" lon="9.2479626"><ele>302.0</ele><time>2026-05-02T09:24:43.067Z</time></trkpt><trkpt lat="45.0012281" lon="9.2478717"><ele>303.0</ele><time>2026-05-02T09:24:45.06Z</time></trkpt><trkpt lat="45.0012924" lon="9.2478285"><ele>304.0</ele><time>2026-05-02T09:24:46.12Z</time></trkpt><trkpt lat="45.0013593" lon="9.2477834"><ele>304.0</ele><time>2026-05-02T09:24:47.07Z</time></trkpt><trkpt lat="45.0014272" lon="9.247743"><ele>304.0</ele><time>2026-05-02T09:24:48.062Z</time></trkpt><trkpt lat="45.0015042" lon="9.2476926"><ele>304.0</ele><time>2026-05-02T09:24:49.065Z</time></trkpt><trkpt lat="45.0015843" lon="9.2476405"><ele>304.0</ele><time>2026-05-02T09:24:50.062Z</time></trkpt><trkpt lat="45.0016623" lon="9.2475888"><ele>304.0</ele><time>2026-05-02T09:24:51.057Z</time></trkpt><trkpt lat="45.0017376" lon="9.2475387"><ele>304.0</ele><time>2026-05-02T09:24:52.065Z</time></trkpt><trkpt lat="45.001805" lon="9.2474967"><ele>301.3333333333333</ele><time>2026-05-02T09:24:53.071Z</time></trkpt><trkpt lat="45.0018658" lon="9.2474705"><ele>298.66666666666663</ele><time>2026-05-02T09:24:54.067Z</time></trkpt><trkpt lat="45.0019854" lon="9.2474671"><ele>296.0</ele><time>2026-05-02T09:24:56.056Z</time></trkpt><trkpt lat="45.0020505" lon="9.2474938"><ele>293.3333333333333</ele><time>2026-05-02T09:24:57.066Z</time></trkpt><trkpt lat="45.0021174" lon="9.2475317"><ele>290.6666666666667</ele><time>2026-05-02T09:24:58.138Z</time></trkpt><trkpt lat="45.0021806" lon="9.2475591"><ele>288.0</ele><time>2026-05-02T09:24:59.064Z</time></trkpt><trkpt lat="45.0022474" lon="9.2475842"><ele>288.0</ele><time>2026-05-02T09:25:00.069Z</time></trkpt><trkpt lat="45.0023152" lon="9.2476174"><ele>288.0</ele><time>2026-05-02T09:25:01.068Z</time></trkpt><trkpt lat="45.0023879" lon="9.2476399"><ele>288.0</ele><time>2026-05-02T09:25:02.066Z</time></trkpt><trkpt lat="45.0024646" lon="9.2476695"><ele>288.0</ele><time>2026-05-02T09:25:03.065Z</time></trkpt><trkpt lat="45.0025385" lon="9.2477065"><ele>288.0</ele><time>2026-05-02T09:25:04.067Z</time></trkpt><trkpt lat="45.0026188" lon="9.247742"><ele>288.0</ele><time>2026-05-02T09:25:05.059Z</time></trkpt><trkpt lat="45.0026957" lon="9.2477764"><ele>286.3333333333333</ele><time>2026-05-02T09:25:06.062Z</time></trkpt><trkpt lat="45.002783" lon="9.2478022"><ele>284.6666666666667</ele><time>2026-05-02T09:25:07.061Z</time></trkpt><trkpt lat="45.002868" lon="9.2478213"><ele>283.0</ele><time>2026-05-02T09:25:08.059Z</time></trkpt><trkpt lat="45.0029475" lon="9.2478248"><ele>281.33333333333337</ele><time>2026-05-02T09:25:09.064Z</time></trkpt><trkpt lat="45.0030318" lon="9.2478051"><ele>279.6666666666667</ele><time>2026-05-02T09:25:10.066Z</time></trkpt><trkpt lat="45.0031131" lon="9.2477813"><ele>278.0</ele><time>2026-05-02T09:25:11.062Z</time></trkpt><trkpt lat="45.0031917" lon="9.2477518"><ele>278.0</ele><time>2026-05-02T09:25:12.073Z</time></trkpt><trkpt lat="45.0032608" lon="9.2477244"><ele>278.0</ele><time>2026-05-02T09:25:13.062Z</time></trkpt><trkpt lat="45.0033318" lon="9.2477205"><ele>278.0</ele><time>2026-05-02T09:25:14.058Z</time></trkpt><trkpt lat="45.0034376" lon="9.2478022"><ele>278.0</ele><time>2026-05-02T09:25:16.069Z</time></trkpt><trkpt lat="45.0034633" lon="9.2479379"><ele>278.0</ele><time>2026-05-02T09:25:18.078Z</time></trkpt><trkpt lat="45.0034153" lon="9.2480996"><ele>277.6666666666667</ele><time>2026-05-02T09:25:20.057Z</time></trkpt><trkpt lat="45.0033746" lon="9.2481757"><ele>277.33333333333337</ele><time>2026-05-02T09:25:21.064Z</time></trkpt><trkpt lat="45.0033298" lon="9.2482472"><ele>277.0</ele><time>2026-05-02T09:25:22.061Z</time></trkpt><trkpt lat="45.0032865" lon="9.2483134"><ele>276.6666666666667</ele><time>2026-05-02T09:25:23.057Z</time></trkpt><trkpt lat="45.0032121" lon="9.2484372"><ele>276.3333333333333</ele><time>2026-05-02T09:25:25.06Z</time></trkpt><trkpt lat="45.003163" lon="9.2485698"><ele>276.0</ele><time>2026-05-02T09:25:27.069Z</time></trkpt><trkpt lat="45.0031889" lon="9.2486925"><ele>276.0</ele><time>2026-05-02T09:25:29.055Z</time></trkpt><trkpt lat="45.0032949" lon="9.2487433"><ele>276.0</ele><time>2026-05-02T09:25:31.058Z</time></trkpt><trkpt lat="45.0034202" lon="9.2487006"><ele>276.0</ele><time>2026-05-02T09:25:33.056Z</time></trkpt><trkpt lat="45.0034846" lon="9.2486674"><ele>276.0</ele><time>2026-05-02T09:25:34.055Z</time></trkpt><trkpt lat="45.003552" lon="9.2486437"><ele>276.0</ele><time>2026-05-02T09:25:35.068Z</time></trkpt><trkpt lat="45.0036855" lon="9.2485985"><ele>274.57142857142856</ele><time>2026-05-02T09:25:37.062Z</time></trkpt><trkpt lat="45.0037509" lon="9.2485729"><ele>273.14285714285717</ele><time>2026-05-02T09:25:38.063Z</time></trkpt><trkpt lat="45.0038203" lon="9.2485487"><ele>271.7142857142857</ele><time>2026-05-02T09:25:39.055Z</time></trkpt><trkpt lat="45.0038926" lon="9.2485175"><ele>270.2857142857143</ele><time>2026-05-02T09:25:40.061Z</time></trkpt><trkpt lat="45.0039625" lon="9.2484726"><ele>268.8571428571429</ele><time>2026-05-02T09:25:41.068Z</time></trkpt><trkpt lat="45.0040166" lon="9.2484192"><ele>267.42857142857144</ele><time>2026-05-02T09:25:42.064Z</time></trkpt><trkpt lat="45.0040607" lon="9.2483507"><ele>266.0</ele><time>2026-05-02T09:25:43.061Z</time></trkpt><trkpt lat="45.0040939" lon="9.248271"><ele>265.6</ele><time>2026-05-02T09:25:44.059Z</time></trkpt><trkpt lat="45.0041584" lon="9.2481132"><ele>265.20000000000005</ele><time>2026-05-02T09:25:46.057Z</time></trkpt><trkpt lat="45.0042463" lon="9.2480803"><ele>264.79999999999995</ele><time>2026-05-02T09:25:48.06Z</time></trkpt><trkpt lat="45.0042982" lon="9.2481773"><ele>264.4</ele><time>2026-05-02T09:25:50.051Z</time></trkpt><trkpt lat="45.0043049" lon="9.2483563"><ele>264.0</ele><time>2026-05-02T09:25:52.052Z</time></trkpt><trkpt lat="45.004298" lon="9.2485312"><ele>262.3333333333333</ele><time>2026-05-02T09:25:54.054Z</time></trkpt><trkpt lat="45.0042912" lon="9.2487174"><ele>260.6666666666667</ele><time>2026-05-02T09:25:56.061Z</time></trkpt><trkpt lat="45.0042926" lon="9.2488205"><ele>259.0</ele><time>2026-05-02T09:25:57.055Z</time></trkpt><trkpt lat="45.0042954" lon="9.2489252"><ele>257.33333333333337</ele><time>2026-05-02T09:25:58.063Z</time></trkpt><trkpt lat="45.004306" lon="9.2490314"><ele>255.66666666666669</ele><time>2026-05-02T09:25:59.064Z</time></trkpt><trkpt lat="45.0043276" lon="9.2491415"><ele>254.0</ele><time>2026-05-02T09:26:00.06Z</time></trkpt><trkpt lat="45.0043604" lon="9.249238"><ele>252.6</ele><time>2026-05-02T09:26:01.059Z</time></trkpt><trkpt lat="45.0043983" lon="9.2493208"><ele>251.2</ele><time>2026-05-02T09:26:02.065Z</time></trkpt><trkpt lat="45.0044806" lon="9.2494343"><ele>249.79999999999998</ele><time>2026-05-02T09:26:04.064Z</time></trkpt><trkpt lat="45.0045649" lon="9.2495328"><ele>248.39999999999998</ele><time>2026-05-02T09:26:06.057Z</time></trkpt><trkpt lat="45.0046537" lon="9.2496251"><ele>247.0</ele><time>2026-05-02T09:26:08.058Z</time></trkpt><trkpt lat="45.0047615" lon="9.249678"><ele>246.99999999999997</ele><time>2026-05-02T09:26:10.057Z</time></trkpt><trkpt lat="45.004835" lon="9.2497016"><ele>247.0</ele><time>2026-05-02T09:26:11.058Z</time></trkpt><trkpt lat="45.0049116" lon="9.2497241"><ele>247.0</ele><time>2026-05-02T09:26:12.131Z</time></trkpt><trkpt lat="45.0049927" lon="9.2497471"><ele>247.0</ele><time>2026-05-02T09:26:13.064Z</time></trkpt><trkpt lat="45.0050766" lon="9.2497715"><ele>246.99999999999997</ele><time>2026-05-02T09:26:14.147Z</time></trkpt><trkpt lat="45.0051643" lon="9.2498016"><ele>247.0</ele><time>2026-05-02T09:26:15.058Z</time></trkpt><trkpt lat="45.0052547" lon="9.249828"><ele>244.2</ele><time>2026-05-02T09:26:16.064Z</time></trkpt><trkpt lat="45.0053544" lon="9.2498632"><ele>241.39999999999998</ele><time>2026-05-02T09:26:17.063Z</time></trkpt><trkpt lat="45.0054538" lon="9.2498933"><ele>238.60000000000002</ele><time>2026-05-02T09:26:18.059Z</time></trkpt><trkpt lat="45.005552" lon="9.2499262"><ele>235.8</ele><time>2026-05-02T09:26:19.074Z</time></trkpt><trkpt lat="45.0056445" lon="9.2499559"><ele>233.0</ele><time>2026-05-02T09:26:20.07Z</time></trkpt><trkpt lat="45.0057317" lon="9.2499786"><ele>233.00000000000003</ele><time>2026-05-02T09:26:21.066Z</time></trkpt><trkpt lat="45.0058167" lon="9.249998"><ele>233.0</ele><time>2026-05-02T09:26:22.073Z</time></trkpt><trkpt lat="45.005899" lon="9.2500166"><ele>233.0</ele><time>2026-05-02T09:26:23.062Z</time></trkpt><trkpt lat="45.0059737" lon="9.2500405"><ele>233.0</ele><time>2026-05-02T09:26:24.155Z</time></trkpt><trkpt lat="45.0060403" lon="9.2500806"><ele>233.00000000000003</ele><time>2026-05-02T09:26:25.06Z</time></trkpt><trkpt lat="45.0061268" lon="9.250196"><ele>233.0</ele><time>2026-05-02T09:26:27.062Z</time></trkpt><trkpt lat="45.0061514" lon="9.2503387"><ele>231.66666666666669</ele><time>2026-05-02T09:26:29.064Z</time></trkpt><trkpt lat="45.0061315" lon="9.2504263"><ele>230.33333333333334</ele><time>2026-05-02T09:26:30.068Z</time></trkpt><trkpt lat="45.0060967" lon="9.2505084"><ele>229.0</ele><time>2026-05-02T09:26:31.056Z</time></trkpt><trkpt lat="45.005998" lon="9.2506018"><ele>227.66666666666669</ele><time>2026-05-02T09:26:33.061Z</time></trkpt><trkpt lat="45.0059344" lon="9.250607"><ele>226.33333333333334</ele><time>2026-05-02T09:26:34.059Z</time></trkpt><trkpt lat="45.0058695" lon="9.250613"><ele>225.0</ele><time>2026-05-02T09:26:35.048Z</time></trkpt><trkpt lat="45.0057575" lon="9.250672"><ele>225.0</ele><time>2026-05-02T09:26:37.073Z</time></trkpt><trkpt lat="45.0056971" lon="9.2507732"><ele>225.0</ele><time>2026-05-02T09:26:39.068Z</time></trkpt><trkpt lat="45.0057112" lon="9.2509211"><ele>225.0</ele><time>2026-05-02T09:26:41.066Z</time></trkpt><trkpt lat="45.0057997" lon="9.2509953"><ele>225.0</ele><time>2026-05-02T09:26:43.047Z</time></trkpt><trkpt lat="45.0059284" lon="9.2510494"><ele>225.0</ele><time>2026-05-02T09:26:45.062Z</time></trkpt><trkpt lat="45.0060031" lon="9.2510829"><ele>223.83333333333334</ele><time>2026-05-02T09:26:46.062Z</time></trkpt><trkpt lat="45.006078" lon="9.2511153"><ele>222.66666666666669</ele><time>2026-05-02T09:26:47.059Z</time></trkpt><trkpt lat="45.0061511" lon="9.2511461"><ele>221.5</ele><time>2026-05-02T09:26:48.065Z</time></trkpt><trkpt lat="45.0062275" lon="9.2511775"><ele>220.33333333333334</ele><time>2026-05-02T09:26:49.064Z</time></trkpt><trkpt lat="45.0063127" lon="9.2512065"><ele>219.16666666666669</ele><time>2026-05-02T09:26:50.062Z</time></trkpt><trkpt lat="45.0063917" lon="9.251234"><ele>218.0</ele><time>2026-05-02T09:26:51.063Z</time></trkpt><trkpt lat="45.0064723" lon="9.2512639"><ele>218.00000000000003</ele><time>2026-05-02T09:26:52.066Z</time></trkpt><trkpt lat="45.0065527" lon="9.2512881"><ele>218.0</ele><time>2026-05-02T09:26:53.072Z</time></trkpt><trkpt lat="45.0066266" lon="9.2512928"><ele>218.0</ele><time>2026-05-02T09:26:54.064Z</time></trkpt><trkpt lat="45.0067351" lon="9.2512102"><ele>218.0</ele><time>2026-05-02T09:26:56.058Z</time></trkpt><trkpt lat="45.0067781" lon="9.2511223"><ele>218.00000000000003</ele><time>2026-05-02T09:26:57.058Z</time></trkpt><trkpt lat="45.0068171" lon="9.2510312"><ele>218.0</ele><time>2026-05-02T09:26:58.058Z</time></trkpt><trkpt lat="45.0068548" lon="9.2509369"><ele>216.16666666666669</ele><time>2026-05-02T09:26:59.059Z</time></trkpt><trkpt lat="45.0068964" lon="9.2508439"><ele>214.33333333333334</ele><time>2026-05-02T09:27:00.068Z</time></trkpt><trkpt lat="45.006938" lon="9.2507407"><ele>212.5</ele><time>2026-05-02T09:27:01.06Z</time></trkpt><trkpt lat="45.0069812" lon="9.2506302"><ele>210.66666666666669</ele><time>2026-05-02T09:27:02.076Z</time></trkpt><trkpt lat="45.0070234" lon="9.2505286"><ele>208.83333333333334</ele><time>2026-05-02T09:27:03.061Z</time></trkpt><trkpt lat="45.0070573" lon="9.2504399"><ele>207.0</ele><time>2026-05-02T09:27:04.064Z</time></trkpt><trkpt lat="45.0071394" lon="9.2503321"><ele>207.0</ele><time>2026-05-02T09:27:06.056Z</time></trkpt><trkpt lat="45.0072421" lon="9.2503291"><ele>207.0</ele><time>2026-05-02T09:27:08.066Z</time></trkpt><trkpt lat="45.0073259" lon="9.2504448"><ele>207.0</ele><time>2026-05-02T09:27:10.06Z</time></trkpt><trkpt lat="45.0073525" lon="9.2505283"><ele>207.0</ele><time>2026-05-02T09:27:11.052Z</time></trkpt><trkpt lat="45.0073661" lon="9.2506176"><ele>207.0</ele><time>2026-05-02T09:27:12.06Z</time></trkpt><trkpt lat="45.0073656" lon="9.2507127"><ele>207.0</ele><time>2026-05-02T09:27:13.065Z</time></trkpt><trkpt lat="45.0073682" lon="9.2508191"><ele>207.0</ele><time>2026-05-02T09:27:14.129Z</time></trkpt><trkpt lat="45.0073631" lon="9.2509206"><ele>207.0</ele><time>2026-05-02T09:27:15.059Z</time></trkpt><trkpt lat="45.0073574" lon="9.2510248"><ele>207.0</ele><time>2026-05-02T09:27:16.06Z</time></trkpt><trkpt lat="45.0073526" lon="9.2511385"><ele>207.0</ele><time>2026-05-02T09:27:17.065Z</time></trkpt><trkpt lat="45.0073482" lon="9.251253"><ele>207.0</ele><time>2026-05-02T09:27:18.06Z</time></trkpt><trkpt lat="45.0073486" lon="9.2513625"><ele>207.0</ele><time>2026-05-02T09:27:19.067Z</time></trkpt><trkpt lat="45.0073443" lon="9.2514753"><ele>205.85714285714286</ele><time>2026-05-02T09:27:20.058Z</time></trkpt><trkpt lat="45.0073392" lon="9.2515909"><ele>204.71428571428572</ele><time>2026-05-02T09:27:21.07Z</time></trkpt><trkpt lat="45.0073329" lon="9.2516938"><ele>203.57142857142856</ele><time>2026-05-02T09:27:22.057Z</time></trkpt><trkpt lat="45.0073298" lon="9.2518032"><ele>202.42857142857144</ele><time>2026-05-02T09:27:23.06Z</time></trkpt><trkpt lat="45.0073277" lon="9.2519025"><ele>201.28571428571428</ele><time>2026-05-02T09:27:24.058Z</time></trkpt><trkpt lat="45.0073281" lon="9.2520025"><ele>200.14285714285714</ele><time>2026-05-02T09:27:25.057Z</time></trkpt><trkpt lat="45.0073344" lon="9.2520911"><ele>199.0</ele><time>2026-05-02T09:27:26.06Z</time></trkpt><trkpt lat="45.0073822" lon="9.2522046"><ele>198.99999999999997</ele><time>2026-05-02T09:27:28.06Z</time></trkpt><trkpt lat="45.0074918" lon="9.2522283"><ele>199.0</ele><time>2026-05-02T09:27:30.068Z</time></trkpt><trkpt lat="45.0075896" lon="9.2521422"><ele>199.0</ele><time>2026-05-02T09:27:32.066Z</time></trkpt><trkpt lat="45.0076311" lon="9.2520627"><ele>199.0</ele><time>2026-05-02T09:27:33.065Z</time></trkpt><trkpt lat="45.0076739" lon="9.2519858"><ele>198.99999999999997</ele><time>2026-05-02T09:27:34.056Z</time></trkpt><trkpt lat="45.0077261" lon="9.2519085"><ele>199.0</ele><time>2026-05-02T09:27:35.067Z</time></trkpt><trkpt lat="45.0077755" lon="9.2518355"><ele>197.33333333333331</ele><time>2026-05-02T09:27:36.065Z</time></trkpt><trkpt lat="45.0078301" lon="9.2517503"><ele>195.66666666666666</ele><time>2026-05-02T09:27:37.154Z</time></trkpt><trkpt lat="45.0078849" lon="9.2516616"><ele>194.0</ele><time>2026-05-02T09:27:38.055Z</time></trkpt><trkpt lat="45.007939" lon="9.2515788"><ele>192.33333333333331</ele><time>2026-05-02T09:27:39.138Z</time></trkpt><trkpt lat="45.00799" lon="9.2514955"><ele>190.66666666666666</ele><time>2026-05-02T09:27:40.063Z</time></trkpt><trkpt lat="45.0080402" lon="9.2514202"><ele>189.0</ele><time>2026-05-02T09:27:41.056Z</time></trkpt><trkpt lat="45.0080883" lon="9.2513329"><ele>189.0</ele><time>2026-05-02T09:27:42.053Z</time></trkpt><trkpt lat="45.0081257" lon="9.2512592"><ele>189.0</ele><time>2026-05-02T09:27:43.068Z</time></trkpt><trkpt lat="45.008173" lon="9.2511961"><ele>189.0</ele><time>2026-05-02T09:27:44.067Z</time></trkpt><trkpt lat="45.0082651" lon="9.251105"><ele>189.0</ele><time>2026-05-02T09:27:46.055Z</time></trkpt><trkpt lat="45.0083666" lon="9.2511137"><ele>189.0</ele><time>2026-05-02T09:27:48.064Z</time></trkpt><trkpt lat="45.0084514" lon="9.2512371"><ele>186.5</ele><time>2026-05-02T09:27:50.06Z</time></trkpt><trkpt lat="45.0084571" lon="9.2514109"><ele>184.0</ele><time>2026-05-02T09:27:52.061Z</time></trkpt><trkpt lat="45.0084486" lon="9.2515048"><ele>181.5</ele><time>2026-05-02T09:27:53.065Z</time></trkpt><trkpt lat="45.0084469" lon="9.2516"><ele>179.0</ele><time>2026-05-02T09:27:54.067Z</time></trkpt><trkpt lat="45.0084381" lon="9.2516954"><ele>176.5</ele><time>2026-05-02T09:27:55.059Z</time></trkpt><trkpt lat="45.008428" lon="9.2518007"><ele>174.0</ele><time>2026-05-02T09:27:56.065Z</time></trkpt><trkpt lat="45.0084162" lon="9.251905"><ele>173.16666666666666</ele><time>2026-05-02T09:27:57.062Z</time></trkpt><trkpt lat="45.0084008" lon="9.2520173"><ele>172.33333333333334</ele><time>2026-05-02T09:27:58.054Z</time></trkpt><trkpt lat="45.008388" lon="9.2521255"><ele>171.5</ele><time>2026-05-02T09:27:59.063Z</time></trkpt><trkpt lat="45.0083758" lon="9.2522461"><ele>170.66666666666669</ele><time>2026-05-02T09:28:00.065Z</time></trkpt><trkpt lat="45.008369" lon="9.2523733"><ele>169.83333333333334</ele><time>2026-05-02T09:28:01.062Z</time></trkpt><trkpt lat="45.0083577" lon="9.2525058"><ele>169.0</ele><time>2026-05-02T09:28:02.061Z</time></trkpt><trkpt lat="45.0083437" lon="9.2526431"><ele>168.16666666666669</ele><time>2026-05-02T09:28:03.077Z</time></trkpt><trkpt lat="45.0083303" lon="9.252769"><ele>167.33333333333334</ele><time>2026-05-02T09:28:04.066Z</time></trkpt><trkpt lat="45.0083223" lon="9.2528797"><ele>166.5</ele><time>2026-05-02T09:28:05.058Z</time></trkpt><trkpt lat="45.0083242" lon="9.2529853"><ele>165.66666666666666</ele><time>2026-05-02T09:28:06.066Z</time></trkpt><trkpt lat="45.0083646" lon="9.2531341"><ele>164.83333333333331</ele><time>2026-05-02T09:28:08.051Z</time></trkpt><trkpt lat="45.0084201" lon="9.253178"><ele>164.0</ele><time>2026-05-02T09:28:09.062Z</time></trkpt><trkpt lat="45.0084846" lon="9.2532128"><ele>164.0</ele><time>2026-05-02T09:28:10.062Z</time></trkpt><trkpt lat="45.0085498" lon="9.2532132"><ele>164.0</ele><time>2026-05-02T09:28:11.061Z</time></trkpt><trkpt lat="45.0086342" lon="9.2531789"><ele>164.0</ele><time>2026-05-02T09:28:12.062Z</time></trkpt><trkpt lat="45.0087137" lon="9.2531458"><ele>164.0</ele><time>2026-05-02T09:28:13.053Z</time></trkpt><trkpt lat="45.0087857" lon="9.2531159"><ele>164.0</ele><time>2026-05-02T09:28:14.059Z</time></trkpt><trkpt lat="45.0088607" lon="9.2530814"><ele>164.0</ele><time>2026-05-02T09:28:15.063Z</time></trkpt><trkpt lat="45.0089313" lon="9.2530438"><ele>164.0</ele><time>2026-05-02T09:28:16.052Z</time></trkpt><trkpt lat="45.0090004" lon="9.2530123"><ele>164.0</ele><time>2026-05-02T09:28:17.069Z</time></trkpt><trkpt lat="45.0090705" lon="9.2529803"><ele>164.0</ele><time>2026-05-02T09:28:18.064Z</time></trkpt><trkpt lat="45.0091447" lon="9.2529491"><ele>164.0</ele><time>2026-05-02T09:28:19.053Z</time></trkpt><trkpt lat="45.0092222" lon="9.2529085"><ele>164.0</ele><time>2026-05-02T09:28:20.048Z</time></trkpt><trkpt lat="45.0093047" lon="9.2528679"><ele>164.0</ele><time>2026-05-02T09:28:21.057Z</time></trkpt><trkpt lat="45.0093841" lon="9.2528358"><ele>161.6</ele><time>2026-05-02T09:28:22.061Z</time></trkpt><trkpt lat="45.0094721" lon="9.2527975"><ele>159.2</ele><time>2026-05-02T09:28:23.062Z</time></trkpt><trkpt lat="45.0095603" lon="9.2527511"><ele>156.79999999999998</ele><time>2026-05-02T09:28:24.059Z</time></trkpt><trkpt lat="45.0096528" lon="9.2527067"><ele>154.39999999999998</ele><time>2026-05-02T09:28:25.058Z</time></trkpt><trkpt lat="45.0097451" lon="9.2526647"><ele>152.0</ele><time>2026-05-02T09:28:26.065Z</time></trkpt><trkpt lat="45.0098356" lon="9.2526261"><ele>152.0</ele><time>2026-05-02T09:28:27.059Z</time></trkpt><trkpt lat="45.0099323" lon="9.2525847"><ele>152.0</ele><time>2026-05-02T09:28:28.058Z</time></trkpt><trkpt lat="45.0100242" lon="9.252543"><ele>152.0</ele><time>2026-05-02T09:28:29.058Z</time></trkpt><trkpt lat="45.0101104" lon="9.2525017"><ele>152.0</ele><time>2026-05-02T09:28:30.065Z</time></trkpt><trkpt lat="45.0102014" lon="9.2524579"><ele>152.0</ele><time>2026-05-02T09:28:31.056Z</time></trkpt><trkpt lat="45.0102923" lon="9.2524094"><ele>150.0</ele><time>2026-05-02T09:28:32.064Z</time></trkpt><trkpt lat="45.0103915" lon="9.252362"><ele>148.0</ele><time>2026-05-02T09:28:33.056Z</time></trkpt><trkpt lat="45.0104861" lon="9.25232"><ele>146.0</ele><time>2026-05-02T09:28:34.051Z</time></trkpt><trkpt lat="45.010581" lon="9.2522771"><ele>144.0</ele><time>2026-05-02T09:28:35.06Z</time></trkpt><trkpt lat="45.0106744" lon="9.2522354"><ele>142.0</ele><time>2026-05-02T09:28:36.059Z</time></trkpt><trkpt lat="45.0107536" lon="9.2522022"><ele>142.0</ele><time>2026-05-02T09:28:37.056Z</time></trkpt><trkpt lat="45.0108192" lon="9.2521738"><ele>142.0</ele><time>2026-05-02T09:28:38.059Z</time></trkpt><trkpt lat="45.0108824" lon="9.2521512"><ele>142.0</ele><time>2026-05-02T09:28:39.06Z</time></trkpt><trkpt lat="45.0109803" lon="9.2521009"><ele>142.0</ele><time>2026-05-02T09:28:41.071Z</time></trkpt><trkpt lat="45.0110755" lon="9.2520697"><ele>142.0</ele><time>2026-05-02T09:28:43.06Z</time></trkpt><trkpt lat="45.0111576" lon="9.2520791"><ele>142.0</ele><time>2026-05-02T09:28:45.057Z</time></trkpt><trkpt lat="45.0112042" lon="9.252156"><ele>141.28571428571428</ele><time>2026-05-02T09:28:47.051Z</time></trkpt><trkpt lat="45.01123" lon="9.2522467"><ele>140.57142857142856</ele><time>2026-05-02T09:28:49.06Z</time></trkpt><trkpt lat="45.0112728" lon="9.2523389"><ele>139.85714285714286</ele><time>2026-05-02T09:28:52.069Z</time></trkpt><trkpt lat="45.0113522" lon="9.2523148"><ele>139.14285714285714</ele><time>2026-05-02T09:28:57.053Z</time></trkpt><trkpt lat="45.0114207" lon="9.2522683"><ele>138.42857142857144</ele><time>2026-05-02T09:29:00.058Z</time></trkpt><trkpt lat="45.0114739" lon="9.2522185"><ele>137.71428571428572</ele><time>2026-05-02T09:29:02.057Z</time></trkpt><trkpt lat="45.0115314" lon="9.2521627"><ele>137.0</ele><time>2026-05-02T09:29:04.131Z</time></trkpt><trkpt lat="45.0116083" lon="9.2521006"><ele>137.0</ele><time>2026-05-02T09:29:07.059Z</time></trkpt><trkpt lat="45.0116632" lon="9.2520364"><ele>136.0</ele><time>2026-05-02T09:29:10.068Z</time></trkpt><trkpt lat="45.011669" lon="9.2519425"><ele>136.0</ele><time>2026-05-02T09:29:14.062Z</time></trkpt><trkpt lat="45.0117018" lon="9.2518492"><ele>136.0</ele><time>2026-05-02T09:29:18.127Z</time></trkpt><trkpt lat="45.0117736" lon="9.2518047"><ele>136.0</ele><time>2026-05-02T09:29:22.061Z</time></trkpt><trkpt lat="45.0118431" lon="9.2518063"><ele>136.0</ele><time>2026-05-02T09:29:26.057Z</time></trkpt><trkpt lat="45.0119112" lon="9.2517936"><ele>136.0</ele><time>2026-05-02T09:29:31.057Z</time></trkpt></trkseg></trk></gpx>